<?xml version="1.0"?>
<gpx creator="GPS Visualizer http://www.gpsvisualizer.com/" version="1.1" xmlns="http://www.topografix.com/GPX/1/1" xmlns:xsi="http://www.w3.org/2001/XMLSchema-instance" xsi:schemaLocation="http://www.topografix.com/GPX/1/1 http://www.topografix.com/GPX/1/1/gpx.xsd">
<trk>
  <name>2015-12-31-01</name>
  <trkseg>
    <trkpt lat="48.496561" lon="2.634906">
      <ele>92.281</ele>
      <time>2015-12-31T08:57:10Z</time>
    </trkpt>
    <trkpt lat="48.496454" lon="2.635007">
      <ele>92.234</ele>
      <time>2015-12-31T08:57:13Z</time>
    </trkpt>
    <trkpt lat="48.496333" lon="2.635141">
      <ele>91.799</ele>
      <time>2015-12-31T08:57:16Z</time>
    </trkpt>
    <trkpt lat="48.496252" lon="2.635279">
      <ele>91.507</ele>
      <time>2015-12-31T08:57:19Z</time>
    </trkpt>
    <trkpt lat="48.496186" lon="2.635397">
      <ele>91.27</ele>
      <time>2015-12-31T08:57:21Z</time>
    </trkpt>
    <trkpt lat="48.49609" lon="2.635522">
      <ele>91.0</ele>
      <time>2015-12-31T08:57:24Z</time>
    </trkpt>
    <trkpt lat="48.496012" lon="2.635633">
      <ele>91.0</ele>
      <time>2015-12-31T08:57:26Z</time>
    </trkpt>
    <trkpt lat="48.49592" lon="2.635747">
      <ele>91.0</ele>
      <time>2015-12-31T08:57:28Z</time>
    </trkpt>
    <trkpt lat="48.495813" lon="2.635873">
      <ele>91.01</ele>
      <time>2015-12-31T08:57:30Z</time>
    </trkpt>
    <trkpt lat="48.495714" lon="2.635983">
      <ele>91.231</ele>
      <time>2015-12-31T08:57:32Z</time>
    </trkpt>
    <trkpt lat="48.495644" lon="2.636087">
      <ele>91.622</ele>
      <time>2015-12-31T08:57:34Z</time>
    </trkpt>
    <trkpt lat="48.495559" lon="2.636186">
      <ele>91.991</ele>
      <time>2015-12-31T08:57:36Z</time>
    </trkpt>
    <trkpt lat="48.495471" lon="2.636293">
      <ele>92.504</ele>
      <time>2015-12-31T08:57:38Z</time>
    </trkpt>
    <trkpt lat="48.495375" lon="2.636398">
      <ele>93.344</ele>
      <time>2015-12-31T08:57:40Z</time>
    </trkpt>
    <trkpt lat="48.495299" lon="2.636489">
      <ele>94.235</ele>
      <time>2015-12-31T08:57:42Z</time>
    </trkpt>
    <trkpt lat="48.495216" lon="2.636595">
      <ele>94.799</ele>
      <time>2015-12-31T08:57:44Z</time>
    </trkpt>
    <trkpt lat="48.49514" lon="2.636678">
      <ele>95.0</ele>
      <time>2015-12-31T08:57:46Z</time>
    </trkpt>
    <trkpt lat="48.495072" lon="2.63678">
      <ele>95.0</ele>
      <time>2015-12-31T08:57:48Z</time>
    </trkpt>
    <trkpt lat="48.494973" lon="2.636924">
      <ele>94.806</ele>
      <time>2015-12-31T08:57:51Z</time>
    </trkpt>
    <trkpt lat="48.494895" lon="2.637011">
      <ele>94.186</ele>
      <time>2015-12-31T08:57:53Z</time>
    </trkpt>
    <trkpt lat="48.494822" lon="2.637098">
      <ele>93.874</ele>
      <time>2015-12-31T08:57:55Z</time>
    </trkpt>
    <trkpt lat="48.494753" lon="2.637189">
      <ele>93.907</ele>
      <time>2015-12-31T08:57:57Z</time>
    </trkpt>
    <trkpt lat="48.49468" lon="2.637276">
      <ele>93.848</ele>
      <time>2015-12-31T08:57:59Z</time>
    </trkpt>
    <trkpt lat="48.494565" lon="2.637412">
      <ele>93.434</ele>
      <time>2015-12-31T08:58:02Z</time>
    </trkpt>
    <trkpt lat="48.494486" lon="2.637522">
      <ele>93.217</ele>
      <time>2015-12-31T08:58:04Z</time>
    </trkpt>
    <trkpt lat="48.494408" lon="2.637612">
      <ele>93.403</ele>
      <time>2015-12-31T08:58:06Z</time>
    </trkpt>
    <trkpt lat="48.494332" lon="2.637694">
      <ele>93.698</ele>
      <time>2015-12-31T08:58:08Z</time>
    </trkpt>
    <trkpt lat="48.494261" lon="2.637783">
      <ele>94.019</ele>
      <time>2015-12-31T08:58:10Z</time>
    </trkpt>
    <trkpt lat="48.49419" lon="2.637875">
      <ele>94.35</ele>
      <time>2015-12-31T08:58:12Z</time>
    </trkpt>
    <trkpt lat="48.494101" lon="2.637983">
      <ele>94.975</ele>
      <time>2015-12-31T08:58:14Z</time>
    </trkpt>
    <trkpt lat="48.494021" lon="2.638075">
      <ele>95.594</ele>
      <time>2015-12-31T08:58:16Z</time>
    </trkpt>
    <trkpt lat="48.493941" lon="2.63817">
      <ele>96.224</ele>
      <time>2015-12-31T08:58:18Z</time>
    </trkpt>
    <trkpt lat="48.493869" lon="2.638256">
      <ele>96.722</ele>
      <time>2015-12-31T08:58:20Z</time>
    </trkpt>
    <trkpt lat="48.493786" lon="2.638358">
      <ele>97.033</ele>
      <time>2015-12-31T08:58:22Z</time>
    </trkpt>
    <trkpt lat="48.493709" lon="2.638457">
      <ele>97.288</ele>
      <time>2015-12-31T08:58:24Z</time>
    </trkpt>
    <trkpt lat="48.493629" lon="2.638552">
      <ele>97.737</ele>
      <time>2015-12-31T08:58:26Z</time>
    </trkpt>
    <trkpt lat="48.493556" lon="2.638647">
      <ele>98.173</ele>
      <time>2015-12-31T08:58:28Z</time>
    </trkpt>
    <trkpt lat="48.493478" lon="2.638734">
      <ele>98.267</ele>
      <time>2015-12-31T08:58:30Z</time>
    </trkpt>
    <trkpt lat="48.493413" lon="2.63885">
      <ele>98.1</ele>
      <time>2015-12-31T08:58:33Z</time>
    </trkpt>
    <trkpt lat="48.493308" lon="2.638975">
      <ele>97.872</ele>
      <time>2015-12-31T08:58:36Z</time>
    </trkpt>
    <trkpt lat="48.493226" lon="2.639067">
      <ele>98.132</ele>
      <time>2015-12-31T08:58:38Z</time>
    </trkpt>
    <trkpt lat="48.493172" lon="2.639204">
      <ele>98.162</ele>
      <time>2015-12-31T08:58:41Z</time>
    </trkpt>
    <trkpt lat="48.493085" lon="2.639303">
      <ele>98.788</ele>
      <time>2015-12-31T08:58:44Z</time>
    </trkpt>
    <trkpt lat="48.493014" lon="2.639396">
      <ele>99.176</ele>
      <time>2015-12-31T08:58:48Z</time>
    </trkpt>
    <trkpt lat="48.492924" lon="2.63945">
      <ele>99.474</ele>
      <time>2015-12-31T08:58:50Z</time>
    </trkpt>
    <trkpt lat="48.492834" lon="2.639572">
      <ele>99.798</ele>
      <time>2015-12-31T08:58:53Z</time>
    </trkpt>
    <trkpt lat="48.492755" lon="2.639641">
      <ele>100.024</ele>
      <time>2015-12-31T08:58:55Z</time>
    </trkpt>
    <trkpt lat="48.492694" lon="2.639758">
      <ele>100.0</ele>
      <time>2015-12-31T08:58:58Z</time>
    </trkpt>
    <trkpt lat="48.492619" lon="2.639843">
      <ele>100.0</ele>
      <time>2015-12-31T08:59:00Z</time>
    </trkpt>
    <trkpt lat="48.492534" lon="2.639979">
      <ele>100.0</ele>
      <time>2015-12-31T08:59:02Z</time>
    </trkpt>
    <trkpt lat="48.492462" lon="2.640079">
      <ele>100.284</ele>
      <time>2015-12-31T08:59:05Z</time>
    </trkpt>
    <trkpt lat="48.492338" lon="2.640223">
      <ele>100.803</ele>
      <time>2015-12-31T08:59:08Z</time>
    </trkpt>
    <trkpt lat="48.492249" lon="2.640342">
      <ele>101.0</ele>
      <time>2015-12-31T08:59:10Z</time>
    </trkpt>
    <trkpt lat="48.492155" lon="2.640401">
      <ele>101.242</ele>
      <time>2015-12-31T08:59:12Z</time>
    </trkpt>
    <trkpt lat="48.492074" lon="2.640488">
      <ele>101.534</ele>
      <time>2015-12-31T08:59:14Z</time>
    </trkpt>
    <trkpt lat="48.491978" lon="2.640592">
      <ele>101.879</ele>
      <time>2015-12-31T08:59:16Z</time>
    </trkpt>
    <trkpt lat="48.491884" lon="2.640636">
      <ele>102.155</ele>
      <time>2015-12-31T08:59:18Z</time>
    </trkpt>
    <trkpt lat="48.491813" lon="2.640752">
      <ele>102.139</ele>
      <time>2015-12-31T08:59:20Z</time>
    </trkpt>
    <trkpt lat="48.491734" lon="2.640861">
      <ele>101.976</ele>
      <time>2015-12-31T08:59:22Z</time>
    </trkpt>
    <trkpt lat="48.491652" lon="2.640963">
      <ele>102.025</ele>
      <time>2015-12-31T08:59:24Z</time>
    </trkpt>
    <trkpt lat="48.491563" lon="2.641075">
      <ele>102.325</ele>
      <time>2015-12-31T08:59:26Z</time>
    </trkpt>
    <trkpt lat="48.491465" lon="2.641214">
      <ele>102.356</ele>
      <time>2015-12-31T08:59:29Z</time>
    </trkpt>
    <trkpt lat="48.491394" lon="2.64132">
      <ele>102.23</ele>
      <time>2015-12-31T08:59:32Z</time>
    </trkpt>
    <trkpt lat="48.491316" lon="2.641425">
      <ele>102.228</ele>
      <time>2015-12-31T08:59:36Z</time>
    </trkpt>
    <trkpt lat="48.491238" lon="2.641509">
      <ele>102.308</ele>
      <time>2015-12-31T08:59:38Z</time>
    </trkpt>
    <trkpt lat="48.491133" lon="2.641602">
      <ele>102.214</ele>
      <time>2015-12-31T08:59:40Z</time>
    </trkpt>
    <trkpt lat="48.491023" lon="2.641729">
      <ele>101.683</ele>
      <time>2015-12-31T08:59:43Z</time>
    </trkpt>
    <trkpt lat="48.490954" lon="2.641834">
      <ele>101.434</ele>
      <time>2015-12-31T08:59:45Z</time>
    </trkpt>
    <trkpt lat="48.490873" lon="2.641947">
      <ele>101.143</ele>
      <time>2015-12-31T08:59:47Z</time>
    </trkpt>
    <trkpt lat="48.49079" lon="2.642065">
      <ele>100.912</ele>
      <time>2015-12-31T08:59:49Z</time>
    </trkpt>
    <trkpt lat="48.490731" lon="2.642209">
      <ele>100.982</ele>
      <time>2015-12-31T08:59:51Z</time>
    </trkpt>
    <trkpt lat="48.490652" lon="2.642276">
      <ele>101.126</ele>
      <time>2015-12-31T08:59:53Z</time>
    </trkpt>
    <trkpt lat="48.490537" lon="2.642406">
      <ele>101.662</ele>
      <time>2015-12-31T08:59:56Z</time>
    </trkpt>
    <trkpt lat="48.490457" lon="2.642474">
      <ele>101.906</ele>
      <time>2015-12-31T08:59:58Z</time>
    </trkpt>
    <trkpt lat="48.490344" lon="2.642625">
      <ele>102.0</ele>
      <time>2015-12-31T09:00:01Z</time>
    </trkpt>
    <trkpt lat="48.490254" lon="2.642745">
      <ele>101.914</ele>
      <time>2015-12-31T09:00:03Z</time>
    </trkpt>
    <trkpt lat="48.490172" lon="2.642839">
      <ele>101.84</ele>
      <time>2015-12-31T09:00:05Z</time>
    </trkpt>
    <trkpt lat="48.490108" lon="2.642949">
      <ele>102.005</ele>
      <time>2015-12-31T09:00:08Z</time>
    </trkpt>
    <trkpt lat="48.489989" lon="2.643039">
      <ele>101.94</ele>
      <time>2015-12-31T09:00:11Z</time>
    </trkpt>
    <trkpt lat="48.489961" lon="2.643179">
      <ele>102.382</ele>
      <time>2015-12-31T09:00:14Z</time>
    </trkpt>
    <trkpt lat="48.489901" lon="2.643284">
      <ele>102.529</ele>
      <time>2015-12-31T09:00:16Z</time>
    </trkpt>
    <trkpt lat="48.489817" lon="2.6434">
      <ele>102.259</ele>
      <time>2015-12-31T09:00:18Z</time>
    </trkpt>
    <trkpt lat="48.489721" lon="2.643504">
      <ele>101.993</ele>
      <time>2015-12-31T09:00:20Z</time>
    </trkpt>
    <trkpt lat="48.489651" lon="2.643625">
      <ele>101.45</ele>
      <time>2015-12-31T09:00:22Z</time>
    </trkpt>
    <trkpt lat="48.489586" lon="2.643737">
      <ele>100.788</ele>
      <time>2015-12-31T09:00:25Z</time>
    </trkpt>
    <trkpt lat="48.489535" lon="2.643936">
      <ele>100.326</ele>
      <time>2015-12-31T09:00:28Z</time>
    </trkpt>
    <trkpt lat="48.489471" lon="2.644133">
      <ele>100.096</ele>
      <time>2015-12-31T09:00:30Z</time>
    </trkpt>
    <trkpt lat="48.489408" lon="2.644243">
      <ele>99.332</ele>
      <time>2015-12-31T09:00:32Z</time>
    </trkpt>
    <trkpt lat="48.489362" lon="2.644391">
      <ele>98.302</ele>
      <time>2015-12-31T09:00:34Z</time>
    </trkpt>
    <trkpt lat="48.489366" lon="2.644557">
      <ele>97.862</ele>
      <time>2015-12-31T09:00:36Z</time>
    </trkpt>
    <trkpt lat="48.489307" lon="2.644693">
      <ele>97.064</ele>
      <time>2015-12-31T09:00:38Z</time>
    </trkpt>
    <trkpt lat="48.489235" lon="2.644789">
      <ele>96.252</ele>
      <time>2015-12-31T09:00:40Z</time>
    </trkpt>
    <trkpt lat="48.48921" lon="2.644968">
      <ele>95.427</ele>
      <time>2015-12-31T09:00:42Z</time>
    </trkpt>
    <trkpt lat="48.489153" lon="2.645102">
      <ele>95.367</ele>
      <time>2015-12-31T09:00:44Z</time>
    </trkpt>
    <trkpt lat="48.489125" lon="2.645233">
      <ele>95.839</ele>
      <time>2015-12-31T09:00:46Z</time>
    </trkpt>
    <trkpt lat="48.489096" lon="2.645383">
      <ele>96.475</ele>
      <time>2015-12-31T09:00:48Z</time>
    </trkpt>
    <trkpt lat="48.489068" lon="2.645619">
      <ele>97.878</ele>
      <time>2015-12-31T09:00:50Z</time>
    </trkpt>
    <trkpt lat="48.489014" lon="2.645873">
      <ele>99.529</ele>
      <time>2015-12-31T09:00:53Z</time>
    </trkpt>
    <trkpt lat="48.488982" lon="2.646114">
      <ele>99.993</ele>
      <time>2015-12-31T09:00:55Z</time>
    </trkpt>
    <trkpt lat="48.488958" lon="2.646275">
      <ele>99.557</ele>
      <time>2015-12-31T09:00:57Z</time>
    </trkpt>
    <trkpt lat="48.488911" lon="2.646399">
      <ele>99.08</ele>
      <time>2015-12-31T09:00:59Z</time>
    </trkpt>
    <trkpt lat="48.488853" lon="2.646584">
      <ele>98.742</ele>
      <time>2015-12-31T09:01:01Z</time>
    </trkpt>
    <trkpt lat="48.488789" lon="2.646751">
      <ele>98.39</ele>
      <time>2015-12-31T09:01:04Z</time>
    </trkpt>
    <trkpt lat="48.488725" lon="2.646864">
      <ele>98.239</ele>
      <time>2015-12-31T09:01:06Z</time>
    </trkpt>
    <trkpt lat="48.488662" lon="2.646996">
      <ele>98.369</ele>
      <time>2015-12-31T09:01:08Z</time>
    </trkpt>
    <trkpt lat="48.488547" lon="2.647213">
      <ele>98.505</ele>
      <time>2015-12-31T09:01:12Z</time>
    </trkpt>
    <trkpt lat="48.488494" lon="2.647378">
      <ele>98.718</ele>
      <time>2015-12-31T09:01:14Z</time>
    </trkpt>
    <trkpt lat="48.488427" lon="2.647514">
      <ele>98.725</ele>
      <time>2015-12-31T09:01:16Z</time>
    </trkpt>
    <trkpt lat="48.488364" lon="2.647653">
      <ele>98.772</ele>
      <time>2015-12-31T09:01:18Z</time>
    </trkpt>
    <trkpt lat="48.488303" lon="2.647807">
      <ele>98.891</ele>
      <time>2015-12-31T09:01:20Z</time>
    </trkpt>
    <trkpt lat="48.488202" lon="2.647944">
      <ele>98.527</ele>
      <time>2015-12-31T09:01:22Z</time>
    </trkpt>
    <trkpt lat="48.488126" lon="2.64809">
      <ele>98.254</ele>
      <time>2015-12-31T09:01:24Z</time>
    </trkpt>
    <trkpt lat="48.488066" lon="2.648211">
      <ele>98.038</ele>
      <time>2015-12-31T09:01:26Z</time>
    </trkpt>
    <trkpt lat="48.487988" lon="2.648303">
      <ele>97.514</ele>
      <time>2015-12-31T09:01:28Z</time>
    </trkpt>
    <trkpt lat="48.487918" lon="2.648408">
      <ele>97.278</ele>
      <time>2015-12-31T09:01:30Z</time>
    </trkpt>
    <trkpt lat="48.487885" lon="2.648558">
      <ele>97.581</ele>
      <time>2015-12-31T09:01:33Z</time>
    </trkpt>
    <trkpt lat="48.487817" lon="2.648684">
      <ele>97.508</ele>
      <time>2015-12-31T09:01:35Z</time>
    </trkpt>
    <trkpt lat="48.487745" lon="2.648859">
      <ele>97.538</ele>
      <time>2015-12-31T09:01:37Z</time>
    </trkpt>
    <trkpt lat="48.487677" lon="2.649044">
      <ele>97.673</ele>
      <time>2015-12-31T09:01:40Z</time>
    </trkpt>
    <trkpt lat="48.487642" lon="2.649218">
      <ele>98.113</ele>
      <time>2015-12-31T09:01:43Z</time>
    </trkpt>
    <trkpt lat="48.487594" lon="2.649336">
      <ele>98.08</ele>
      <time>2015-12-31T09:01:45Z</time>
    </trkpt>
    <trkpt lat="48.487519" lon="2.64946">
      <ele>98.121</ele>
      <time>2015-12-31T09:01:47Z</time>
    </trkpt>
    <trkpt lat="48.487451" lon="2.649581">
      <ele>98.315</ele>
      <time>2015-12-31T09:01:49Z</time>
    </trkpt>
    <trkpt lat="48.487392" lon="2.649715">
      <ele>98.585</ele>
      <time>2015-12-31T09:01:51Z</time>
    </trkpt>
    <trkpt lat="48.48729" lon="2.649873">
      <ele>98.654</ele>
      <time>2015-12-31T09:01:53Z</time>
    </trkpt>
    <trkpt lat="48.487217" lon="2.650006">
      <ele>98.962</ele>
      <time>2015-12-31T09:01:55Z</time>
    </trkpt>
    <trkpt lat="48.487159" lon="2.650113">
      <ele>98.545</ele>
      <time>2015-12-31T09:01:58Z</time>
    </trkpt>
    <trkpt lat="48.487087" lon="2.650217">
      <ele>98.026</ele>
      <time>2015-12-31T09:02:00Z</time>
    </trkpt>
    <trkpt lat="48.487028" lon="2.650324">
      <ele>97.602</ele>
      <time>2015-12-31T09:02:02Z</time>
    </trkpt>
    <trkpt lat="48.486952" lon="2.65047">
      <ele>97.054</ele>
      <time>2015-12-31T09:02:05Z</time>
    </trkpt>
    <trkpt lat="48.486864" lon="2.650579">
      <ele>96.819</ele>
      <time>2015-12-31T09:02:08Z</time>
    </trkpt>
    <trkpt lat="48.486824" lon="2.650727">
      <ele>97.451</ele>
      <time>2015-12-31T09:02:11Z</time>
    </trkpt>
    <trkpt lat="48.486757" lon="2.650845">
      <ele>98.056</ele>
      <time>2015-12-31T09:02:13Z</time>
    </trkpt>
    <trkpt lat="48.486725" lon="2.650973">
      <ele>98.608</ele>
      <time>2015-12-31T09:02:16Z</time>
    </trkpt>
    <trkpt lat="48.486649" lon="2.651085">
      <ele>98.842</ele>
      <time>2015-12-31T09:02:18Z</time>
    </trkpt>
    <trkpt lat="48.486571" lon="2.651223">
      <ele>99.058</ele>
      <time>2015-12-31T09:02:20Z</time>
    </trkpt>
    <trkpt lat="48.486504" lon="2.651341">
      <ele>99.242</ele>
      <time>2015-12-31T09:02:22Z</time>
    </trkpt>
    <trkpt lat="48.486443" lon="2.651509">
      <ele>99.627</ele>
      <time>2015-12-31T09:02:24Z</time>
    </trkpt>
    <trkpt lat="48.486374" lon="2.651613">
      <ele>99.764</ele>
      <time>2015-12-31T09:02:26Z</time>
    </trkpt>
    <trkpt lat="48.486314" lon="2.651733">
      <ele>99.795</ele>
      <time>2015-12-31T09:02:28Z</time>
    </trkpt>
    <trkpt lat="48.486248" lon="2.651868">
      <ele>99.86</ele>
      <time>2015-12-31T09:02:30Z</time>
    </trkpt>
    <trkpt lat="48.486177" lon="2.652001">
      <ele>100.204</ele>
      <time>2015-12-31T09:02:32Z</time>
    </trkpt>
    <trkpt lat="48.486101" lon="2.652169">
      <ele>100.743</ele>
      <time>2015-12-31T09:02:34Z</time>
    </trkpt>
    <trkpt lat="48.486014" lon="2.652325">
      <ele>100.671</ele>
      <time>2015-12-31T09:02:37Z</time>
    </trkpt>
    <trkpt lat="48.485965" lon="2.652472">
      <ele>100.847</ele>
      <time>2015-12-31T09:02:40Z</time>
    </trkpt>
    <trkpt lat="48.485898" lon="2.652574">
      <ele>100.732</ele>
      <time>2015-12-31T09:02:42Z</time>
    </trkpt>
    <trkpt lat="48.485835" lon="2.652699">
      <ele>100.728</ele>
      <time>2015-12-31T09:02:44Z</time>
    </trkpt>
    <trkpt lat="48.485796" lon="2.652828">
      <ele>101.069</ele>
      <time>2015-12-31T09:02:46Z</time>
    </trkpt>
    <trkpt lat="48.485721" lon="2.652973">
      <ele>101.313</ele>
      <time>2015-12-31T09:02:48Z</time>
    </trkpt>
    <trkpt lat="48.485652" lon="2.653125">
      <ele>101.205</ele>
      <time>2015-12-31T09:02:50Z</time>
    </trkpt>
    <trkpt lat="48.485576" lon="2.653246">
      <ele>100.856</ele>
      <time>2015-12-31T09:02:52Z</time>
    </trkpt>
    <trkpt lat="48.485518" lon="2.653422">
      <ele>101.276</ele>
      <time>2015-12-31T09:02:54Z</time>
    </trkpt>
    <trkpt lat="48.485464" lon="2.653612">
      <ele>101.67</ele>
      <time>2015-12-31T09:02:56Z</time>
    </trkpt>
    <trkpt lat="48.485431" lon="2.653772">
      <ele>101.552</ele>
      <time>2015-12-31T09:02:58Z</time>
    </trkpt>
    <trkpt lat="48.485412" lon="2.653947">
      <ele>101.483</ele>
      <time>2015-12-31T09:03:00Z</time>
    </trkpt>
    <trkpt lat="48.485381" lon="2.654141">
      <ele>101.372</ele>
      <time>2015-12-31T09:03:02Z</time>
    </trkpt>
    <trkpt lat="48.485348" lon="2.654312">
      <ele>101.121</ele>
      <time>2015-12-31T09:03:05Z</time>
    </trkpt>
    <trkpt lat="48.485316" lon="2.654517">
      <ele>101.0</ele>
      <time>2015-12-31T09:03:08Z</time>
    </trkpt>
    <trkpt lat="48.485309" lon="2.654677">
      <ele>101.0</ele>
      <time>2015-12-31T09:03:10Z</time>
    </trkpt>
    <trkpt lat="48.485278" lon="2.654848">
      <ele>101.0</ele>
      <time>2015-12-31T09:03:13Z</time>
    </trkpt>
    <trkpt lat="48.485253" lon="2.654991">
      <ele>101.0</ele>
      <time>2015-12-31T09:03:15Z</time>
    </trkpt>
    <trkpt lat="48.485242" lon="2.655138">
      <ele>101.497</ele>
      <time>2015-12-31T09:03:17Z</time>
    </trkpt>
    <trkpt lat="48.48521" lon="2.655342">
      <ele>102.175</ele>
      <time>2015-12-31T09:03:19Z</time>
    </trkpt>
    <trkpt lat="48.485172" lon="2.655515">
      <ele>102.529</ele>
      <time>2015-12-31T09:03:21Z</time>
    </trkpt>
    <trkpt lat="48.485173" lon="2.655678">
      <ele>102.789</ele>
      <time>2015-12-31T09:03:24Z</time>
    </trkpt>
    <trkpt lat="48.485156" lon="2.655814">
      <ele>102.969</ele>
      <time>2015-12-31T09:03:26Z</time>
    </trkpt>
    <trkpt lat="48.485135" lon="2.655969">
      <ele>102.749</ele>
      <time>2015-12-31T09:03:28Z</time>
    </trkpt>
    <trkpt lat="48.48512" lon="2.65612">
      <ele>102.414</ele>
      <time>2015-12-31T09:03:30Z</time>
    </trkpt>
    <trkpt lat="48.485107" lon="2.656272">
      <ele>102.029</ele>
      <time>2015-12-31T09:03:32Z</time>
    </trkpt>
    <trkpt lat="48.485091" lon="2.656422">
      <ele>101.655</ele>
      <time>2015-12-31T09:03:35Z</time>
    </trkpt>
    <trkpt lat="48.485053" lon="2.656606">
      <ele>101.382</ele>
      <time>2015-12-31T09:03:37Z</time>
    </trkpt>
    <trkpt lat="48.485032" lon="2.656807">
      <ele>101.23</ele>
      <time>2015-12-31T09:03:39Z</time>
    </trkpt>
    <trkpt lat="48.485032" lon="2.656981">
      <ele>101.23</ele>
      <time>2015-12-31T09:03:41Z</time>
    </trkpt>
    <trkpt lat="48.484999" lon="2.657116">
      <ele>100.996</ele>
      <time>2015-12-31T09:03:43Z</time>
    </trkpt>
    <trkpt lat="48.484985" lon="2.657254">
      <ele>100.838</ele>
      <time>2015-12-31T09:03:45Z</time>
    </trkpt>
    <trkpt lat="48.484963" lon="2.657411">
      <ele>100.278</ele>
      <time>2015-12-31T09:03:47Z</time>
    </trkpt>
    <trkpt lat="48.484949" lon="2.657568">
      <ele>99.755</ele>
      <time>2015-12-31T09:03:49Z</time>
    </trkpt>
    <trkpt lat="48.484924" lon="2.657702">
      <ele>99.273</ele>
      <time>2015-12-31T09:03:51Z</time>
    </trkpt>
    <trkpt lat="48.484887" lon="2.657922">
      <ele>99.0</ele>
      <time>2015-12-31T09:03:53Z</time>
    </trkpt>
    <trkpt lat="48.484856" lon="2.658071">
      <ele>98.998</ele>
      <time>2015-12-31T09:03:55Z</time>
    </trkpt>
    <trkpt lat="48.484833" lon="2.658228">
      <ele>98.874</ele>
      <time>2015-12-31T09:03:57Z</time>
    </trkpt>
    <trkpt lat="48.484805" lon="2.658369">
      <ele>98.686</ele>
      <time>2015-12-31T09:03:59Z</time>
    </trkpt>
    <trkpt lat="48.484785" lon="2.65855">
      <ele>99.056</ele>
      <time>2015-12-31T09:04:01Z</time>
    </trkpt>
    <trkpt lat="48.484756" lon="2.658769">
      <ele>99.122</ele>
      <time>2015-12-31T09:04:04Z</time>
    </trkpt>
    <trkpt lat="48.48473" lon="2.658945">
      <ele>99.23</ele>
      <time>2015-12-31T09:04:06Z</time>
    </trkpt>
    <trkpt lat="48.484712" lon="2.6591">
      <ele>99.723</ele>
      <time>2015-12-31T09:04:08Z</time>
    </trkpt>
    <trkpt lat="48.484703" lon="2.659236">
      <ele>100.163</ele>
      <time>2015-12-31T09:04:10Z</time>
    </trkpt>
    <trkpt lat="48.484671" lon="2.659397">
      <ele>100.492</ele>
      <time>2015-12-31T09:04:12Z</time>
    </trkpt>
    <trkpt lat="48.484654" lon="2.659554">
      <ele>100.606</ele>
      <time>2015-12-31T09:04:15Z</time>
    </trkpt>
    <trkpt lat="48.484642" lon="2.659699">
      <ele>100.687</ele>
      <time>2015-12-31T09:04:17Z</time>
    </trkpt>
    <trkpt lat="48.484594" lon="2.659843">
      <ele>101.174</ele>
      <time>2015-12-31T09:04:19Z</time>
    </trkpt>
    <trkpt lat="48.48454" lon="2.660022">
      <ele>102.079</ele>
      <time>2015-12-31T09:04:21Z</time>
    </trkpt>
    <trkpt lat="48.484507" lon="2.660188">
      <ele>102.677</ele>
      <time>2015-12-31T09:04:23Z</time>
    </trkpt>
    <trkpt lat="48.484469" lon="2.660335">
      <ele>103.188</ele>
      <time>2015-12-31T09:04:25Z</time>
    </trkpt>
    <trkpt lat="48.484433" lon="2.66052">
      <ele>103.872</ele>
      <time>2015-12-31T09:04:27Z</time>
    </trkpt>
    <trkpt lat="48.484369" lon="2.660679">
      <ele>104.444</ele>
      <time>2015-12-31T09:04:29Z</time>
    </trkpt>
    <trkpt lat="48.484328" lon="2.660847">
      <ele>105.021</ele>
      <time>2015-12-31T09:04:31Z</time>
    </trkpt>
    <trkpt lat="48.484328" lon="2.661">
      <ele>105.252</ele>
      <time>2015-12-31T09:04:33Z</time>
    </trkpt>
    <trkpt lat="48.484273" lon="2.661184">
      <ele>105.88</ele>
      <time>2015-12-31T09:04:36Z</time>
    </trkpt>
    <trkpt lat="48.48424" lon="2.661347">
      <ele>106.585</ele>
      <time>2015-12-31T09:04:38Z</time>
    </trkpt>
    <trkpt lat="48.484192" lon="2.661472">
      <ele>107.208</ele>
      <time>2015-12-31T09:04:40Z</time>
    </trkpt>
    <trkpt lat="48.484171" lon="2.661612">
      <ele>107.788</ele>
      <time>2015-12-31T09:04:43Z</time>
    </trkpt>
    <trkpt lat="48.484129" lon="2.661757">
      <ele>108.19</ele>
      <time>2015-12-31T09:04:47Z</time>
    </trkpt>
    <trkpt lat="48.4841" lon="2.661895">
      <ele>108.582</ele>
      <time>2015-12-31T09:04:51Z</time>
    </trkpt>
    <trkpt lat="48.484084" lon="2.66203">
      <ele>109.194</ele>
      <time>2015-12-31T09:04:55Z</time>
    </trkpt>
    <trkpt lat="48.484061" lon="2.662173">
      <ele>110.068</ele>
      <time>2015-12-31T09:04:59Z</time>
    </trkpt>
    <trkpt lat="48.484021" lon="2.66231">
      <ele>111.006</ele>
      <time>2015-12-31T09:05:04Z</time>
    </trkpt>
    <trkpt lat="48.483988" lon="2.662453">
      <ele>112.008</ele>
      <time>2015-12-31T09:05:10Z</time>
    </trkpt>
    <trkpt lat="48.483964" lon="2.662594">
      <ele>112.798</ele>
      <time>2015-12-31T09:05:17Z</time>
    </trkpt>
    <trkpt lat="48.483928" lon="2.662724">
      <ele>113.525</ele>
      <time>2015-12-31T09:05:24Z</time>
    </trkpt>
    <trkpt lat="48.483935" lon="2.662872">
      <ele>114.007</ele>
      <time>2015-12-31T09:05:31Z</time>
    </trkpt>
    <trkpt lat="48.483878" lon="2.662997">
      <ele>114.851</ele>
      <time>2015-12-31T09:05:37Z</time>
    </trkpt>
    <trkpt lat="48.483816" lon="2.663124">
      <ele>115.771</ele>
      <time>2015-12-31T09:05:42Z</time>
    </trkpt>
    <trkpt lat="48.483794" lon="2.663279">
      <ele>116.488</ele>
      <time>2015-12-31T09:05:46Z</time>
    </trkpt>
    <trkpt lat="48.483767" lon="2.663446">
      <ele>116.65</ele>
      <time>2015-12-31T09:05:51Z</time>
    </trkpt>
    <trkpt lat="48.483731" lon="2.663591">
      <ele>116.736</ele>
      <time>2015-12-31T09:05:53Z</time>
    </trkpt>
    <trkpt lat="48.483677" lon="2.663762">
      <ele>116.331</ele>
      <time>2015-12-31T09:05:56Z</time>
    </trkpt>
    <trkpt lat="48.483658" lon="2.663925">
      <ele>115.402</ele>
      <time>2015-12-31T09:05:59Z</time>
    </trkpt>
    <trkpt lat="48.483603" lon="2.664037">
      <ele>114.949</ele>
      <time>2015-12-31T09:06:01Z</time>
    </trkpt>
    <trkpt lat="48.483555" lon="2.664186">
      <ele>114.063</ele>
      <time>2015-12-31T09:06:04Z</time>
    </trkpt>
    <trkpt lat="48.483536" lon="2.664323">
      <ele>113.145</ele>
      <time>2015-12-31T09:06:06Z</time>
    </trkpt>
    <trkpt lat="48.483505" lon="2.664488">
      <ele>112.128</ele>
      <time>2015-12-31T09:06:09Z</time>
    </trkpt>
    <trkpt lat="48.483473" lon="2.664643">
      <ele>111.423</ele>
      <time>2015-12-31T09:06:11Z</time>
    </trkpt>
    <trkpt lat="48.483431" lon="2.664807">
      <ele>110.992</ele>
      <time>2015-12-31T09:06:15Z</time>
    </trkpt>
    <trkpt lat="48.483324" lon="2.66491">
      <ele>111.414</ele>
      <time>2015-12-31T09:06:18Z</time>
    </trkpt>
    <trkpt lat="48.483244" lon="2.664993">
      <ele>111.982</ele>
      <time>2015-12-31T09:06:21Z</time>
    </trkpt>
    <trkpt lat="48.483155" lon="2.665023">
      <ele>112.896</ele>
      <time>2015-12-31T09:06:23Z</time>
    </trkpt>
    <trkpt lat="48.483056" lon="2.665019">
      <ele>113.995</ele>
      <time>2015-12-31T09:06:25Z</time>
    </trkpt>
    <trkpt lat="48.482942" lon="2.664981">
      <ele>113.972</ele>
      <time>2015-12-31T09:06:29Z</time>
    </trkpt>
    <trkpt lat="48.48289" lon="2.664858">
      <ele>113.695</ele>
      <time>2015-12-31T09:06:32Z</time>
    </trkpt>
    <trkpt lat="48.482796" lon="2.664741">
      <ele>113.129</ele>
      <time>2015-12-31T09:06:36Z</time>
    </trkpt>
    <trkpt lat="48.482735" lon="2.664606">
      <ele>112.782</ele>
      <time>2015-12-31T09:06:39Z</time>
    </trkpt>
    <trkpt lat="48.482706" lon="2.664428">
      <ele>112.483</ele>
      <time>2015-12-31T09:06:43Z</time>
    </trkpt>
    <trkpt lat="48.482671" lon="2.66428">
      <ele>112.231</ele>
      <time>2015-12-31T09:06:46Z</time>
    </trkpt>
    <trkpt lat="48.482617" lon="2.664142">
      <ele>111.791</ele>
      <time>2015-12-31T09:06:48Z</time>
    </trkpt>
    <trkpt lat="48.482578" lon="2.664001">
      <ele>111.133</ele>
      <time>2015-12-31T09:06:50Z</time>
    </trkpt>
    <trkpt lat="48.48255" lon="2.663864">
      <ele>110.467</ele>
      <time>2015-12-31T09:06:52Z</time>
    </trkpt>
    <trkpt lat="48.482514" lon="2.663697">
      <ele>109.495</ele>
      <time>2015-12-31T09:06:54Z</time>
    </trkpt>
    <trkpt lat="48.482446" lon="2.663494">
      <ele>107.379</ele>
      <time>2015-12-31T09:06:56Z</time>
    </trkpt>
    <trkpt lat="48.482375" lon="2.663271">
      <ele>104.976</ele>
      <time>2015-12-31T09:06:58Z</time>
    </trkpt>
    <trkpt lat="48.482355" lon="2.663113">
      <ele>104.119</ele>
      <time>2015-12-31T09:07:00Z</time>
    </trkpt>
    <trkpt lat="48.482315" lon="2.662907">
      <ele>103.157</ele>
      <time>2015-12-31T09:07:02Z</time>
    </trkpt>
    <trkpt lat="48.482255" lon="2.66267">
      <ele>102.354</ele>
      <time>2015-12-31T09:07:04Z</time>
    </trkpt>
    <trkpt lat="48.482207" lon="2.662441">
      <ele>102.158</ele>
      <time>2015-12-31T09:07:06Z</time>
    </trkpt>
    <trkpt lat="48.482158" lon="2.662279">
      <ele>102.564</ele>
      <time>2015-12-31T09:07:08Z</time>
    </trkpt>
    <trkpt lat="48.482108" lon="2.662119">
      <ele>102.589</ele>
      <time>2015-12-31T09:07:10Z</time>
    </trkpt>
    <trkpt lat="48.482046" lon="2.661925">
      <ele>102.321</ele>
      <time>2015-12-31T09:07:12Z</time>
    </trkpt>
    <trkpt lat="48.481971" lon="2.661749">
      <ele>101.459</ele>
      <time>2015-12-31T09:07:14Z</time>
    </trkpt>
    <trkpt lat="48.481922" lon="2.661563">
      <ele>100.435</ele>
      <time>2015-12-31T09:07:16Z</time>
    </trkpt>
    <trkpt lat="48.481818" lon="2.661252">
      <ele>98.142</ele>
      <time>2015-12-31T09:07:19Z</time>
    </trkpt>
    <trkpt lat="48.481739" lon="2.66107">
      <ele>96.595</ele>
      <time>2015-12-31T09:07:21Z</time>
    </trkpt>
    <trkpt lat="48.481706" lon="2.660941">
      <ele>95.726</ele>
      <time>2015-12-31T09:07:22Z</time>
    </trkpt>
    <trkpt lat="48.481667" lon="2.660782">
      <ele>95.002</ele>
      <time>2015-12-31T09:07:24Z</time>
    </trkpt>
    <trkpt lat="48.481606" lon="2.660574">
      <ele>95.0</ele>
      <time>2015-12-31T09:07:26Z</time>
    </trkpt>
    <trkpt lat="48.481539" lon="2.660373">
      <ele>94.645</ele>
      <time>2015-12-31T09:07:28Z</time>
    </trkpt>
    <trkpt lat="48.481493" lon="2.660198">
      <ele>94.446</ele>
      <time>2015-12-31T09:07:30Z</time>
    </trkpt>
    <trkpt lat="48.481437" lon="2.660026">
      <ele>94.077</ele>
      <time>2015-12-31T09:07:32Z</time>
    </trkpt>
    <trkpt lat="48.481374" lon="2.659862">
      <ele>93.503</ele>
      <time>2015-12-31T09:07:34Z</time>
    </trkpt>
    <trkpt lat="48.481304" lon="2.65968">
      <ele>92.907</ele>
      <time>2015-12-31T09:07:36Z</time>
    </trkpt>
    <trkpt lat="48.481247" lon="2.659505">
      <ele>92.201</ele>
      <time>2015-12-31T09:07:38Z</time>
    </trkpt>
    <trkpt lat="48.481193" lon="2.659335">
      <ele>91.867</ele>
      <time>2015-12-31T09:07:40Z</time>
    </trkpt>
    <trkpt lat="48.481131" lon="2.659188">
      <ele>92.0</ele>
      <time>2015-12-31T09:07:42Z</time>
    </trkpt>
    <trkpt lat="48.481092" lon="2.659016">
      <ele>92.542</ele>
      <time>2015-12-31T09:07:44Z</time>
    </trkpt>
    <trkpt lat="48.481063" lon="2.658862">
      <ele>93.0</ele>
      <time>2015-12-31T09:07:46Z</time>
    </trkpt>
    <trkpt lat="48.480992" lon="2.658664">
      <ele>93.0</ele>
      <time>2015-12-31T09:07:48Z</time>
    </trkpt>
    <trkpt lat="48.480929" lon="2.658493">
      <ele>93.146</ele>
      <time>2015-12-31T09:07:50Z</time>
    </trkpt>
    <trkpt lat="48.480868" lon="2.658316">
      <ele>93.187</ele>
      <time>2015-12-31T09:07:52Z</time>
    </trkpt>
    <trkpt lat="48.480801" lon="2.658157">
      <ele>93.635</ele>
      <time>2015-12-31T09:07:54Z</time>
    </trkpt>
    <trkpt lat="48.480749" lon="2.657985">
      <ele>94.0</ele>
      <time>2015-12-31T09:07:56Z</time>
    </trkpt>
    <trkpt lat="48.480682" lon="2.657814">
      <ele>94.0</ele>
      <time>2015-12-31T09:07:58Z</time>
    </trkpt>
    <trkpt lat="48.48061" lon="2.657656">
      <ele>94.0</ele>
      <time>2015-12-31T09:08:00Z</time>
    </trkpt>
    <trkpt lat="48.48055" lon="2.657497">
      <ele>93.989</ele>
      <time>2015-12-31T09:08:02Z</time>
    </trkpt>
    <trkpt lat="48.480499" lon="2.657323">
      <ele>93.363</ele>
      <time>2015-12-31T09:08:04Z</time>
    </trkpt>
    <trkpt lat="48.480452" lon="2.65716">
      <ele>92.636</ele>
      <time>2015-12-31T09:08:06Z</time>
    </trkpt>
    <trkpt lat="48.480408" lon="2.657">
      <ele>91.825</ele>
      <time>2015-12-31T09:08:08Z</time>
    </trkpt>
    <trkpt lat="48.480371" lon="2.656865">
      <ele>91.378</ele>
      <time>2015-12-31T09:08:10Z</time>
    </trkpt>
    <trkpt lat="48.480289" lon="2.656651">
      <ele>90.905</ele>
      <time>2015-12-31T09:08:12Z</time>
    </trkpt>
    <trkpt lat="48.480235" lon="2.656481">
      <ele>90.486</ele>
      <time>2015-12-31T09:08:14Z</time>
    </trkpt>
    <trkpt lat="48.480187" lon="2.656325">
      <ele>90.252</ele>
      <time>2015-12-31T09:08:16Z</time>
    </trkpt>
    <trkpt lat="48.480135" lon="2.656197">
      <ele>90.159</ele>
      <time>2015-12-31T09:08:18Z</time>
    </trkpt>
    <trkpt lat="48.480072" lon="2.656051">
      <ele>90.0</ele>
      <time>2015-12-31T09:08:20Z</time>
    </trkpt>
    <trkpt lat="48.480037" lon="2.655913">
      <ele>90.0</ele>
      <time>2015-12-31T09:08:22Z</time>
    </trkpt>
    <trkpt lat="48.479983" lon="2.655787">
      <ele>90.157</ele>
      <time>2015-12-31T09:08:24Z</time>
    </trkpt>
    <trkpt lat="48.479947" lon="2.655646">
      <ele>90.546</ele>
      <time>2015-12-31T09:08:26Z</time>
    </trkpt>
    <trkpt lat="48.479885" lon="2.655522">
      <ele>90.586</ele>
      <time>2015-12-31T09:08:28Z</time>
    </trkpt>
    <trkpt lat="48.479868" lon="2.655384">
      <ele>90.525</ele>
      <time>2015-12-31T09:08:30Z</time>
    </trkpt>
    <trkpt lat="48.479789" lon="2.655244">
      <ele>90.333</ele>
      <time>2015-12-31T09:08:32Z</time>
    </trkpt>
    <trkpt lat="48.479743" lon="2.655121">
      <ele>90.597</ele>
      <time>2015-12-31T09:08:34Z</time>
    </trkpt>
    <trkpt lat="48.479731" lon="2.654978">
      <ele>91.077</ele>
      <time>2015-12-31T09:08:37Z</time>
    </trkpt>
    <trkpt lat="48.479687" lon="2.65482">
      <ele>91.775</ele>
      <time>2015-12-31T09:08:40Z</time>
    </trkpt>
    <trkpt lat="48.479645" lon="2.654696">
      <ele>92.32</ele>
      <time>2015-12-31T09:08:42Z</time>
    </trkpt>
    <trkpt lat="48.47957" lon="2.654528">
      <ele>92.481</ele>
      <time>2015-12-31T09:08:45Z</time>
    </trkpt>
    <trkpt lat="48.479505" lon="2.654376">
      <ele>92.164</ele>
      <time>2015-12-31T09:08:47Z</time>
    </trkpt>
    <trkpt lat="48.479459" lon="2.654207">
      <ele>92.008</ele>
      <time>2015-12-31T09:08:50Z</time>
    </trkpt>
    <trkpt lat="48.479445" lon="2.654019">
      <ele>91.999</ele>
      <time>2015-12-31T09:08:53Z</time>
    </trkpt>
    <trkpt lat="48.479393" lon="2.653893">
      <ele>92.0</ele>
      <time>2015-12-31T09:08:55Z</time>
    </trkpt>
    <trkpt lat="48.47937" lon="2.653697">
      <ele>91.494</ele>
      <time>2015-12-31T09:08:58Z</time>
    </trkpt>
    <trkpt lat="48.479293" lon="2.65357">
      <ele>91.397</ele>
      <time>2015-12-31T09:09:00Z</time>
    </trkpt>
    <trkpt lat="48.479235" lon="2.653444">
      <ele>91.152</ele>
      <time>2015-12-31T09:09:02Z</time>
    </trkpt>
    <trkpt lat="48.479175" lon="2.653302">
      <ele>90.967</ele>
      <time>2015-12-31T09:09:04Z</time>
    </trkpt>
    <trkpt lat="48.479155" lon="2.65314">
      <ele>91.055</ele>
      <time>2015-12-31T09:09:07Z</time>
    </trkpt>
    <trkpt lat="48.479124" lon="2.653004">
      <ele>90.939</ele>
      <time>2015-12-31T09:09:09Z</time>
    </trkpt>
    <trkpt lat="48.479084" lon="2.652879">
      <ele>90.473</ele>
      <time>2015-12-31T09:09:11Z</time>
    </trkpt>
    <trkpt lat="48.47903" lon="2.65274">
      <ele>89.933</ele>
      <time>2015-12-31T09:09:14Z</time>
    </trkpt>
    <trkpt lat="48.478936" lon="2.652633">
      <ele>89.567</ele>
      <time>2015-12-31T09:09:18Z</time>
    </trkpt>
    <trkpt lat="48.478858" lon="2.652469">
      <ele>89.099</ele>
      <time>2015-12-31T09:09:22Z</time>
    </trkpt>
    <trkpt lat="48.47877" lon="2.652383">
      <ele>89.248</ele>
      <time>2015-12-31T09:09:25Z</time>
    </trkpt>
    <trkpt lat="48.47866" lon="2.652468">
      <ele>89.729</ele>
      <time>2015-12-31T09:09:29Z</time>
    </trkpt>
    <trkpt lat="48.478561" lon="2.652554">
      <ele>90.229</ele>
      <time>2015-12-31T09:09:32Z</time>
    </trkpt>
    <trkpt lat="48.478484" lon="2.652627">
      <ele>90.666</ele>
      <time>2015-12-31T09:09:34Z</time>
    </trkpt>
    <trkpt lat="48.478399" lon="2.652707">
      <ele>91.314</ele>
      <time>2015-12-31T09:09:36Z</time>
    </trkpt>
    <trkpt lat="48.478313" lon="2.652755">
      <ele>91.915</ele>
      <time>2015-12-31T09:09:38Z</time>
    </trkpt>
    <trkpt lat="48.478199" lon="2.652852">
      <ele>92.889</ele>
      <time>2015-12-31T09:09:41Z</time>
    </trkpt>
    <trkpt lat="48.478099" lon="2.652878">
      <ele>93.261</ele>
      <time>2015-12-31T09:09:44Z</time>
    </trkpt>
    <trkpt lat="48.478013" lon="2.652974">
      <ele>93.706</ele>
      <time>2015-12-31T09:09:46Z</time>
    </trkpt>
    <trkpt lat="48.477911" lon="2.65305">
      <ele>93.98</ele>
      <time>2015-12-31T09:09:48Z</time>
    </trkpt>
    <trkpt lat="48.477842" lon="2.653145">
      <ele>94.0</ele>
      <time>2015-12-31T09:09:50Z</time>
    </trkpt>
    <trkpt lat="48.477728" lon="2.653204">
      <ele>93.917</ele>
      <time>2015-12-31T09:09:52Z</time>
    </trkpt>
    <trkpt lat="48.477605" lon="2.653298">
      <ele>93.921</ele>
      <time>2015-12-31T09:09:55Z</time>
    </trkpt>
    <trkpt lat="48.477506" lon="2.65339">
      <ele>94.0</ele>
      <time>2015-12-31T09:09:57Z</time>
    </trkpt>
    <trkpt lat="48.477417" lon="2.653504">
      <ele>93.586</ele>
      <time>2015-12-31T09:10:02Z</time>
    </trkpt>
    <trkpt lat="48.477335" lon="2.653575">
      <ele>93.329</ele>
      <time>2015-12-31T09:10:04Z</time>
    </trkpt>
    <trkpt lat="48.477213" lon="2.653692">
      <ele>92.934</ele>
      <time>2015-12-31T09:10:06Z</time>
    </trkpt>
    <trkpt lat="48.477106" lon="2.65378">
      <ele>92.163</ele>
      <time>2015-12-31T09:10:08Z</time>
    </trkpt>
    <trkpt lat="48.47697" lon="2.653878">
      <ele>91.184</ele>
      <time>2015-12-31T09:10:11Z</time>
    </trkpt>
    <trkpt lat="48.476883" lon="2.65393">
      <ele>90.927</ele>
      <time>2015-12-31T09:10:13Z</time>
    </trkpt>
    <trkpt lat="48.47679" lon="2.654011">
      <ele>90.884</ele>
      <time>2015-12-31T09:10:15Z</time>
    </trkpt>
    <trkpt lat="48.47669" lon="2.654082">
      <ele>90.779</ele>
      <time>2015-12-31T09:10:17Z</time>
    </trkpt>
    <trkpt lat="48.476599" lon="2.654176">
      <ele>91.034</ele>
      <time>2015-12-31T09:10:19Z</time>
    </trkpt>
    <trkpt lat="48.476516" lon="2.654272">
      <ele>91.379</ele>
      <time>2015-12-31T09:10:21Z</time>
    </trkpt>
    <trkpt lat="48.476416" lon="2.654342">
      <ele>91.631</ele>
      <time>2015-12-31T09:10:23Z</time>
    </trkpt>
    <trkpt lat="48.476306" lon="2.654432">
      <ele>91.657</ele>
      <time>2015-12-31T09:10:26Z</time>
    </trkpt>
    <trkpt lat="48.476215" lon="2.654482">
      <ele>91.374</ele>
      <time>2015-12-31T09:10:28Z</time>
    </trkpt>
    <trkpt lat="48.476124" lon="2.65453">
      <ele>91.046</ele>
      <time>2015-12-31T09:10:30Z</time>
    </trkpt>
    <trkpt lat="48.476029" lon="2.654618">
      <ele>90.889</ele>
      <time>2015-12-31T09:10:34Z</time>
    </trkpt>
    <trkpt lat="48.475947" lon="2.65472">
      <ele>90.995</ele>
      <time>2015-12-31T09:10:36Z</time>
    </trkpt>
    <trkpt lat="48.475851" lon="2.654805">
      <ele>91.279</ele>
      <time>2015-12-31T09:10:39Z</time>
    </trkpt>
    <trkpt lat="48.475763" lon="2.654875">
      <ele>91.183</ele>
      <time>2015-12-31T09:10:41Z</time>
    </trkpt>
    <trkpt lat="48.475671" lon="2.654972">
      <ele>91.256</ele>
      <time>2015-12-31T09:10:43Z</time>
    </trkpt>
    <trkpt lat="48.475585" lon="2.65506">
      <ele>91.492</ele>
      <time>2015-12-31T09:10:45Z</time>
    </trkpt>
    <trkpt lat="48.475496" lon="2.655131">
      <ele>91.628</ele>
      <time>2015-12-31T09:10:47Z</time>
    </trkpt>
    <trkpt lat="48.4754" lon="2.655183">
      <ele>91.389</ele>
      <time>2015-12-31T09:10:49Z</time>
    </trkpt>
    <trkpt lat="48.475309" lon="2.655291">
      <ele>91.267</ele>
      <time>2015-12-31T09:10:51Z</time>
    </trkpt>
    <trkpt lat="48.475213" lon="2.655392">
      <ele>91.082</ele>
      <time>2015-12-31T09:10:53Z</time>
    </trkpt>
    <trkpt lat="48.475128" lon="2.655464">
      <ele>90.77</ele>
      <time>2015-12-31T09:10:55Z</time>
    </trkpt>
    <trkpt lat="48.475031" lon="2.655545">
      <ele>90.219</ele>
      <time>2015-12-31T09:10:57Z</time>
    </trkpt>
    <trkpt lat="48.474947" lon="2.655612">
      <ele>90.0</ele>
      <time>2015-12-31T09:10:59Z</time>
    </trkpt>
    <trkpt lat="48.474868" lon="2.655704">
      <ele>90.0</ele>
      <time>2015-12-31T09:11:01Z</time>
    </trkpt>
    <trkpt lat="48.474759" lon="2.65577">
      <ele>90.0</ele>
      <time>2015-12-31T09:11:03Z</time>
    </trkpt>
    <trkpt lat="48.474671" lon="2.655849">
      <ele>90.23</ele>
      <time>2015-12-31T09:11:05Z</time>
    </trkpt>
    <trkpt lat="48.474577" lon="2.655908">
      <ele>90.651</ele>
      <time>2015-12-31T09:11:07Z</time>
    </trkpt>
    <trkpt lat="48.474478" lon="2.656023">
      <ele>90.962</ele>
      <time>2015-12-31T09:11:09Z</time>
    </trkpt>
    <trkpt lat="48.474389" lon="2.656122">
      <ele>90.992</ele>
      <time>2015-12-31T09:11:11Z</time>
    </trkpt>
    <trkpt lat="48.474283" lon="2.656191">
      <ele>90.833</ele>
      <time>2015-12-31T09:11:13Z</time>
    </trkpt>
    <trkpt lat="48.474197" lon="2.656277">
      <ele>90.468</ele>
      <time>2015-12-31T09:11:15Z</time>
    </trkpt>
    <trkpt lat="48.474088" lon="2.656405">
      <ele>89.434</ele>
      <time>2015-12-31T09:11:18Z</time>
    </trkpt>
    <trkpt lat="48.473971" lon="2.656519">
      <ele>88.591</ele>
      <time>2015-12-31T09:11:20Z</time>
    </trkpt>
    <trkpt lat="48.47388" lon="2.656617">
      <ele>87.904</ele>
      <time>2015-12-31T09:11:22Z</time>
    </trkpt>
    <trkpt lat="48.473783" lon="2.656688">
      <ele>86.886</ele>
      <time>2015-12-31T09:11:24Z</time>
    </trkpt>
    <trkpt lat="48.473687" lon="2.656742">
      <ele>86.017</ele>
      <time>2015-12-31T09:11:26Z</time>
    </trkpt>
    <trkpt lat="48.473587" lon="2.656828">
      <ele>85.407</ele>
      <time>2015-12-31T09:11:28Z</time>
    </trkpt>
    <trkpt lat="48.473495" lon="2.656897">
      <ele>84.993</ele>
      <time>2015-12-31T09:11:30Z</time>
    </trkpt>
    <trkpt lat="48.473396" lon="2.656958">
      <ele>84.451</ele>
      <time>2015-12-31T09:11:32Z</time>
    </trkpt>
    <trkpt lat="48.473323" lon="2.657058">
      <ele>83.963</ele>
      <time>2015-12-31T09:11:34Z</time>
    </trkpt>
    <trkpt lat="48.473227" lon="2.657137">
      <ele>83.617</ele>
      <time>2015-12-31T09:11:36Z</time>
    </trkpt>
    <trkpt lat="48.473107" lon="2.657252">
      <ele>83.292</ele>
      <time>2015-12-31T09:11:40Z</time>
    </trkpt>
    <trkpt lat="48.473027" lon="2.657327">
      <ele>83.338</ele>
      <time>2015-12-31T09:11:42Z</time>
    </trkpt>
    <trkpt lat="48.472952" lon="2.657406">
      <ele>83.415</ele>
      <time>2015-12-31T09:11:44Z</time>
    </trkpt>
    <trkpt lat="48.472857" lon="2.65748">
      <ele>83.265</ele>
      <time>2015-12-31T09:11:46Z</time>
    </trkpt>
    <trkpt lat="48.472736" lon="2.657562">
      <ele>83.223</ele>
      <time>2015-12-31T09:11:48Z</time>
    </trkpt>
    <trkpt lat="48.472634" lon="2.657633">
      <ele>83.479</ele>
      <time>2015-12-31T09:11:50Z</time>
    </trkpt>
    <trkpt lat="48.472527" lon="2.657713">
      <ele>83.767</ele>
      <time>2015-12-31T09:11:52Z</time>
    </trkpt>
    <trkpt lat="48.472421" lon="2.657789">
      <ele>84.0</ele>
      <time>2015-12-31T09:11:54Z</time>
    </trkpt>
    <trkpt lat="48.472309" lon="2.65786">
      <ele>84.0</ele>
      <time>2015-12-31T09:11:56Z</time>
    </trkpt>
    <trkpt lat="48.472182" lon="2.657957">
      <ele>83.855</ele>
      <time>2015-12-31T09:11:58Z</time>
    </trkpt>
    <trkpt lat="48.472071" lon="2.658054">
      <ele>83.456</ele>
      <time>2015-12-31T09:12:00Z</time>
    </trkpt>
    <trkpt lat="48.471973" lon="2.658115">
      <ele>83.103</ele>
      <time>2015-12-31T09:12:02Z</time>
    </trkpt>
    <trkpt lat="48.471897" lon="2.658194">
      <ele>82.744</ele>
      <time>2015-12-31T09:12:04Z</time>
    </trkpt>
    <trkpt lat="48.471809" lon="2.658273">
      <ele>82.131</ele>
      <time>2015-12-31T09:12:06Z</time>
    </trkpt>
    <trkpt lat="48.471726" lon="2.658354">
      <ele>81.395</ele>
      <time>2015-12-31T09:12:08Z</time>
    </trkpt>
    <trkpt lat="48.471608" lon="2.658432">
      <ele>81.075</ele>
      <time>2015-12-31T09:12:11Z</time>
    </trkpt>
    <trkpt lat="48.471512" lon="2.658533">
      <ele>81.4</ele>
      <time>2015-12-31T09:12:13Z</time>
    </trkpt>
    <trkpt lat="48.471397" lon="2.658613">
      <ele>81.977</ele>
      <time>2015-12-31T09:12:16Z</time>
    </trkpt>
    <trkpt lat="48.471308" lon="2.658664">
      <ele>82.592</ele>
      <time>2015-12-31T09:12:18Z</time>
    </trkpt>
    <trkpt lat="48.471222" lon="2.65875">
      <ele>83.702</ele>
      <time>2015-12-31T09:12:20Z</time>
    </trkpt>
    <trkpt lat="48.471124" lon="2.658814">
      <ele>85.077</ele>
      <time>2015-12-31T09:12:22Z</time>
    </trkpt>
    <trkpt lat="48.471032" lon="2.658855">
      <ele>86.488</ele>
      <time>2015-12-31T09:12:24Z</time>
    </trkpt>
    <trkpt lat="48.470919" lon="2.658872">
      <ele>87.892</ele>
      <time>2015-12-31T09:12:27Z</time>
    </trkpt>
    <trkpt lat="48.470776" lon="2.658857">
      <ele>89.092</ele>
      <time>2015-12-31T09:12:30Z</time>
    </trkpt>
    <trkpt lat="48.470645" lon="2.658789">
      <ele>89.521</ele>
      <time>2015-12-31T09:12:32Z</time>
    </trkpt>
    <trkpt lat="48.470518" lon="2.65878">
      <ele>90.322</ele>
      <time>2015-12-31T09:12:35Z</time>
    </trkpt>
    <trkpt lat="48.470412" lon="2.658764">
      <ele>90.566</ele>
      <time>2015-12-31T09:12:37Z</time>
    </trkpt>
    <trkpt lat="48.470301" lon="2.658771">
      <ele>90.929</ele>
      <time>2015-12-31T09:12:39Z</time>
    </trkpt>
    <trkpt lat="48.47017" lon="2.658789">
      <ele>90.86</ele>
      <time>2015-12-31T09:12:42Z</time>
    </trkpt>
    <trkpt lat="48.470061" lon="2.658772">
      <ele>90.672</ele>
      <time>2015-12-31T09:12:44Z</time>
    </trkpt>
    <trkpt lat="48.469914" lon="2.658751">
      <ele>90.194</ele>
      <time>2015-12-31T09:12:47Z</time>
    </trkpt>
    <trkpt lat="48.46982" lon="2.658741">
      <ele>89.82</ele>
      <time>2015-12-31T09:12:49Z</time>
    </trkpt>
    <trkpt lat="48.469703" lon="2.658732">
      <ele>89.543</ele>
      <time>2015-12-31T09:12:51Z</time>
    </trkpt>
    <trkpt lat="48.469589" lon="2.658722">
      <ele>90.167</ele>
      <time>2015-12-31T09:12:53Z</time>
    </trkpt>
    <trkpt lat="48.469486" lon="2.658708">
      <ele>90.753</ele>
      <time>2015-12-31T09:12:55Z</time>
    </trkpt>
    <trkpt lat="48.469374" lon="2.658703">
      <ele>91.507</ele>
      <time>2015-12-31T09:12:57Z</time>
    </trkpt>
    <trkpt lat="48.469262" lon="2.658694">
      <ele>92.314</ele>
      <time>2015-12-31T09:12:59Z</time>
    </trkpt>
    <trkpt lat="48.469162" lon="2.65869">
      <ele>93.017</ele>
      <time>2015-12-31T09:13:02Z</time>
    </trkpt>
    <trkpt lat="48.469028" lon="2.658683">
      <ele>93.499</ele>
      <time>2015-12-31T09:13:05Z</time>
    </trkpt>
    <trkpt lat="48.468937" lon="2.658662">
      <ele>93.827</ele>
      <time>2015-12-31T09:13:07Z</time>
    </trkpt>
    <trkpt lat="48.468808" lon="2.658633">
      <ele>94.291</ele>
      <time>2015-12-31T09:13:10Z</time>
    </trkpt>
    <trkpt lat="48.468714" lon="2.658619">
      <ele>94.63</ele>
      <time>2015-12-31T09:13:12Z</time>
    </trkpt>
    <trkpt lat="48.468594" lon="2.65864">
      <ele>94.945</ele>
      <time>2015-12-31T09:13:15Z</time>
    </trkpt>
    <trkpt lat="48.468478" lon="2.658657">
      <ele>94.6</ele>
      <time>2015-12-31T09:13:18Z</time>
    </trkpt>
    <trkpt lat="48.468387" lon="2.658664">
      <ele>94.347</ele>
      <time>2015-12-31T09:13:20Z</time>
    </trkpt>
    <trkpt lat="48.468287" lon="2.658633">
      <ele>94.079</ele>
      <time>2015-12-31T09:13:22Z</time>
    </trkpt>
    <trkpt lat="48.468191" lon="2.658612">
      <ele>94.003</ele>
      <time>2015-12-31T09:13:24Z</time>
    </trkpt>
    <trkpt lat="48.468099" lon="2.658616">
      <ele>94.018</ele>
      <time>2015-12-31T09:13:26Z</time>
    </trkpt>
    <trkpt lat="48.467967" lon="2.658606">
      <ele>94.0</ele>
      <time>2015-12-31T09:13:29Z</time>
    </trkpt>
    <trkpt lat="48.467853" lon="2.658574">
      <ele>94.0</ele>
      <time>2015-12-31T09:13:31Z</time>
    </trkpt>
    <trkpt lat="48.467738" lon="2.658567">
      <ele>94.143</ele>
      <time>2015-12-31T09:13:34Z</time>
    </trkpt>
    <trkpt lat="48.467641" lon="2.658564">
      <ele>94.492</ele>
      <time>2015-12-31T09:13:36Z</time>
    </trkpt>
    <trkpt lat="48.467544" lon="2.658569">
      <ele>94.842</ele>
      <time>2015-12-31T09:13:38Z</time>
    </trkpt>
    <trkpt lat="48.467427" lon="2.658527">
      <ele>95.788</ele>
      <time>2015-12-31T09:13:40Z</time>
    </trkpt>
    <trkpt lat="48.467331" lon="2.658505">
      <ele>96.825</ele>
      <time>2015-12-31T09:13:42Z</time>
    </trkpt>
    <trkpt lat="48.467194" lon="2.658475">
      <ele>98.05</ele>
      <time>2015-12-31T09:13:45Z</time>
    </trkpt>
    <trkpt lat="48.467057" lon="2.658475">
      <ele>98.291</ele>
      <time>2015-12-31T09:13:48Z</time>
    </trkpt>
    <trkpt lat="48.466927" lon="2.658471">
      <ele>98.41</ele>
      <time>2015-12-31T09:13:52Z</time>
    </trkpt>
    <trkpt lat="48.466814" lon="2.658457">
      <ele>97.825</ele>
      <time>2015-12-31T09:13:54Z</time>
    </trkpt>
    <trkpt lat="48.466712" lon="2.658421">
      <ele>97.275</ele>
      <time>2015-12-31T09:13:56Z</time>
    </trkpt>
    <trkpt lat="48.466582" lon="2.658415">
      <ele>97.0</ele>
      <time>2015-12-31T09:13:59Z</time>
    </trkpt>
    <trkpt lat="48.466488" lon="2.658427">
      <ele>97.0</ele>
      <time>2015-12-31T09:14:01Z</time>
    </trkpt>
    <trkpt lat="48.466357" lon="2.658367">
      <ele>97.0</ele>
      <time>2015-12-31T09:14:04Z</time>
    </trkpt>
    <trkpt lat="48.466242" lon="2.65834">
      <ele>97.0</ele>
      <time>2015-12-31T09:14:06Z</time>
    </trkpt>
    <trkpt lat="48.466145" lon="2.658313">
      <ele>97.0</ele>
      <time>2015-12-31T09:14:08Z</time>
    </trkpt>
    <trkpt lat="48.466041" lon="2.658319">
      <ele>97.252</ele>
      <time>2015-12-31T09:14:10Z</time>
    </trkpt>
    <trkpt lat="48.465915" lon="2.658354">
      <ele>97.706</ele>
      <time>2015-12-31T09:14:13Z</time>
    </trkpt>
    <trkpt lat="48.465799" lon="2.658448">
      <ele>98.247</ele>
      <time>2015-12-31T09:14:16Z</time>
    </trkpt>
    <trkpt lat="48.46569" lon="2.658491">
      <ele>99.032</ele>
      <time>2015-12-31T09:14:19Z</time>
    </trkpt>
    <trkpt lat="48.465599" lon="2.658451">
      <ele>99.687</ele>
      <time>2015-12-31T09:14:22Z</time>
    </trkpt>
    <trkpt lat="48.465471" lon="2.65843">
      <ele>100.304</ele>
      <time>2015-12-31T09:14:25Z</time>
    </trkpt>
    <trkpt lat="48.465345" lon="2.658473">
      <ele>100.758</ele>
      <time>2015-12-31T09:14:28Z</time>
    </trkpt>
    <trkpt lat="48.465237" lon="2.658453">
      <ele>100.937</ele>
      <time>2015-12-31T09:14:30Z</time>
    </trkpt>
    <trkpt lat="48.46511" lon="2.658487">
      <ele>100.666</ele>
      <time>2015-12-31T09:14:33Z</time>
    </trkpt>
    <trkpt lat="48.465019" lon="2.658521">
      <ele>100.371</ele>
      <time>2015-12-31T09:14:35Z</time>
    </trkpt>
    <trkpt lat="48.464902" lon="2.658551">
      <ele>99.864</ele>
      <time>2015-12-31T09:14:38Z</time>
    </trkpt>
    <trkpt lat="48.464806" lon="2.65852">
      <ele>99.63</ele>
      <time>2015-12-31T09:14:41Z</time>
    </trkpt>
    <trkpt lat="48.46468" lon="2.658519">
      <ele>99.433</ele>
      <time>2015-12-31T09:14:44Z</time>
    </trkpt>
    <trkpt lat="48.464546" lon="2.658534">
      <ele>99.736</ele>
      <time>2015-12-31T09:14:47Z</time>
    </trkpt>
    <trkpt lat="48.464445" lon="2.658621">
      <ele>99.998</ele>
      <time>2015-12-31T09:14:50Z</time>
    </trkpt>
    <trkpt lat="48.464342" lon="2.658668">
      <ele>100.444</ele>
      <time>2015-12-31T09:14:53Z</time>
    </trkpt>
    <trkpt lat="48.464229" lon="2.658778">
      <ele>101.242</ele>
      <time>2015-12-31T09:14:56Z</time>
    </trkpt>
    <trkpt lat="48.464103" lon="2.658853">
      <ele>101.9</ele>
      <time>2015-12-31T09:14:59Z</time>
    </trkpt>
    <trkpt lat="48.464022" lon="2.658926">
      <ele>102.0</ele>
      <time>2015-12-31T09:15:01Z</time>
    </trkpt>
    <trkpt lat="48.463939" lon="2.658981">
      <ele>102.0</ele>
      <time>2015-12-31T09:15:03Z</time>
    </trkpt>
    <trkpt lat="48.463853" lon="2.659045">
      <ele>102.0</ele>
      <time>2015-12-31T09:15:05Z</time>
    </trkpt>
    <trkpt lat="48.463746" lon="2.659138">
      <ele>102.0</ele>
      <time>2015-12-31T09:15:08Z</time>
    </trkpt>
    <trkpt lat="48.463636" lon="2.659231">
      <ele>101.979</ele>
      <time>2015-12-31T09:15:12Z</time>
    </trkpt>
    <trkpt lat="48.463541" lon="2.659322">
      <ele>102.252</ele>
      <time>2015-12-31T09:15:15Z</time>
    </trkpt>
    <trkpt lat="48.463431" lon="2.659404">
      <ele>102.648</ele>
      <time>2015-12-31T09:15:18Z</time>
    </trkpt>
    <trkpt lat="48.463315" lon="2.659472">
      <ele>102.848</ele>
      <time>2015-12-31T09:15:21Z</time>
    </trkpt>
    <trkpt lat="48.463213" lon="2.659525">
      <ele>102.528</ele>
      <time>2015-12-31T09:15:24Z</time>
    </trkpt>
    <trkpt lat="48.463128" lon="2.659608">
      <ele>102.542</ele>
      <time>2015-12-31T09:15:27Z</time>
    </trkpt>
    <trkpt lat="48.463034" lon="2.659679">
      <ele>102.767</ele>
      <time>2015-12-31T09:15:30Z</time>
    </trkpt>
    <trkpt lat="48.462945" lon="2.65975">
      <ele>102.602</ele>
      <time>2015-12-31T09:15:33Z</time>
    </trkpt>
    <trkpt lat="48.462856" lon="2.659817">
      <ele>102.282</ele>
      <time>2015-12-31T09:15:36Z</time>
    </trkpt>
    <trkpt lat="48.462754" lon="2.659904">
      <ele>101.885</ele>
      <time>2015-12-31T09:15:39Z</time>
    </trkpt>
    <trkpt lat="48.462665" lon="2.659985">
      <ele>101.572</ele>
      <time>2015-12-31T09:15:42Z</time>
    </trkpt>
    <trkpt lat="48.462569" lon="2.660057">
      <ele>101.094</ele>
      <time>2015-12-31T09:15:46Z</time>
    </trkpt>
    <trkpt lat="48.46248" lon="2.660127">
      <ele>100.465</ele>
      <time>2015-12-31T09:15:49Z</time>
    </trkpt>
    <trkpt lat="48.462377" lon="2.660193">
      <ele>100.035</ele>
      <time>2015-12-31T09:15:52Z</time>
    </trkpt>
    <trkpt lat="48.462296" lon="2.66029">
      <ele>99.968</ele>
      <time>2015-12-31T09:15:56Z</time>
    </trkpt>
    <trkpt lat="48.462195" lon="2.660313">
      <ele>99.788</ele>
      <time>2015-12-31T09:16:00Z</time>
    </trkpt>
    <trkpt lat="48.462076" lon="2.660319">
      <ele>99.403</ele>
      <time>2015-12-31T09:16:04Z</time>
    </trkpt>
    <trkpt lat="48.461986" lon="2.660358">
      <ele>99.106</ele>
      <time>2015-12-31T09:16:07Z</time>
    </trkpt>
    <trkpt lat="48.461878" lon="2.660418">
      <ele>99.239</ele>
      <time>2015-12-31T09:16:11Z</time>
    </trkpt>
    <trkpt lat="48.461764" lon="2.660462">
      <ele>99.65</ele>
      <time>2015-12-31T09:16:15Z</time>
    </trkpt>
    <trkpt lat="48.461669" lon="2.66048">
      <ele>99.992</ele>
      <time>2015-12-31T09:16:18Z</time>
    </trkpt>
    <trkpt lat="48.461573" lon="2.660504">
      <ele>101.012</ele>
      <time>2015-12-31T09:16:22Z</time>
    </trkpt>
    <trkpt lat="48.461485" lon="2.660458">
      <ele>101.962</ele>
      <time>2015-12-31T09:16:28Z</time>
    </trkpt>
    <trkpt lat="48.461396" lon="2.660411">
      <ele>102.923</ele>
      <time>2015-12-31T09:16:35Z</time>
    </trkpt>
    <trkpt lat="48.461291" lon="2.660391">
      <ele>104.057</ele>
      <time>2015-12-31T09:16:41Z</time>
    </trkpt>
    <trkpt lat="48.461202" lon="2.660415">
      <ele>105.018</ele>
      <time>2015-12-31T09:16:53Z</time>
    </trkpt>
    <trkpt lat="48.461112" lon="2.660418">
      <ele>105.99</ele>
      <time>2015-12-31T09:17:05Z</time>
    </trkpt>
    <trkpt lat="48.461027" lon="2.6605">
      <ele>106.303</ele>
      <time>2015-12-31T09:17:27Z</time>
    </trkpt>
    <trkpt lat="48.460904" lon="2.660513">
      <ele>106.746</ele>
      <time>2015-12-31T09:17:32Z</time>
    </trkpt>
    <trkpt lat="48.460793" lon="2.66057">
      <ele>106.81</ele>
      <time>2015-12-31T09:17:36Z</time>
    </trkpt>
    <trkpt lat="48.460704" lon="2.660647">
      <ele>106.358</ele>
      <time>2015-12-31T09:17:39Z</time>
    </trkpt>
    <trkpt lat="48.460646" lon="2.660761">
      <ele>106.085</ele>
      <time>2015-12-31T09:17:42Z</time>
    </trkpt>
    <trkpt lat="48.460608" lon="2.660906">
      <ele>106.0</ele>
      <time>2015-12-31T09:17:45Z</time>
    </trkpt>
    <trkpt lat="48.460527" lon="2.661063">
      <ele>105.897</ele>
      <time>2015-12-31T09:17:48Z</time>
    </trkpt>
    <trkpt lat="48.460421" lon="2.661147">
      <ele>105.516</ele>
      <time>2015-12-31T09:17:51Z</time>
    </trkpt>
    <trkpt lat="48.460332" lon="2.661201">
      <ele>105.195</ele>
      <time>2015-12-31T09:17:54Z</time>
    </trkpt>
    <trkpt lat="48.460242" lon="2.661263">
      <ele>104.672</ele>
      <time>2015-12-31T09:17:57Z</time>
    </trkpt>
    <trkpt lat="48.460135" lon="2.661299">
      <ele>103.624</ele>
      <time>2015-12-31T09:18:00Z</time>
    </trkpt>
    <trkpt lat="48.460046" lon="2.661358">
      <ele>102.59</ele>
      <time>2015-12-31T09:18:03Z</time>
    </trkpt>
    <trkpt lat="48.459946" lon="2.66141">
      <ele>101.596</ele>
      <time>2015-12-31T09:18:06Z</time>
    </trkpt>
    <trkpt lat="48.45983" lon="2.661398">
      <ele>100.756</ele>
      <time>2015-12-31T09:18:09Z</time>
    </trkpt>
    <trkpt lat="48.459709" lon="2.661379">
      <ele>100.0</ele>
      <time>2015-12-31T09:18:12Z</time>
    </trkpt>
    <trkpt lat="48.459623" lon="2.661317">
      <ele>100.0</ele>
      <time>2015-12-31T09:18:14Z</time>
    </trkpt>
    <trkpt lat="48.459531" lon="2.661271">
      <ele>100.0</ele>
      <time>2015-12-31T09:18:19Z</time>
    </trkpt>
    <trkpt lat="48.459431" lon="2.661204">
      <ele>100.065</ele>
      <time>2015-12-31T09:18:22Z</time>
    </trkpt>
    <trkpt lat="48.459338" lon="2.661123">
      <ele>100.4</ele>
      <time>2015-12-31T09:18:25Z</time>
    </trkpt>
    <trkpt lat="48.459251" lon="2.661075">
      <ele>100.476</ele>
      <time>2015-12-31T09:18:29Z</time>
    </trkpt>
    <trkpt lat="48.459159" lon="2.661025">
      <ele>100.361</ele>
      <time>2015-12-31T09:18:33Z</time>
    </trkpt>
    <trkpt lat="48.459062" lon="2.660968">
      <ele>99.787</ele>
      <time>2015-12-31T09:18:36Z</time>
    </trkpt>
    <trkpt lat="48.45895" lon="2.660895">
      <ele>99.271</ele>
      <time>2015-12-31T09:18:40Z</time>
    </trkpt>
    <trkpt lat="48.458864" lon="2.660831">
      <ele>99.082</ele>
      <time>2015-12-31T09:18:43Z</time>
    </trkpt>
    <trkpt lat="48.458764" lon="2.660785">
      <ele>99.354</ele>
      <time>2015-12-31T09:18:47Z</time>
    </trkpt>
    <trkpt lat="48.458678" lon="2.660715">
      <ele>99.657</ele>
      <time>2015-12-31T09:18:51Z</time>
    </trkpt>
    <trkpt lat="48.458619" lon="2.6606">
      <ele>99.948</ele>
      <time>2015-12-31T09:18:57Z</time>
    </trkpt>
    <trkpt lat="48.458573" lon="2.660475">
      <ele>100.662</ele>
      <time>2015-12-31T09:19:03Z</time>
    </trkpt>
    <trkpt lat="48.458547" lon="2.660339">
      <ele>101.292</ele>
      <time>2015-12-31T09:19:09Z</time>
    </trkpt>
    <trkpt lat="48.458509" lon="2.66019">
      <ele>102.367</ele>
      <time>2015-12-31T09:19:13Z</time>
    </trkpt>
    <trkpt lat="48.458494" lon="2.660049">
      <ele>103.49</ele>
      <time>2015-12-31T09:19:19Z</time>
    </trkpt>
    <trkpt lat="48.458501" lon="2.659904">
      <ele>104.275</ele>
      <time>2015-12-31T09:19:28Z</time>
    </trkpt>
    <trkpt lat="48.458502" lon="2.659758">
      <ele>104.999</ele>
      <time>2015-12-31T09:19:34Z</time>
    </trkpt>
    <trkpt lat="48.45848" lon="2.659611">
      <ele>106.217</ele>
      <time>2015-12-31T09:19:42Z</time>
    </trkpt>
    <trkpt lat="48.4585" lon="2.659466">
      <ele>107.045</ele>
      <time>2015-12-31T09:19:49Z</time>
    </trkpt>
    <trkpt lat="48.458478" lon="2.6593">
      <ele>108.976</ele>
      <time>2015-12-31T09:19:57Z</time>
    </trkpt>
    <trkpt lat="48.458435" lon="2.659174">
      <ele>111.084</ele>
      <time>2015-12-31T09:20:04Z</time>
    </trkpt>
    <trkpt lat="48.458375" lon="2.659047">
      <ele>113.607</ele>
      <time>2015-12-31T09:20:12Z</time>
    </trkpt>
    <trkpt lat="48.458307" lon="2.658942">
      <ele>115.539</ele>
      <time>2015-12-31T09:20:20Z</time>
    </trkpt>
    <trkpt lat="48.458243" lon="2.658842">
      <ele>116.946</ele>
      <time>2015-12-31T09:20:30Z</time>
    </trkpt>
    <trkpt lat="48.458179" lon="2.65874">
      <ele>118.402</ele>
      <time>2015-12-31T09:20:37Z</time>
    </trkpt>
    <trkpt lat="48.458125" lon="2.658628">
      <ele>119.802</ele>
      <time>2015-12-31T09:20:43Z</time>
    </trkpt>
    <trkpt lat="48.458067" lon="2.658522">
      <ele>121.283</ele>
      <time>2015-12-31T09:20:50Z</time>
    </trkpt>
    <trkpt lat="48.45802" lon="2.658387">
      <ele>123.38</ele>
      <time>2015-12-31T09:20:56Z</time>
    </trkpt>
    <trkpt lat="48.457969" lon="2.658269">
      <ele>124.934</ele>
      <time>2015-12-31T09:21:05Z</time>
    </trkpt>
    <trkpt lat="48.457892" lon="2.658187">
      <ele>125.859</ele>
      <time>2015-12-31T09:21:14Z</time>
    </trkpt>
    <trkpt lat="48.4578" lon="2.658146">
      <ele>126.323</ele>
      <time>2015-12-31T09:21:25Z</time>
    </trkpt>
    <trkpt lat="48.457702" lon="2.658131">
      <ele>126.804</ele>
      <time>2015-12-31T09:21:35Z</time>
    </trkpt>
    <trkpt lat="48.457619" lon="2.658077">
      <ele>127.461</ele>
      <time>2015-12-31T09:21:44Z</time>
    </trkpt>
    <trkpt lat="48.457568" lon="2.657959">
      <ele>127.84</ele>
      <time>2015-12-31T09:21:54Z</time>
    </trkpt>
    <trkpt lat="48.457538" lon="2.657826">
      <ele>127.976</ele>
      <time>2015-12-31T09:22:02Z</time>
    </trkpt>
    <trkpt lat="48.457521" lon="2.657671">
      <ele>128.0</ele>
      <time>2015-12-31T09:22:12Z</time>
    </trkpt>
    <trkpt lat="48.457599" lon="2.657602">
      <ele>128.0</ele>
      <time>2015-12-31T09:22:21Z</time>
    </trkpt>
    <trkpt lat="48.457696" lon="2.657552">
      <ele>128.0</ele>
      <time>2015-12-31T09:22:26Z</time>
    </trkpt>
    <trkpt lat="48.457783" lon="2.657507">
      <ele>128.019</ele>
      <time>2015-12-31T09:22:31Z</time>
    </trkpt>
    <trkpt lat="48.457875" lon="2.657449">
      <ele>128.534</ele>
      <time>2015-12-31T09:22:37Z</time>
    </trkpt>
    <trkpt lat="48.457965" lon="2.657432">
      <ele>128.919</ele>
      <time>2015-12-31T09:22:41Z</time>
    </trkpt>
    <trkpt lat="48.458068" lon="2.657415">
      <ele>129.351</ele>
      <time>2015-12-31T09:22:45Z</time>
    </trkpt>
    <trkpt lat="48.458166" lon="2.657408">
      <ele>129.729</ele>
      <time>2015-12-31T09:22:49Z</time>
    </trkpt>
    <trkpt lat="48.458254" lon="2.65734">
      <ele>130.29</ele>
      <time>2015-12-31T09:22:55Z</time>
    </trkpt>
    <trkpt lat="48.45836" lon="2.657265">
      <ele>130.831</ele>
      <time>2015-12-31T09:23:00Z</time>
    </trkpt>
    <trkpt lat="48.458442" lon="2.657156">
      <ele>131.238</ele>
      <time>2015-12-31T09:23:04Z</time>
    </trkpt>
    <trkpt lat="48.458514" lon="2.657047">
      <ele>131.631</ele>
      <time>2015-12-31T09:23:08Z</time>
    </trkpt>
    <trkpt lat="48.458564" lon="2.656889">
      <ele>132.0</ele>
      <time>2015-12-31T09:23:12Z</time>
    </trkpt>
    <trkpt lat="48.458632" lon="2.65678">
      <ele>131.955</ele>
      <time>2015-12-31T09:23:15Z</time>
    </trkpt>
    <trkpt lat="48.458715" lon="2.656651">
      <ele>131.591</ele>
      <time>2015-12-31T09:23:19Z</time>
    </trkpt>
    <trkpt lat="48.458797" lon="2.656524">
      <ele>131.161</ele>
      <time>2015-12-31T09:23:22Z</time>
    </trkpt>
    <trkpt lat="48.458875" lon="2.656395">
      <ele>131.001</ele>
      <time>2015-12-31T09:23:25Z</time>
    </trkpt>
    <trkpt lat="48.458958" lon="2.656272">
      <ele>129.937</ele>
      <time>2015-12-31T09:23:28Z</time>
    </trkpt>
    <trkpt lat="48.459015" lon="2.656111">
      <ele>129.093</ele>
      <time>2015-12-31T09:23:31Z</time>
    </trkpt>
    <trkpt lat="48.459093" lon="2.655966">
      <ele>129.437</ele>
      <time>2015-12-31T09:23:34Z</time>
    </trkpt>
    <trkpt lat="48.459177" lon="2.655818">
      <ele>130.038</ele>
      <time>2015-12-31T09:23:37Z</time>
    </trkpt>
    <trkpt lat="48.45925" lon="2.655735">
      <ele>130.214</ele>
      <time>2015-12-31T09:23:39Z</time>
    </trkpt>
    <trkpt lat="48.459331" lon="2.655623">
      <ele>130.779</ele>
      <time>2015-12-31T09:23:41Z</time>
    </trkpt>
    <trkpt lat="48.459373" lon="2.655445">
      <ele>131.951</ele>
      <time>2015-12-31T09:23:44Z</time>
    </trkpt>
    <trkpt lat="48.4594" lon="2.655262">
      <ele>133.0</ele>
      <time>2015-12-31T09:23:47Z</time>
    </trkpt>
    <trkpt lat="48.459424" lon="2.655081">
      <ele>133.0</ele>
      <time>2015-12-31T09:23:50Z</time>
    </trkpt>
    <trkpt lat="48.459456" lon="2.654951">
      <ele>132.706</ele>
      <time>2015-12-31T09:23:52Z</time>
    </trkpt>
    <trkpt lat="48.45949" lon="2.654777">
      <ele>131.837</ele>
      <time>2015-12-31T09:23:55Z</time>
    </trkpt>
    <trkpt lat="48.459518" lon="2.654571">
      <ele>131.615</ele>
      <time>2015-12-31T09:23:59Z</time>
    </trkpt>
    <trkpt lat="48.459527" lon="2.654431">
      <ele>131.688</ele>
      <time>2015-12-31T09:24:01Z</time>
    </trkpt>
    <trkpt lat="48.459538" lon="2.654296">
      <ele>131.483</ele>
      <time>2015-12-31T09:24:03Z</time>
    </trkpt>
    <trkpt lat="48.459569" lon="2.654164">
      <ele>131.098</ele>
      <time>2015-12-31T09:24:05Z</time>
    </trkpt>
    <trkpt lat="48.459573" lon="2.654014">
      <ele>130.779</ele>
      <time>2015-12-31T09:24:08Z</time>
    </trkpt>
    <trkpt lat="48.45953" lon="2.653867">
      <ele>130.613</ele>
      <time>2015-12-31T09:24:11Z</time>
    </trkpt>
    <trkpt lat="48.459471" lon="2.65376">
      <ele>130.44</ele>
      <time>2015-12-31T09:24:13Z</time>
    </trkpt>
    <trkpt lat="48.459398" lon="2.653677">
      <ele>130.237</ele>
      <time>2015-12-31T09:24:15Z</time>
    </trkpt>
    <trkpt lat="48.459284" lon="2.653558">
      <ele>129.809</ele>
      <time>2015-12-31T09:24:18Z</time>
    </trkpt>
    <trkpt lat="48.459171" lon="2.653481">
      <ele>129.532</ele>
      <time>2015-12-31T09:24:21Z</time>
    </trkpt>
    <trkpt lat="48.459064" lon="2.653473">
      <ele>129.503</ele>
      <time>2015-12-31T09:24:23Z</time>
    </trkpt>
    <trkpt lat="48.458955" lon="2.653453">
      <ele>129.431</ele>
      <time>2015-12-31T09:24:25Z</time>
    </trkpt>
    <trkpt lat="48.458852" lon="2.653439">
      <ele>129.595</ele>
      <time>2015-12-31T09:24:27Z</time>
    </trkpt>
    <trkpt lat="48.458755" lon="2.653454">
      <ele>130.189</ele>
      <time>2015-12-31T09:24:29Z</time>
    </trkpt>
    <trkpt lat="48.458654" lon="2.653476">
      <ele>130.77</ele>
      <time>2015-12-31T09:24:31Z</time>
    </trkpt>
    <trkpt lat="48.458547" lon="2.653475">
      <ele>131.0</ele>
      <time>2015-12-31T09:24:33Z</time>
    </trkpt>
    <trkpt lat="48.458456" lon="2.65347">
      <ele>131.0</ele>
      <time>2015-12-31T09:24:35Z</time>
    </trkpt>
    <trkpt lat="48.458318" lon="2.653499">
      <ele>131.0</ele>
      <time>2015-12-31T09:24:38Z</time>
    </trkpt>
    <trkpt lat="48.458197" lon="2.653458">
      <ele>131.0</ele>
      <time>2015-12-31T09:24:40Z</time>
    </trkpt>
    <trkpt lat="48.458077" lon="2.653397">
      <ele>131.0</ele>
      <time>2015-12-31T09:24:42Z</time>
    </trkpt>
    <trkpt lat="48.457991" lon="2.65332">
      <ele>131.0</ele>
      <time>2015-12-31T09:24:44Z</time>
    </trkpt>
    <trkpt lat="48.457899" lon="2.653208">
      <ele>131.0</ele>
      <time>2015-12-31T09:24:47Z</time>
    </trkpt>
    <trkpt lat="48.457818" lon="2.653083">
      <ele>131.0</ele>
      <time>2015-12-31T09:24:50Z</time>
    </trkpt>
    <trkpt lat="48.457757" lon="2.652979">
      <ele>131.33</ele>
      <time>2015-12-31T09:24:53Z</time>
    </trkpt>
    <trkpt lat="48.457691" lon="2.652874">
      <ele>131.762</ele>
      <time>2015-12-31T09:24:56Z</time>
    </trkpt>
    <trkpt lat="48.457651" lon="2.652738">
      <ele>132.0</ele>
      <time>2015-12-31T09:24:58Z</time>
    </trkpt>
    <trkpt lat="48.457605" lon="2.652571">
      <ele>132.0</ele>
      <time>2015-12-31T09:25:00Z</time>
    </trkpt>
    <trkpt lat="48.457581" lon="2.652413">
      <ele>132.0</ele>
      <time>2015-12-31T09:25:02Z</time>
    </trkpt>
    <trkpt lat="48.45761" lon="2.652272">
      <ele>132.0</ele>
      <time>2015-12-31T09:25:04Z</time>
    </trkpt>
    <trkpt lat="48.457644" lon="2.652117">
      <ele>132.0</ele>
      <time>2015-12-31T09:25:06Z</time>
    </trkpt>
    <trkpt lat="48.457737" lon="2.65197">
      <ele>132.0</ele>
      <time>2015-12-31T09:25:08Z</time>
    </trkpt>
    <trkpt lat="48.457856" lon="2.651876">
      <ele>131.541</ele>
      <time>2015-12-31T09:25:10Z</time>
    </trkpt>
    <trkpt lat="48.457965" lon="2.651779">
      <ele>131.132</ele>
      <time>2015-12-31T09:25:12Z</time>
    </trkpt>
    <trkpt lat="48.458065" lon="2.651696">
      <ele>130.962</ele>
      <time>2015-12-31T09:25:14Z</time>
    </trkpt>
    <trkpt lat="48.458157" lon="2.651582">
      <ele>130.746</ele>
      <time>2015-12-31T09:25:17Z</time>
    </trkpt>
    <trkpt lat="48.458296" lon="2.65152">
      <ele>130.591</ele>
      <time>2015-12-31T09:25:20Z</time>
    </trkpt>
    <trkpt lat="48.458387" lon="2.651509">
      <ele>130.291</ele>
      <time>2015-12-31T09:25:22Z</time>
    </trkpt>
    <trkpt lat="48.458446" lon="2.651395">
      <ele>130.563</ele>
      <time>2015-12-31T09:25:24Z</time>
    </trkpt>
    <trkpt lat="48.458549" lon="2.651335">
      <ele>130.224</ele>
      <time>2015-12-31T09:25:26Z</time>
    </trkpt>
    <trkpt lat="48.458669" lon="2.651255">
      <ele>129.475</ele>
      <time>2015-12-31T09:25:28Z</time>
    </trkpt>
    <trkpt lat="48.458665" lon="2.651049">
      <ele>129.792</ele>
      <time>2015-12-31T09:25:31Z</time>
    </trkpt>
    <trkpt lat="48.458669" lon="2.650871">
      <ele>130.267</ele>
      <time>2015-12-31T09:25:34Z</time>
    </trkpt>
    <trkpt lat="48.458643" lon="2.650736">
      <ele>130.345</ele>
      <time>2015-12-31T09:25:36Z</time>
    </trkpt>
    <trkpt lat="48.458578" lon="2.650525">
      <ele>130.119</ele>
      <time>2015-12-31T09:25:39Z</time>
    </trkpt>
    <trkpt lat="48.458523" lon="2.650358">
      <ele>130.317</ele>
      <time>2015-12-31T09:25:42Z</time>
    </trkpt>
    <trkpt lat="48.458442" lon="2.650206">
      <ele>130.508</ele>
      <time>2015-12-31T09:25:44Z</time>
    </trkpt>
    <trkpt lat="48.458371" lon="2.650057">
      <ele>130.757</ele>
      <time>2015-12-31T09:25:47Z</time>
    </trkpt>
    <trkpt lat="48.458301" lon="2.649935">
      <ele>131.116</ele>
      <time>2015-12-31T09:25:49Z</time>
    </trkpt>
    <trkpt lat="48.458258" lon="2.649804">
      <ele>131.271</ele>
      <time>2015-12-31T09:25:52Z</time>
    </trkpt>
    <trkpt lat="48.458206" lon="2.649677">
      <ele>131.533</ele>
      <time>2015-12-31T09:25:54Z</time>
    </trkpt>
    <trkpt lat="48.45814" lon="2.64952">
      <ele>132.203</ele>
      <time>2015-12-31T09:25:57Z</time>
    </trkpt>
    <trkpt lat="48.458101" lon="2.649351">
      <ele>132.728</ele>
      <time>2015-12-31T09:26:00Z</time>
    </trkpt>
    <trkpt lat="48.458095" lon="2.649203">
      <ele>132.839</ele>
      <time>2015-12-31T09:26:03Z</time>
    </trkpt>
    <trkpt lat="48.458118" lon="2.649004">
      <ele>132.775</ele>
      <time>2015-12-31T09:26:06Z</time>
    </trkpt>
    <trkpt lat="48.458131" lon="2.648806">
      <ele>132.511</ele>
      <time>2015-12-31T09:26:09Z</time>
    </trkpt>
    <trkpt lat="48.458177" lon="2.648638">
      <ele>132.054</ele>
      <time>2015-12-31T09:26:12Z</time>
    </trkpt>
    <trkpt lat="48.458266" lon="2.648527">
      <ele>132.0</ele>
      <time>2015-12-31T09:26:14Z</time>
    </trkpt>
    <trkpt lat="48.458361" lon="2.648415">
      <ele>131.801</ele>
      <time>2015-12-31T09:26:16Z</time>
    </trkpt>
    <trkpt lat="48.458487" lon="2.648391">
      <ele>130.894</ele>
      <time>2015-12-31T09:26:18Z</time>
    </trkpt>
    <trkpt lat="48.458612" lon="2.648328">
      <ele>130.013</ele>
      <time>2015-12-31T09:26:20Z</time>
    </trkpt>
    <trkpt lat="48.458716" lon="2.648258">
      <ele>129.618</ele>
      <time>2015-12-31T09:26:22Z</time>
    </trkpt>
    <trkpt lat="48.458797" lon="2.64818">
      <ele>129.583</ele>
      <time>2015-12-31T09:26:25Z</time>
    </trkpt>
    <trkpt lat="48.458927" lon="2.648141">
      <ele>129.11</ele>
      <time>2015-12-31T09:26:28Z</time>
    </trkpt>
    <trkpt lat="48.459077" lon="2.648099">
      <ele>128.333</ele>
      <time>2015-12-31T09:26:30Z</time>
    </trkpt>
    <trkpt lat="48.459202" lon="2.64807">
      <ele>127.769</ele>
      <time>2015-12-31T09:26:32Z</time>
    </trkpt>
    <trkpt lat="48.459313" lon="2.647961">
      <ele>127.975</ele>
      <time>2015-12-31T09:26:34Z</time>
    </trkpt>
    <trkpt lat="48.459385" lon="2.647815">
      <ele>128.265</ele>
      <time>2015-12-31T09:26:36Z</time>
    </trkpt>
    <trkpt lat="48.459474" lon="2.647687">
      <ele>127.973</ele>
      <time>2015-12-31T09:26:38Z</time>
    </trkpt>
    <trkpt lat="48.459497" lon="2.647528">
      <ele>128.161</ele>
      <time>2015-12-31T09:26:40Z</time>
    </trkpt>
    <trkpt lat="48.459507" lon="2.647378">
      <ele>128.099</ele>
      <time>2015-12-31T09:26:42Z</time>
    </trkpt>
    <trkpt lat="48.459544" lon="2.647175">
      <ele>127.566</ele>
      <time>2015-12-31T09:26:45Z</time>
    </trkpt>
    <trkpt lat="48.45955" lon="2.64704">
      <ele>127.48</ele>
      <time>2015-12-31T09:26:47Z</time>
    </trkpt>
    <trkpt lat="48.459527" lon="2.646878">
      <ele>127.811</ele>
      <time>2015-12-31T09:26:49Z</time>
    </trkpt>
    <trkpt lat="48.459512" lon="2.64667">
      <ele>128.027</ele>
      <time>2015-12-31T09:26:52Z</time>
    </trkpt>
    <trkpt lat="48.459512" lon="2.646532">
      <ele>128.263</ele>
      <time>2015-12-31T09:26:54Z</time>
    </trkpt>
    <trkpt lat="48.459499" lon="2.646382">
      <ele>128.632</ele>
      <time>2015-12-31T09:26:56Z</time>
    </trkpt>
    <trkpt lat="48.459449" lon="2.646206">
      <ele>129.626</ele>
      <time>2015-12-31T09:26:58Z</time>
    </trkpt>
    <trkpt lat="48.459401" lon="2.646044">
      <ele>130.038</ele>
      <time>2015-12-31T09:27:00Z</time>
    </trkpt>
    <trkpt lat="48.459341" lon="2.645916">
      <ele>130.262</ele>
      <time>2015-12-31T09:27:02Z</time>
    </trkpt>
    <trkpt lat="48.459297" lon="2.64577">
      <ele>130.424</ele>
      <time>2015-12-31T09:27:05Z</time>
    </trkpt>
    <trkpt lat="48.459206" lon="2.645624">
      <ele>130.752</ele>
      <time>2015-12-31T09:27:08Z</time>
    </trkpt>
    <trkpt lat="48.459154" lon="2.645492">
      <ele>131.0</ele>
      <time>2015-12-31T09:27:11Z</time>
    </trkpt>
    <trkpt lat="48.459112" lon="2.645355">
      <ele>131.0</ele>
      <time>2015-12-31T09:27:13Z</time>
    </trkpt>
    <trkpt lat="48.459094" lon="2.645206">
      <ele>130.809</ele>
      <time>2015-12-31T09:27:15Z</time>
    </trkpt>
    <trkpt lat="48.459079" lon="2.645057">
      <ele>130.456</ele>
      <time>2015-12-31T09:27:17Z</time>
    </trkpt>
    <trkpt lat="48.459024" lon="2.644865">
      <ele>130.264</ele>
      <time>2015-12-31T09:27:19Z</time>
    </trkpt>
    <trkpt lat="48.45901" lon="2.644702">
      <ele>130.0</ele>
      <time>2015-12-31T09:27:21Z</time>
    </trkpt>
    <trkpt lat="48.458993" lon="2.644521">
      <ele>130.0</ele>
      <time>2015-12-31T09:27:23Z</time>
    </trkpt>
    <trkpt lat="48.45901" lon="2.644367">
      <ele>129.843</ele>
      <time>2015-12-31T09:27:25Z</time>
    </trkpt>
    <trkpt lat="48.45903" lon="2.644209">
      <ele>129.583</ele>
      <time>2015-12-31T09:27:27Z</time>
    </trkpt>
    <trkpt lat="48.459055" lon="2.644044">
      <ele>129.776</ele>
      <time>2015-12-31T09:27:29Z</time>
    </trkpt>
    <trkpt lat="48.45912" lon="2.643929">
      <ele>129.976</ele>
      <time>2015-12-31T09:27:31Z</time>
    </trkpt>
    <trkpt lat="48.459133" lon="2.643748">
      <ele>130.0</ele>
      <time>2015-12-31T09:27:33Z</time>
    </trkpt>
    <trkpt lat="48.459149" lon="2.643585">
      <ele>130.006</ele>
      <time>2015-12-31T09:27:35Z</time>
    </trkpt>
    <trkpt lat="48.459163" lon="2.643418">
      <ele>130.009</ele>
      <time>2015-12-31T09:27:37Z</time>
    </trkpt>
    <trkpt lat="48.459188" lon="2.643239">
      <ele>129.61</ele>
      <time>2015-12-31T09:27:40Z</time>
    </trkpt>
    <trkpt lat="48.459228" lon="2.643092">
      <ele>129.102</ele>
      <time>2015-12-31T09:27:42Z</time>
    </trkpt>
    <trkpt lat="48.45931" lon="2.642916">
      <ele>128.741</ele>
      <time>2015-12-31T09:27:44Z</time>
    </trkpt>
    <trkpt lat="48.459322" lon="2.642751">
      <ele>128.387</ele>
      <time>2015-12-31T09:27:46Z</time>
    </trkpt>
    <trkpt lat="48.459342" lon="2.642585">
      <ele>127.931</ele>
      <time>2015-12-31T09:27:48Z</time>
    </trkpt>
    <trkpt lat="48.459389" lon="2.642405">
      <ele>127.399</ele>
      <time>2015-12-31T09:27:51Z</time>
    </trkpt>
    <trkpt lat="48.459385" lon="2.642249">
      <ele>127.428</ele>
      <time>2015-12-31T09:27:53Z</time>
    </trkpt>
    <trkpt lat="48.459413" lon="2.642116">
      <ele>127.226</ele>
      <time>2015-12-31T09:27:55Z</time>
    </trkpt>
    <trkpt lat="48.459434" lon="2.641956">
      <ele>127.075</ele>
      <time>2015-12-31T09:27:57Z</time>
    </trkpt>
    <trkpt lat="48.45947" lon="2.64181">
      <ele>126.148</ele>
      <time>2015-12-31T09:27:59Z</time>
    </trkpt>
    <trkpt lat="48.45948" lon="2.641657">
      <ele>125.458</ele>
      <time>2015-12-31T09:28:01Z</time>
    </trkpt>
    <trkpt lat="48.459486" lon="2.641481">
      <ele>124.833</ele>
      <time>2015-12-31T09:28:04Z</time>
    </trkpt>
    <trkpt lat="48.459423" lon="2.64136">
      <ele>125.293</ele>
      <time>2015-12-31T09:28:07Z</time>
    </trkpt>
    <trkpt lat="48.459334" lon="2.641318">
      <ele>126.387</ele>
      <time>2015-12-31T09:28:09Z</time>
    </trkpt>
    <trkpt lat="48.45924" lon="2.641274">
      <ele>127.335</ele>
      <time>2015-12-31T09:28:12Z</time>
    </trkpt>
    <trkpt lat="48.459138" lon="2.641229">
      <ele>128.218</ele>
      <time>2015-12-31T09:28:16Z</time>
    </trkpt>
    <trkpt lat="48.459032" lon="2.641231">
      <ele>129.593</ele>
      <time>2015-12-31T09:28:20Z</time>
    </trkpt>
    <trkpt lat="48.458923" lon="2.641212">
      <ele>130.917</ele>
      <time>2015-12-31T09:28:24Z</time>
    </trkpt>
    <trkpt lat="48.458809" lon="2.641187">
      <ele>131.561</ele>
      <time>2015-12-31T09:28:28Z</time>
    </trkpt>
    <trkpt lat="48.458708" lon="2.641179">
      <ele>131.896</ele>
      <time>2015-12-31T09:28:31Z</time>
    </trkpt>
    <trkpt lat="48.458614" lon="2.641173">
      <ele>132.212</ele>
      <time>2015-12-31T09:28:34Z</time>
    </trkpt>
    <trkpt lat="48.458483" lon="2.64118">
      <ele>132.824</ele>
      <time>2015-12-31T09:28:37Z</time>
    </trkpt>
    <trkpt lat="48.458376" lon="2.641182">
      <ele>133.318</ele>
      <time>2015-12-31T09:28:40Z</time>
    </trkpt>
    <trkpt lat="48.458261" lon="2.641168">
      <ele>133.877</ele>
      <time>2015-12-31T09:28:43Z</time>
    </trkpt>
    <trkpt lat="48.458165" lon="2.64115">
      <ele>134.407</ele>
      <time>2015-12-31T09:28:46Z</time>
    </trkpt>
    <trkpt lat="48.458079" lon="2.641093">
      <ele>134.695</ele>
      <time>2015-12-31T09:28:49Z</time>
    </trkpt>
    <trkpt lat="48.457989" lon="2.64101">
      <ele>134.838</ele>
      <time>2015-12-31T09:28:52Z</time>
    </trkpt>
    <trkpt lat="48.457916" lon="2.640892">
      <ele>134.823</ele>
      <time>2015-12-31T09:28:55Z</time>
    </trkpt>
    <trkpt lat="48.457864" lon="2.640768">
      <ele>134.598</ele>
      <time>2015-12-31T09:28:58Z</time>
    </trkpt>
    <trkpt lat="48.457804" lon="2.640622">
      <ele>134.195</ele>
      <time>2015-12-31T09:29:02Z</time>
    </trkpt>
    <trkpt lat="48.457745" lon="2.640498">
      <ele>134.053</ele>
      <time>2015-12-31T09:29:05Z</time>
    </trkpt>
    <trkpt lat="48.457678" lon="2.640359">
      <ele>134.265</ele>
      <time>2015-12-31T09:29:09Z</time>
    </trkpt>
    <trkpt lat="48.457614" lon="2.640214">
      <ele>134.904</ele>
      <time>2015-12-31T09:29:12Z</time>
    </trkpt>
    <trkpt lat="48.457585" lon="2.640053">
      <ele>135.644</ele>
      <time>2015-12-31T09:29:16Z</time>
    </trkpt>
    <trkpt lat="48.457554" lon="2.639889">
      <ele>136.222</ele>
      <time>2015-12-31T09:29:19Z</time>
    </trkpt>
    <trkpt lat="48.457556" lon="2.639707">
      <ele>136.139</ele>
      <time>2015-12-31T09:29:22Z</time>
    </trkpt>
    <trkpt lat="48.457557" lon="2.639531">
      <ele>135.491</ele>
      <time>2015-12-31T09:29:25Z</time>
    </trkpt>
    <trkpt lat="48.457572" lon="2.63938">
      <ele>134.731</ele>
      <time>2015-12-31T09:29:28Z</time>
    </trkpt>
    <trkpt lat="48.457544" lon="2.639248">
      <ele>134.659</ele>
      <time>2015-12-31T09:29:30Z</time>
    </trkpt>
    <trkpt lat="48.457575" lon="2.639052">
      <ele>133.507</ele>
      <time>2015-12-31T09:29:33Z</time>
    </trkpt>
    <trkpt lat="48.457592" lon="2.638859">
      <ele>132.496</ele>
      <time>2015-12-31T09:29:36Z</time>
    </trkpt>
    <trkpt lat="48.4576" lon="2.638716">
      <ele>131.539</ele>
      <time>2015-12-31T09:29:38Z</time>
    </trkpt>
    <trkpt lat="48.457625" lon="2.638523">
      <ele>130.016</ele>
      <time>2015-12-31T09:29:41Z</time>
    </trkpt>
    <trkpt lat="48.457584" lon="2.638373">
      <ele>129.378</ele>
      <time>2015-12-31T09:29:44Z</time>
    </trkpt>
    <trkpt lat="48.457462" lon="2.638299">
      <ele>129.262</ele>
      <time>2015-12-31T09:29:46Z</time>
    </trkpt>
    <trkpt lat="48.457374" lon="2.638365">
      <ele>129.826</ele>
      <time>2015-12-31T09:29:48Z</time>
    </trkpt>
    <trkpt lat="48.457296" lon="2.63852">
      <ele>131.103</ele>
      <time>2015-12-31T09:29:51Z</time>
    </trkpt>
    <trkpt lat="48.457251" lon="2.638686">
      <ele>132.539</ele>
      <time>2015-12-31T09:29:54Z</time>
    </trkpt>
    <trkpt lat="48.457211" lon="2.638831">
      <ele>133.575</ele>
      <time>2015-12-31T09:29:57Z</time>
    </trkpt>
    <trkpt lat="48.45716" lon="2.638991">
      <ele>134.368</ele>
      <time>2015-12-31T09:30:00Z</time>
    </trkpt>
    <trkpt lat="48.457087" lon="2.639101">
      <ele>134.764</ele>
      <time>2015-12-31T09:30:03Z</time>
    </trkpt>
    <trkpt lat="48.457" lon="2.639206">
      <ele>135.283</ele>
      <time>2015-12-31T09:30:06Z</time>
    </trkpt>
    <trkpt lat="48.456897" lon="2.639246">
      <ele>135.864</ele>
      <time>2015-12-31T09:30:09Z</time>
    </trkpt>
    <trkpt lat="48.456778" lon="2.639272">
      <ele>136.73</ele>
      <time>2015-12-31T09:30:12Z</time>
    </trkpt>
    <trkpt lat="48.456661" lon="2.639315">
      <ele>137.514</ele>
      <time>2015-12-31T09:30:15Z</time>
    </trkpt>
    <trkpt lat="48.456539" lon="2.639312">
      <ele>137.064</ele>
      <time>2015-12-31T09:30:18Z</time>
    </trkpt>
    <trkpt lat="48.45642" lon="2.639285">
      <ele>136.538</ele>
      <time>2015-12-31T09:30:21Z</time>
    </trkpt>
    <trkpt lat="48.456334" lon="2.639203">
      <ele>135.959</ele>
      <time>2015-12-31T09:30:24Z</time>
    </trkpt>
    <trkpt lat="48.456259" lon="2.639029">
      <ele>135.037</ele>
      <time>2015-12-31T09:30:27Z</time>
    </trkpt>
    <trkpt lat="48.456207" lon="2.638905">
      <ele>134.403</ele>
      <time>2015-12-31T09:30:29Z</time>
    </trkpt>
    <trkpt lat="48.456111" lon="2.638768">
      <ele>133.13</ele>
      <time>2015-12-31T09:30:32Z</time>
    </trkpt>
    <trkpt lat="48.45601" lon="2.638743">
      <ele>132.95</ele>
      <time>2015-12-31T09:30:34Z</time>
    </trkpt>
    <trkpt lat="48.455918" lon="2.638776">
      <ele>133.187</ele>
      <time>2015-12-31T09:30:36Z</time>
    </trkpt>
    <trkpt lat="48.455821" lon="2.638795">
      <ele>133.339</ele>
      <time>2015-12-31T09:30:38Z</time>
    </trkpt>
    <trkpt lat="48.455703" lon="2.63878">
      <ele>133.4</ele>
      <time>2015-12-31T09:30:41Z</time>
    </trkpt>
    <trkpt lat="48.4556" lon="2.638709">
      <ele>133.249</ele>
      <time>2015-12-31T09:30:44Z</time>
    </trkpt>
    <trkpt lat="48.455515" lon="2.638614">
      <ele>133.156</ele>
      <time>2015-12-31T09:30:47Z</time>
    </trkpt>
    <trkpt lat="48.455424" lon="2.63854">
      <ele>132.962</ele>
      <time>2015-12-31T09:30:50Z</time>
    </trkpt>
    <trkpt lat="48.455295" lon="2.638523">
      <ele>133.304</ele>
      <time>2015-12-31T09:30:53Z</time>
    </trkpt>
    <trkpt lat="48.455204" lon="2.638527">
      <ele>134.006</ele>
      <time>2015-12-31T09:30:55Z</time>
    </trkpt>
    <trkpt lat="48.455086" lon="2.63853">
      <ele>134.998</ele>
      <time>2015-12-31T09:30:58Z</time>
    </trkpt>
    <trkpt lat="48.454969" lon="2.638506">
      <ele>135.887</ele>
      <time>2015-12-31T09:31:01Z</time>
    </trkpt>
    <trkpt lat="48.454875" lon="2.638392">
      <ele>136.466</ele>
      <time>2015-12-31T09:31:04Z</time>
    </trkpt>
    <trkpt lat="48.454807" lon="2.638279">
      <ele>136.889</ele>
      <time>2015-12-31T09:31:07Z</time>
    </trkpt>
    <trkpt lat="48.454738" lon="2.638161">
      <ele>137.209</ele>
      <time>2015-12-31T09:31:10Z</time>
    </trkpt>
    <trkpt lat="48.454655" lon="2.638055">
      <ele>137.238</ele>
      <time>2015-12-31T09:31:12Z</time>
    </trkpt>
    <trkpt lat="48.454571" lon="2.637923">
      <ele>136.85</ele>
      <time>2015-12-31T09:31:15Z</time>
    </trkpt>
    <trkpt lat="48.454493" lon="2.637802">
      <ele>136.753</ele>
      <time>2015-12-31T09:31:17Z</time>
    </trkpt>
    <trkpt lat="48.45442" lon="2.637626">
      <ele>136.542</ele>
      <time>2015-12-31T09:31:20Z</time>
    </trkpt>
    <trkpt lat="48.454363" lon="2.637475">
      <ele>136.203</ele>
      <time>2015-12-31T09:31:22Z</time>
    </trkpt>
    <trkpt lat="48.454329" lon="2.637301">
      <ele>135.699</ele>
      <time>2015-12-31T09:31:24Z</time>
    </trkpt>
    <trkpt lat="48.454306" lon="2.637152">
      <ele>135.119</ele>
      <time>2015-12-31T09:31:26Z</time>
    </trkpt>
    <trkpt lat="48.454343" lon="2.636992">
      <ele>134.01</ele>
      <time>2015-12-31T09:31:30Z</time>
    </trkpt>
    <trkpt lat="48.454306" lon="2.63683">
      <ele>133.791</ele>
      <time>2015-12-31T09:31:34Z</time>
    </trkpt>
    <trkpt lat="48.454237" lon="2.636725">
      <ele>133.904</ele>
      <time>2015-12-31T09:31:36Z</time>
    </trkpt>
    <trkpt lat="48.454164" lon="2.636629">
      <ele>133.738</ele>
      <time>2015-12-31T09:31:38Z</time>
    </trkpt>
    <trkpt lat="48.454056" lon="2.63651">
      <ele>133.27</ele>
      <time>2015-12-31T09:31:41Z</time>
    </trkpt>
    <trkpt lat="48.453962" lon="2.636434">
      <ele>133.062</ele>
      <time>2015-12-31T09:31:43Z</time>
    </trkpt>
    <trkpt lat="48.453828" lon="2.636408">
      <ele>133.153</ele>
      <time>2015-12-31T09:31:46Z</time>
    </trkpt>
    <trkpt lat="48.453737" lon="2.636424">
      <ele>133.322</ele>
      <time>2015-12-31T09:31:48Z</time>
    </trkpt>
    <trkpt lat="48.453645" lon="2.636441">
      <ele>133.54</ele>
      <time>2015-12-31T09:31:50Z</time>
    </trkpt>
    <trkpt lat="48.453556" lon="2.636482">
      <ele>134.006</ele>
      <time>2015-12-31T09:31:52Z</time>
    </trkpt>
    <trkpt lat="48.453466" lon="2.63652">
      <ele>134.416</ele>
      <time>2015-12-31T09:31:54Z</time>
    </trkpt>
    <trkpt lat="48.453346" lon="2.636572">
      <ele>134.978</ele>
      <time>2015-12-31T09:31:57Z</time>
    </trkpt>
    <trkpt lat="48.453231" lon="2.636626">
      <ele>135.615</ele>
      <time>2015-12-31T09:32:00Z</time>
    </trkpt>
    <trkpt lat="48.453144" lon="2.636665">
      <ele>135.986</ele>
      <time>2015-12-31T09:32:02Z</time>
    </trkpt>
    <trkpt lat="48.453036" lon="2.636651">
      <ele>135.825</ele>
      <time>2015-12-31T09:32:05Z</time>
    </trkpt>
    <trkpt lat="48.452949" lon="2.636569">
      <ele>135.183</ele>
      <time>2015-12-31T09:32:08Z</time>
    </trkpt>
    <trkpt lat="48.452872" lon="2.63647">
      <ele>134.859</ele>
      <time>2015-12-31T09:32:10Z</time>
    </trkpt>
    <trkpt lat="48.452801" lon="2.63637">
      <ele>134.843</ele>
      <time>2015-12-31T09:32:12Z</time>
    </trkpt>
    <trkpt lat="48.452732" lon="2.636216">
      <ele>134.378</ele>
      <time>2015-12-31T09:32:15Z</time>
    </trkpt>
    <trkpt lat="48.452667" lon="2.636119">
      <ele>134.028</ele>
      <time>2015-12-31T09:32:17Z</time>
    </trkpt>
    <trkpt lat="48.452569" lon="2.636068">
      <ele>133.651</ele>
      <time>2015-12-31T09:32:20Z</time>
    </trkpt>
    <trkpt lat="48.452475" lon="2.636075">
      <ele>133.92</ele>
      <time>2015-12-31T09:32:22Z</time>
    </trkpt>
    <trkpt lat="48.452372" lon="2.636083">
      <ele>134.719</ele>
      <time>2015-12-31T09:32:24Z</time>
    </trkpt>
    <trkpt lat="48.452274" lon="2.636104">
      <ele>135.576</ele>
      <time>2015-12-31T09:32:26Z</time>
    </trkpt>
    <trkpt lat="48.452169" lon="2.636094">
      <ele>136.26</ele>
      <time>2015-12-31T09:32:28Z</time>
    </trkpt>
    <trkpt lat="48.452062" lon="2.635984">
      <ele>136.238</ele>
      <time>2015-12-31T09:32:31Z</time>
    </trkpt>
    <trkpt lat="48.452002" lon="2.63585">
      <ele>135.706</ele>
      <time>2015-12-31T09:32:33Z</time>
    </trkpt>
    <trkpt lat="48.451982" lon="2.635688">
      <ele>134.683</ele>
      <time>2015-12-31T09:32:36Z</time>
    </trkpt>
    <trkpt lat="48.451948" lon="2.635528">
      <ele>133.777</ele>
      <time>2015-12-31T09:32:38Z</time>
    </trkpt>
    <trkpt lat="48.451972" lon="2.635379">
      <ele>132.593</ele>
      <time>2015-12-31T09:32:40Z</time>
    </trkpt>
    <trkpt lat="48.451946" lon="2.635201">
      <ele>131.718</ele>
      <time>2015-12-31T09:32:42Z</time>
    </trkpt>
    <trkpt lat="48.451953" lon="2.635053">
      <ele>131.16</ele>
      <time>2015-12-31T09:32:44Z</time>
    </trkpt>
    <trkpt lat="48.451964" lon="2.634917">
      <ele>130.951</ele>
      <time>2015-12-31T09:32:46Z</time>
    </trkpt>
    <trkpt lat="48.451988" lon="2.634774">
      <ele>130.971</ele>
      <time>2015-12-31T09:32:48Z</time>
    </trkpt>
    <trkpt lat="48.451968" lon="2.634584">
      <ele>130.958</ele>
      <time>2015-12-31T09:32:51Z</time>
    </trkpt>
    <trkpt lat="48.451985" lon="2.634423">
      <ele>130.777</ele>
      <time>2015-12-31T09:32:54Z</time>
    </trkpt>
    <trkpt lat="48.451996" lon="2.634226">
      <ele>130.028</ele>
      <time>2015-12-31T09:32:57Z</time>
    </trkpt>
    <trkpt lat="48.452001" lon="2.634086">
      <ele>128.984</ele>
      <time>2015-12-31T09:33:00Z</time>
    </trkpt>
    <trkpt lat="48.452003" lon="2.633937">
      <ele>127.483</ele>
      <time>2015-12-31T09:33:03Z</time>
    </trkpt>
    <trkpt lat="48.452042" lon="2.633798">
      <ele>126.018</ele>
      <time>2015-12-31T09:33:07Z</time>
    </trkpt>
    <trkpt lat="48.452098" lon="2.633675">
      <ele>124.69</ele>
      <time>2015-12-31T09:33:11Z</time>
    </trkpt>
    <trkpt lat="48.452045" lon="2.633793">
      <ele>125.964</ele>
      <time>2015-12-31T09:35:56Z</time>
    </trkpt>
    <trkpt lat="48.452019" lon="2.633934">
      <ele>127.444</ele>
      <time>2015-12-31T09:36:02Z</time>
    </trkpt>
    <trkpt lat="48.452017" lon="2.634082">
      <ele>128.904</ele>
      <time>2015-12-31T09:36:05Z</time>
    </trkpt>
    <trkpt lat="48.452018" lon="2.634263">
      <ele>130.082</ele>
      <time>2015-12-31T09:36:08Z</time>
    </trkpt>
    <trkpt lat="48.452007" lon="2.63445">
      <ele>130.779</ele>
      <time>2015-12-31T09:36:11Z</time>
    </trkpt>
    <trkpt lat="48.452008" lon="2.634619">
      <ele>130.915</ele>
      <time>2015-12-31T09:36:14Z</time>
    </trkpt>
    <trkpt lat="48.451991" lon="2.634803">
      <ele>130.951</ele>
      <time>2015-12-31T09:36:17Z</time>
    </trkpt>
    <trkpt lat="48.451981" lon="2.634977">
      <ele>130.879</ele>
      <time>2015-12-31T09:36:20Z</time>
    </trkpt>
    <trkpt lat="48.451924" lon="2.635137">
      <ele>131.382</ele>
      <time>2015-12-31T09:36:23Z</time>
    </trkpt>
    <trkpt lat="48.451844" lon="2.635266">
      <ele>131.581</ele>
      <time>2015-12-31T09:36:26Z</time>
    </trkpt>
    <trkpt lat="48.451768" lon="2.63542">
      <ele>133.039</ele>
      <time>2015-12-31T09:36:29Z</time>
    </trkpt>
    <trkpt lat="48.451715" lon="2.635561">
      <ele>134.865</ele>
      <time>2015-12-31T09:36:32Z</time>
    </trkpt>
    <trkpt lat="48.451718" lon="2.635707">
      <ele>135.906</ele>
      <time>2015-12-31T09:36:35Z</time>
    </trkpt>
    <trkpt lat="48.451729" lon="2.635855">
      <ele>136.932</ele>
      <time>2015-12-31T09:36:38Z</time>
    </trkpt>
    <trkpt lat="48.451764" lon="2.636014">
      <ele>137.95</ele>
      <time>2015-12-31T09:36:41Z</time>
    </trkpt>
    <trkpt lat="48.45175" lon="2.636174">
      <ele>138.926</ele>
      <time>2015-12-31T09:36:44Z</time>
    </trkpt>
    <trkpt lat="48.45165" lon="2.636292">
      <ele>139.57</ele>
      <time>2015-12-31T09:36:48Z</time>
    </trkpt>
    <trkpt lat="48.451566" lon="2.636346">
      <ele>139.427</ele>
      <time>2015-12-31T09:36:51Z</time>
    </trkpt>
    <trkpt lat="48.451465" lon="2.636444">
      <ele>139.472</ele>
      <time>2015-12-31T09:36:54Z</time>
    </trkpt>
    <trkpt lat="48.451381" lon="2.636515">
      <ele>139.353</ele>
      <time>2015-12-31T09:36:57Z</time>
    </trkpt>
    <trkpt lat="48.451292" lon="2.636635">
      <ele>138.8</ele>
      <time>2015-12-31T09:37:00Z</time>
    </trkpt>
    <trkpt lat="48.451247" lon="2.636779">
      <ele>138.674</ele>
      <time>2015-12-31T09:37:03Z</time>
    </trkpt>
    <trkpt lat="48.451185" lon="2.636943">
      <ele>138.528</ele>
      <time>2015-12-31T09:37:06Z</time>
    </trkpt>
    <trkpt lat="48.451091" lon="2.637067">
      <ele>137.702</ele>
      <time>2015-12-31T09:37:10Z</time>
    </trkpt>
    <trkpt lat="48.451029" lon="2.637178">
      <ele>137.019</ele>
      <time>2015-12-31T09:37:12Z</time>
    </trkpt>
    <trkpt lat="48.450985" lon="2.6373">
      <ele>136.765</ele>
      <time>2015-12-31T09:37:14Z</time>
    </trkpt>
    <trkpt lat="48.450947" lon="2.637433">
      <ele>136.676</ele>
      <time>2015-12-31T09:37:16Z</time>
    </trkpt>
    <trkpt lat="48.450911" lon="2.637616">
      <ele>136.977</ele>
      <time>2015-12-31T09:37:18Z</time>
    </trkpt>
    <trkpt lat="48.450894" lon="2.637751">
      <ele>137.34</ele>
      <time>2015-12-31T09:37:20Z</time>
    </trkpt>
    <trkpt lat="48.450876" lon="2.637891">
      <ele>137.37</ele>
      <time>2015-12-31T09:37:22Z</time>
    </trkpt>
    <trkpt lat="48.450889" lon="2.638089">
      <ele>137.601</ele>
      <time>2015-12-31T09:37:25Z</time>
    </trkpt>
    <trkpt lat="48.450881" lon="2.638226">
      <ele>137.515</ele>
      <time>2015-12-31T09:37:27Z</time>
    </trkpt>
    <trkpt lat="48.450876" lon="2.638415">
      <ele>137.167</ele>
      <time>2015-12-31T09:37:30Z</time>
    </trkpt>
    <trkpt lat="48.450887" lon="2.63856">
      <ele>136.764</ele>
      <time>2015-12-31T09:37:32Z</time>
    </trkpt>
    <trkpt lat="48.450892" lon="2.638712">
      <ele>136.27</ele>
      <time>2015-12-31T09:37:34Z</time>
    </trkpt>
    <trkpt lat="48.450883" lon="2.638852">
      <ele>135.669</ele>
      <time>2015-12-31T09:37:36Z</time>
    </trkpt>
    <trkpt lat="48.450892" lon="2.638994">
      <ele>135.335</ele>
      <time>2015-12-31T09:37:38Z</time>
    </trkpt>
    <trkpt lat="48.450908" lon="2.639211">
      <ele>135.075</ele>
      <time>2015-12-31T09:37:41Z</time>
    </trkpt>
    <trkpt lat="48.450926" lon="2.639359">
      <ele>135.334</ele>
      <time>2015-12-31T09:37:43Z</time>
    </trkpt>
    <trkpt lat="48.450945" lon="2.639511">
      <ele>135.848</ele>
      <time>2015-12-31T09:37:45Z</time>
    </trkpt>
    <trkpt lat="48.450993" lon="2.639689">
      <ele>137.18</ele>
      <time>2015-12-31T09:37:48Z</time>
    </trkpt>
    <trkpt lat="48.451043" lon="2.639852">
      <ele>138.134</ele>
      <time>2015-12-31T09:37:51Z</time>
    </trkpt>
    <trkpt lat="48.451061" lon="2.639994">
      <ele>138.455</ele>
      <time>2015-12-31T09:37:53Z</time>
    </trkpt>
    <trkpt lat="48.451059" lon="2.640141">
      <ele>138.532</ele>
      <time>2015-12-31T09:37:55Z</time>
    </trkpt>
    <trkpt lat="48.451002" lon="2.640302">
      <ele>138.249</ele>
      <time>2015-12-31T09:37:56Z</time>
    </trkpt>
    <trkpt lat="48.450926" lon="2.640512">
      <ele>138.229</ele>
      <time>2015-12-31T09:37:58Z</time>
    </trkpt>
    <trkpt lat="48.450842" lon="2.640684">
      <ele>138.046</ele>
      <time>2015-12-31T09:38:00Z</time>
    </trkpt>
    <trkpt lat="48.450813" lon="2.640856">
      <ele>138.084</ele>
      <time>2015-12-31T09:38:02Z</time>
    </trkpt>
    <trkpt lat="48.450782" lon="2.640991">
      <ele>138.846</ele>
      <time>2015-12-31T09:38:04Z</time>
    </trkpt>
    <trkpt lat="48.450698" lon="2.641096">
      <ele>138.943</ele>
      <time>2015-12-31T09:38:07Z</time>
    </trkpt>
    <trkpt lat="48.450578" lon="2.641276">
      <ele>139.301</ele>
      <time>2015-12-31T09:38:11Z</time>
    </trkpt>
    <trkpt lat="48.450507" lon="2.641379">
      <ele>139.754</ele>
      <time>2015-12-31T09:38:13Z</time>
    </trkpt>
    <trkpt lat="48.450401" lon="2.641481">
      <ele>140.107</ele>
      <time>2015-12-31T09:38:16Z</time>
    </trkpt>
    <trkpt lat="48.450289" lon="2.641608">
      <ele>140.618</ele>
      <time>2015-12-31T09:38:19Z</time>
    </trkpt>
    <trkpt lat="48.45023" lon="2.641727">
      <ele>141.397</ele>
      <time>2015-12-31T09:38:22Z</time>
    </trkpt>
    <trkpt lat="48.450151" lon="2.641868">
      <ele>142.119</ele>
      <time>2015-12-31T09:38:25Z</time>
    </trkpt>
    <trkpt lat="48.450074" lon="2.641982">
      <ele>142.366</ele>
      <time>2015-12-31T09:38:28Z</time>
    </trkpt>
    <trkpt lat="48.449992" lon="2.642095">
      <ele>142.542</ele>
      <time>2015-12-31T09:38:31Z</time>
    </trkpt>
    <trkpt lat="48.449931" lon="2.642196">
      <ele>142.906</ele>
      <time>2015-12-31T09:38:33Z</time>
    </trkpt>
    <trkpt lat="48.44985" lon="2.642319">
      <ele>143.0</ele>
      <time>2015-12-31T09:38:36Z</time>
    </trkpt>
    <trkpt lat="48.449767" lon="2.642422">
      <ele>143.0</ele>
      <time>2015-12-31T09:38:38Z</time>
    </trkpt>
    <trkpt lat="48.44967" lon="2.642552">
      <ele>142.965</ele>
      <time>2015-12-31T09:38:41Z</time>
    </trkpt>
    <trkpt lat="48.449614" lon="2.642668">
      <ele>142.764</ele>
      <time>2015-12-31T09:38:43Z</time>
    </trkpt>
    <trkpt lat="48.449552" lon="2.64277">
      <ele>142.404</ele>
      <time>2015-12-31T09:38:45Z</time>
    </trkpt>
    <trkpt lat="48.449489" lon="2.642877">
      <ele>142.16</ele>
      <time>2015-12-31T09:38:47Z</time>
    </trkpt>
    <trkpt lat="48.449421" lon="2.642967">
      <ele>141.831</ele>
      <time>2015-12-31T09:38:49Z</time>
    </trkpt>
    <trkpt lat="48.449371" lon="2.643094">
      <ele>141.435</ele>
      <time>2015-12-31T09:38:51Z</time>
    </trkpt>
    <trkpt lat="48.449345" lon="2.6433">
      <ele>140.969</ele>
      <time>2015-12-31T09:38:54Z</time>
    </trkpt>
    <trkpt lat="48.449373" lon="2.643451">
      <ele>140.914</ele>
      <time>2015-12-31T09:38:56Z</time>
    </trkpt>
    <trkpt lat="48.449444" lon="2.643633">
      <ele>140.997</ele>
      <time>2015-12-31T09:38:59Z</time>
    </trkpt>
    <trkpt lat="48.449495" lon="2.643755">
      <ele>141.364</ele>
      <time>2015-12-31T09:39:01Z</time>
    </trkpt>
    <trkpt lat="48.449574" lon="2.643896">
      <ele>141.931</ele>
      <time>2015-12-31T09:39:04Z</time>
    </trkpt>
    <trkpt lat="48.44961" lon="2.644036">
      <ele>142.294</ele>
      <time>2015-12-31T09:39:06Z</time>
    </trkpt>
    <trkpt lat="48.449648" lon="2.644223">
      <ele>143.08</ele>
      <time>2015-12-31T09:39:09Z</time>
    </trkpt>
    <trkpt lat="48.44961" lon="2.64442">
      <ele>142.928</ele>
      <time>2015-12-31T09:39:12Z</time>
    </trkpt>
    <trkpt lat="48.449596" lon="2.644559">
      <ele>142.503</ele>
      <time>2015-12-31T09:39:14Z</time>
    </trkpt>
    <trkpt lat="48.449584" lon="2.644697">
      <ele>142.055</ele>
      <time>2015-12-31T09:39:16Z</time>
    </trkpt>
    <trkpt lat="48.449581" lon="2.644927">
      <ele>141.592</ele>
      <time>2015-12-31T09:39:19Z</time>
    </trkpt>
    <trkpt lat="48.449603" lon="2.645133">
      <ele>141.581</ele>
      <time>2015-12-31T09:39:22Z</time>
    </trkpt>
    <trkpt lat="48.449602" lon="2.645277">
      <ele>141.27</ele>
      <time>2015-12-31T09:39:24Z</time>
    </trkpt>
    <trkpt lat="48.449607" lon="2.645416">
      <ele>141.134</ele>
      <time>2015-12-31T09:39:26Z</time>
    </trkpt>
    <trkpt lat="48.44962" lon="2.645619">
      <ele>140.932</ele>
      <time>2015-12-31T09:39:29Z</time>
    </trkpt>
    <trkpt lat="48.449621" lon="2.645772">
      <ele>140.399</ele>
      <time>2015-12-31T09:39:31Z</time>
    </trkpt>
    <trkpt lat="48.449627" lon="2.645913">
      <ele>140.384</ele>
      <time>2015-12-31T09:39:33Z</time>
    </trkpt>
    <trkpt lat="48.449613" lon="2.646124">
      <ele>140.474</ele>
      <time>2015-12-31T09:39:36Z</time>
    </trkpt>
    <trkpt lat="48.44962" lon="2.646309">
      <ele>141.24</ele>
      <time>2015-12-31T09:39:39Z</time>
    </trkpt>
    <trkpt lat="48.449625" lon="2.64647">
      <ele>142.184</ele>
      <time>2015-12-31T09:39:41Z</time>
    </trkpt>
    <trkpt lat="48.449606" lon="2.646622">
      <ele>143.005</ele>
      <time>2015-12-31T09:39:43Z</time>
    </trkpt>
    <trkpt lat="48.449614" lon="2.646762">
      <ele>143.442</ele>
      <time>2015-12-31T09:39:45Z</time>
    </trkpt>
    <trkpt lat="48.449563" lon="2.646929">
      <ele>142.707</ele>
      <time>2015-12-31T09:39:48Z</time>
    </trkpt>
    <trkpt lat="48.449503" lon="2.647075">
      <ele>142.115</ele>
      <time>2015-12-31T09:39:51Z</time>
    </trkpt>
    <trkpt lat="48.449421" lon="2.647152">
      <ele>141.684</ele>
      <time>2015-12-31T09:39:53Z</time>
    </trkpt>
    <trkpt lat="48.4493" lon="2.647148">
      <ele>141.352</ele>
      <time>2015-12-31T09:39:56Z</time>
    </trkpt>
    <trkpt lat="48.44918" lon="2.647199">
      <ele>141.044</ele>
      <time>2015-12-31T09:39:59Z</time>
    </trkpt>
    <trkpt lat="48.449096" lon="2.647267">
      <ele>141.629</ele>
      <time>2015-12-31T09:40:01Z</time>
    </trkpt>
    <trkpt lat="48.449017" lon="2.647383">
      <ele>142.345</ele>
      <time>2015-12-31T09:40:04Z</time>
    </trkpt>
    <trkpt lat="48.448962" lon="2.647561">
      <ele>142.956</ele>
      <time>2015-12-31T09:40:07Z</time>
    </trkpt>
    <trkpt lat="48.448924" lon="2.647693">
      <ele>143.568</ele>
      <time>2015-12-31T09:40:09Z</time>
    </trkpt>
    <trkpt lat="48.448884" lon="2.647834">
      <ele>144.202</ele>
      <time>2015-12-31T09:40:11Z</time>
    </trkpt>
    <trkpt lat="48.448846" lon="2.648002">
      <ele>144.807</ele>
      <time>2015-12-31T09:40:14Z</time>
    </trkpt>
    <trkpt lat="48.448775" lon="2.648189">
      <ele>145.48</ele>
      <time>2015-12-31T09:40:17Z</time>
    </trkpt>
    <trkpt lat="48.448693" lon="2.648331">
      <ele>145.992</ele>
      <time>2015-12-31T09:40:19Z</time>
    </trkpt>
    <trkpt lat="48.448636" lon="2.648478">
      <ele>146.047</ele>
      <time>2015-12-31T09:40:21Z</time>
    </trkpt>
    <trkpt lat="48.448579" lon="2.648659">
      <ele>145.749</ele>
      <time>2015-12-31T09:40:24Z</time>
    </trkpt>
    <trkpt lat="48.448524" lon="2.648809">
      <ele>145.149</ele>
      <time>2015-12-31T09:40:27Z</time>
    </trkpt>
    <trkpt lat="48.448449" lon="2.648938">
      <ele>144.176</ele>
      <time>2015-12-31T09:40:29Z</time>
    </trkpt>
    <trkpt lat="48.448406" lon="2.649102">
      <ele>143.584</ele>
      <time>2015-12-31T09:40:31Z</time>
    </trkpt>
    <trkpt lat="48.448322" lon="2.649278">
      <ele>142.51</ele>
      <time>2015-12-31T09:40:34Z</time>
    </trkpt>
    <trkpt lat="48.448285" lon="2.649408">
      <ele>141.912</ele>
      <time>2015-12-31T09:40:36Z</time>
    </trkpt>
    <trkpt lat="48.448234" lon="2.649552">
      <ele>141.642</ele>
      <time>2015-12-31T09:40:38Z</time>
    </trkpt>
    <trkpt lat="48.448185" lon="2.649686">
      <ele>141.466</ele>
      <time>2015-12-31T09:40:40Z</time>
    </trkpt>
    <trkpt lat="48.448133" lon="2.649804">
      <ele>141.279</ele>
      <time>2015-12-31T09:40:42Z</time>
    </trkpt>
    <trkpt lat="48.448087" lon="2.649948">
      <ele>141.113</ele>
      <time>2015-12-31T09:40:44Z</time>
    </trkpt>
    <trkpt lat="48.448035" lon="2.650106">
      <ele>141.353</ele>
      <time>2015-12-31T09:40:46Z</time>
    </trkpt>
    <trkpt lat="48.448" lon="2.650239">
      <ele>141.688</ele>
      <time>2015-12-31T09:40:48Z</time>
    </trkpt>
    <trkpt lat="48.447943" lon="2.650428">
      <ele>141.595</ele>
      <time>2015-12-31T09:40:50Z</time>
    </trkpt>
    <trkpt lat="48.447892" lon="2.650582">
      <ele>141.411</ele>
      <time>2015-12-31T09:40:52Z</time>
    </trkpt>
    <trkpt lat="48.447855" lon="2.650712">
      <ele>141.278</ele>
      <time>2015-12-31T09:40:54Z</time>
    </trkpt>
    <trkpt lat="48.447843" lon="2.650846">
      <ele>141.224</ele>
      <time>2015-12-31T09:40:56Z</time>
    </trkpt>
    <trkpt lat="48.44784" lon="2.650991">
      <ele>141.097</ele>
      <time>2015-12-31T09:40:58Z</time>
    </trkpt>
    <trkpt lat="48.447869" lon="2.651165">
      <ele>141.0</ele>
      <time>2015-12-31T09:41:00Z</time>
    </trkpt>
    <trkpt lat="48.447922" lon="2.651283">
      <ele>141.0</ele>
      <time>2015-12-31T09:41:02Z</time>
    </trkpt>
    <trkpt lat="48.447958" lon="2.651452">
      <ele>141.0</ele>
      <time>2015-12-31T09:41:05Z</time>
    </trkpt>
    <trkpt lat="48.447994" lon="2.651579">
      <ele>141.0</ele>
      <time>2015-12-31T09:41:07Z</time>
    </trkpt>
    <trkpt lat="48.448036" lon="2.651715">
      <ele>141.0</ele>
      <time>2015-12-31T09:41:09Z</time>
    </trkpt>
    <trkpt lat="48.448091" lon="2.651846">
      <ele>141.0</ele>
      <time>2015-12-31T09:41:11Z</time>
    </trkpt>
    <trkpt lat="48.448144" lon="2.651973">
      <ele>140.967</ele>
      <time>2015-12-31T09:41:13Z</time>
    </trkpt>
    <trkpt lat="48.448198" lon="2.652111">
      <ele>140.693</ele>
      <time>2015-12-31T09:41:15Z</time>
    </trkpt>
    <trkpt lat="48.448249" lon="2.652264">
      <ele>140.258</ele>
      <time>2015-12-31T09:41:17Z</time>
    </trkpt>
    <trkpt lat="48.448306" lon="2.652406">
      <ele>140.033</ele>
      <time>2015-12-31T09:41:19Z</time>
    </trkpt>
    <trkpt lat="48.448363" lon="2.652552">
      <ele>139.9</ele>
      <time>2015-12-31T09:41:21Z</time>
    </trkpt>
    <trkpt lat="48.448421" lon="2.652667">
      <ele>139.525</ele>
      <time>2015-12-31T09:41:23Z</time>
    </trkpt>
    <trkpt lat="48.44851" lon="2.652786">
      <ele>138.989</ele>
      <time>2015-12-31T09:41:25Z</time>
    </trkpt>
    <trkpt lat="48.448596" lon="2.652884">
      <ele>138.979</ele>
      <time>2015-12-31T09:41:27Z</time>
    </trkpt>
    <trkpt lat="48.448666" lon="2.652987">
      <ele>139.642</ele>
      <time>2015-12-31T09:41:29Z</time>
    </trkpt>
    <trkpt lat="48.448807" lon="2.653184">
      <ele>140.463</ele>
      <time>2015-12-31T09:41:33Z</time>
    </trkpt>
    <trkpt lat="48.448893" lon="2.653337">
      <ele>140.003</ele>
      <time>2015-12-31T09:41:35Z</time>
    </trkpt>
    <trkpt lat="48.448955" lon="2.653475">
      <ele>139.456</ele>
      <time>2015-12-31T09:41:37Z</time>
    </trkpt>
    <trkpt lat="48.448983" lon="2.653622">
      <ele>138.638</ele>
      <time>2015-12-31T09:41:39Z</time>
    </trkpt>
    <trkpt lat="48.449035" lon="2.653785">
      <ele>138.426</ele>
      <time>2015-12-31T09:41:41Z</time>
    </trkpt>
    <trkpt lat="48.449042" lon="2.653942">
      <ele>138.017</ele>
      <time>2015-12-31T09:41:43Z</time>
    </trkpt>
    <trkpt lat="48.44906" lon="2.654095">
      <ele>137.947</ele>
      <time>2015-12-31T09:41:45Z</time>
    </trkpt>
    <trkpt lat="48.449029" lon="2.654245">
      <ele>137.653</ele>
      <time>2015-12-31T09:41:47Z</time>
    </trkpt>
    <trkpt lat="48.449011" lon="2.654402">
      <ele>137.794</ele>
      <time>2015-12-31T09:41:49Z</time>
    </trkpt>
    <trkpt lat="48.44897" lon="2.654556">
      <ele>137.584</ele>
      <time>2015-12-31T09:41:51Z</time>
    </trkpt>
    <trkpt lat="48.44891" lon="2.654733">
      <ele>137.194</ele>
      <time>2015-12-31T09:41:53Z</time>
    </trkpt>
    <trkpt lat="48.448894" lon="2.65488">
      <ele>137.615</ele>
      <time>2015-12-31T09:41:55Z</time>
    </trkpt>
    <trkpt lat="48.448856" lon="2.655076">
      <ele>138.396</ele>
      <time>2015-12-31T09:41:58Z</time>
    </trkpt>
    <trkpt lat="48.448806" lon="2.655223">
      <ele>139.068</ele>
      <time>2015-12-31T09:42:00Z</time>
    </trkpt>
    <trkpt lat="48.448751" lon="2.65542">
      <ele>139.519</ele>
      <time>2015-12-31T09:42:04Z</time>
    </trkpt>
    <trkpt lat="48.448703" lon="2.655588">
      <ele>139.778</ele>
      <time>2015-12-31T09:42:06Z</time>
    </trkpt>
    <trkpt lat="48.44867" lon="2.655747">
      <ele>140.113</ele>
      <time>2015-12-31T09:42:08Z</time>
    </trkpt>
    <trkpt lat="48.448608" lon="2.655871">
      <ele>140.124</ele>
      <time>2015-12-31T09:42:10Z</time>
    </trkpt>
    <trkpt lat="48.448569" lon="2.656">
      <ele>140.448</ele>
      <time>2015-12-31T09:42:12Z</time>
    </trkpt>
    <trkpt lat="48.448532" lon="2.656136">
      <ele>140.626</ele>
      <time>2015-12-31T09:42:14Z</time>
    </trkpt>
    <trkpt lat="48.448459" lon="2.656292">
      <ele>139.801</ele>
      <time>2015-12-31T09:42:17Z</time>
    </trkpt>
    <trkpt lat="48.448405" lon="2.656509">
      <ele>138.826</ele>
      <time>2015-12-31T09:42:20Z</time>
    </trkpt>
    <trkpt lat="48.448374" lon="2.656678">
      <ele>138.181</ele>
      <time>2015-12-31T09:42:22Z</time>
    </trkpt>
    <trkpt lat="48.448326" lon="2.656828">
      <ele>138.554</ele>
      <time>2015-12-31T09:42:24Z</time>
    </trkpt>
    <trkpt lat="48.448278" lon="2.656973">
      <ele>138.924</ele>
      <time>2015-12-31T09:42:26Z</time>
    </trkpt>
    <trkpt lat="48.448237" lon="2.65714">
      <ele>139.601</ele>
      <time>2015-12-31T09:42:29Z</time>
    </trkpt>
    <trkpt lat="48.448176" lon="2.657279">
      <ele>140.204</ele>
      <time>2015-12-31T09:42:32Z</time>
    </trkpt>
    <trkpt lat="48.448144" lon="2.657451">
      <ele>140.824</ele>
      <time>2015-12-31T09:42:34Z</time>
    </trkpt>
    <trkpt lat="48.448093" lon="2.657589">
      <ele>141.043</ele>
      <time>2015-12-31T09:42:36Z</time>
    </trkpt>
    <trkpt lat="48.448058" lon="2.657743">
      <ele>141.008</ele>
      <time>2015-12-31T09:42:38Z</time>
    </trkpt>
    <trkpt lat="48.448008" lon="2.657879">
      <ele>141.193</ele>
      <time>2015-12-31T09:42:40Z</time>
    </trkpt>
    <trkpt lat="48.447955" lon="2.658062">
      <ele>141.623</ele>
      <time>2015-12-31T09:42:42Z</time>
    </trkpt>
    <trkpt lat="48.447913" lon="2.658205">
      <ele>141.225</ele>
      <time>2015-12-31T09:42:44Z</time>
    </trkpt>
    <trkpt lat="48.447877" lon="2.658347">
      <ele>141.0</ele>
      <time>2015-12-31T09:42:46Z</time>
    </trkpt>
    <trkpt lat="48.447839" lon="2.658475">
      <ele>141.0</ele>
      <time>2015-12-31T09:42:49Z</time>
    </trkpt>
    <trkpt lat="48.44781" lon="2.658619">
      <ele>140.972</ele>
      <time>2015-12-31T09:42:51Z</time>
    </trkpt>
    <trkpt lat="48.44779" lon="2.658752">
      <ele>140.493</ele>
      <time>2015-12-31T09:42:53Z</time>
    </trkpt>
    <trkpt lat="48.447754" lon="2.658885">
      <ele>139.842</ele>
      <time>2015-12-31T09:42:55Z</time>
    </trkpt>
    <trkpt lat="48.447721" lon="2.659033">
      <ele>139.178</ele>
      <time>2015-12-31T09:42:57Z</time>
    </trkpt>
    <trkpt lat="48.447684" lon="2.659161">
      <ele>138.676</ele>
      <time>2015-12-31T09:42:59Z</time>
    </trkpt>
    <trkpt lat="48.44765" lon="2.659311">
      <ele>138.259</ele>
      <time>2015-12-31T09:43:01Z</time>
    </trkpt>
    <trkpt lat="48.447593" lon="2.659464">
      <ele>138.0</ele>
      <time>2015-12-31T09:43:03Z</time>
    </trkpt>
    <trkpt lat="48.447555" lon="2.659621">
      <ele>138.0</ele>
      <time>2015-12-31T09:43:05Z</time>
    </trkpt>
    <trkpt lat="48.447532" lon="2.659773">
      <ele>138.162</ele>
      <time>2015-12-31T09:43:07Z</time>
    </trkpt>
    <trkpt lat="48.447488" lon="2.659892">
      <ele>138.654</ele>
      <time>2015-12-31T09:43:09Z</time>
    </trkpt>
    <trkpt lat="48.44743" lon="2.66002">
      <ele>139.324</ele>
      <time>2015-12-31T09:43:11Z</time>
    </trkpt>
    <trkpt lat="48.447368" lon="2.660165">
      <ele>140.069</ele>
      <time>2015-12-31T09:43:14Z</time>
    </trkpt>
    <trkpt lat="48.447317" lon="2.660302">
      <ele>140.776</ele>
      <time>2015-12-31T09:43:17Z</time>
    </trkpt>
    <trkpt lat="48.447239" lon="2.6604">
      <ele>141.406</ele>
      <time>2015-12-31T09:43:19Z</time>
    </trkpt>
    <trkpt lat="48.447157" lon="2.660476">
      <ele>141.714</ele>
      <time>2015-12-31T09:43:21Z</time>
    </trkpt>
    <trkpt lat="48.447076" lon="2.660538">
      <ele>141.937</ele>
      <time>2015-12-31T09:43:23Z</time>
    </trkpt>
    <trkpt lat="48.446965" lon="2.660633">
      <ele>142.279</ele>
      <time>2015-12-31T09:43:26Z</time>
    </trkpt>
    <trkpt lat="48.446846" lon="2.66071">
      <ele>142.556</ele>
      <time>2015-12-31T09:43:29Z</time>
    </trkpt>
    <trkpt lat="48.446752" lon="2.660767">
      <ele>142.761</ele>
      <time>2015-12-31T09:43:31Z</time>
    </trkpt>
    <trkpt lat="48.446627" lon="2.660842">
      <ele>143.027</ele>
      <time>2015-12-31T09:43:34Z</time>
    </trkpt>
    <trkpt lat="48.446512" lon="2.660913">
      <ele>143.127</ele>
      <time>2015-12-31T09:43:37Z</time>
    </trkpt>
    <trkpt lat="48.446426" lon="2.660967">
      <ele>143.064</ele>
      <time>2015-12-31T09:43:39Z</time>
    </trkpt>
    <trkpt lat="48.446334" lon="2.661016">
      <ele>142.932</ele>
      <time>2015-12-31T09:43:41Z</time>
    </trkpt>
    <trkpt lat="48.446246" lon="2.661074">
      <ele>142.931</ele>
      <time>2015-12-31T09:43:43Z</time>
    </trkpt>
    <trkpt lat="48.446145" lon="2.661151">
      <ele>143.144</ele>
      <time>2015-12-31T09:43:45Z</time>
    </trkpt>
    <trkpt lat="48.446007" lon="2.661229">
      <ele>142.834</ele>
      <time>2015-12-31T09:43:48Z</time>
    </trkpt>
    <trkpt lat="48.445913" lon="2.661287">
      <ele>142.658</ele>
      <time>2015-12-31T09:43:50Z</time>
    </trkpt>
    <trkpt lat="48.44581" lon="2.661351">
      <ele>142.643</ele>
      <time>2015-12-31T09:43:52Z</time>
    </trkpt>
    <trkpt lat="48.445717" lon="2.661414">
      <ele>142.672</ele>
      <time>2015-12-31T09:43:54Z</time>
    </trkpt>
    <trkpt lat="48.445621" lon="2.661463">
      <ele>142.502</ele>
      <time>2015-12-31T09:43:56Z</time>
    </trkpt>
    <trkpt lat="48.445507" lon="2.661501">
      <ele>142.229</ele>
      <time>2015-12-31T09:43:59Z</time>
    </trkpt>
    <trkpt lat="48.445422" lon="2.661551">
      <ele>142.103</ele>
      <time>2015-12-31T09:44:01Z</time>
    </trkpt>
    <trkpt lat="48.44531" lon="2.661616">
      <ele>141.934</ele>
      <time>2015-12-31T09:44:04Z</time>
    </trkpt>
    <trkpt lat="48.445314" lon="2.661438">
      <ele>141.307</ele>
      <time>2015-12-31T09:44:09Z</time>
    </trkpt>
    <trkpt lat="48.445399" lon="2.661205">
      <ele>140.486</ele>
      <time>2015-12-31T09:44:13Z</time>
    </trkpt>
    <trkpt lat="48.445438" lon="2.661083">
      <ele>139.899</ele>
      <time>2015-12-31T09:44:15Z</time>
    </trkpt>
    <trkpt lat="48.445501" lon="2.66096">
      <ele>139.456</ele>
      <time>2015-12-31T09:44:17Z</time>
    </trkpt>
    <trkpt lat="48.445553" lon="2.660834">
      <ele>139.002</ele>
      <time>2015-12-31T09:44:19Z</time>
    </trkpt>
    <trkpt lat="48.445629" lon="2.660694">
      <ele>139.396</ele>
      <time>2015-12-31T09:44:21Z</time>
    </trkpt>
    <trkpt lat="48.445668" lon="2.660567">
      <ele>139.421</ele>
      <time>2015-12-31T09:44:23Z</time>
    </trkpt>
    <trkpt lat="48.44572" lon="2.660451">
      <ele>139.592</ele>
      <time>2015-12-31T09:44:25Z</time>
    </trkpt>
    <trkpt lat="48.445768" lon="2.660325">
      <ele>139.765</ele>
      <time>2015-12-31T09:44:27Z</time>
    </trkpt>
    <trkpt lat="48.445816" lon="2.660205">
      <ele>139.692</ele>
      <time>2015-12-31T09:44:29Z</time>
    </trkpt>
    <trkpt lat="48.44586" lon="2.660086">
      <ele>139.31</ele>
      <time>2015-12-31T09:44:31Z</time>
    </trkpt>
    <trkpt lat="48.445914" lon="2.65997">
      <ele>138.892</ele>
      <time>2015-12-31T09:44:33Z</time>
    </trkpt>
    <trkpt lat="48.445997" lon="2.659821">
      <ele>138.356</ele>
      <time>2015-12-31T09:44:36Z</time>
    </trkpt>
    <trkpt lat="48.446086" lon="2.659672">
      <ele>137.655</ele>
      <time>2015-12-31T09:44:39Z</time>
    </trkpt>
    <trkpt lat="48.44617" lon="2.659529">
      <ele>136.968</ele>
      <time>2015-12-31T09:44:42Z</time>
    </trkpt>
    <trkpt lat="48.446253" lon="2.659378">
      <ele>136.782</ele>
      <time>2015-12-31T09:44:45Z</time>
    </trkpt>
    <trkpt lat="48.446278" lon="2.659237">
      <ele>136.455</ele>
      <time>2015-12-31T09:44:48Z</time>
    </trkpt>
    <trkpt lat="48.446326" lon="2.65912">
      <ele>136.287</ele>
      <time>2015-12-31T09:44:50Z</time>
    </trkpt>
    <trkpt lat="48.446356" lon="2.658991">
      <ele>135.648</ele>
      <time>2015-12-31T09:44:52Z</time>
    </trkpt>
    <trkpt lat="48.446407" lon="2.658855">
      <ele>134.748</ele>
      <time>2015-12-31T09:44:54Z</time>
    </trkpt>
    <trkpt lat="48.446457" lon="2.658696">
      <ele>133.441</ele>
      <time>2015-12-31T09:44:56Z</time>
    </trkpt>
    <trkpt lat="48.446515" lon="2.658542">
      <ele>132.071</ele>
      <time>2015-12-31T09:44:58Z</time>
    </trkpt>
    <trkpt lat="48.44659" lon="2.658414">
      <ele>130.539</ele>
      <time>2015-12-31T09:45:00Z</time>
    </trkpt>
    <trkpt lat="48.446598" lon="2.658233">
      <ele>129.019</ele>
      <time>2015-12-31T09:45:02Z</time>
    </trkpt>
    <trkpt lat="48.446646" lon="2.658005">
      <ele>126.859</ele>
      <time>2015-12-31T09:45:04Z</time>
    </trkpt>
    <trkpt lat="48.446717" lon="2.657789">
      <ele>125.255</ele>
      <time>2015-12-31T09:45:06Z</time>
    </trkpt>
    <trkpt lat="48.446772" lon="2.657597">
      <ele>124.324</ele>
      <time>2015-12-31T09:45:08Z</time>
    </trkpt>
    <trkpt lat="48.446794" lon="2.657465">
      <ele>123.791</ele>
      <time>2015-12-31T09:45:09Z</time>
    </trkpt>
    <trkpt lat="48.446817" lon="2.657266">
      <ele>123.24</ele>
      <time>2015-12-31T09:45:11Z</time>
    </trkpt>
    <trkpt lat="48.44684" lon="2.657072">
      <ele>122.573</ele>
      <time>2015-12-31T09:45:13Z</time>
    </trkpt>
    <trkpt lat="48.446888" lon="2.656924">
      <ele>122.015</ele>
      <time>2015-12-31T09:45:15Z</time>
    </trkpt>
    <trkpt lat="48.446932" lon="2.656763">
      <ele>122.029</ele>
      <time>2015-12-31T09:45:17Z</time>
    </trkpt>
    <trkpt lat="48.446976" lon="2.656606">
      <ele>122.534</ele>
      <time>2015-12-31T09:45:19Z</time>
    </trkpt>
    <trkpt lat="48.447007" lon="2.656417">
      <ele>123.372</ele>
      <time>2015-12-31T09:45:21Z</time>
    </trkpt>
    <trkpt lat="48.447036" lon="2.65624">
      <ele>123.659</ele>
      <time>2015-12-31T09:45:23Z</time>
    </trkpt>
    <trkpt lat="48.447064" lon="2.656105">
      <ele>123.861</ele>
      <time>2015-12-31T09:45:25Z</time>
    </trkpt>
    <trkpt lat="48.447089" lon="2.655953">
      <ele>124.041</ele>
      <time>2015-12-31T09:45:27Z</time>
    </trkpt>
    <trkpt lat="48.447121" lon="2.655786">
      <ele>124.163</ele>
      <time>2015-12-31T09:45:29Z</time>
    </trkpt>
    <trkpt lat="48.447146" lon="2.655639">
      <ele>123.944</ele>
      <time>2015-12-31T09:45:31Z</time>
    </trkpt>
    <trkpt lat="48.44717" lon="2.655501">
      <ele>123.616</ele>
      <time>2015-12-31T09:45:33Z</time>
    </trkpt>
    <trkpt lat="48.447205" lon="2.655346">
      <ele>123.184</ele>
      <time>2015-12-31T09:45:36Z</time>
    </trkpt>
    <trkpt lat="48.447226" lon="2.655204">
      <ele>122.486</ele>
      <time>2015-12-31T09:45:39Z</time>
    </trkpt>
    <trkpt lat="48.44726" lon="2.655032">
      <ele>121.487</ele>
      <time>2015-12-31T09:45:43Z</time>
    </trkpt>
    <trkpt lat="48.447278" lon="2.654895">
      <ele>121.402</ele>
      <time>2015-12-31T09:45:47Z</time>
    </trkpt>
    <trkpt lat="48.44729" lon="2.654746">
      <ele>121.488</ele>
      <time>2015-12-31T09:45:52Z</time>
    </trkpt>
    <trkpt lat="48.447308" lon="2.654594">
      <ele>122.079</ele>
      <time>2015-12-31T09:45:57Z</time>
    </trkpt>
    <trkpt lat="48.447315" lon="2.654457">
      <ele>122.623</ele>
      <time>2015-12-31T09:46:02Z</time>
    </trkpt>
    <trkpt lat="48.447335" lon="2.654318">
      <ele>123.722</ele>
      <time>2015-12-31T09:46:07Z</time>
    </trkpt>
    <trkpt lat="48.447357" lon="2.654173">
      <ele>124.925</ele>
      <time>2015-12-31T09:46:12Z</time>
    </trkpt>
    <trkpt lat="48.447367" lon="2.654021">
      <ele>126.365</ele>
      <time>2015-12-31T09:46:19Z</time>
    </trkpt>
    <trkpt lat="48.44736" lon="2.653882">
      <ele>127.538</ele>
      <time>2015-12-31T09:46:25Z</time>
    </trkpt>
    <trkpt lat="48.447362" lon="2.653737">
      <ele>128.603</ele>
      <time>2015-12-31T09:46:34Z</time>
    </trkpt>
    <trkpt lat="48.447375" lon="2.653598">
      <ele>129.692</ele>
      <time>2015-12-31T09:46:42Z</time>
    </trkpt>
    <trkpt lat="48.447373" lon="2.653461">
      <ele>130.123</ele>
      <time>2015-12-31T09:46:49Z</time>
    </trkpt>
    <trkpt lat="48.447357" lon="2.653324">
      <ele>130.57</ele>
      <time>2015-12-31T09:46:58Z</time>
    </trkpt>
    <trkpt lat="48.447353" lon="2.653182">
      <ele>131.849</ele>
      <time>2015-12-31T09:47:07Z</time>
    </trkpt>
    <trkpt lat="48.447351" lon="2.653044">
      <ele>133.061</ele>
      <time>2015-12-31T09:47:23Z</time>
    </trkpt>
    <trkpt lat="48.447331" lon="2.652906">
      <ele>133.749</ele>
      <time>2015-12-31T09:47:40Z</time>
    </trkpt>
    <trkpt lat="48.447325" lon="2.652766">
      <ele>134.455</ele>
      <time>2015-12-31T09:47:59Z</time>
    </trkpt>
    <trkpt lat="48.447297" lon="2.652636">
      <ele>135.29</ele>
      <time>2015-12-31T09:48:37Z</time>
    </trkpt>
    <trkpt lat="48.44723" lon="2.652524">
      <ele>135.855</ele>
      <time>2015-12-31T09:48:44Z</time>
    </trkpt>
    <trkpt lat="48.447174" lon="2.652415">
      <ele>135.959</ele>
      <time>2015-12-31T09:48:48Z</time>
    </trkpt>
    <trkpt lat="48.447124" lon="2.652282">
      <ele>136.078</ele>
      <time>2015-12-31T09:48:53Z</time>
    </trkpt>
    <trkpt lat="48.447028" lon="2.652257">
      <ele>135.476</ele>
      <time>2015-12-31T09:48:56Z</time>
    </trkpt>
    <trkpt lat="48.446939" lon="2.652218">
      <ele>135.011</ele>
      <time>2015-12-31T09:48:58Z</time>
    </trkpt>
    <trkpt lat="48.446828" lon="2.652177">
      <ele>134.906</ele>
      <time>2015-12-31T09:49:01Z</time>
    </trkpt>
    <trkpt lat="48.446714" lon="2.652174">
      <ele>134.518</ele>
      <time>2015-12-31T09:49:07Z</time>
    </trkpt>
    <trkpt lat="48.446626" lon="2.652097">
      <ele>134.77</ele>
      <time>2015-12-31T09:49:12Z</time>
    </trkpt>
    <trkpt lat="48.446552" lon="2.651996">
      <ele>134.956</ele>
      <time>2015-12-31T09:49:21Z</time>
    </trkpt>
    <trkpt lat="48.446503" lon="2.651865">
      <ele>134.822</ele>
      <time>2015-12-31T09:49:27Z</time>
    </trkpt>
    <trkpt lat="48.446438" lon="2.65173">
      <ele>134.354</ele>
      <time>2015-12-31T09:49:34Z</time>
    </trkpt>
    <trkpt lat="48.446443" lon="2.651582">
      <ele>134.085</ele>
      <time>2015-12-31T09:49:39Z</time>
    </trkpt>
    <trkpt lat="48.446378" lon="2.651462">
      <ele>133.185</ele>
      <time>2015-12-31T09:49:46Z</time>
    </trkpt>
    <trkpt lat="48.446366" lon="2.65132">
      <ele>132.339</ele>
      <time>2015-12-31T09:50:05Z</time>
    </trkpt>
    <trkpt lat="48.446308" lon="2.651209">
      <ele>131.122</ele>
      <time>2015-12-31T09:50:35Z</time>
    </trkpt>
    <trkpt lat="48.446297" lon="2.651073">
      <ele>130.019</ele>
      <time>2015-12-31T09:51:08Z</time>
    </trkpt>
    <trkpt lat="48.446359" lon="2.65094">
      <ele>129.487</ele>
      <time>2015-12-31T09:51:27Z</time>
    </trkpt>
    <trkpt lat="48.446386" lon="2.650805">
      <ele>128.969</ele>
      <time>2015-12-31T09:51:34Z</time>
    </trkpt>
    <trkpt lat="48.44635" lon="2.650679">
      <ele>128.58</ele>
      <time>2015-12-31T09:52:01Z</time>
    </trkpt>
    <trkpt lat="48.446303" lon="2.650529">
      <ele>128.006</ele>
      <time>2015-12-31T09:52:28Z</time>
    </trkpt>
    <trkpt lat="48.446256" lon="2.65039">
      <ele>127.254</ele>
      <time>2015-12-31T09:52:36Z</time>
    </trkpt>
    <trkpt lat="48.446174" lon="2.650329">
      <ele>126.495</ele>
      <time>2015-12-31T09:52:59Z</time>
    </trkpt>
    <trkpt lat="48.446088" lon="2.650274">
      <ele>125.738</ele>
      <time>2015-12-31T09:53:23Z</time>
    </trkpt>
    <trkpt lat="48.446014" lon="2.650189">
      <ele>124.743</ele>
      <time>2015-12-31T09:53:30Z</time>
    </trkpt>
    <trkpt lat="48.44592" lon="2.650239">
      <ele>123.892</ele>
      <time>2015-12-31T09:53:38Z</time>
    </trkpt>
    <trkpt lat="48.445841" lon="2.65033">
      <ele>122.9</ele>
      <time>2015-12-31T09:53:43Z</time>
    </trkpt>
    <trkpt lat="48.445783" lon="2.650438">
      <ele>121.517</ele>
      <time>2015-12-31T09:53:48Z</time>
    </trkpt>
    <trkpt lat="48.445657" lon="2.650448">
      <ele>119.213</ele>
      <time>2015-12-31T09:53:51Z</time>
    </trkpt>
    <trkpt lat="48.445572" lon="2.650498">
      <ele>117.503</ele>
      <time>2015-12-31T09:54:02Z</time>
    </trkpt>
    <trkpt lat="48.445475" lon="2.650524">
      <ele>115.341</ele>
      <time>2015-12-31T09:54:07Z</time>
    </trkpt>
    <trkpt lat="48.445387" lon="2.650459">
      <ele>113.496</ele>
      <time>2015-12-31T09:54:12Z</time>
    </trkpt>
    <trkpt lat="48.445297" lon="2.650487">
      <ele>111.432</ele>
      <time>2015-12-31T09:54:17Z</time>
    </trkpt>
    <trkpt lat="48.445199" lon="2.650483">
      <ele>110.359</ele>
      <time>2015-12-31T09:54:24Z</time>
    </trkpt>
    <trkpt lat="48.445105" lon="2.650435">
      <ele>109.486</ele>
      <time>2015-12-31T09:54:30Z</time>
    </trkpt>
    <trkpt lat="48.445015" lon="2.650486">
      <ele>108.871</ele>
      <time>2015-12-31T09:54:35Z</time>
    </trkpt>
    <trkpt lat="48.444917" lon="2.650418">
      <ele>108.354</ele>
      <time>2015-12-31T09:54:39Z</time>
    </trkpt>
    <trkpt lat="48.444822" lon="2.650325">
      <ele>108.061</ele>
      <time>2015-12-31T09:54:46Z</time>
    </trkpt>
    <trkpt lat="48.444747" lon="2.650223">
      <ele>108.053</ele>
      <time>2015-12-31T09:54:49Z</time>
    </trkpt>
    <trkpt lat="48.444673" lon="2.65011">
      <ele>107.291</ele>
      <time>2015-12-31T09:54:53Z</time>
    </trkpt>
    <trkpt lat="48.444571" lon="2.650053">
      <ele>105.822</ele>
      <time>2015-12-31T09:54:58Z</time>
    </trkpt>
    <trkpt lat="48.44451" lon="2.649923">
      <ele>105.287</ele>
      <time>2015-12-31T09:55:02Z</time>
    </trkpt>
    <trkpt lat="48.444452" lon="2.649809">
      <ele>104.815</ele>
      <time>2015-12-31T09:55:07Z</time>
    </trkpt>
    <trkpt lat="48.444397" lon="2.649684">
      <ele>104.488</ele>
      <time>2015-12-31T09:55:12Z</time>
    </trkpt>
    <trkpt lat="48.444312" lon="2.649614">
      <ele>103.57</ele>
      <time>2015-12-31T09:55:16Z</time>
    </trkpt>
    <trkpt lat="48.444227" lon="2.649561">
      <ele>102.652</ele>
      <time>2015-12-31T09:55:19Z</time>
    </trkpt>
    <trkpt lat="48.444128" lon="2.649644">
      <ele>101.822</ele>
      <time>2015-12-31T09:55:54Z</time>
    </trkpt>
    <trkpt lat="48.444083" lon="2.6498">
      <ele>101.614</ele>
      <time>2015-12-31T09:55:59Z</time>
    </trkpt>
    <trkpt lat="48.444057" lon="2.649957">
      <ele>101.272</ele>
      <time>2015-12-31T09:56:03Z</time>
    </trkpt>
    <trkpt lat="48.444037" lon="2.65015">
      <ele>100.526</ele>
      <time>2015-12-31T09:56:07Z</time>
    </trkpt>
    <trkpt lat="48.444009" lon="2.650315">
      <ele>99.923</ele>
      <time>2015-12-31T09:56:10Z</time>
    </trkpt>
    <trkpt lat="48.443982" lon="2.650456">
      <ele>99.885</ele>
      <time>2015-12-31T09:56:13Z</time>
    </trkpt>
    <trkpt lat="48.443969" lon="2.650595">
      <ele>100.007</ele>
      <time>2015-12-31T09:56:15Z</time>
    </trkpt>
    <trkpt lat="48.443937" lon="2.650759">
      <ele>100.252</ele>
      <time>2015-12-31T09:56:18Z</time>
    </trkpt>
    <trkpt lat="48.443901" lon="2.650922">
      <ele>100.45</ele>
      <time>2015-12-31T09:56:21Z</time>
    </trkpt>
    <trkpt lat="48.443889" lon="2.651086">
      <ele>100.911</ele>
      <time>2015-12-31T09:56:24Z</time>
    </trkpt>
    <trkpt lat="48.443896" lon="2.651229">
      <ele>101.49</ele>
      <time>2015-12-31T09:56:27Z</time>
    </trkpt>
    <trkpt lat="48.443871" lon="2.651427">
      <ele>101.944</ele>
      <time>2015-12-31T09:56:30Z</time>
    </trkpt>
    <trkpt lat="48.443846" lon="2.651631">
      <ele>102.408</ele>
      <time>2015-12-31T09:56:33Z</time>
    </trkpt>
    <trkpt lat="48.443797" lon="2.651812">
      <ele>102.008</ele>
      <time>2015-12-31T09:56:36Z</time>
    </trkpt>
    <trkpt lat="48.44372" lon="2.651945">
      <ele>101.176</ele>
      <time>2015-12-31T09:56:39Z</time>
    </trkpt>
    <trkpt lat="48.443686" lon="2.652095">
      <ele>100.809</ele>
      <time>2015-12-31T09:56:42Z</time>
    </trkpt>
    <trkpt lat="48.44364" lon="2.652242">
      <ele>100.376</ele>
      <time>2015-12-31T09:56:46Z</time>
    </trkpt>
    <trkpt lat="48.443612" lon="2.652381">
      <ele>100.579</ele>
      <time>2015-12-31T09:56:50Z</time>
    </trkpt>
    <trkpt lat="48.443582" lon="2.652536">
      <ele>100.815</ele>
      <time>2015-12-31T09:56:54Z</time>
    </trkpt>
    <trkpt lat="48.443536" lon="2.652665">
      <ele>100.783</ele>
      <time>2015-12-31T09:56:57Z</time>
    </trkpt>
    <trkpt lat="48.443517" lon="2.652809">
      <ele>101.096</ele>
      <time>2015-12-31T09:57:00Z</time>
    </trkpt>
    <trkpt lat="48.443499" lon="2.652968">
      <ele>101.474</ele>
      <time>2015-12-31T09:57:03Z</time>
    </trkpt>
    <trkpt lat="48.44347" lon="2.653125">
      <ele>101.726</ele>
      <time>2015-12-31T09:57:06Z</time>
    </trkpt>
    <trkpt lat="48.443461" lon="2.653284">
      <ele>102.201</ele>
      <time>2015-12-31T09:57:09Z</time>
    </trkpt>
    <trkpt lat="48.443426" lon="2.653437">
      <ele>102.374</ele>
      <time>2015-12-31T09:57:12Z</time>
    </trkpt>
    <trkpt lat="48.443413" lon="2.653588">
      <ele>102.777</ele>
      <time>2015-12-31T09:57:15Z</time>
    </trkpt>
    <trkpt lat="48.443381" lon="2.653736">
      <ele>102.669</ele>
      <time>2015-12-31T09:57:18Z</time>
    </trkpt>
    <trkpt lat="48.44337" lon="2.653885">
      <ele>102.656</ele>
      <time>2015-12-31T09:57:21Z</time>
    </trkpt>
    <trkpt lat="48.443354" lon="2.654023">
      <ele>102.855</ele>
      <time>2015-12-31T09:57:24Z</time>
    </trkpt>
    <trkpt lat="48.443319" lon="2.654167">
      <ele>102.794</ele>
      <time>2015-12-31T09:57:27Z</time>
    </trkpt>
    <trkpt lat="48.443289" lon="2.654309">
      <ele>102.362</ele>
      <time>2015-12-31T09:57:30Z</time>
    </trkpt>
    <trkpt lat="48.443256" lon="2.654457">
      <ele>101.977</ele>
      <time>2015-12-31T09:57:33Z</time>
    </trkpt>
    <trkpt lat="48.44324" lon="2.654636">
      <ele>103.035</ele>
      <time>2015-12-31T09:57:37Z</time>
    </trkpt>
    <trkpt lat="48.443226" lon="2.654807">
      <ele>103.878</ele>
      <time>2015-12-31T09:57:41Z</time>
    </trkpt>
    <trkpt lat="48.443211" lon="2.654949">
      <ele>104.414</ele>
      <time>2015-12-31T09:57:44Z</time>
    </trkpt>
    <trkpt lat="48.44319" lon="2.655105">
      <ele>104.635</ele>
      <time>2015-12-31T09:57:48Z</time>
    </trkpt>
    <trkpt lat="48.443174" lon="2.655263">
      <ele>104.683</ele>
      <time>2015-12-31T09:57:54Z</time>
    </trkpt>
    <trkpt lat="48.443145" lon="2.655423">
      <ele>104.456</ele>
      <time>2015-12-31T09:57:59Z</time>
    </trkpt>
    <trkpt lat="48.443119" lon="2.655563">
      <ele>104.169</ele>
      <time>2015-12-31T09:58:03Z</time>
    </trkpt>
    <trkpt lat="48.443094" lon="2.655695">
      <ele>104.194</ele>
      <time>2015-12-31T09:58:06Z</time>
    </trkpt>
    <trkpt lat="48.443038" lon="2.65585">
      <ele>103.934</ele>
      <time>2015-12-31T09:58:10Z</time>
    </trkpt>
    <trkpt lat="48.442981" lon="2.655995">
      <ele>104.045</ele>
      <time>2015-12-31T09:58:14Z</time>
    </trkpt>
    <trkpt lat="48.442942" lon="2.656149">
      <ele>104.536</ele>
      <time>2015-12-31T09:58:18Z</time>
    </trkpt>
    <trkpt lat="48.442894" lon="2.656322">
      <ele>105.673</ele>
      <time>2015-12-31T09:58:22Z</time>
    </trkpt>
    <trkpt lat="48.442847" lon="2.656487">
      <ele>106.542</ele>
      <time>2015-12-31T09:58:26Z</time>
    </trkpt>
    <trkpt lat="48.442801" lon="2.656625">
      <ele>107.022</ele>
      <time>2015-12-31T09:58:29Z</time>
    </trkpt>
    <trkpt lat="48.442759" lon="2.656754">
      <ele>107.472</ele>
      <time>2015-12-31T09:58:33Z</time>
    </trkpt>
    <trkpt lat="48.442718" lon="2.656876">
      <ele>107.915</ele>
      <time>2015-12-31T09:58:35Z</time>
    </trkpt>
    <trkpt lat="48.442694" lon="2.657022">
      <ele>108.654</ele>
      <time>2015-12-31T09:58:37Z</time>
    </trkpt>
    <trkpt lat="48.442653" lon="2.65718">
      <ele>109.348</ele>
      <time>2015-12-31T09:58:40Z</time>
    </trkpt>
    <trkpt lat="48.442611" lon="2.657308">
      <ele>109.508</ele>
      <time>2015-12-31T09:58:43Z</time>
    </trkpt>
    <trkpt lat="48.442557" lon="2.657476">
      <ele>109.529</ele>
      <time>2015-12-31T09:58:46Z</time>
    </trkpt>
    <trkpt lat="48.442519" lon="2.657612">
      <ele>109.608</ele>
      <time>2015-12-31T09:58:49Z</time>
    </trkpt>
    <trkpt lat="48.442497" lon="2.657792">
      <ele>110.03</ele>
      <time>2015-12-31T09:58:52Z</time>
    </trkpt>
    <trkpt lat="48.442457" lon="2.657935">
      <ele>110.256</ele>
      <time>2015-12-31T09:58:55Z</time>
    </trkpt>
    <trkpt lat="48.442416" lon="2.658063">
      <ele>110.433</ele>
      <time>2015-12-31T09:58:58Z</time>
    </trkpt>
    <trkpt lat="48.442371" lon="2.658216">
      <ele>110.69</ele>
      <time>2015-12-31T09:59:02Z</time>
    </trkpt>
    <trkpt lat="48.442343" lon="2.658358">
      <ele>110.828</ele>
      <time>2015-12-31T09:59:05Z</time>
    </trkpt>
    <trkpt lat="48.442299" lon="2.658508">
      <ele>110.734</ele>
      <time>2015-12-31T09:59:08Z</time>
    </trkpt>
    <trkpt lat="48.442251" lon="2.658662">
      <ele>110.433</ele>
      <time>2015-12-31T09:59:11Z</time>
    </trkpt>
    <trkpt lat="48.442213" lon="2.658815">
      <ele>109.867</ele>
      <time>2015-12-31T09:59:14Z</time>
    </trkpt>
    <trkpt lat="48.442172" lon="2.658968">
      <ele>109.562</ele>
      <time>2015-12-31T09:59:17Z</time>
    </trkpt>
    <trkpt lat="48.442114" lon="2.659134">
      <ele>109.324</ele>
      <time>2015-12-31T09:59:21Z</time>
    </trkpt>
    <trkpt lat="48.442096" lon="2.659291">
      <ele>110.078</ele>
      <time>2015-12-31T09:59:25Z</time>
    </trkpt>
    <trkpt lat="48.442095" lon="2.659435">
      <ele>111.1</ele>
      <time>2015-12-31T09:59:29Z</time>
    </trkpt>
    <trkpt lat="48.442049" lon="2.659579">
      <ele>111.292</ele>
      <time>2015-12-31T09:59:32Z</time>
    </trkpt>
    <trkpt lat="48.442047" lon="2.659735">
      <ele>112.183</ele>
      <time>2015-12-31T09:59:35Z</time>
    </trkpt>
    <trkpt lat="48.442016" lon="2.6599">
      <ele>112.888</ele>
      <time>2015-12-31T09:59:39Z</time>
    </trkpt>
    <trkpt lat="48.442012" lon="2.660101">
      <ele>113.938</ele>
      <time>2015-12-31T09:59:43Z</time>
    </trkpt>
    <trkpt lat="48.441988" lon="2.660282">
      <ele>114.501</ele>
      <time>2015-12-31T09:59:46Z</time>
    </trkpt>
    <trkpt lat="48.441975" lon="2.660424">
      <ele>115.383</ele>
      <time>2015-12-31T09:59:49Z</time>
    </trkpt>
    <trkpt lat="48.441959" lon="2.660573">
      <ele>116.223</ele>
      <time>2015-12-31T09:59:53Z</time>
    </trkpt>
    <trkpt lat="48.441962" lon="2.660738">
      <ele>116.888</ele>
      <time>2015-12-31T09:59:57Z</time>
    </trkpt>
    <trkpt lat="48.441954" lon="2.660879">
      <ele>117.461</ele>
      <time>2015-12-31T10:00:01Z</time>
    </trkpt>
    <trkpt lat="48.441938" lon="2.661031">
      <ele>118.36</ele>
      <time>2015-12-31T10:00:06Z</time>
    </trkpt>
    <trkpt lat="48.441923" lon="2.661184">
      <ele>119.031</ele>
      <time>2015-12-31T10:00:10Z</time>
    </trkpt>
    <trkpt lat="48.441923" lon="2.661357">
      <ele>119.654</ele>
      <time>2015-12-31T10:00:15Z</time>
    </trkpt>
    <trkpt lat="48.441907" lon="2.661506">
      <ele>119.652</ele>
      <time>2015-12-31T10:00:19Z</time>
    </trkpt>
    <trkpt lat="48.441897" lon="2.661668">
      <ele>119.659</ele>
      <time>2015-12-31T10:00:24Z</time>
    </trkpt>
    <trkpt lat="48.441898" lon="2.661829">
      <ele>119.763</ele>
      <time>2015-12-31T10:00:29Z</time>
    </trkpt>
    <trkpt lat="48.441873" lon="2.661979">
      <ele>119.96</ele>
      <time>2015-12-31T10:00:35Z</time>
    </trkpt>
    <trkpt lat="48.441868" lon="2.662122">
      <ele>120.827</ele>
      <time>2015-12-31T10:00:43Z</time>
    </trkpt>
    <trkpt lat="48.44187" lon="2.662277">
      <ele>121.806</ele>
      <time>2015-12-31T10:00:50Z</time>
    </trkpt>
    <trkpt lat="48.441828" lon="2.662422">
      <ele>122.299</ele>
      <time>2015-12-31T10:00:56Z</time>
    </trkpt>
    <trkpt lat="48.441783" lon="2.662564">
      <ele>122.487</ele>
      <time>2015-12-31T10:01:01Z</time>
    </trkpt>
    <trkpt lat="48.441787" lon="2.662701">
      <ele>123.023</ele>
      <time>2015-12-31T10:01:05Z</time>
    </trkpt>
    <trkpt lat="48.441763" lon="2.66284">
      <ele>123.187</ele>
      <time>2015-12-31T10:01:10Z</time>
    </trkpt>
    <trkpt lat="48.441751" lon="2.663013">
      <ele>123.501</ele>
      <time>2015-12-31T10:01:16Z</time>
    </trkpt>
    <trkpt lat="48.441735" lon="2.663166">
      <ele>123.89</ele>
      <time>2015-12-31T10:01:21Z</time>
    </trkpt>
    <trkpt lat="48.441708" lon="2.663339">
      <ele>124.338</ele>
      <time>2015-12-31T10:01:26Z</time>
    </trkpt>
    <trkpt lat="48.441709" lon="2.663475">
      <ele>125.325</ele>
      <time>2015-12-31T10:01:36Z</time>
    </trkpt>
    <trkpt lat="48.441686" lon="2.663629">
      <ele>126.328</ele>
      <time>2015-12-31T10:01:43Z</time>
    </trkpt>
    <trkpt lat="48.441665" lon="2.66378">
      <ele>127.838</ele>
      <time>2015-12-31T10:01:47Z</time>
    </trkpt>
    <trkpt lat="48.441649" lon="2.663927">
      <ele>129.53</ele>
      <time>2015-12-31T10:01:52Z</time>
    </trkpt>
    <trkpt lat="48.441638" lon="2.664082">
      <ele>131.22</ele>
      <time>2015-12-31T10:01:58Z</time>
    </trkpt>
    <trkpt lat="48.44162" lon="2.664234">
      <ele>132.653</ele>
      <time>2015-12-31T10:02:05Z</time>
    </trkpt>
    <trkpt lat="48.441604" lon="2.664386">
      <ele>133.805</ele>
      <time>2015-12-31T10:02:12Z</time>
    </trkpt>
    <trkpt lat="48.441579" lon="2.664519">
      <ele>134.951</ele>
      <time>2015-12-31T10:02:20Z</time>
    </trkpt>
    <trkpt lat="48.441576" lon="2.664666">
      <ele>136.199</ele>
      <time>2015-12-31T10:02:28Z</time>
    </trkpt>
    <trkpt lat="48.441559" lon="2.664801">
      <ele>136.786</ele>
      <time>2015-12-31T10:02:36Z</time>
    </trkpt>
    <trkpt lat="48.441542" lon="2.664941">
      <ele>136.985</ele>
      <time>2015-12-31T10:02:43Z</time>
    </trkpt>
    <trkpt lat="48.441541" lon="2.665079">
      <ele>137.068</ele>
      <time>2015-12-31T10:02:53Z</time>
    </trkpt>
    <trkpt lat="48.441529" lon="2.665219">
      <ele>137.002</ele>
      <time>2015-12-31T10:03:01Z</time>
    </trkpt>
    <trkpt lat="48.441545" lon="2.665359">
      <ele>137.0</ele>
      <time>2015-12-31T10:03:08Z</time>
    </trkpt>
    <trkpt lat="48.441535" lon="2.665499">
      <ele>137.0</ele>
      <time>2015-12-31T10:03:16Z</time>
    </trkpt>
    <trkpt lat="48.44154" lon="2.665634">
      <ele>137.154</ele>
      <time>2015-12-31T10:03:22Z</time>
    </trkpt>
    <trkpt lat="48.441544" lon="2.665787">
      <ele>137.465</ele>
      <time>2015-12-31T10:03:31Z</time>
    </trkpt>
    <trkpt lat="48.441539" lon="2.665933">
      <ele>137.705</ele>
      <time>2015-12-31T10:03:37Z</time>
    </trkpt>
    <trkpt lat="48.441559" lon="2.666074">
      <ele>137.948</ele>
      <time>2015-12-31T10:03:46Z</time>
    </trkpt>
    <trkpt lat="48.441548" lon="2.666219">
      <ele>138.222</ele>
      <time>2015-12-31T10:03:52Z</time>
    </trkpt>
    <trkpt lat="48.441558" lon="2.666373">
      <ele>138.574</ele>
      <time>2015-12-31T10:03:59Z</time>
    </trkpt>
    <trkpt lat="48.441573" lon="2.666525">
      <ele>139.153</ele>
      <time>2015-12-31T10:04:07Z</time>
    </trkpt>
    <trkpt lat="48.441577" lon="2.666677">
      <ele>139.689</ele>
      <time>2015-12-31T10:04:14Z</time>
    </trkpt>
    <trkpt lat="48.441587" lon="2.666829">
      <ele>139.881</ele>
      <time>2015-12-31T10:04:20Z</time>
    </trkpt>
    <trkpt lat="48.441593" lon="2.666988">
      <ele>140.042</ele>
      <time>2015-12-31T10:04:26Z</time>
    </trkpt>
    <trkpt lat="48.441591" lon="2.667145">
      <ele>140.197</ele>
      <time>2015-12-31T10:04:31Z</time>
    </trkpt>
    <trkpt lat="48.441569" lon="2.667294">
      <ele>140.701</ele>
      <time>2015-12-31T10:04:35Z</time>
    </trkpt>
    <trkpt lat="48.44156" lon="2.667444">
      <ele>141.489</ele>
      <time>2015-12-31T10:04:39Z</time>
    </trkpt>
    <trkpt lat="48.441561" lon="2.667618">
      <ele>141.761</ele>
      <time>2015-12-31T10:04:43Z</time>
    </trkpt>
    <trkpt lat="48.441551" lon="2.667787">
      <ele>141.819</ele>
      <time>2015-12-31T10:04:47Z</time>
    </trkpt>
    <trkpt lat="48.441555" lon="2.667942">
      <ele>141.566</ele>
      <time>2015-12-31T10:04:51Z</time>
    </trkpt>
    <trkpt lat="48.44156" lon="2.668099">
      <ele>141.384</ele>
      <time>2015-12-31T10:04:55Z</time>
    </trkpt>
    <trkpt lat="48.441576" lon="2.668259">
      <ele>141.326</ele>
      <time>2015-12-31T10:04:59Z</time>
    </trkpt>
    <trkpt lat="48.441569" lon="2.668401">
      <ele>141.352</ele>
      <time>2015-12-31T10:05:05Z</time>
    </trkpt>
    <trkpt lat="48.441559" lon="2.668558">
      <ele>141.388</ele>
      <time>2015-12-31T10:05:10Z</time>
    </trkpt>
    <trkpt lat="48.441481" lon="2.66866">
      <ele>141.61</ele>
      <time>2015-12-31T10:05:15Z</time>
    </trkpt>
    <trkpt lat="48.44138" lon="2.668682">
      <ele>142.032</ele>
      <time>2015-12-31T10:05:19Z</time>
    </trkpt>
    <trkpt lat="48.441397" lon="2.668821">
      <ele>141.949</ele>
      <time>2015-12-31T10:05:22Z</time>
    </trkpt>
    <trkpt lat="48.441497" lon="2.668923">
      <ele>141.072</ele>
      <time>2015-12-31T10:05:26Z</time>
    </trkpt>
    <trkpt lat="48.441595" lon="2.668983">
      <ele>140.341</ele>
      <time>2015-12-31T10:05:31Z</time>
    </trkpt>
    <trkpt lat="48.4417" lon="2.669032">
      <ele>140.0</ele>
      <time>2015-12-31T10:05:35Z</time>
    </trkpt>
    <trkpt lat="48.441792" lon="2.669037">
      <ele>140.0</ele>
      <time>2015-12-31T10:05:38Z</time>
    </trkpt>
    <trkpt lat="48.44189" lon="2.669102">
      <ele>140.0</ele>
      <time>2015-12-31T10:05:42Z</time>
    </trkpt>
    <trkpt lat="48.441972" lon="2.669196">
      <ele>140.11</ele>
      <time>2015-12-31T10:05:46Z</time>
    </trkpt>
    <trkpt lat="48.442073" lon="2.669242">
      <ele>140.588</ele>
      <time>2015-12-31T10:05:52Z</time>
    </trkpt>
    <trkpt lat="48.442163" lon="2.669254">
      <ele>141.034</ele>
      <time>2015-12-31T10:05:59Z</time>
    </trkpt>
    <trkpt lat="48.442258" lon="2.66931">
      <ele>141.645</ele>
      <time>2015-12-31T10:06:05Z</time>
    </trkpt>
    <trkpt lat="48.442351" lon="2.669338">
      <ele>142.08</ele>
      <time>2015-12-31T10:06:09Z</time>
    </trkpt>
    <trkpt lat="48.442445" lon="2.6694">
      <ele>142.642</ele>
      <time>2015-12-31T10:06:13Z</time>
    </trkpt>
    <trkpt lat="48.442551" lon="2.669398">
      <ele>142.833</ele>
      <time>2015-12-31T10:06:17Z</time>
    </trkpt>
    <trkpt lat="48.442661" lon="2.669394">
      <ele>142.818</ele>
      <time>2015-12-31T10:06:20Z</time>
    </trkpt>
    <trkpt lat="48.442762" lon="2.669357">
      <ele>142.685</ele>
      <time>2015-12-31T10:06:24Z</time>
    </trkpt>
    <trkpt lat="48.442852" lon="2.669342">
      <ele>142.898</ele>
      <time>2015-12-31T10:06:28Z</time>
    </trkpt>
    <trkpt lat="48.442957" lon="2.66935">
      <ele>143.305</ele>
      <time>2015-12-31T10:06:32Z</time>
    </trkpt>
    <trkpt lat="48.443047" lon="2.669396">
      <ele>143.795</ele>
      <time>2015-12-31T10:06:36Z</time>
    </trkpt>
    <trkpt lat="48.443134" lon="2.66946">
      <ele>144.0</ele>
      <time>2015-12-31T10:06:39Z</time>
    </trkpt>
    <trkpt lat="48.443253" lon="2.669487">
      <ele>144.0</ele>
      <time>2015-12-31T10:06:43Z</time>
    </trkpt>
    <trkpt lat="48.44335" lon="2.669521">
      <ele>144.0</ele>
      <time>2015-12-31T10:06:46Z</time>
    </trkpt>
    <trkpt lat="48.443454" lon="2.669541">
      <ele>144.0</ele>
      <time>2015-12-31T10:06:50Z</time>
    </trkpt>
    <trkpt lat="48.443564" lon="2.669593">
      <ele>144.0</ele>
      <time>2015-12-31T10:06:54Z</time>
    </trkpt>
    <trkpt lat="48.443615" lon="2.669715">
      <ele>144.0</ele>
      <time>2015-12-31T10:06:57Z</time>
    </trkpt>
    <trkpt lat="48.443691" lon="2.669813">
      <ele>144.0</ele>
      <time>2015-12-31T10:07:00Z</time>
    </trkpt>
    <trkpt lat="48.443785" lon="2.669856">
      <ele>144.0</ele>
      <time>2015-12-31T10:07:03Z</time>
    </trkpt>
    <trkpt lat="48.443888" lon="2.66986">
      <ele>144.0</ele>
      <time>2015-12-31T10:07:07Z</time>
    </trkpt>
    <trkpt lat="48.443982" lon="2.66986">
      <ele>144.504</ele>
      <time>2015-12-31T10:07:10Z</time>
    </trkpt>
    <trkpt lat="48.44408" lon="2.669823">
      <ele>145.126</ele>
      <time>2015-12-31T10:07:13Z</time>
    </trkpt>
    <trkpt lat="48.444179" lon="2.669839">
      <ele>145.624</ele>
      <time>2015-12-31T10:07:17Z</time>
    </trkpt>
    <trkpt lat="48.444236" lon="2.669972">
      <ele>145.35</ele>
      <time>2015-12-31T10:07:20Z</time>
    </trkpt>
    <trkpt lat="48.444307" lon="2.670085">
      <ele>145.045</ele>
      <time>2015-12-31T10:07:23Z</time>
    </trkpt>
    <trkpt lat="48.444377" lon="2.67019">
      <ele>144.555</ele>
      <time>2015-12-31T10:07:26Z</time>
    </trkpt>
    <trkpt lat="48.444436" lon="2.670303">
      <ele>143.912</ele>
      <time>2015-12-31T10:07:29Z</time>
    </trkpt>
    <trkpt lat="48.444505" lon="2.670429">
      <ele>143.892</ele>
      <time>2015-12-31T10:07:32Z</time>
    </trkpt>
    <trkpt lat="48.444576" lon="2.670558">
      <ele>143.939</ele>
      <time>2015-12-31T10:07:35Z</time>
    </trkpt>
    <trkpt lat="48.444645" lon="2.670681">
      <ele>143.792</ele>
      <time>2015-12-31T10:07:38Z</time>
    </trkpt>
    <trkpt lat="48.444708" lon="2.670814">
      <ele>143.132</ele>
      <time>2015-12-31T10:07:41Z</time>
    </trkpt>
    <trkpt lat="48.444782" lon="2.67094">
      <ele>143.993</ele>
      <time>2015-12-31T10:07:44Z</time>
    </trkpt>
    <trkpt lat="48.444857" lon="2.671073">
      <ele>145.007</ele>
      <time>2015-12-31T10:07:47Z</time>
    </trkpt>
    <trkpt lat="48.444931" lon="2.671198">
      <ele>145.849</ele>
      <time>2015-12-31T10:07:50Z</time>
    </trkpt>
    <trkpt lat="48.444995" lon="2.671338">
      <ele>146.141</ele>
      <time>2015-12-31T10:07:53Z</time>
    </trkpt>
    <trkpt lat="48.445068" lon="2.671471">
      <ele>146.979</ele>
      <time>2015-12-31T10:07:56Z</time>
    </trkpt>
    <trkpt lat="48.445135" lon="2.671617">
      <ele>147.944</ele>
      <time>2015-12-31T10:07:59Z</time>
    </trkpt>
    <trkpt lat="48.445211" lon="2.671776">
      <ele>149.133</ele>
      <time>2015-12-31T10:08:02Z</time>
    </trkpt>
    <trkpt lat="48.445291" lon="2.671935">
      <ele>150.048</ele>
      <time>2015-12-31T10:08:05Z</time>
    </trkpt>
    <trkpt lat="48.445368" lon="2.672102">
      <ele>150.325</ele>
      <time>2015-12-31T10:08:08Z</time>
    </trkpt>
    <trkpt lat="48.445432" lon="2.672219">
      <ele>150.555</ele>
      <time>2015-12-31T10:08:10Z</time>
    </trkpt>
    <trkpt lat="48.445498" lon="2.672322">
      <ele>150.793</ele>
      <time>2015-12-31T10:08:12Z</time>
    </trkpt>
    <trkpt lat="48.445563" lon="2.672437">
      <ele>151.027</ele>
      <time>2015-12-31T10:08:14Z</time>
    </trkpt>
    <trkpt lat="48.445627" lon="2.67255">
      <ele>151.211</ele>
      <time>2015-12-31T10:08:16Z</time>
    </trkpt>
    <trkpt lat="48.445688" lon="2.672672">
      <ele>151.182</ele>
      <time>2015-12-31T10:08:18Z</time>
    </trkpt>
    <trkpt lat="48.44575" lon="2.672802">
      <ele>150.913</ele>
      <time>2015-12-31T10:08:20Z</time>
    </trkpt>
    <trkpt lat="48.445812" lon="2.672913">
      <ele>150.513</ele>
      <time>2015-12-31T10:08:22Z</time>
    </trkpt>
    <trkpt lat="48.445871" lon="2.673047">
      <ele>150.035</ele>
      <time>2015-12-31T10:08:24Z</time>
    </trkpt>
    <trkpt lat="48.445959" lon="2.673196">
      <ele>149.218</ele>
      <time>2015-12-31T10:08:27Z</time>
    </trkpt>
    <trkpt lat="48.446006" lon="2.673322">
      <ele>148.678</ele>
      <time>2015-12-31T10:08:29Z</time>
    </trkpt>
    <trkpt lat="48.446061" lon="2.673434">
      <ele>148.457</ele>
      <time>2015-12-31T10:08:31Z</time>
    </trkpt>
    <trkpt lat="48.44611" lon="2.673563">
      <ele>148.169</ele>
      <time>2015-12-31T10:08:33Z</time>
    </trkpt>
    <trkpt lat="48.446195" lon="2.673697">
      <ele>147.993</ele>
      <time>2015-12-31T10:08:36Z</time>
    </trkpt>
    <trkpt lat="48.44627" lon="2.673774">
      <ele>147.986</ele>
      <time>2015-12-31T10:08:41Z</time>
    </trkpt>
    <trkpt lat="48.446347" lon="2.67385">
      <ele>147.989</ele>
      <time>2015-12-31T10:08:54Z</time>
    </trkpt>
    <trkpt lat="48.446415" lon="2.673974">
      <ele>147.882</ele>
      <time>2015-12-31T10:08:58Z</time>
    </trkpt>
    <trkpt lat="48.446462" lon="2.674136">
      <ele>147.637</ele>
      <time>2015-12-31T10:09:01Z</time>
    </trkpt>
    <trkpt lat="48.446502" lon="2.674263">
      <ele>146.774</ele>
      <time>2015-12-31T10:09:03Z</time>
    </trkpt>
    <trkpt lat="48.446548" lon="2.674433">
      <ele>145.269</ele>
      <time>2015-12-31T10:09:06Z</time>
    </trkpt>
    <trkpt lat="48.446561" lon="2.674575">
      <ele>143.359</ele>
      <time>2015-12-31T10:09:08Z</time>
    </trkpt>
    <trkpt lat="48.446559" lon="2.674785">
      <ele>140.321</ele>
      <time>2015-12-31T10:09:11Z</time>
    </trkpt>
    <trkpt lat="48.446545" lon="2.674944">
      <ele>137.93</ele>
      <time>2015-12-31T10:09:13Z</time>
    </trkpt>
    <trkpt lat="48.446546" lon="2.675086">
      <ele>136.512</ele>
      <time>2015-12-31T10:09:15Z</time>
    </trkpt>
    <trkpt lat="48.446544" lon="2.675223">
      <ele>135.511</ele>
      <time>2015-12-31T10:09:17Z</time>
    </trkpt>
    <trkpt lat="48.44656" lon="2.675358">
      <ele>134.943</ele>
      <time>2015-12-31T10:09:19Z</time>
    </trkpt>
    <trkpt lat="48.446578" lon="2.675493">
      <ele>134.587</ele>
      <time>2015-12-31T10:09:22Z</time>
    </trkpt>
    <trkpt lat="48.446514" lon="2.675598">
      <ele>133.817</ele>
      <time>2015-12-31T10:09:29Z</time>
    </trkpt>
    <trkpt lat="48.446503" lon="2.675735">
      <ele>133.441</ele>
      <time>2015-12-31T10:09:38Z</time>
    </trkpt>
    <trkpt lat="48.446488" lon="2.675898">
      <ele>132.755</ele>
      <time>2015-12-31T10:09:41Z</time>
    </trkpt>
    <trkpt lat="48.446512" lon="2.676057">
      <ele>132.168</ele>
      <time>2015-12-31T10:09:44Z</time>
    </trkpt>
    <trkpt lat="48.446526" lon="2.676196">
      <ele>131.225</ele>
      <time>2015-12-31T10:09:47Z</time>
    </trkpt>
    <trkpt lat="48.446556" lon="2.67638">
      <ele>129.685</ele>
      <time>2015-12-31T10:09:50Z</time>
    </trkpt>
    <trkpt lat="48.446613" lon="2.676506">
      <ele>128.623</ele>
      <time>2015-12-31T10:09:53Z</time>
    </trkpt>
    <trkpt lat="48.446688" lon="2.676664">
      <ele>127.105</ele>
      <time>2015-12-31T10:09:56Z</time>
    </trkpt>
    <trkpt lat="48.446758" lon="2.676789">
      <ele>126.744</ele>
      <time>2015-12-31T10:09:59Z</time>
    </trkpt>
    <trkpt lat="48.446832" lon="2.676881">
      <ele>126.364</ele>
      <time>2015-12-31T10:10:01Z</time>
    </trkpt>
    <trkpt lat="48.446917" lon="2.676986">
      <ele>125.73</ele>
      <time>2015-12-31T10:10:03Z</time>
    </trkpt>
    <trkpt lat="48.446999" lon="2.677046">
      <ele>125.393</ele>
      <time>2015-12-31T10:10:05Z</time>
    </trkpt>
    <trkpt lat="48.447057" lon="2.677159">
      <ele>124.547</ele>
      <time>2015-12-31T10:10:07Z</time>
    </trkpt>
    <trkpt lat="48.447161" lon="2.677265">
      <ele>123.606</ele>
      <time>2015-12-31T10:10:10Z</time>
    </trkpt>
    <trkpt lat="48.447246" lon="2.677349">
      <ele>122.927</ele>
      <time>2015-12-31T10:10:13Z</time>
    </trkpt>
    <trkpt lat="48.447331" lon="2.67744">
      <ele>123.13</ele>
      <time>2015-12-31T10:10:16Z</time>
    </trkpt>
    <trkpt lat="48.447405" lon="2.677541">
      <ele>123.193</ele>
      <time>2015-12-31T10:10:18Z</time>
    </trkpt>
    <trkpt lat="48.447488" lon="2.677673">
      <ele>122.417</ele>
      <time>2015-12-31T10:10:21Z</time>
    </trkpt>
    <trkpt lat="48.447569" lon="2.677796">
      <ele>122.193</ele>
      <time>2015-12-31T10:10:24Z</time>
    </trkpt>
    <trkpt lat="48.44767" lon="2.677922">
      <ele>123.107</ele>
      <time>2015-12-31T10:10:27Z</time>
    </trkpt>
    <trkpt lat="48.447758" lon="2.678011">
      <ele>123.305</ele>
      <time>2015-12-31T10:10:30Z</time>
    </trkpt>
    <trkpt lat="48.447838" lon="2.678098">
      <ele>123.801</ele>
      <time>2015-12-31T10:10:32Z</time>
    </trkpt>
    <trkpt lat="48.447922" lon="2.678207">
      <ele>124.511</ele>
      <time>2015-12-31T10:10:35Z</time>
    </trkpt>
    <trkpt lat="48.448018" lon="2.678356">
      <ele>124.588</ele>
      <time>2015-12-31T10:10:38Z</time>
    </trkpt>
    <trkpt lat="48.448095" lon="2.678456">
      <ele>124.196</ele>
      <time>2015-12-31T10:10:40Z</time>
    </trkpt>
    <trkpt lat="48.448185" lon="2.678588">
      <ele>123.205</ele>
      <time>2015-12-31T10:10:43Z</time>
    </trkpt>
    <trkpt lat="48.448283" lon="2.678726">
      <ele>121.834</ele>
      <time>2015-12-31T10:10:46Z</time>
    </trkpt>
    <trkpt lat="48.448381" lon="2.678816">
      <ele>120.616</ele>
      <time>2015-12-31T10:10:48Z</time>
    </trkpt>
    <trkpt lat="48.448488" lon="2.678883">
      <ele>119.507</ele>
      <time>2015-12-31T10:10:50Z</time>
    </trkpt>
    <trkpt lat="48.448595" lon="2.679002">
      <ele>117.86</ele>
      <time>2015-12-31T10:10:52Z</time>
    </trkpt>
    <trkpt lat="48.448701" lon="2.679133">
      <ele>116.687</ele>
      <time>2015-12-31T10:10:54Z</time>
    </trkpt>
    <trkpt lat="48.44881" lon="2.679244">
      <ele>115.96</ele>
      <time>2015-12-31T10:10:56Z</time>
    </trkpt>
    <trkpt lat="48.44888" lon="2.67935">
      <ele>115.009</ele>
      <time>2015-12-31T10:10:58Z</time>
    </trkpt>
    <trkpt lat="48.448971" lon="2.679454">
      <ele>114.217</ele>
      <time>2015-12-31T10:11:00Z</time>
    </trkpt>
    <trkpt lat="48.449066" lon="2.679549">
      <ele>113.645</ele>
      <time>2015-12-31T10:11:02Z</time>
    </trkpt>
    <trkpt lat="48.449125" lon="2.679674">
      <ele>112.495</ele>
      <time>2015-12-31T10:11:04Z</time>
    </trkpt>
    <trkpt lat="48.449215" lon="2.679788">
      <ele>111.505</ele>
      <time>2015-12-31T10:11:06Z</time>
    </trkpt>
    <trkpt lat="48.449292" lon="2.679869">
      <ele>111.104</ele>
      <time>2015-12-31T10:11:08Z</time>
    </trkpt>
    <trkpt lat="48.44937" lon="2.679971">
      <ele>110.701</ele>
      <time>2015-12-31T10:11:27Z</time>
    </trkpt>
    <trkpt lat="48.449455" lon="2.680071">
      <ele>110.253</ele>
      <time>2015-12-31T10:11:30Z</time>
    </trkpt>
    <trkpt lat="48.449525" lon="2.680162">
      <ele>109.589</ele>
      <time>2015-12-31T10:11:32Z</time>
    </trkpt>
    <trkpt lat="48.449619" lon="2.680277">
      <ele>109.262</ele>
      <time>2015-12-31T10:11:35Z</time>
    </trkpt>
    <trkpt lat="48.449713" lon="2.680377">
      <ele>109.231</ele>
      <time>2015-12-31T10:11:38Z</time>
    </trkpt>
    <trkpt lat="48.449797" lon="2.680474">
      <ele>108.587</ele>
      <time>2015-12-31T10:11:41Z</time>
    </trkpt>
    <trkpt lat="48.449896" lon="2.680565">
      <ele>107.932</ele>
      <time>2015-12-31T10:11:44Z</time>
    </trkpt>
    <trkpt lat="48.449976" lon="2.680665">
      <ele>107.212</ele>
      <time>2015-12-31T10:11:46Z</time>
    </trkpt>
    <trkpt lat="48.450056" lon="2.680737">
      <ele>106.694</ele>
      <time>2015-12-31T10:11:48Z</time>
    </trkpt>
    <trkpt lat="48.450137" lon="2.680836">
      <ele>105.981</ele>
      <time>2015-12-31T10:11:50Z</time>
    </trkpt>
    <trkpt lat="48.450218" lon="2.6809">
      <ele>105.52</ele>
      <time>2015-12-31T10:11:52Z</time>
    </trkpt>
    <trkpt lat="48.450313" lon="2.681034">
      <ele>104.717</ele>
      <time>2015-12-31T10:11:55Z</time>
    </trkpt>
    <trkpt lat="48.450396" lon="2.681141">
      <ele>104.318</ele>
      <time>2015-12-31T10:11:57Z</time>
    </trkpt>
    <trkpt lat="48.450473" lon="2.681252">
      <ele>104.196</ele>
      <time>2015-12-31T10:11:59Z</time>
    </trkpt>
    <trkpt lat="48.450557" lon="2.681342">
      <ele>104.175</ele>
      <time>2015-12-31T10:12:01Z</time>
    </trkpt>
    <trkpt lat="48.450647" lon="2.681444">
      <ele>103.932</ele>
      <time>2015-12-31T10:12:03Z</time>
    </trkpt>
    <trkpt lat="48.450753" lon="2.68156">
      <ele>103.479</ele>
      <time>2015-12-31T10:12:05Z</time>
    </trkpt>
    <trkpt lat="48.450826" lon="2.681661">
      <ele>103.014</ele>
      <time>2015-12-31T10:12:07Z</time>
    </trkpt>
    <trkpt lat="48.450915" lon="2.681765">
      <ele>102.336</ele>
      <time>2015-12-31T10:12:10Z</time>
    </trkpt>
    <trkpt lat="48.451001" lon="2.681882">
      <ele>101.746</ele>
      <time>2015-12-31T10:12:13Z</time>
    </trkpt>
    <trkpt lat="48.451111" lon="2.68201">
      <ele>101.763</ele>
      <time>2015-12-31T10:12:16Z</time>
    </trkpt>
    <trkpt lat="48.451191" lon="2.682101">
      <ele>102.012</ele>
      <time>2015-12-31T10:12:18Z</time>
    </trkpt>
    <trkpt lat="48.451264" lon="2.682193">
      <ele>102.206</ele>
      <time>2015-12-31T10:12:20Z</time>
    </trkpt>
    <trkpt lat="48.45134" lon="2.682273">
      <ele>102.433</ele>
      <time>2015-12-31T10:12:22Z</time>
    </trkpt>
    <trkpt lat="48.451433" lon="2.682382">
      <ele>102.675</ele>
      <time>2015-12-31T10:12:25Z</time>
    </trkpt>
    <trkpt lat="48.451519" lon="2.682506">
      <ele>102.894</ele>
      <time>2015-12-31T10:12:28Z</time>
    </trkpt>
    <trkpt lat="48.451598" lon="2.682599">
      <ele>102.793</ele>
      <time>2015-12-31T10:12:30Z</time>
    </trkpt>
    <trkpt lat="48.451696" lon="2.682731">
      <ele>102.53</ele>
      <time>2015-12-31T10:12:33Z</time>
    </trkpt>
    <trkpt lat="48.451798" lon="2.682845">
      <ele>102.462</ele>
      <time>2015-12-31T10:12:36Z</time>
    </trkpt>
    <trkpt lat="48.451869" lon="2.682943">
      <ele>102.267</ele>
      <time>2015-12-31T10:12:38Z</time>
    </trkpt>
    <trkpt lat="48.451961" lon="2.683063">
      <ele>101.981</ele>
      <time>2015-12-31T10:12:41Z</time>
    </trkpt>
    <trkpt lat="48.452041" lon="2.68317">
      <ele>101.255</ele>
      <time>2015-12-31T10:12:44Z</time>
    </trkpt>
    <trkpt lat="48.452145" lon="2.683293">
      <ele>100.775</ele>
      <time>2015-12-31T10:12:47Z</time>
    </trkpt>
    <trkpt lat="48.452226" lon="2.683355">
      <ele>100.859</ele>
      <time>2015-12-31T10:12:49Z</time>
    </trkpt>
    <trkpt lat="48.452337" lon="2.683477">
      <ele>100.593</ele>
      <time>2015-12-31T10:12:52Z</time>
    </trkpt>
    <trkpt lat="48.452413" lon="2.683569">
      <ele>100.573</ele>
      <time>2015-12-31T10:12:54Z</time>
    </trkpt>
    <trkpt lat="48.452489" lon="2.683646">
      <ele>100.675</ele>
      <time>2015-12-31T10:12:56Z</time>
    </trkpt>
    <trkpt lat="48.45256" lon="2.683732">
      <ele>100.13</ele>
      <time>2015-12-31T10:12:58Z</time>
    </trkpt>
    <trkpt lat="48.452643" lon="2.683853">
      <ele>99.258</ele>
      <time>2015-12-31T10:13:00Z</time>
    </trkpt>
    <trkpt lat="48.452711" lon="2.683955">
      <ele>98.762</ele>
      <time>2015-12-31T10:13:02Z</time>
    </trkpt>
    <trkpt lat="48.452796" lon="2.684033">
      <ele>98.481</ele>
      <time>2015-12-31T10:13:04Z</time>
    </trkpt>
    <trkpt lat="48.45289" lon="2.684137">
      <ele>98.107</ele>
      <time>2015-12-31T10:13:07Z</time>
    </trkpt>
    <trkpt lat="48.452969" lon="2.684252">
      <ele>97.693</ele>
      <time>2015-12-31T10:13:10Z</time>
    </trkpt>
    <trkpt lat="48.453046" lon="2.684341">
      <ele>97.372</ele>
      <time>2015-12-31T10:13:12Z</time>
    </trkpt>
    <trkpt lat="48.453123" lon="2.684443">
      <ele>97.248</ele>
      <time>2015-12-31T10:13:15Z</time>
    </trkpt>
    <trkpt lat="48.453213" lon="2.684518">
      <ele>97.037</ele>
      <time>2015-12-31T10:13:18Z</time>
    </trkpt>
    <trkpt lat="48.453286" lon="2.684604">
      <ele>96.681</ele>
      <time>2015-12-31T10:13:23Z</time>
    </trkpt>
    <trkpt lat="48.453357" lon="2.684704">
      <ele>96.211</ele>
      <time>2015-12-31T10:13:27Z</time>
    </trkpt>
    <trkpt lat="48.453411" lon="2.684843">
      <ele>95.845</ele>
      <time>2015-12-31T10:13:32Z</time>
    </trkpt>
    <trkpt lat="48.453399" lon="2.684983">
      <ele>95.298</ele>
      <time>2015-12-31T10:13:36Z</time>
    </trkpt>
    <trkpt lat="48.453309" lon="2.685101">
      <ele>94.881</ele>
      <time>2015-12-31T10:13:39Z</time>
    </trkpt>
    <trkpt lat="48.453224" lon="2.685186">
      <ele>94.343</ele>
      <time>2015-12-31T10:13:42Z</time>
    </trkpt>
    <trkpt lat="48.453202" lon="2.685322">
      <ele>94.448</ele>
      <time>2015-12-31T10:13:45Z</time>
    </trkpt>
    <trkpt lat="48.453243" lon="2.685444">
      <ele>95.741</ele>
      <time>2015-12-31T10:13:49Z</time>
    </trkpt>
    <trkpt lat="48.453288" lon="2.685565">
      <ele>96.944</ele>
      <time>2015-12-31T10:13:52Z</time>
    </trkpt>
    <trkpt lat="48.453349" lon="2.685691">
      <ele>98.406</ele>
      <time>2015-12-31T10:13:55Z</time>
    </trkpt>
    <trkpt lat="48.453397" lon="2.68586">
      <ele>99.941</ele>
      <time>2015-12-31T10:13:58Z</time>
    </trkpt>
    <trkpt lat="48.453443" lon="2.685988">
      <ele>100.499</ele>
      <time>2015-12-31T10:14:01Z</time>
    </trkpt>
    <trkpt lat="48.453468" lon="2.68616">
      <ele>101.03</ele>
      <time>2015-12-31T10:14:04Z</time>
    </trkpt>
    <trkpt lat="48.453505" lon="2.686343">
      <ele>100.764</ele>
      <time>2015-12-31T10:14:07Z</time>
    </trkpt>
    <trkpt lat="48.453558" lon="2.686532">
      <ele>100.898</ele>
      <time>2015-12-31T10:14:10Z</time>
    </trkpt>
    <trkpt lat="48.453573" lon="2.68669">
      <ele>101.347</ele>
      <time>2015-12-31T10:14:12Z</time>
    </trkpt>
    <trkpt lat="48.453597" lon="2.686838">
      <ele>101.687</ele>
      <time>2015-12-31T10:14:14Z</time>
    </trkpt>
    <trkpt lat="48.453639" lon="2.687006">
      <ele>101.9</ele>
      <time>2015-12-31T10:14:16Z</time>
    </trkpt>
    <trkpt lat="48.453682" lon="2.687184">
      <ele>101.745</ele>
      <time>2015-12-31T10:14:18Z</time>
    </trkpt>
    <trkpt lat="48.453701" lon="2.687413">
      <ele>101.676</ele>
      <time>2015-12-31T10:14:20Z</time>
    </trkpt>
    <trkpt lat="48.453766" lon="2.687597">
      <ele>101.093</ele>
      <time>2015-12-31T10:14:22Z</time>
    </trkpt>
    <trkpt lat="48.453798" lon="2.687821">
      <ele>100.327</ele>
      <time>2015-12-31T10:14:24Z</time>
    </trkpt>
    <trkpt lat="48.453826" lon="2.68796">
      <ele>100.226</ele>
      <time>2015-12-31T10:14:26Z</time>
    </trkpt>
    <trkpt lat="48.453794" lon="2.688198">
      <ele>100.166</ele>
      <time>2015-12-31T10:14:28Z</time>
    </trkpt>
    <trkpt lat="48.453812" lon="2.688376">
      <ele>99.957</ele>
      <time>2015-12-31T10:14:30Z</time>
    </trkpt>
    <trkpt lat="48.453831" lon="2.688588">
      <ele>99.809</ele>
      <time>2015-12-31T10:14:32Z</time>
    </trkpt>
    <trkpt lat="48.453833" lon="2.688761">
      <ele>99.799</ele>
      <time>2015-12-31T10:14:34Z</time>
    </trkpt>
    <trkpt lat="48.453897" lon="2.688894">
      <ele>100.029</ele>
      <time>2015-12-31T10:14:36Z</time>
    </trkpt>
    <trkpt lat="48.453933" lon="2.689044">
      <ele>100.07</ele>
      <time>2015-12-31T10:14:38Z</time>
    </trkpt>
    <trkpt lat="48.453966" lon="2.689211">
      <ele>100.16</ele>
      <time>2015-12-31T10:14:40Z</time>
    </trkpt>
    <trkpt lat="48.454016" lon="2.689361">
      <ele>100.7</ele>
      <time>2015-12-31T10:14:44Z</time>
    </trkpt>
    <trkpt lat="48.454091" lon="2.689551">
      <ele>100.896</ele>
      <time>2015-12-31T10:14:46Z</time>
    </trkpt>
    <trkpt lat="48.454111" lon="2.689704">
      <ele>100.813</ele>
      <time>2015-12-31T10:14:48Z</time>
    </trkpt>
    <trkpt lat="48.454154" lon="2.689904">
      <ele>100.984</ele>
      <time>2015-12-31T10:14:51Z</time>
    </trkpt>
    <trkpt lat="48.454144" lon="2.690047">
      <ele>101.155</ele>
      <time>2015-12-31T10:14:53Z</time>
    </trkpt>
    <trkpt lat="48.454149" lon="2.690198">
      <ele>101.667</ele>
      <time>2015-12-31T10:14:56Z</time>
    </trkpt>
    <trkpt lat="48.454114" lon="2.690346">
      <ele>102.056</ele>
      <time>2015-12-31T10:14:58Z</time>
    </trkpt>
    <trkpt lat="48.454122" lon="2.690481">
      <ele>102.571</ele>
      <time>2015-12-31T10:15:00Z</time>
    </trkpt>
    <trkpt lat="48.454143" lon="2.690654">
      <ele>103.269</ele>
      <time>2015-12-31T10:15:03Z</time>
    </trkpt>
    <trkpt lat="48.454161" lon="2.69084">
      <ele>103.98</ele>
      <time>2015-12-31T10:15:06Z</time>
    </trkpt>
    <trkpt lat="48.454207" lon="2.690984">
      <ele>104.0</ele>
      <time>2015-12-31T10:15:08Z</time>
    </trkpt>
    <trkpt lat="48.454253" lon="2.691134">
      <ele>103.974</ele>
      <time>2015-12-31T10:15:10Z</time>
    </trkpt>
    <trkpt lat="48.454279" lon="2.691288">
      <ele>103.742</ele>
      <time>2015-12-31T10:15:12Z</time>
    </trkpt>
    <trkpt lat="48.454276" lon="2.691429">
      <ele>103.519</ele>
      <time>2015-12-31T10:15:15Z</time>
    </trkpt>
    <trkpt lat="48.454294" lon="2.691566">
      <ele>103.196</ele>
      <time>2015-12-31T10:15:17Z</time>
    </trkpt>
    <trkpt lat="48.454305" lon="2.691739">
      <ele>103.0</ele>
      <time>2015-12-31T10:15:20Z</time>
    </trkpt>
    <trkpt lat="48.454313" lon="2.691902">
      <ele>103.0</ele>
      <time>2015-12-31T10:15:22Z</time>
    </trkpt>
    <trkpt lat="48.454344" lon="2.692092">
      <ele>101.938</ele>
      <time>2015-12-31T10:15:24Z</time>
    </trkpt>
    <trkpt lat="48.454353" lon="2.692239">
      <ele>100.859</ele>
      <time>2015-12-31T10:15:26Z</time>
    </trkpt>
    <trkpt lat="48.454373" lon="2.692383">
      <ele>99.694</ele>
      <time>2015-12-31T10:15:28Z</time>
    </trkpt>
    <trkpt lat="48.454411" lon="2.692542">
      <ele>98.444</ele>
      <time>2015-12-31T10:15:30Z</time>
    </trkpt>
    <trkpt lat="48.454418" lon="2.692713">
      <ele>96.677</ele>
      <time>2015-12-31T10:15:32Z</time>
    </trkpt>
    <trkpt lat="48.454437" lon="2.69291">
      <ele>95.048</ele>
      <time>2015-12-31T10:15:34Z</time>
    </trkpt>
    <trkpt lat="48.454458" lon="2.693058">
      <ele>94.097</ele>
      <time>2015-12-31T10:15:36Z</time>
    </trkpt>
    <trkpt lat="48.454474" lon="2.693201">
      <ele>94.157</ele>
      <time>2015-12-31T10:15:38Z</time>
    </trkpt>
    <trkpt lat="48.454501" lon="2.693362">
      <ele>94.121</ele>
      <time>2015-12-31T10:15:40Z</time>
    </trkpt>
    <trkpt lat="48.45453" lon="2.693506">
      <ele>93.878</ele>
      <time>2015-12-31T10:15:42Z</time>
    </trkpt>
    <trkpt lat="48.454556" lon="2.693652">
      <ele>93.832</ele>
      <time>2015-12-31T10:15:44Z</time>
    </trkpt>
    <trkpt lat="48.454593" lon="2.693783">
      <ele>94.027</ele>
      <time>2015-12-31T10:15:46Z</time>
    </trkpt>
    <trkpt lat="48.454609" lon="2.693947">
      <ele>94.124</ele>
      <time>2015-12-31T10:15:48Z</time>
    </trkpt>
    <trkpt lat="48.454624" lon="2.694108">
      <ele>94.51</ele>
      <time>2015-12-31T10:15:51Z</time>
    </trkpt>
    <trkpt lat="48.454626" lon="2.694255">
      <ele>94.764</ele>
      <time>2015-12-31T10:15:55Z</time>
    </trkpt>
    <trkpt lat="48.454562" lon="2.694387">
      <ele>94.881</ele>
      <time>2015-12-31T10:15:59Z</time>
    </trkpt>
    <trkpt lat="48.454499" lon="2.694501">
      <ele>94.836</ele>
      <time>2015-12-31T10:16:02Z</time>
    </trkpt>
    <trkpt lat="48.454416" lon="2.694646">
      <ele>93.967</ele>
      <time>2015-12-31T10:16:05Z</time>
    </trkpt>
    <trkpt lat="48.45435" lon="2.694743">
      <ele>93.029</ele>
      <time>2015-12-31T10:16:07Z</time>
    </trkpt>
    <trkpt lat="48.454265" lon="2.694868">
      <ele>92.248</ele>
      <time>2015-12-31T10:16:10Z</time>
    </trkpt>
    <trkpt lat="48.454169" lon="2.695024">
      <ele>91.12</ele>
      <time>2015-12-31T10:16:13Z</time>
    </trkpt>
    <trkpt lat="48.454097" lon="2.695128">
      <ele>90.844</ele>
      <time>2015-12-31T10:16:15Z</time>
    </trkpt>
    <trkpt lat="48.454031" lon="2.695251">
      <ele>90.485</ele>
      <time>2015-12-31T10:16:17Z</time>
    </trkpt>
    <trkpt lat="48.453965" lon="2.695366">
      <ele>90.688</ele>
      <time>2015-12-31T10:16:19Z</time>
    </trkpt>
    <trkpt lat="48.453897" lon="2.695473">
      <ele>91.175</ele>
      <time>2015-12-31T10:16:21Z</time>
    </trkpt>
    <trkpt lat="48.453833" lon="2.695572">
      <ele>91.763</ele>
      <time>2015-12-31T10:16:23Z</time>
    </trkpt>
    <trkpt lat="48.453771" lon="2.695676">
      <ele>92.268</ele>
      <time>2015-12-31T10:16:25Z</time>
    </trkpt>
    <trkpt lat="48.453681" lon="2.695824">
      <ele>92.679</ele>
      <time>2015-12-31T10:16:28Z</time>
    </trkpt>
    <trkpt lat="48.453624" lon="2.695932">
      <ele>93.188</ele>
      <time>2015-12-31T10:16:30Z</time>
    </trkpt>
    <trkpt lat="48.453562" lon="2.696042">
      <ele>93.281</ele>
      <time>2015-12-31T10:16:32Z</time>
    </trkpt>
    <trkpt lat="48.453486" lon="2.696143">
      <ele>92.464</ele>
      <time>2015-12-31T10:16:34Z</time>
    </trkpt>
    <trkpt lat="48.453423" lon="2.696263">
      <ele>91.854</ele>
      <time>2015-12-31T10:16:36Z</time>
    </trkpt>
    <trkpt lat="48.453357" lon="2.696364">
      <ele>91.254</ele>
      <time>2015-12-31T10:16:38Z</time>
    </trkpt>
    <trkpt lat="48.453288" lon="2.696471">
      <ele>90.775</ele>
      <time>2015-12-31T10:16:40Z</time>
    </trkpt>
    <trkpt lat="48.453221" lon="2.696591">
      <ele>90.433</ele>
      <time>2015-12-31T10:16:42Z</time>
    </trkpt>
    <trkpt lat="48.45315" lon="2.696686">
      <ele>89.746</ele>
      <time>2015-12-31T10:16:44Z</time>
    </trkpt>
    <trkpt lat="48.453083" lon="2.696785">
      <ele>88.878</ele>
      <time>2015-12-31T10:16:46Z</time>
    </trkpt>
    <trkpt lat="48.453026" lon="2.696899">
      <ele>88.606</ele>
      <time>2015-12-31T10:16:48Z</time>
    </trkpt>
    <trkpt lat="48.452968" lon="2.697004">
      <ele>88.798</ele>
      <time>2015-12-31T10:16:50Z</time>
    </trkpt>
    <trkpt lat="48.452889" lon="2.697138">
      <ele>89.194</ele>
      <time>2015-12-31T10:16:53Z</time>
    </trkpt>
    <trkpt lat="48.452817" lon="2.697272">
      <ele>89.641</ele>
      <time>2015-12-31T10:16:56Z</time>
    </trkpt>
    <trkpt lat="48.452725" lon="2.697423">
      <ele>90.636</ele>
      <time>2015-12-31T10:16:59Z</time>
    </trkpt>
    <trkpt lat="48.452638" lon="2.697543">
      <ele>91.813</ele>
      <time>2015-12-31T10:17:02Z</time>
    </trkpt>
    <trkpt lat="48.452572" lon="2.697641">
      <ele>92.756</ele>
      <time>2015-12-31T10:17:05Z</time>
    </trkpt>
    <trkpt lat="48.452497" lon="2.697722">
      <ele>93.609</ele>
      <time>2015-12-31T10:17:10Z</time>
    </trkpt>
    <trkpt lat="48.452352" lon="2.697556">
      <ele>92.936</ele>
      <time>2015-12-31T10:18:13Z</time>
    </trkpt>
    <trkpt lat="48.45229" lon="2.697433">
      <ele>92.274</ele>
      <time>2015-12-31T10:18:16Z</time>
    </trkpt>
    <trkpt lat="48.452207" lon="2.697263">
      <ele>91.45</ele>
      <time>2015-12-31T10:18:20Z</time>
    </trkpt>
    <trkpt lat="48.452124" lon="2.697108">
      <ele>91.238</ele>
      <time>2015-12-31T10:18:23Z</time>
    </trkpt>
    <trkpt lat="48.452046" lon="2.696964">
      <ele>91.044</ele>
      <time>2015-12-31T10:18:26Z</time>
    </trkpt>
    <trkpt lat="48.451992" lon="2.696847">
      <ele>90.725</ele>
      <time>2015-12-31T10:18:28Z</time>
    </trkpt>
    <trkpt lat="48.451931" lon="2.696737">
      <ele>90.688</ele>
      <time>2015-12-31T10:18:30Z</time>
    </trkpt>
    <trkpt lat="48.451846" lon="2.696583">
      <ele>91.116</ele>
      <time>2015-12-31T10:18:33Z</time>
    </trkpt>
    <trkpt lat="48.451781" lon="2.696458">
      <ele>91.602</ele>
      <time>2015-12-31T10:18:35Z</time>
    </trkpt>
    <trkpt lat="48.451702" lon="2.696297">
      <ele>91.83</ele>
      <time>2015-12-31T10:18:38Z</time>
    </trkpt>
    <trkpt lat="48.451647" lon="2.696188">
      <ele>91.656</ele>
      <time>2015-12-31T10:18:40Z</time>
    </trkpt>
    <trkpt lat="48.451574" lon="2.696069">
      <ele>91.313</ele>
      <time>2015-12-31T10:18:42Z</time>
    </trkpt>
    <trkpt lat="48.451503" lon="2.695962">
      <ele>90.789</ele>
      <time>2015-12-31T10:18:44Z</time>
    </trkpt>
    <trkpt lat="48.451443" lon="2.695811">
      <ele>89.564</ele>
      <time>2015-12-31T10:18:47Z</time>
    </trkpt>
    <trkpt lat="48.451376" lon="2.695684">
      <ele>88.501</ele>
      <time>2015-12-31T10:18:50Z</time>
    </trkpt>
    <trkpt lat="48.451283" lon="2.695528">
      <ele>87.503</ele>
      <time>2015-12-31T10:18:53Z</time>
    </trkpt>
    <trkpt lat="48.451216" lon="2.695413">
      <ele>87.025</ele>
      <time>2015-12-31T10:18:55Z</time>
    </trkpt>
    <trkpt lat="48.451159" lon="2.695297">
      <ele>86.633</ele>
      <time>2015-12-31T10:18:57Z</time>
    </trkpt>
    <trkpt lat="48.451097" lon="2.695168">
      <ele>86.362</ele>
      <time>2015-12-31T10:18:59Z</time>
    </trkpt>
    <trkpt lat="48.451025" lon="2.695033">
      <ele>86.168</ele>
      <time>2015-12-31T10:19:01Z</time>
    </trkpt>
    <trkpt lat="48.450949" lon="2.694879">
      <ele>86.315</ele>
      <time>2015-12-31T10:19:04Z</time>
    </trkpt>
    <trkpt lat="48.450889" lon="2.69473">
      <ele>86.427</ele>
      <time>2015-12-31T10:19:07Z</time>
    </trkpt>
    <trkpt lat="48.450806" lon="2.694537">
      <ele>86.432</ele>
      <time>2015-12-31T10:19:10Z</time>
    </trkpt>
    <trkpt lat="48.450736" lon="2.694391">
      <ele>86.283</ele>
      <time>2015-12-31T10:19:13Z</time>
    </trkpt>
    <trkpt lat="48.450673" lon="2.694275">
      <ele>86.225</ele>
      <time>2015-12-31T10:19:15Z</time>
    </trkpt>
    <trkpt lat="48.450604" lon="2.694161">
      <ele>85.966</ele>
      <time>2015-12-31T10:19:17Z</time>
    </trkpt>
    <trkpt lat="48.450527" lon="2.694055">
      <ele>85.237</ele>
      <time>2015-12-31T10:19:19Z</time>
    </trkpt>
    <trkpt lat="48.450463" lon="2.693943">
      <ele>84.658</ele>
      <time>2015-12-31T10:19:21Z</time>
    </trkpt>
    <trkpt lat="48.450385" lon="2.693802">
      <ele>84.855</ele>
      <time>2015-12-31T10:19:24Z</time>
    </trkpt>
    <trkpt lat="48.450325" lon="2.693678">
      <ele>85.088</ele>
      <time>2015-12-31T10:19:26Z</time>
    </trkpt>
    <trkpt lat="48.450247" lon="2.693526">
      <ele>84.923</ele>
      <time>2015-12-31T10:19:29Z</time>
    </trkpt>
    <trkpt lat="48.450174" lon="2.693376">
      <ele>84.943</ele>
      <time>2015-12-31T10:19:32Z</time>
    </trkpt>
    <trkpt lat="48.450091" lon="2.693234">
      <ele>85.592</ele>
      <time>2015-12-31T10:19:35Z</time>
    </trkpt>
    <trkpt lat="48.450013" lon="2.693101">
      <ele>85.915</ele>
      <time>2015-12-31T10:19:38Z</time>
    </trkpt>
    <trkpt lat="48.449939" lon="2.692961">
      <ele>86.802</ele>
      <time>2015-12-31T10:19:41Z</time>
    </trkpt>
    <trkpt lat="48.449876" lon="2.692823">
      <ele>88.065</ele>
      <time>2015-12-31T10:19:44Z</time>
    </trkpt>
    <trkpt lat="48.449831" lon="2.692672">
      <ele>89.915</ele>
      <time>2015-12-31T10:19:47Z</time>
    </trkpt>
    <trkpt lat="48.449776" lon="2.692511">
      <ele>92.035</ele>
      <time>2015-12-31T10:19:50Z</time>
    </trkpt>
    <trkpt lat="48.449725" lon="2.692362">
      <ele>93.009</ele>
      <time>2015-12-31T10:19:53Z</time>
    </trkpt>
    <trkpt lat="48.449688" lon="2.692198">
      <ele>93.754</ele>
      <time>2015-12-31T10:19:56Z</time>
    </trkpt>
    <trkpt lat="48.449644" lon="2.692027">
      <ele>93.437</ele>
      <time>2015-12-31T10:19:59Z</time>
    </trkpt>
    <trkpt lat="48.449598" lon="2.691857">
      <ele>93.106</ele>
      <time>2015-12-31T10:20:02Z</time>
    </trkpt>
    <trkpt lat="48.449545" lon="2.691686">
      <ele>92.724</ele>
      <time>2015-12-31T10:20:05Z</time>
    </trkpt>
    <trkpt lat="48.449496" lon="2.691517">
      <ele>92.91</ele>
      <time>2015-12-31T10:20:08Z</time>
    </trkpt>
    <trkpt lat="48.449448" lon="2.691332">
      <ele>93.435</ele>
      <time>2015-12-31T10:20:11Z</time>
    </trkpt>
    <trkpt lat="48.4494" lon="2.691164">
      <ele>94.17</ele>
      <time>2015-12-31T10:20:14Z</time>
    </trkpt>
    <trkpt lat="48.449359" lon="2.691006">
      <ele>95.096</ele>
      <time>2015-12-31T10:20:17Z</time>
    </trkpt>
    <trkpt lat="48.449319" lon="2.690847">
      <ele>96.068</ele>
      <time>2015-12-31T10:20:20Z</time>
    </trkpt>
    <trkpt lat="48.449276" lon="2.690688">
      <ele>96.098</ele>
      <time>2015-12-31T10:20:23Z</time>
    </trkpt>
    <trkpt lat="48.449259" lon="2.690548">
      <ele>96.366</ele>
      <time>2015-12-31T10:20:25Z</time>
    </trkpt>
    <trkpt lat="48.449212" lon="2.690374">
      <ele>96.747</ele>
      <time>2015-12-31T10:20:28Z</time>
    </trkpt>
    <trkpt lat="48.449167" lon="2.690212">
      <ele>97.239</ele>
      <time>2015-12-31T10:20:31Z</time>
    </trkpt>
    <trkpt lat="48.449117" lon="2.690061">
      <ele>97.602</ele>
      <time>2015-12-31T10:20:34Z</time>
    </trkpt>
    <trkpt lat="48.449071" lon="2.689887">
      <ele>97.796</ele>
      <time>2015-12-31T10:20:37Z</time>
    </trkpt>
    <trkpt lat="48.449023" lon="2.689716">
      <ele>98.022</ele>
      <time>2015-12-31T10:20:40Z</time>
    </trkpt>
    <trkpt lat="48.448962" lon="2.689547">
      <ele>98.631</ele>
      <time>2015-12-31T10:20:43Z</time>
    </trkpt>
    <trkpt lat="48.448912" lon="2.689405">
      <ele>99.0</ele>
      <time>2015-12-31T10:20:46Z</time>
    </trkpt>
    <trkpt lat="48.448853" lon="2.689257">
      <ele>98.871</ele>
      <time>2015-12-31T10:20:49Z</time>
    </trkpt>
    <trkpt lat="48.448818" lon="2.689112">
      <ele>98.598</ele>
      <time>2015-12-31T10:20:52Z</time>
    </trkpt>
    <trkpt lat="48.448757" lon="2.688937">
      <ele>98.091</ele>
      <time>2015-12-31T10:20:55Z</time>
    </trkpt>
    <trkpt lat="48.448726" lon="2.688772">
      <ele>97.332</ele>
      <time>2015-12-31T10:20:58Z</time>
    </trkpt>
    <trkpt lat="48.4487" lon="2.688626">
      <ele>96.41</ele>
      <time>2015-12-31T10:21:01Z</time>
    </trkpt>
    <trkpt lat="48.448677" lon="2.688492">
      <ele>95.808</ele>
      <time>2015-12-31T10:21:04Z</time>
    </trkpt>
    <trkpt lat="48.448624" lon="2.68836">
      <ele>95.142</ele>
      <time>2015-12-31T10:21:09Z</time>
    </trkpt>
    <trkpt lat="48.448595" lon="2.688223">
      <ele>95.397</ele>
      <time>2015-12-31T10:21:13Z</time>
    </trkpt>
    <trkpt lat="48.448554" lon="2.688068">
      <ele>95.955</ele>
      <time>2015-12-31T10:21:18Z</time>
    </trkpt>
    <trkpt lat="48.448515" lon="2.687936">
      <ele>96.579</ele>
      <time>2015-12-31T10:21:21Z</time>
    </trkpt>
    <trkpt lat="48.448508" lon="2.687786">
      <ele>97.331</ele>
      <time>2015-12-31T10:21:25Z</time>
    </trkpt>
    <trkpt lat="48.448501" lon="2.687645">
      <ele>98.163</ele>
      <time>2015-12-31T10:21:30Z</time>
    </trkpt>
    <trkpt lat="48.448529" lon="2.687493">
      <ele>99.007</ele>
      <time>2015-12-31T10:21:39Z</time>
    </trkpt>
    <trkpt lat="48.44855" lon="2.687339">
      <ele>99.128</ele>
      <time>2015-12-31T10:21:45Z</time>
    </trkpt>
    <trkpt lat="48.448588" lon="2.68721">
      <ele>99.127</ele>
      <time>2015-12-31T10:21:51Z</time>
    </trkpt>
    <trkpt lat="48.44862" lon="2.687065">
      <ele>99.63</ele>
      <time>2015-12-31T10:21:58Z</time>
    </trkpt>
    <trkpt lat="48.448624" lon="2.686913">
      <ele>100.314</ele>
      <time>2015-12-31T10:22:05Z</time>
    </trkpt>
    <trkpt lat="48.448612" lon="2.686761">
      <ele>101.325</ele>
      <time>2015-12-31T10:22:12Z</time>
    </trkpt>
    <trkpt lat="48.448624" lon="2.68661">
      <ele>102.649</ele>
      <time>2015-12-31T10:22:20Z</time>
    </trkpt>
    <trkpt lat="48.448612" lon="2.686466">
      <ele>104.168</ele>
      <time>2015-12-31T10:22:27Z</time>
    </trkpt>
    <trkpt lat="48.448585" lon="2.686316">
      <ele>105.549</ele>
      <time>2015-12-31T10:22:37Z</time>
    </trkpt>
    <trkpt lat="48.448604" lon="2.686178">
      <ele>106.538</ele>
      <time>2015-12-31T10:22:44Z</time>
    </trkpt>
    <trkpt lat="48.448586" lon="2.686041">
      <ele>107.618</ele>
      <time>2015-12-31T10:22:52Z</time>
    </trkpt>
    <trkpt lat="48.448573" lon="2.685904">
      <ele>108.731</ele>
      <time>2015-12-31T10:22:59Z</time>
    </trkpt>
    <trkpt lat="48.448562" lon="2.685763">
      <ele>109.652</ele>
      <time>2015-12-31T10:23:07Z</time>
    </trkpt>
    <trkpt lat="48.44856" lon="2.685615">
      <ele>110.299</ele>
      <time>2015-12-31T10:23:16Z</time>
    </trkpt>
    <trkpt lat="48.448556" lon="2.685476">
      <ele>111.168</ele>
      <time>2015-12-31T10:23:26Z</time>
    </trkpt>
    <trkpt lat="48.448527" lon="2.68533">
      <ele>112.532</ele>
      <time>2015-12-31T10:23:36Z</time>
    </trkpt>
    <trkpt lat="48.448475" lon="2.685217">
      <ele>114.341</ele>
      <time>2015-12-31T10:23:47Z</time>
    </trkpt>
    <trkpt lat="48.448422" lon="2.685101">
      <ele>116.818</ele>
      <time>2015-12-31T10:23:55Z</time>
    </trkpt>
    <trkpt lat="48.448337" lon="2.685006">
      <ele>119.827</ele>
      <time>2015-12-31T10:24:05Z</time>
    </trkpt>
    <trkpt lat="48.448261" lon="2.684929">
      <ele>121.727</ele>
      <time>2015-12-31T10:24:14Z</time>
    </trkpt>
    <trkpt lat="48.448174" lon="2.684881">
      <ele>122.898</ele>
      <time>2015-12-31T10:24:25Z</time>
    </trkpt>
    <trkpt lat="48.448079" lon="2.684834">
      <ele>123.954</ele>
      <time>2015-12-31T10:24:33Z</time>
    </trkpt>
    <trkpt lat="48.447986" lon="2.684797">
      <ele>124.404</ele>
      <time>2015-12-31T10:24:44Z</time>
    </trkpt>
    <trkpt lat="48.447896" lon="2.684769">
      <ele>124.584</ele>
      <time>2015-12-31T10:24:52Z</time>
    </trkpt>
    <trkpt lat="48.447811" lon="2.684715">
      <ele>125.227</ele>
      <time>2015-12-31T10:24:58Z</time>
    </trkpt>
    <trkpt lat="48.447719" lon="2.684667">
      <ele>125.118</ele>
      <time>2015-12-31T10:25:06Z</time>
    </trkpt>
    <trkpt lat="48.447653" lon="2.684562">
      <ele>125.701</ele>
      <time>2015-12-31T10:25:16Z</time>
    </trkpt>
    <trkpt lat="48.447575" lon="2.684468">
      <ele>125.803</ele>
      <time>2015-12-31T10:25:23Z</time>
    </trkpt>
    <trkpt lat="48.447518" lon="2.68434">
      <ele>126.036</ele>
      <time>2015-12-31T10:25:31Z</time>
    </trkpt>
    <trkpt lat="48.447462" lon="2.684211">
      <ele>125.975</ele>
      <time>2015-12-31T10:25:39Z</time>
    </trkpt>
    <trkpt lat="48.447419" lon="2.684085">
      <ele>126.632</ele>
      <time>2015-12-31T10:25:46Z</time>
    </trkpt>
    <trkpt lat="48.447395" lon="2.683952">
      <ele>127.909</ele>
      <time>2015-12-31T10:25:54Z</time>
    </trkpt>
    <trkpt lat="48.447349" lon="2.68382">
      <ele>128.617</ele>
      <time>2015-12-31T10:26:01Z</time>
    </trkpt>
    <trkpt lat="48.447297" lon="2.683685">
      <ele>129.354</ele>
      <time>2015-12-31T10:26:08Z</time>
    </trkpt>
    <trkpt lat="48.44727" lon="2.683537">
      <ele>130.348</ele>
      <time>2015-12-31T10:26:16Z</time>
    </trkpt>
    <trkpt lat="48.447251" lon="2.683404">
      <ele>130.932</ele>
      <time>2015-12-31T10:26:24Z</time>
    </trkpt>
    <trkpt lat="48.447225" lon="2.683266">
      <ele>131.282</ele>
      <time>2015-12-31T10:26:33Z</time>
    </trkpt>
    <trkpt lat="48.447209" lon="2.683131">
      <ele>131.477</ele>
      <time>2015-12-31T10:26:39Z</time>
    </trkpt>
    <trkpt lat="48.447172" lon="2.682998">
      <ele>131.548</ele>
      <time>2015-12-31T10:26:46Z</time>
    </trkpt>
    <trkpt lat="48.447168" lon="2.68285">
      <ele>132.648</ele>
      <time>2015-12-31T10:26:54Z</time>
    </trkpt>
    <trkpt lat="48.447133" lon="2.682694">
      <ele>132.909</ele>
      <time>2015-12-31T10:27:00Z</time>
    </trkpt>
    <trkpt lat="48.447107" lon="2.682557">
      <ele>133.0</ele>
      <time>2015-12-31T10:27:04Z</time>
    </trkpt>
    <trkpt lat="48.447063" lon="2.682424">
      <ele>133.284</ele>
      <time>2015-12-31T10:27:08Z</time>
    </trkpt>
    <trkpt lat="48.447026" lon="2.682284">
      <ele>133.914</ele>
      <time>2015-12-31T10:27:12Z</time>
    </trkpt>
    <trkpt lat="48.446967" lon="2.682164">
      <ele>134.466</ele>
      <time>2015-12-31T10:27:16Z</time>
    </trkpt>
    <trkpt lat="48.44689" lon="2.682026">
      <ele>135.413</ele>
      <time>2015-12-31T10:27:20Z</time>
    </trkpt>
    <trkpt lat="48.44681" lon="2.681919">
      <ele>136.092</ele>
      <time>2015-12-31T10:27:23Z</time>
    </trkpt>
    <trkpt lat="48.446759" lon="2.681805">
      <ele>136.502</ele>
      <time>2015-12-31T10:27:26Z</time>
    </trkpt>
    <trkpt lat="48.44668" lon="2.681701">
      <ele>136.876</ele>
      <time>2015-12-31T10:27:29Z</time>
    </trkpt>
    <trkpt lat="48.44661" lon="2.681596">
      <ele>136.846</ele>
      <time>2015-12-31T10:27:32Z</time>
    </trkpt>
    <trkpt lat="48.446548" lon="2.681487">
      <ele>136.792</ele>
      <time>2015-12-31T10:27:35Z</time>
    </trkpt>
    <trkpt lat="48.446456" lon="2.681359">
      <ele>136.672</ele>
      <time>2015-12-31T10:27:39Z</time>
    </trkpt>
    <trkpt lat="48.446397" lon="2.681243">
      <ele>137.093</ele>
      <time>2015-12-31T10:27:42Z</time>
    </trkpt>
    <trkpt lat="48.446325" lon="2.68111">
      <ele>137.549</ele>
      <time>2015-12-31T10:27:45Z</time>
    </trkpt>
    <trkpt lat="48.446248" lon="2.68103">
      <ele>137.718</ele>
      <time>2015-12-31T10:27:47Z</time>
    </trkpt>
    <trkpt lat="48.446188" lon="2.680907">
      <ele>138.555</ele>
      <time>2015-12-31T10:27:50Z</time>
    </trkpt>
    <trkpt lat="48.446128" lon="2.680794">
      <ele>139.477</ele>
      <time>2015-12-31T10:27:53Z</time>
    </trkpt>
    <trkpt lat="48.446079" lon="2.68064">
      <ele>140.741</ele>
      <time>2015-12-31T10:27:57Z</time>
    </trkpt>
    <trkpt lat="48.445979" lon="2.680501">
      <ele>140.76</ele>
      <time>2015-12-31T10:28:00Z</time>
    </trkpt>
    <trkpt lat="48.445914" lon="2.680404">
      <ele>140.646</ele>
      <time>2015-12-31T10:28:04Z</time>
    </trkpt>
    <trkpt lat="48.445868" lon="2.680286">
      <ele>141.073</ele>
      <time>2015-12-31T10:28:10Z</time>
    </trkpt>
    <trkpt lat="48.445802" lon="2.680178">
      <ele>140.855</ele>
      <time>2015-12-31T10:28:16Z</time>
    </trkpt>
    <trkpt lat="48.445715" lon="2.680223">
      <ele>140.316</ele>
      <time>2015-12-31T10:31:21Z</time>
    </trkpt>
    <trkpt lat="48.445618" lon="2.6802">
      <ele>139.884</ele>
      <time>2015-12-31T10:31:25Z</time>
    </trkpt>
    <trkpt lat="48.445523" lon="2.680172">
      <ele>139.879</ele>
      <time>2015-12-31T10:31:29Z</time>
    </trkpt>
    <trkpt lat="48.445412" lon="2.680123">
      <ele>140.631</ele>
      <time>2015-12-31T10:31:33Z</time>
    </trkpt>
    <trkpt lat="48.44532" lon="2.680082">
      <ele>141.258</ele>
      <time>2015-12-31T10:31:38Z</time>
    </trkpt>
    <trkpt lat="48.445221" lon="2.680055">
      <ele>141.808</ele>
      <time>2015-12-31T10:31:41Z</time>
    </trkpt>
    <trkpt lat="48.445131" lon="2.680064">
      <ele>142.068</ele>
      <time>2015-12-31T10:31:43Z</time>
    </trkpt>
    <trkpt lat="48.445032" lon="2.680086">
      <ele>142.266</ele>
      <time>2015-12-31T10:31:46Z</time>
    </trkpt>
    <trkpt lat="48.444939" lon="2.680152">
      <ele>142.564</ele>
      <time>2015-12-31T10:31:48Z</time>
    </trkpt>
    <trkpt lat="48.444856" lon="2.680258">
      <ele>142.698</ele>
      <time>2015-12-31T10:31:53Z</time>
    </trkpt>
    <trkpt lat="48.444795" lon="2.680362">
      <ele>142.528</ele>
      <time>2015-12-31T10:31:56Z</time>
    </trkpt>
    <trkpt lat="48.44472" lon="2.680517">
      <ele>142.286</ele>
      <time>2015-12-31T10:32:00Z</time>
    </trkpt>
    <trkpt lat="48.444612" lon="2.680568">
      <ele>142.28</ele>
      <time>2015-12-31T10:32:04Z</time>
    </trkpt>
    <trkpt lat="48.444537" lon="2.680663">
      <ele>141.764</ele>
      <time>2015-12-31T10:32:08Z</time>
    </trkpt>
    <trkpt lat="48.444503" lon="2.680844">
      <ele>140.502</ele>
      <time>2015-12-31T10:32:13Z</time>
    </trkpt>
    <trkpt lat="48.444442" lon="2.680957">
      <ele>140.118</ele>
      <time>2015-12-31T10:32:15Z</time>
    </trkpt>
    <trkpt lat="48.444393" lon="2.681119">
      <ele>139.134</ele>
      <time>2015-12-31T10:32:18Z</time>
    </trkpt>
    <trkpt lat="48.44437" lon="2.681264">
      <ele>138.315</ele>
      <time>2015-12-31T10:32:23Z</time>
    </trkpt>
    <trkpt lat="48.444326" lon="2.681405">
      <ele>137.728</ele>
      <time>2015-12-31T10:32:27Z</time>
    </trkpt>
    <trkpt lat="48.444288" lon="2.681548">
      <ele>137.053</ele>
      <time>2015-12-31T10:32:30Z</time>
    </trkpt>
    <trkpt lat="48.444259" lon="2.681689">
      <ele>136.536</ele>
      <time>2015-12-31T10:32:33Z</time>
    </trkpt>
    <trkpt lat="48.44422" lon="2.681846">
      <ele>136.065</ele>
      <time>2015-12-31T10:32:36Z</time>
    </trkpt>
    <trkpt lat="48.444191" lon="2.682017">
      <ele>135.261</ele>
      <time>2015-12-31T10:32:39Z</time>
    </trkpt>
    <trkpt lat="48.444188" lon="2.682182">
      <ele>134.191</ele>
      <time>2015-12-31T10:32:43Z</time>
    </trkpt>
    <trkpt lat="48.444123" lon="2.682287">
      <ele>133.811</ele>
      <time>2015-12-31T10:32:46Z</time>
    </trkpt>
    <trkpt lat="48.443995" lon="2.682284">
      <ele>134.654</ele>
      <time>2015-12-31T10:32:50Z</time>
    </trkpt>
    <trkpt lat="48.443909" lon="2.682367">
      <ele>134.329</ele>
      <time>2015-12-31T10:32:54Z</time>
    </trkpt>
    <trkpt lat="48.443801" lon="2.682357">
      <ele>134.237</ele>
      <time>2015-12-31T10:32:58Z</time>
    </trkpt>
    <trkpt lat="48.443711" lon="2.682403">
      <ele>133.214</ele>
      <time>2015-12-31T10:33:04Z</time>
    </trkpt>
    <trkpt lat="48.443615" lon="2.682455">
      <ele>131.833</ele>
      <time>2015-12-31T10:33:09Z</time>
    </trkpt>
    <trkpt lat="48.443572" lon="2.682328">
      <ele>133.338</ele>
      <time>2015-12-31T10:33:16Z</time>
    </trkpt>
    <trkpt lat="48.443549" lon="2.682177">
      <ele>135.407</ele>
      <time>2015-12-31T10:33:20Z</time>
    </trkpt>
    <trkpt lat="48.443486" lon="2.682075">
      <ele>135.577</ele>
      <time>2015-12-31T10:33:25Z</time>
    </trkpt>
    <trkpt lat="48.443411" lon="2.681992">
      <ele>135.481</ele>
      <time>2015-12-31T10:33:31Z</time>
    </trkpt>
    <trkpt lat="48.443381" lon="2.681847">
      <ele>136.328</ele>
      <time>2015-12-31T10:33:36Z</time>
    </trkpt>
    <trkpt lat="48.4433" lon="2.681768">
      <ele>135.867</ele>
      <time>2015-12-31T10:33:41Z</time>
    </trkpt>
    <trkpt lat="48.443245" lon="2.681659">
      <ele>136.138</ele>
      <time>2015-12-31T10:33:44Z</time>
    </trkpt>
    <trkpt lat="48.443211" lon="2.681523">
      <ele>137.458</ele>
      <time>2015-12-31T10:33:50Z</time>
    </trkpt>
    <trkpt lat="48.443128" lon="2.681434">
      <ele>137.914</ele>
      <time>2015-12-31T10:33:55Z</time>
    </trkpt>
    <trkpt lat="48.443109" lon="2.681284">
      <ele>139.14</ele>
      <time>2015-12-31T10:34:02Z</time>
    </trkpt>
    <trkpt lat="48.443105" lon="2.68113">
      <ele>140.22</ele>
      <time>2015-12-31T10:34:08Z</time>
    </trkpt>
    <trkpt lat="48.443097" lon="2.680975">
      <ele>140.788</ele>
      <time>2015-12-31T10:34:15Z</time>
    </trkpt>
    <trkpt lat="48.443063" lon="2.680805">
      <ele>141.156</ele>
      <time>2015-12-31T10:34:20Z</time>
    </trkpt>
    <trkpt lat="48.443005" lon="2.680657">
      <ele>141.337</ele>
      <time>2015-12-31T10:34:24Z</time>
    </trkpt>
    <trkpt lat="48.443014" lon="2.680505">
      <ele>141.883</ele>
      <time>2015-12-31T10:34:29Z</time>
    </trkpt>
    <trkpt lat="48.443032" lon="2.680348">
      <ele>142.578</ele>
      <time>2015-12-31T10:34:33Z</time>
    </trkpt>
    <trkpt lat="48.443011" lon="2.680197">
      <ele>142.923</ele>
      <time>2015-12-31T10:34:37Z</time>
    </trkpt>
    <trkpt lat="48.442959" lon="2.680058">
      <ele>142.821</ele>
      <time>2015-12-31T10:34:41Z</time>
    </trkpt>
    <trkpt lat="48.442893" lon="2.679924">
      <ele>142.244</ele>
      <time>2015-12-31T10:34:46Z</time>
    </trkpt>
    <trkpt lat="48.442925" lon="2.679786">
      <ele>142.59</ele>
      <time>2015-12-31T10:34:52Z</time>
    </trkpt>
    <trkpt lat="48.442977" lon="2.67966">
      <ele>143.152</ele>
      <time>2015-12-31T10:34:57Z</time>
    </trkpt>
    <trkpt lat="48.443041" lon="2.67954">
      <ele>143.843</ele>
      <time>2015-12-31T10:35:02Z</time>
    </trkpt>
    <trkpt lat="48.443125" lon="2.679393">
      <ele>144.935</ele>
      <time>2015-12-31T10:35:07Z</time>
    </trkpt>
    <trkpt lat="48.443204" lon="2.679235">
      <ele>146.357</ele>
      <time>2015-12-31T10:35:11Z</time>
    </trkpt>
    <trkpt lat="48.443197" lon="2.679074">
      <ele>146.691</ele>
      <time>2015-12-31T10:35:15Z</time>
    </trkpt>
    <trkpt lat="48.44322" lon="2.678926">
      <ele>147.129</ele>
      <time>2015-12-31T10:35:18Z</time>
    </trkpt>
    <trkpt lat="48.44323" lon="2.678784">
      <ele>147.256</ele>
      <time>2015-12-31T10:35:21Z</time>
    </trkpt>
    <trkpt lat="48.443225" lon="2.678638">
      <ele>147.22</ele>
      <time>2015-12-31T10:35:24Z</time>
    </trkpt>
    <trkpt lat="48.443222" lon="2.678483">
      <ele>146.461</ele>
      <time>2015-12-31T10:35:27Z</time>
    </trkpt>
    <trkpt lat="48.443234" lon="2.678322">
      <ele>145.575</ele>
      <time>2015-12-31T10:35:30Z</time>
    </trkpt>
    <trkpt lat="48.443242" lon="2.678145">
      <ele>144.538</ele>
      <time>2015-12-31T10:35:33Z</time>
    </trkpt>
    <trkpt lat="48.443282" lon="2.678019">
      <ele>143.976</ele>
      <time>2015-12-31T10:35:36Z</time>
    </trkpt>
    <trkpt lat="48.443299" lon="2.67785">
      <ele>143.909</ele>
      <time>2015-12-31T10:35:39Z</time>
    </trkpt>
    <trkpt lat="48.443309" lon="2.677715">
      <ele>143.912</ele>
      <time>2015-12-31T10:35:41Z</time>
    </trkpt>
    <trkpt lat="48.443312" lon="2.677568">
      <ele>143.923</ele>
      <time>2015-12-31T10:35:43Z</time>
    </trkpt>
    <trkpt lat="48.443338" lon="2.677425">
      <ele>144.021</ele>
      <time>2015-12-31T10:35:45Z</time>
    </trkpt>
    <trkpt lat="48.443357" lon="2.67724">
      <ele>144.165</ele>
      <time>2015-12-31T10:35:48Z</time>
    </trkpt>
    <trkpt lat="48.443392" lon="2.677033">
      <ele>144.422</ele>
      <time>2015-12-31T10:35:51Z</time>
    </trkpt>
    <trkpt lat="48.443443" lon="2.676868">
      <ele>144.79</ele>
      <time>2015-12-31T10:35:54Z</time>
    </trkpt>
    <trkpt lat="48.443496" lon="2.676702">
      <ele>145.171</ele>
      <time>2015-12-31T10:35:57Z</time>
    </trkpt>
    <trkpt lat="48.443537" lon="2.676553">
      <ele>145.576</ele>
      <time>2015-12-31T10:36:00Z</time>
    </trkpt>
    <trkpt lat="48.443568" lon="2.676375">
      <ele>145.845</ele>
      <time>2015-12-31T10:36:03Z</time>
    </trkpt>
    <trkpt lat="48.443624" lon="2.67624">
      <ele>146.068</ele>
      <time>2015-12-31T10:36:05Z</time>
    </trkpt>
    <trkpt lat="48.443643" lon="2.6761">
      <ele>146.079</ele>
      <time>2015-12-31T10:36:07Z</time>
    </trkpt>
    <trkpt lat="48.443658" lon="2.675957">
      <ele>145.708</ele>
      <time>2015-12-31T10:36:09Z</time>
    </trkpt>
    <trkpt lat="48.44367" lon="2.67582">
      <ele>145.424</ele>
      <time>2015-12-31T10:36:11Z</time>
    </trkpt>
    <trkpt lat="48.443672" lon="2.675679">
      <ele>145.438</ele>
      <time>2015-12-31T10:36:13Z</time>
    </trkpt>
    <trkpt lat="48.443725" lon="2.675492">
      <ele>145.955</ele>
      <time>2015-12-31T10:36:16Z</time>
    </trkpt>
    <trkpt lat="48.443749" lon="2.675359">
      <ele>146.349</ele>
      <time>2015-12-31T10:36:18Z</time>
    </trkpt>
    <trkpt lat="48.443756" lon="2.675222">
      <ele>146.522</ele>
      <time>2015-12-31T10:36:20Z</time>
    </trkpt>
    <trkpt lat="48.443806" lon="2.675103">
      <ele>146.702</ele>
      <time>2015-12-31T10:36:22Z</time>
    </trkpt>
    <trkpt lat="48.443865" lon="2.674908">
      <ele>146.914</ele>
      <time>2015-12-31T10:36:25Z</time>
    </trkpt>
    <trkpt lat="48.443841" lon="2.674765">
      <ele>146.828</ele>
      <time>2015-12-31T10:36:27Z</time>
    </trkpt>
    <trkpt lat="48.443847" lon="2.674616">
      <ele>146.524</ele>
      <time>2015-12-31T10:36:29Z</time>
    </trkpt>
    <trkpt lat="48.443854" lon="2.674471">
      <ele>146.084</ele>
      <time>2015-12-31T10:36:31Z</time>
    </trkpt>
    <trkpt lat="48.443865" lon="2.674322">
      <ele>146.038</ele>
      <time>2015-12-31T10:36:33Z</time>
    </trkpt>
    <trkpt lat="48.443883" lon="2.674178">
      <ele>146.02</ele>
      <time>2015-12-31T10:36:35Z</time>
    </trkpt>
    <trkpt lat="48.443908" lon="2.674034">
      <ele>146.854</ele>
      <time>2015-12-31T10:36:37Z</time>
    </trkpt>
    <trkpt lat="48.443917" lon="2.673852">
      <ele>147.944</ele>
      <time>2015-12-31T10:36:40Z</time>
    </trkpt>
    <trkpt lat="48.443936" lon="2.673676">
      <ele>148.557</ele>
      <time>2015-12-31T10:36:43Z</time>
    </trkpt>
    <trkpt lat="48.443957" lon="2.673504">
      <ele>149.046</ele>
      <time>2015-12-31T10:36:46Z</time>
    </trkpt>
    <trkpt lat="48.443982" lon="2.673295">
      <ele>149.376</ele>
      <time>2015-12-31T10:36:49Z</time>
    </trkpt>
    <trkpt lat="48.443973" lon="2.673095">
      <ele>149.654</ele>
      <time>2015-12-31T10:36:52Z</time>
    </trkpt>
    <trkpt lat="48.443973" lon="2.672959">
      <ele>149.697</ele>
      <time>2015-12-31T10:36:54Z</time>
    </trkpt>
    <trkpt lat="48.443984" lon="2.672818">
      <ele>149.658</ele>
      <time>2015-12-31T10:36:56Z</time>
    </trkpt>
    <trkpt lat="48.443965" lon="2.672611">
      <ele>149.726</ele>
      <time>2015-12-31T10:36:59Z</time>
    </trkpt>
    <trkpt lat="48.443957" lon="2.672412">
      <ele>149.677</ele>
      <time>2015-12-31T10:37:02Z</time>
    </trkpt>
    <trkpt lat="48.443939" lon="2.672224">
      <ele>149.64</ele>
      <time>2015-12-31T10:37:05Z</time>
    </trkpt>
    <trkpt lat="48.443896" lon="2.672063">
      <ele>148.832</ele>
      <time>2015-12-31T10:37:08Z</time>
    </trkpt>
    <trkpt lat="48.443793" lon="2.671992">
      <ele>147.997</ele>
      <time>2015-12-31T10:37:12Z</time>
    </trkpt>
    <trkpt lat="48.443721" lon="2.672093">
      <ele>148.465</ele>
      <time>2015-12-31T10:37:15Z</time>
    </trkpt>
    <trkpt lat="48.443651" lon="2.672228">
      <ele>149.161</ele>
      <time>2015-12-31T10:37:18Z</time>
    </trkpt>
    <trkpt lat="48.443585" lon="2.672358">
      <ele>149.255</ele>
      <time>2015-12-31T10:37:21Z</time>
    </trkpt>
    <trkpt lat="48.44355" lon="2.672507">
      <ele>149.34</ele>
      <time>2015-12-31T10:37:25Z</time>
    </trkpt>
    <trkpt lat="48.443491" lon="2.672621">
      <ele>148.703</ele>
      <time>2015-12-31T10:37:29Z</time>
    </trkpt>
    <trkpt lat="48.443447" lon="2.672771">
      <ele>148.228</ele>
      <time>2015-12-31T10:37:32Z</time>
    </trkpt>
    <trkpt lat="48.443357" lon="2.672854">
      <ele>147.507</ele>
      <time>2015-12-31T10:37:35Z</time>
    </trkpt>
    <trkpt lat="48.44327" lon="2.67298">
      <ele>146.774</ele>
      <time>2015-12-31T10:37:38Z</time>
    </trkpt>
    <trkpt lat="48.443184" lon="2.673094">
      <ele>145.174</ele>
      <time>2015-12-31T10:37:41Z</time>
    </trkpt>
    <trkpt lat="48.443128" lon="2.673222">
      <ele>143.705</ele>
      <time>2015-12-31T10:37:44Z</time>
    </trkpt>
    <trkpt lat="48.443082" lon="2.67336">
      <ele>142.476</ele>
      <time>2015-12-31T10:37:47Z</time>
    </trkpt>
    <trkpt lat="48.443031" lon="2.673492">
      <ele>141.634</ele>
      <time>2015-12-31T10:37:51Z</time>
    </trkpt>
    <trkpt lat="48.44295" lon="2.673658">
      <ele>140.036</ele>
      <time>2015-12-31T10:37:55Z</time>
    </trkpt>
    <trkpt lat="48.442876" lon="2.673756">
      <ele>138.431</ele>
      <time>2015-12-31T10:37:58Z</time>
    </trkpt>
    <trkpt lat="48.442782" lon="2.673812">
      <ele>136.364</ele>
      <time>2015-12-31T10:38:01Z</time>
    </trkpt>
    <trkpt lat="48.442677" lon="2.673822">
      <ele>134.602</ele>
      <time>2015-12-31T10:38:04Z</time>
    </trkpt>
    <trkpt lat="48.442576" lon="2.673897">
      <ele>132.318</ele>
      <time>2015-12-31T10:38:07Z</time>
    </trkpt>
    <trkpt lat="48.442481" lon="2.674049">
      <ele>129.808</ele>
      <time>2015-12-31T10:38:10Z</time>
    </trkpt>
    <trkpt lat="48.442375" lon="2.67416">
      <ele>128.609</ele>
      <time>2015-12-31T10:38:13Z</time>
    </trkpt>
    <trkpt lat="48.442308" lon="2.674255">
      <ele>128.089</ele>
      <time>2015-12-31T10:38:15Z</time>
    </trkpt>
    <trkpt lat="48.442272" lon="2.674443">
      <ele>127.363</ele>
      <time>2015-12-31T10:38:18Z</time>
    </trkpt>
    <trkpt lat="48.442223" lon="2.674605">
      <ele>126.429</ele>
      <time>2015-12-31T10:38:21Z</time>
    </trkpt>
    <trkpt lat="48.442206" lon="2.674809">
      <ele>125.845</ele>
      <time>2015-12-31T10:38:24Z</time>
    </trkpt>
    <trkpt lat="48.442188" lon="2.674974">
      <ele>125.352</ele>
      <time>2015-12-31T10:38:27Z</time>
    </trkpt>
    <trkpt lat="48.442218" lon="2.675153">
      <ele>124.463</ele>
      <time>2015-12-31T10:38:30Z</time>
    </trkpt>
    <trkpt lat="48.442231" lon="2.675289">
      <ele>124.056</ele>
      <time>2015-12-31T10:38:32Z</time>
    </trkpt>
    <trkpt lat="48.442206" lon="2.675436">
      <ele>123.397</ele>
      <time>2015-12-31T10:38:34Z</time>
    </trkpt>
    <trkpt lat="48.442169" lon="2.675581">
      <ele>122.791</ele>
      <time>2015-12-31T10:38:36Z</time>
    </trkpt>
    <trkpt lat="48.442108" lon="2.675757">
      <ele>122.291</ele>
      <time>2015-12-31T10:38:39Z</time>
    </trkpt>
    <trkpt lat="48.442063" lon="2.675876">
      <ele>121.985</ele>
      <time>2015-12-31T10:38:41Z</time>
    </trkpt>
    <trkpt lat="48.441993" lon="2.676029">
      <ele>121.596</ele>
      <time>2015-12-31T10:38:44Z</time>
    </trkpt>
    <trkpt lat="48.441918" lon="2.676109">
      <ele>120.715</ele>
      <time>2015-12-31T10:38:46Z</time>
    </trkpt>
    <trkpt lat="48.441822" lon="2.676153">
      <ele>119.545</ele>
      <time>2015-12-31T10:38:48Z</time>
    </trkpt>
    <trkpt lat="48.441691" lon="2.67626">
      <ele>117.285</ele>
      <time>2015-12-31T10:38:51Z</time>
    </trkpt>
    <trkpt lat="48.441606" lon="2.67641">
      <ele>115.471</ele>
      <time>2015-12-31T10:38:54Z</time>
    </trkpt>
    <trkpt lat="48.441544" lon="2.676569">
      <ele>114.182</ele>
      <time>2015-12-31T10:38:57Z</time>
    </trkpt>
    <trkpt lat="48.441487" lon="2.676724">
      <ele>112.647</ele>
      <time>2015-12-31T10:39:00Z</time>
    </trkpt>
    <trkpt lat="48.441431" lon="2.676834">
      <ele>111.25</ele>
      <time>2015-12-31T10:39:02Z</time>
    </trkpt>
    <trkpt lat="48.441346" lon="2.676911">
      <ele>110.068</ele>
      <time>2015-12-31T10:39:04Z</time>
    </trkpt>
    <trkpt lat="48.441264" lon="2.676982">
      <ele>109.415</ele>
      <time>2015-12-31T10:39:06Z</time>
    </trkpt>
    <trkpt lat="48.44117" lon="2.677022">
      <ele>108.933</ele>
      <time>2015-12-31T10:39:09Z</time>
    </trkpt>
    <trkpt lat="48.441074" lon="2.676966">
      <ele>108.933</ele>
      <time>2015-12-31T10:39:12Z</time>
    </trkpt>
    <trkpt lat="48.440978" lon="2.676899">
      <ele>109.007</ele>
      <time>2015-12-31T10:39:15Z</time>
    </trkpt>
    <trkpt lat="48.440892" lon="2.676825">
      <ele>108.752</ele>
      <time>2015-12-31T10:39:18Z</time>
    </trkpt>
    <trkpt lat="48.440794" lon="2.676843">
      <ele>108.687</ele>
      <time>2015-12-31T10:39:22Z</time>
    </trkpt>
    <trkpt lat="48.440706" lon="2.676806">
      <ele>108.73</ele>
      <time>2015-12-31T10:39:25Z</time>
    </trkpt>
    <trkpt lat="48.440595" lon="2.676818">
      <ele>108.935</ele>
      <time>2015-12-31T10:39:28Z</time>
    </trkpt>
    <trkpt lat="48.440537" lon="2.676684">
      <ele>109.004</ele>
      <time>2015-12-31T10:39:31Z</time>
    </trkpt>
    <trkpt lat="48.440573" lon="2.676545">
      <ele>108.965</ele>
      <time>2015-12-31T10:39:38Z</time>
    </trkpt>
    <trkpt lat="48.440471" lon="2.676527">
      <ele>109.0</ele>
      <time>2015-12-31T10:39:45Z</time>
    </trkpt>
    <trkpt lat="48.440378" lon="2.676465">
      <ele>109.0</ele>
      <time>2015-12-31T10:39:50Z</time>
    </trkpt>
    <trkpt lat="48.440295" lon="2.676412">
      <ele>109.0</ele>
      <time>2015-12-31T10:39:56Z</time>
    </trkpt>
    <trkpt lat="48.4402" lon="2.6764">
      <ele>108.698</ele>
      <time>2015-12-31T10:40:07Z</time>
    </trkpt>
    <trkpt lat="48.440119" lon="2.676469">
      <ele>108.099</ele>
      <time>2015-12-31T10:40:12Z</time>
    </trkpt>
    <trkpt lat="48.440013" lon="2.676489">
      <ele>107.36</ele>
      <time>2015-12-31T10:40:29Z</time>
    </trkpt>
    <trkpt lat="48.439917" lon="2.676531">
      <ele>106.379</ele>
      <time>2015-12-31T10:40:35Z</time>
    </trkpt>
    <trkpt lat="48.439813" lon="2.676555">
      <ele>105.458</ele>
      <time>2015-12-31T10:40:54Z</time>
    </trkpt>
    <trkpt lat="48.439719" lon="2.676536">
      <ele>104.901</ele>
      <time>2015-12-31T10:41:02Z</time>
    </trkpt>
    <trkpt lat="48.439622" lon="2.676538">
      <ele>103.677</ele>
      <time>2015-12-31T10:41:12Z</time>
    </trkpt>
    <trkpt lat="48.439517" lon="2.676466">
      <ele>102.695</ele>
      <time>2015-12-31T10:41:16Z</time>
    </trkpt>
    <trkpt lat="48.43941" lon="2.676435">
      <ele>101.483</ele>
      <time>2015-12-31T10:41:20Z</time>
    </trkpt>
    <trkpt lat="48.439319" lon="2.676404">
      <ele>100.615</ele>
      <time>2015-12-31T10:41:24Z</time>
    </trkpt>
    <trkpt lat="48.439251" lon="2.676312">
      <ele>100.272</ele>
      <time>2015-12-31T10:41:31Z</time>
    </trkpt>
    <trkpt lat="48.439196" lon="2.676202">
      <ele>100.061</ele>
      <time>2015-12-31T10:41:37Z</time>
    </trkpt>
    <trkpt lat="48.439155" lon="2.676054">
      <ele>100.155</ele>
      <time>2015-12-31T10:41:44Z</time>
    </trkpt>
    <trkpt lat="48.439126" lon="2.675915">
      <ele>100.456</ele>
      <time>2015-12-31T10:41:50Z</time>
    </trkpt>
    <trkpt lat="48.439113" lon="2.67576">
      <ele>100.929</ele>
      <time>2015-12-31T10:41:56Z</time>
    </trkpt>
    <trkpt lat="48.439094" lon="2.675602">
      <ele>101.527</ele>
      <time>2015-12-31T10:42:01Z</time>
    </trkpt>
    <trkpt lat="48.439061" lon="2.675433">
      <ele>102.334</ele>
      <time>2015-12-31T10:42:05Z</time>
    </trkpt>
    <trkpt lat="48.439023" lon="2.675307">
      <ele>102.81</ele>
      <time>2015-12-31T10:42:09Z</time>
    </trkpt>
    <trkpt lat="48.438986" lon="2.67517">
      <ele>102.699</ele>
      <time>2015-12-31T10:42:14Z</time>
    </trkpt>
    <trkpt lat="48.438948" lon="2.675027">
      <ele>102.426</ele>
      <time>2015-12-31T10:42:19Z</time>
    </trkpt>
    <trkpt lat="48.438919" lon="2.674868">
      <ele>102.64</ele>
      <time>2015-12-31T10:42:24Z</time>
    </trkpt>
    <trkpt lat="48.438884" lon="2.674721">
      <ele>103.0</ele>
      <time>2015-12-31T10:42:29Z</time>
    </trkpt>
    <trkpt lat="48.438866" lon="2.674566">
      <ele>103.0</ele>
      <time>2015-12-31T10:42:33Z</time>
    </trkpt>
    <trkpt lat="48.438831" lon="2.674436">
      <ele>103.03</ele>
      <time>2015-12-31T10:42:36Z</time>
    </trkpt>
    <trkpt lat="48.438808" lon="2.67427">
      <ele>103.628</ele>
      <time>2015-12-31T10:42:41Z</time>
    </trkpt>
    <trkpt lat="48.438764" lon="2.67411">
      <ele>104.183</ele>
      <time>2015-12-31T10:42:46Z</time>
    </trkpt>
    <trkpt lat="48.438704" lon="2.674">
      <ele>104.799</ele>
      <time>2015-12-31T10:42:49Z</time>
    </trkpt>
    <trkpt lat="48.438668" lon="2.673852">
      <ele>105.618</ele>
      <time>2015-12-31T10:42:53Z</time>
    </trkpt>
    <trkpt lat="48.438647" lon="2.673707">
      <ele>105.826</ele>
      <time>2015-12-31T10:42:57Z</time>
    </trkpt>
    <trkpt lat="48.438607" lon="2.673584">
      <ele>106.016</ele>
      <time>2015-12-31T10:43:00Z</time>
    </trkpt>
    <trkpt lat="48.438633" lon="2.673423">
      <ele>105.921</ele>
      <time>2015-12-31T10:43:05Z</time>
    </trkpt>
    <trkpt lat="48.438579" lon="2.673274">
      <ele>106.231</ele>
      <time>2015-12-31T10:43:08Z</time>
    </trkpt>
    <trkpt lat="48.438543" lon="2.673109">
      <ele>106.49</ele>
      <time>2015-12-31T10:43:12Z</time>
    </trkpt>
    <trkpt lat="48.438519" lon="2.672968">
      <ele>106.874</ele>
      <time>2015-12-31T10:43:16Z</time>
    </trkpt>
    <trkpt lat="48.438498" lon="2.67282">
      <ele>107.317</ele>
      <time>2015-12-31T10:43:20Z</time>
    </trkpt>
    <trkpt lat="48.43847" lon="2.672672">
      <ele>107.315</ele>
      <time>2015-12-31T10:43:24Z</time>
    </trkpt>
    <trkpt lat="48.438445" lon="2.672515">
      <ele>107.032</ele>
      <time>2015-12-31T10:43:28Z</time>
    </trkpt>
    <trkpt lat="48.438427" lon="2.672363">
      <ele>108.153</ele>
      <time>2015-12-31T10:43:32Z</time>
    </trkpt>
    <trkpt lat="48.438392" lon="2.672221">
      <ele>109.221</ele>
      <time>2015-12-31T10:43:35Z</time>
    </trkpt>
    <trkpt lat="48.438365" lon="2.672087">
      <ele>110.143</ele>
      <time>2015-12-31T10:43:38Z</time>
    </trkpt>
    <trkpt lat="48.438337" lon="2.671927">
      <ele>111.213</ele>
      <time>2015-12-31T10:43:42Z</time>
    </trkpt>
    <trkpt lat="48.43831" lon="2.671769">
      <ele>112.842</ele>
      <time>2015-12-31T10:43:47Z</time>
    </trkpt>
    <trkpt lat="48.438255" lon="2.671642">
      <ele>113.718</ele>
      <time>2015-12-31T10:43:51Z</time>
    </trkpt>
    <trkpt lat="48.438211" lon="2.671489">
      <ele>113.56</ele>
      <time>2015-12-31T10:43:56Z</time>
    </trkpt>
    <trkpt lat="48.438152" lon="2.671361">
      <ele>113.146</ele>
      <time>2015-12-31T10:44:01Z</time>
    </trkpt>
    <trkpt lat="48.438105" lon="2.67122">
      <ele>111.962</ele>
      <time>2015-12-31T10:44:06Z</time>
    </trkpt>
    <trkpt lat="48.438063" lon="2.671085">
      <ele>111.022</ele>
      <time>2015-12-31T10:44:13Z</time>
    </trkpt>
    <trkpt lat="48.438068" lon="2.670935">
      <ele>110.988</ele>
      <time>2015-12-31T10:44:21Z</time>
    </trkpt>
    <trkpt lat="48.4381" lon="2.670806">
      <ele>110.84</ele>
      <time>2015-12-31T10:44:27Z</time>
    </trkpt>
    <trkpt lat="48.438137" lon="2.670672">
      <ele>110.707</ele>
      <time>2015-12-31T10:44:34Z</time>
    </trkpt>
    <trkpt lat="48.438171" lon="2.67054">
      <ele>110.72</ele>
      <time>2015-12-31T10:44:43Z</time>
    </trkpt>
    <trkpt lat="48.438208" lon="2.670402">
      <ele>111.86</ele>
      <time>2015-12-31T10:44:51Z</time>
    </trkpt>
    <trkpt lat="48.43824" lon="2.670262">
      <ele>113.284</ele>
      <time>2015-12-31T10:44:59Z</time>
    </trkpt>
    <trkpt lat="48.438272" lon="2.670125">
      <ele>115.75</ele>
      <time>2015-12-31T10:45:08Z</time>
    </trkpt>
    <trkpt lat="48.438287" lon="2.669981">
      <ele>118.331</ele>
      <time>2015-12-31T10:45:17Z</time>
    </trkpt>
    <trkpt lat="48.438316" lon="2.66985">
      <ele>120.666</ele>
      <time>2015-12-31T10:45:24Z</time>
    </trkpt>
    <trkpt lat="48.438343" lon="2.669704">
      <ele>123.132</ele>
      <time>2015-12-31T10:45:33Z</time>
    </trkpt>
    <trkpt lat="48.438396" lon="2.669569">
      <ele>124.452</ele>
      <time>2015-12-31T10:45:45Z</time>
    </trkpt>
    <trkpt lat="48.438433" lon="2.669443">
      <ele>126.017</ele>
      <time>2015-12-31T10:45:53Z</time>
    </trkpt>
    <trkpt lat="48.438428" lon="2.669294">
      <ele>127.809</ele>
      <time>2015-12-31T10:46:04Z</time>
    </trkpt>
    <trkpt lat="48.438461" lon="2.669168">
      <ele>129.443</ele>
      <time>2015-12-31T10:46:12Z</time>
    </trkpt>
    <trkpt lat="48.43847" lon="2.669025">
      <ele>131.022</ele>
      <time>2015-12-31T10:46:23Z</time>
    </trkpt>
    <trkpt lat="48.438461" lon="2.668884">
      <ele>132.53</ele>
      <time>2015-12-31T10:46:36Z</time>
    </trkpt>
    <trkpt lat="48.43843" lon="2.668748">
      <ele>134.377</ele>
      <time>2015-12-31T10:47:04Z</time>
    </trkpt>
    <trkpt lat="48.4384" lon="2.668601">
      <ele>136.349</ele>
      <time>2015-12-31T10:47:20Z</time>
    </trkpt>
    <trkpt lat="48.438359" lon="2.668477">
      <ele>137.541</ele>
      <time>2015-12-31T10:47:32Z</time>
    </trkpt>
    <trkpt lat="48.438336" lon="2.668338">
      <ele>138.959</ele>
      <time>2015-12-31T10:47:55Z</time>
    </trkpt>
    <trkpt lat="48.438335" lon="2.668202">
      <ele>139.952</ele>
      <time>2015-12-31T10:48:04Z</time>
    </trkpt>
    <trkpt lat="48.43834" lon="2.66806">
      <ele>140.992</ele>
      <time>2015-12-31T10:48:16Z</time>
    </trkpt>
    <trkpt lat="48.438313" lon="2.667929">
      <ele>141.376</ele>
      <time>2015-12-31T10:48:37Z</time>
    </trkpt>
    <trkpt lat="48.438299" lon="2.667788">
      <ele>141.954</ele>
      <time>2015-12-31T10:48:45Z</time>
    </trkpt>
    <trkpt lat="48.43828" lon="2.667654">
      <ele>142.891</ele>
      <time>2015-12-31T10:48:53Z</time>
    </trkpt>
    <trkpt lat="48.438197" lon="2.667547">
      <ele>143.662</ele>
      <time>2015-12-31T10:49:01Z</time>
    </trkpt>
    <trkpt lat="48.438106" lon="2.667495">
      <ele>144.047</ele>
      <time>2015-12-31T10:49:06Z</time>
    </trkpt>
    <trkpt lat="48.437999" lon="2.667478">
      <ele>144.221</ele>
      <time>2015-12-31T10:49:10Z</time>
    </trkpt>
    <trkpt lat="48.437897" lon="2.667402">
      <ele>144.857</ele>
      <time>2015-12-31T10:49:14Z</time>
    </trkpt>
    <trkpt lat="48.437808" lon="2.667361">
      <ele>145.055</ele>
      <time>2015-12-31T10:49:17Z</time>
    </trkpt>
    <trkpt lat="48.437717" lon="2.667339">
      <ele>144.94</ele>
      <time>2015-12-31T10:49:20Z</time>
    </trkpt>
    <trkpt lat="48.437611" lon="2.667293">
      <ele>144.89</ele>
      <time>2015-12-31T10:49:23Z</time>
    </trkpt>
    <trkpt lat="48.437499" lon="2.667255">
      <ele>144.757</ele>
      <time>2015-12-31T10:49:26Z</time>
    </trkpt>
    <trkpt lat="48.437395" lon="2.667176">
      <ele>144.473</ele>
      <time>2015-12-31T10:49:29Z</time>
    </trkpt>
    <trkpt lat="48.437291" lon="2.667132">
      <ele>144.064</ele>
      <time>2015-12-31T10:49:32Z</time>
    </trkpt>
    <trkpt lat="48.437171" lon="2.667086">
      <ele>143.518</ele>
      <time>2015-12-31T10:49:35Z</time>
    </trkpt>
    <trkpt lat="48.437075" lon="2.667084">
      <ele>142.669</ele>
      <time>2015-12-31T10:49:37Z</time>
    </trkpt>
    <trkpt lat="48.436985" lon="2.667055">
      <ele>142.156</ele>
      <time>2015-12-31T10:49:39Z</time>
    </trkpt>
    <trkpt lat="48.436891" lon="2.667068">
      <ele>141.088</ele>
      <time>2015-12-31T10:49:41Z</time>
    </trkpt>
    <trkpt lat="48.436763" lon="2.667113">
      <ele>139.22</ele>
      <time>2015-12-31T10:49:44Z</time>
    </trkpt>
    <trkpt lat="48.43667" lon="2.667126">
      <ele>138.075</ele>
      <time>2015-12-31T10:49:46Z</time>
    </trkpt>
    <trkpt lat="48.43658" lon="2.66715">
      <ele>137.861</ele>
      <time>2015-12-31T10:49:48Z</time>
    </trkpt>
    <trkpt lat="48.436465" lon="2.667208">
      <ele>137.191</ele>
      <time>2015-12-31T10:49:50Z</time>
    </trkpt>
    <trkpt lat="48.436369" lon="2.667192">
      <ele>137.364</ele>
      <time>2015-12-31T10:49:52Z</time>
    </trkpt>
    <trkpt lat="48.436247" lon="2.667188">
      <ele>136.982</ele>
      <time>2015-12-31T10:49:55Z</time>
    </trkpt>
    <trkpt lat="48.436131" lon="2.667148">
      <ele>137.14</ele>
      <time>2015-12-31T10:49:58Z</time>
    </trkpt>
    <trkpt lat="48.436084" lon="2.666999">
      <ele>139.098</ele>
      <time>2015-12-31T10:50:02Z</time>
    </trkpt>
    <trkpt lat="48.435971" lon="2.667025">
      <ele>138.189</ele>
      <time>2015-12-31T10:50:06Z</time>
    </trkpt>
    <trkpt lat="48.43589" lon="2.666906">
      <ele>139.591</ele>
      <time>2015-12-31T10:50:10Z</time>
    </trkpt>
    <trkpt lat="48.435784" lon="2.66683">
      <ele>140.518</ele>
      <time>2015-12-31T10:50:14Z</time>
    </trkpt>
    <trkpt lat="48.435691" lon="2.666792">
      <ele>141.39</ele>
      <time>2015-12-31T10:50:17Z</time>
    </trkpt>
    <trkpt lat="48.435601" lon="2.666696">
      <ele>142.608</ele>
      <time>2015-12-31T10:50:20Z</time>
    </trkpt>
    <trkpt lat="48.435525" lon="2.666594">
      <ele>143.482</ele>
      <time>2015-12-31T10:50:23Z</time>
    </trkpt>
    <trkpt lat="48.435439" lon="2.666494">
      <ele>144.461</ele>
      <time>2015-12-31T10:50:27Z</time>
    </trkpt>
    <trkpt lat="48.435326" lon="2.666433">
      <ele>145.494</ele>
      <time>2015-12-31T10:50:30Z</time>
    </trkpt>
    <trkpt lat="48.435214" lon="2.666435">
      <ele>146.064</ele>
      <time>2015-12-31T10:50:33Z</time>
    </trkpt>
    <trkpt lat="48.435103" lon="2.666409">
      <ele>146.557</ele>
      <time>2015-12-31T10:50:37Z</time>
    </trkpt>
    <trkpt lat="48.434985" lon="2.666391">
      <ele>146.939</ele>
      <time>2015-12-31T10:50:41Z</time>
    </trkpt>
    <trkpt lat="48.434868" lon="2.666363">
      <ele>146.569</ele>
      <time>2015-12-31T10:50:45Z</time>
    </trkpt>
    <trkpt lat="48.434776" lon="2.666343">
      <ele>146.327</ele>
      <time>2015-12-31T10:50:48Z</time>
    </trkpt>
    <trkpt lat="48.434675" lon="2.666344">
      <ele>146.304</ele>
      <time>2015-12-31T10:50:51Z</time>
    </trkpt>
    <trkpt lat="48.43458" lon="2.666348">
      <ele>146.584</ele>
      <time>2015-12-31T10:50:54Z</time>
    </trkpt>
    <trkpt lat="48.434485" lon="2.666299">
      <ele>146.901</ele>
      <time>2015-12-31T10:50:57Z</time>
    </trkpt>
    <trkpt lat="48.434371" lon="2.666322">
      <ele>147.328</ele>
      <time>2015-12-31T10:51:00Z</time>
    </trkpt>
    <trkpt lat="48.434281" lon="2.666273">
      <ele>147.834</ele>
      <time>2015-12-31T10:51:03Z</time>
    </trkpt>
    <trkpt lat="48.434182" lon="2.666244">
      <ele>148.438</ele>
      <time>2015-12-31T10:51:06Z</time>
    </trkpt>
    <trkpt lat="48.434089" lon="2.666183">
      <ele>149.021</ele>
      <time>2015-12-31T10:51:09Z</time>
    </trkpt>
    <trkpt lat="48.433983" lon="2.666138">
      <ele>149.564</ele>
      <time>2015-12-31T10:51:12Z</time>
    </trkpt>
    <trkpt lat="48.433857" lon="2.666138">
      <ele>149.8</ele>
      <time>2015-12-31T10:51:15Z</time>
    </trkpt>
    <trkpt lat="48.433747" lon="2.666107">
      <ele>149.497</ele>
      <time>2015-12-31T10:51:18Z</time>
    </trkpt>
    <trkpt lat="48.433639" lon="2.666047">
      <ele>149.308</ele>
      <time>2015-12-31T10:51:22Z</time>
    </trkpt>
    <trkpt lat="48.433544" lon="2.666011">
      <ele>149.119</ele>
      <time>2015-12-31T10:51:25Z</time>
    </trkpt>
    <trkpt lat="48.433448" lon="2.666003">
      <ele>148.802</ele>
      <time>2015-12-31T10:51:28Z</time>
    </trkpt>
    <trkpt lat="48.433325" lon="2.666036">
      <ele>148.24</ele>
      <time>2015-12-31T10:51:31Z</time>
    </trkpt>
    <trkpt lat="48.433213" lon="2.666004">
      <ele>147.952</ele>
      <time>2015-12-31T10:51:34Z</time>
    </trkpt>
    <trkpt lat="48.433088" lon="2.665963">
      <ele>147.65</ele>
      <time>2015-12-31T10:51:37Z</time>
    </trkpt>
    <trkpt lat="48.433001" lon="2.665888">
      <ele>148.0</ele>
      <time>2015-12-31T10:51:40Z</time>
    </trkpt>
    <trkpt lat="48.432911" lon="2.665844">
      <ele>148.482</ele>
      <time>2015-12-31T10:51:43Z</time>
    </trkpt>
    <trkpt lat="48.432784" lon="2.66586">
      <ele>148.882</ele>
      <time>2015-12-31T10:51:46Z</time>
    </trkpt>
    <trkpt lat="48.432664" lon="2.665831">
      <ele>149.415</ele>
      <time>2015-12-31T10:51:49Z</time>
    </trkpt>
    <trkpt lat="48.432549" lon="2.665771">
      <ele>149.863</ele>
      <time>2015-12-31T10:51:53Z</time>
    </trkpt>
    <trkpt lat="48.432467" lon="2.665709">
      <ele>149.934</ele>
      <time>2015-12-31T10:51:56Z</time>
    </trkpt>
    <trkpt lat="48.432318" lon="2.665732">
      <ele>149.584</ele>
      <time>2015-12-31T10:51:59Z</time>
    </trkpt>
    <trkpt lat="48.432214" lon="2.665698">
      <ele>149.428</ele>
      <time>2015-12-31T10:52:01Z</time>
    </trkpt>
    <trkpt lat="48.432071" lon="2.665708">
      <ele>148.362</ele>
      <time>2015-12-31T10:52:04Z</time>
    </trkpt>
    <trkpt lat="48.431977" lon="2.665688">
      <ele>147.758</ele>
      <time>2015-12-31T10:52:06Z</time>
    </trkpt>
    <trkpt lat="48.431871" lon="2.665722">
      <ele>146.978</ele>
      <time>2015-12-31T10:52:08Z</time>
    </trkpt>
    <trkpt lat="48.431751" lon="2.665702">
      <ele>146.409</ele>
      <time>2015-12-31T10:52:11Z</time>
    </trkpt>
    <trkpt lat="48.431651" lon="2.665712">
      <ele>145.874</ele>
      <time>2015-12-31T10:52:13Z</time>
    </trkpt>
    <trkpt lat="48.431552" lon="2.66571">
      <ele>145.888</ele>
      <time>2015-12-31T10:52:15Z</time>
    </trkpt>
    <trkpt lat="48.431449" lon="2.665641">
      <ele>146.385</ele>
      <time>2015-12-31T10:52:18Z</time>
    </trkpt>
    <trkpt lat="48.431317" lon="2.665644">
      <ele>146.54</ele>
      <time>2015-12-31T10:52:21Z</time>
    </trkpt>
    <trkpt lat="48.43119" lon="2.665603">
      <ele>147.252</ele>
      <time>2015-12-31T10:52:24Z</time>
    </trkpt>
    <trkpt lat="48.431092" lon="2.6656">
      <ele>147.6</ele>
      <time>2015-12-31T10:52:26Z</time>
    </trkpt>
    <trkpt lat="48.431001" lon="2.665635">
      <ele>147.652</ele>
      <time>2015-12-31T10:52:28Z</time>
    </trkpt>
    <trkpt lat="48.430874" lon="2.665697">
      <ele>147.761</ele>
      <time>2015-12-31T10:52:31Z</time>
    </trkpt>
    <trkpt lat="48.430771" lon="2.665782">
      <ele>147.553</ele>
      <time>2015-12-31T10:52:34Z</time>
    </trkpt>
    <trkpt lat="48.430691" lon="2.665873">
      <ele>147.227</ele>
      <time>2015-12-31T10:52:36Z</time>
    </trkpt>
    <trkpt lat="48.430614" lon="2.665967">
      <ele>146.827</ele>
      <time>2015-12-31T10:52:38Z</time>
    </trkpt>
    <trkpt lat="48.430533" lon="2.666125">
      <ele>145.904</ele>
      <time>2015-12-31T10:52:42Z</time>
    </trkpt>
    <trkpt lat="48.430461" lon="2.666225">
      <ele>145.32</ele>
      <time>2015-12-31T10:52:45Z</time>
    </trkpt>
    <trkpt lat="48.430395" lon="2.666328">
      <ele>144.89</ele>
      <time>2015-12-31T10:52:48Z</time>
    </trkpt>
    <trkpt lat="48.430325" lon="2.66646">
      <ele>144.274</ele>
      <time>2015-12-31T10:52:51Z</time>
    </trkpt>
    <trkpt lat="48.430245" lon="2.6666">
      <ele>143.57</ele>
      <time>2015-12-31T10:52:54Z</time>
    </trkpt>
    <trkpt lat="48.430173" lon="2.666708">
      <ele>143.136</ele>
      <time>2015-12-31T10:52:56Z</time>
    </trkpt>
    <trkpt lat="48.430096" lon="2.666803">
      <ele>142.994</ele>
      <time>2015-12-31T10:52:59Z</time>
    </trkpt>
    <trkpt lat="48.430017" lon="2.666921">
      <ele>142.967</ele>
      <time>2015-12-31T10:53:03Z</time>
    </trkpt>
    <trkpt lat="48.429964" lon="2.667053">
      <ele>142.789</ele>
      <time>2015-12-31T10:53:07Z</time>
    </trkpt>
    <trkpt lat="48.429995" lon="2.66719">
      <ele>142.15</ele>
      <time>2015-12-31T10:53:12Z</time>
    </trkpt>
    <trkpt lat="48.430027" lon="2.667321">
      <ele>140.865</ele>
      <time>2015-12-31T10:53:15Z</time>
    </trkpt>
    <trkpt lat="48.430082" lon="2.667507">
      <ele>138.448</ele>
      <time>2015-12-31T10:53:22Z</time>
    </trkpt>
    <trkpt lat="48.430021" lon="2.667618">
      <ele>138.348</ele>
      <time>2015-12-31T10:53:25Z</time>
    </trkpt>
    <trkpt lat="48.429975" lon="2.667758">
      <ele>137.477</ele>
      <time>2015-12-31T10:53:30Z</time>
    </trkpt>
    <trkpt lat="48.429948" lon="2.667892">
      <ele>136.739</ele>
      <time>2015-12-31T10:53:33Z</time>
    </trkpt>
    <trkpt lat="48.42992" lon="2.668037">
      <ele>135.998</ele>
      <time>2015-12-31T10:53:53Z</time>
    </trkpt>
    <trkpt lat="48.42986" lon="2.668146">
      <ele>135.535</ele>
      <time>2015-12-31T10:54:05Z</time>
    </trkpt>
    <trkpt lat="48.429822" lon="2.668011">
      <ele>137.243</ele>
      <time>2015-12-31T10:54:16Z</time>
    </trkpt>
    <trkpt lat="48.429721" lon="2.668047">
      <ele>138.066</ele>
      <time>2015-12-31T10:54:45Z</time>
    </trkpt>
    <trkpt lat="48.429776" lon="2.667921">
      <ele>138.388</ele>
      <time>2015-12-31T10:54:49Z</time>
    </trkpt>
    <trkpt lat="48.429662" lon="2.667909">
      <ele>139.272</ele>
      <time>2015-12-31T10:54:55Z</time>
    </trkpt>
    <trkpt lat="48.429574" lon="2.66798">
      <ele>139.078</ele>
      <time>2015-12-31T10:54:59Z</time>
    </trkpt>
    <trkpt lat="48.429492" lon="2.667887">
      <ele>140.042</ele>
      <time>2015-12-31T10:55:10Z</time>
    </trkpt>
    <trkpt lat="48.429444" lon="2.667751">
      <ele>141.095</ele>
      <time>2015-12-31T10:55:17Z</time>
    </trkpt>
    <trkpt lat="48.429329" lon="2.667767">
      <ele>140.623</ele>
      <time>2015-12-31T10:55:23Z</time>
    </trkpt>
    <trkpt lat="48.429285" lon="2.66763">
      <ele>140.958</ele>
      <time>2015-12-31T10:55:28Z</time>
    </trkpt>
    <trkpt lat="48.429223" lon="2.667531">
      <ele>141.091</ele>
      <time>2015-12-31T10:55:33Z</time>
    </trkpt>
    <trkpt lat="48.429134" lon="2.667463">
      <ele>141.266</ele>
      <time>2015-12-31T10:55:38Z</time>
    </trkpt>
    <trkpt lat="48.429124" lon="2.667296">
      <ele>142.469</ele>
      <time>2015-12-31T10:55:42Z</time>
    </trkpt>
    <trkpt lat="48.429077" lon="2.667165">
      <ele>143.066</ele>
      <time>2015-12-31T10:55:45Z</time>
    </trkpt>
    <trkpt lat="48.428976" lon="2.667038">
      <ele>143.455</ele>
      <time>2015-12-31T10:55:48Z</time>
    </trkpt>
    <trkpt lat="48.428893" lon="2.666916">
      <ele>143.985</ele>
      <time>2015-12-31T10:55:51Z</time>
    </trkpt>
    <trkpt lat="48.428827" lon="2.666774">
      <ele>143.914</ele>
      <time>2015-12-31T10:55:55Z</time>
    </trkpt>
    <trkpt lat="48.428783" lon="2.666653">
      <ele>144.03</ele>
      <time>2015-12-31T10:55:59Z</time>
    </trkpt>
    <trkpt lat="48.42871" lon="2.666566">
      <ele>144.129</ele>
      <time>2015-12-31T10:56:02Z</time>
    </trkpt>
    <trkpt lat="48.428616" lon="2.666491">
      <ele>144.011</ele>
      <time>2015-12-31T10:56:07Z</time>
    </trkpt>
    <trkpt lat="48.428516" lon="2.666482">
      <ele>143.543</ele>
      <time>2015-12-31T10:56:11Z</time>
    </trkpt>
    <trkpt lat="48.428415" lon="2.666485">
      <ele>143.05</ele>
      <time>2015-12-31T10:56:15Z</time>
    </trkpt>
    <trkpt lat="48.428297" lon="2.666507">
      <ele>142.444</ele>
      <time>2015-12-31T10:56:20Z</time>
    </trkpt>
    <trkpt lat="48.428211" lon="2.666581">
      <ele>141.868</ele>
      <time>2015-12-31T10:56:26Z</time>
    </trkpt>
    <trkpt lat="48.428244" lon="2.666715">
      <ele>141.56</ele>
      <time>2015-12-31T10:56:30Z</time>
    </trkpt>
    <trkpt lat="48.428286" lon="2.666849">
      <ele>141.285</ele>
      <time>2015-12-31T10:56:33Z</time>
    </trkpt>
    <trkpt lat="48.428367" lon="2.666938">
      <ele>141.266</ele>
      <time>2015-12-31T10:56:36Z</time>
    </trkpt>
    <trkpt lat="48.428421" lon="2.667082">
      <ele>141.319</ele>
      <time>2015-12-31T10:56:40Z</time>
    </trkpt>
    <trkpt lat="48.428431" lon="2.667283">
      <ele>140.704</ele>
      <time>2015-12-31T10:56:43Z</time>
    </trkpt>
    <trkpt lat="48.42843" lon="2.667472">
      <ele>139.788</ele>
      <time>2015-12-31T10:56:46Z</time>
    </trkpt>
    <trkpt lat="48.428466" lon="2.667622">
      <ele>139.083</ele>
      <time>2015-12-31T10:56:50Z</time>
    </trkpt>
    <trkpt lat="48.428455" lon="2.667788">
      <ele>138.509</ele>
      <time>2015-12-31T10:56:53Z</time>
    </trkpt>
    <trkpt lat="48.428465" lon="2.667958">
      <ele>137.57</ele>
      <time>2015-12-31T10:56:56Z</time>
    </trkpt>
    <trkpt lat="48.42845" lon="2.668123">
      <ele>136.713</ele>
      <time>2015-12-31T10:56:59Z</time>
    </trkpt>
    <trkpt lat="48.428416" lon="2.668299">
      <ele>136.007</ele>
      <time>2015-12-31T10:57:02Z</time>
    </trkpt>
    <trkpt lat="48.428393" lon="2.668455">
      <ele>134.921</ele>
      <time>2015-12-31T10:57:06Z</time>
    </trkpt>
    <trkpt lat="48.428413" lon="2.66859">
      <ele>133.346</ele>
      <time>2015-12-31T10:57:08Z</time>
    </trkpt>
    <trkpt lat="48.42846" lon="2.668739">
      <ele>131.501</ele>
      <time>2015-12-31T10:57:11Z</time>
    </trkpt>
    <trkpt lat="48.428554" lon="2.668845">
      <ele>129.264</ele>
      <time>2015-12-31T10:57:14Z</time>
    </trkpt>
    <trkpt lat="48.428606" lon="2.668984">
      <ele>127.053</ele>
      <time>2015-12-31T10:57:17Z</time>
    </trkpt>
    <trkpt lat="48.428582" lon="2.669137">
      <ele>125.833</ele>
      <time>2015-12-31T10:57:21Z</time>
    </trkpt>
    <trkpt lat="48.428631" lon="2.669291">
      <ele>123.625</ele>
      <time>2015-12-31T10:57:25Z</time>
    </trkpt>
    <trkpt lat="48.42864" lon="2.669497">
      <ele>121.328</ele>
      <time>2015-12-31T10:57:28Z</time>
    </trkpt>
    <trkpt lat="48.428652" lon="2.669659">
      <ele>119.536</ele>
      <time>2015-12-31T10:57:31Z</time>
    </trkpt>
    <trkpt lat="48.428683" lon="2.669787">
      <ele>118.275</ele>
      <time>2015-12-31T10:57:34Z</time>
    </trkpt>
    <trkpt lat="48.42874" lon="2.669975">
      <ele>116.716</ele>
      <time>2015-12-31T10:57:37Z</time>
    </trkpt>
    <trkpt lat="48.428832" lon="2.670045">
      <ele>115.785</ele>
      <time>2015-12-31T10:57:39Z</time>
    </trkpt>
    <trkpt lat="48.428877" lon="2.670183">
      <ele>114.123</ele>
      <time>2015-12-31T10:57:42Z</time>
    </trkpt>
    <trkpt lat="48.428971" lon="2.670279">
      <ele>113.589</ele>
      <time>2015-12-31T10:57:45Z</time>
    </trkpt>
    <trkpt lat="48.429037" lon="2.670387">
      <ele>113.647</ele>
      <time>2015-12-31T10:57:48Z</time>
    </trkpt>
    <trkpt lat="48.429134" lon="2.670453">
      <ele>113.652</ele>
      <time>2015-12-31T10:57:52Z</time>
    </trkpt>
    <trkpt lat="48.429226" lon="2.67056">
      <ele>112.981</ele>
      <time>2015-12-31T10:57:55Z</time>
    </trkpt>
    <trkpt lat="48.42929" lon="2.670762">
      <ele>111.927</ele>
      <time>2015-12-31T10:57:57Z</time>
    </trkpt>
    <trkpt lat="48.429405" lon="2.67082">
      <ele>111.231</ele>
      <time>2015-12-31T10:57:59Z</time>
    </trkpt>
    <trkpt lat="48.429495" lon="2.670823">
      <ele>110.535</ele>
      <time>2015-12-31T10:58:00Z</time>
    </trkpt>
    <trkpt lat="48.429574" lon="2.670891">
      <ele>109.393</ele>
      <time>2015-12-31T10:58:02Z</time>
    </trkpt>
    <trkpt lat="48.429621" lon="2.671078">
      <ele>108.212</ele>
      <time>2015-12-31T10:58:05Z</time>
    </trkpt>
    <trkpt lat="48.429689" lon="2.671238">
      <ele>106.847</ele>
      <time>2015-12-31T10:58:08Z</time>
    </trkpt>
    <trkpt lat="48.429751" lon="2.671352">
      <ele>106.029</ele>
      <time>2015-12-31T10:58:10Z</time>
    </trkpt>
    <trkpt lat="48.429849" lon="2.671482">
      <ele>105.361</ele>
      <time>2015-12-31T10:58:13Z</time>
    </trkpt>
    <trkpt lat="48.429927" lon="2.671606">
      <ele>105.057</ele>
      <time>2015-12-31T10:58:17Z</time>
    </trkpt>
    <trkpt lat="48.429976" lon="2.67172">
      <ele>104.825</ele>
      <time>2015-12-31T10:58:20Z</time>
    </trkpt>
    <trkpt lat="48.43008" lon="2.671726">
      <ele>104.56</ele>
      <time>2015-12-31T10:58:24Z</time>
    </trkpt>
    <trkpt lat="48.430125" lon="2.671873">
      <ele>104.141</ele>
      <time>2015-12-31T10:58:28Z</time>
    </trkpt>
    <trkpt lat="48.430209" lon="2.671941">
      <ele>104.003</ele>
      <time>2015-12-31T10:58:33Z</time>
    </trkpt>
    <trkpt lat="48.430305" lon="2.672016">
      <ele>103.67</ele>
      <time>2015-12-31T10:58:36Z</time>
    </trkpt>
    <trkpt lat="48.430382" lon="2.672107">
      <ele>103.259</ele>
      <time>2015-12-31T10:58:39Z</time>
    </trkpt>
    <trkpt lat="48.430453" lon="2.672211">
      <ele>103.015</ele>
      <time>2015-12-31T10:58:42Z</time>
    </trkpt>
    <trkpt lat="48.430505" lon="2.672328">
      <ele>103.311</ele>
      <time>2015-12-31T10:58:44Z</time>
    </trkpt>
    <trkpt lat="48.430567" lon="2.672491">
      <ele>104.009</ele>
      <time>2015-12-31T10:58:47Z</time>
    </trkpt>
    <trkpt lat="48.430666" lon="2.672611">
      <ele>104.398</ele>
      <time>2015-12-31T10:58:50Z</time>
    </trkpt>
    <trkpt lat="48.430766" lon="2.672738">
      <ele>104.758</ele>
      <time>2015-12-31T10:58:53Z</time>
    </trkpt>
    <trkpt lat="48.430824" lon="2.672852">
      <ele>105.225</ele>
      <time>2015-12-31T10:58:55Z</time>
    </trkpt>
    <trkpt lat="48.430893" lon="2.672946">
      <ele>105.905</ele>
      <time>2015-12-31T10:58:57Z</time>
    </trkpt>
    <trkpt lat="48.43098" lon="2.6731">
      <ele>106.612</ele>
      <time>2015-12-31T10:59:00Z</time>
    </trkpt>
    <trkpt lat="48.43104" lon="2.673223">
      <ele>107.192</ele>
      <time>2015-12-31T10:59:02Z</time>
    </trkpt>
    <trkpt lat="48.431075" lon="2.673396">
      <ele>107.74</ele>
      <time>2015-12-31T10:59:04Z</time>
    </trkpt>
    <trkpt lat="48.431158" lon="2.673468">
      <ele>108.0</ele>
      <time>2015-12-31T10:59:06Z</time>
    </trkpt>
    <trkpt lat="48.431215" lon="2.673583">
      <ele>108.0</ele>
      <time>2015-12-31T10:59:08Z</time>
    </trkpt>
    <trkpt lat="48.431245" lon="2.67374">
      <ele>108.0</ele>
      <time>2015-12-31T10:59:10Z</time>
    </trkpt>
    <trkpt lat="48.431329" lon="2.673827">
      <ele>108.0</ele>
      <time>2015-12-31T10:59:12Z</time>
    </trkpt>
    <trkpt lat="48.431381" lon="2.673976">
      <ele>108.0</ele>
      <time>2015-12-31T10:59:15Z</time>
    </trkpt>
    <trkpt lat="48.431475" lon="2.674125">
      <ele>107.69</ele>
      <time>2015-12-31T10:59:18Z</time>
    </trkpt>
    <trkpt lat="48.431471" lon="2.674304">
      <ele>107.704</ele>
      <time>2015-12-31T10:59:20Z</time>
    </trkpt>
    <trkpt lat="48.431532" lon="2.674468">
      <ele>107.4</ele>
      <time>2015-12-31T10:59:23Z</time>
    </trkpt>
    <trkpt lat="48.431611" lon="2.674589">
      <ele>106.68</ele>
      <time>2015-12-31T10:59:26Z</time>
    </trkpt>
    <trkpt lat="48.431729" lon="2.674658">
      <ele>105.955</ele>
      <time>2015-12-31T10:59:29Z</time>
    </trkpt>
    <trkpt lat="48.431739" lon="2.6748">
      <ele>105.605</ele>
      <time>2015-12-31T10:59:32Z</time>
    </trkpt>
    <trkpt lat="48.431764" lon="2.674954">
      <ele>105.4</ele>
      <time>2015-12-31T10:59:34Z</time>
    </trkpt>
    <trkpt lat="48.431787" lon="2.6751">
      <ele>105.637</ele>
      <time>2015-12-31T10:59:37Z</time>
    </trkpt>
    <trkpt lat="48.431858" lon="2.675204">
      <ele>105.917</ele>
      <time>2015-12-31T10:59:39Z</time>
    </trkpt>
    <trkpt lat="48.431864" lon="2.675368">
      <ele>106.094</ele>
      <time>2015-12-31T10:59:41Z</time>
    </trkpt>
    <trkpt lat="48.431951" lon="2.675497">
      <ele>105.911</ele>
      <time>2015-12-31T10:59:44Z</time>
    </trkpt>
    <trkpt lat="48.431977" lon="2.675644">
      <ele>105.531</ele>
      <time>2015-12-31T10:59:47Z</time>
    </trkpt>
    <trkpt lat="48.432012" lon="2.675818">
      <ele>105.027</ele>
      <time>2015-12-31T10:59:50Z</time>
    </trkpt>
    <trkpt lat="48.431983" lon="2.676043">
      <ele>106.2</ele>
      <time>2015-12-31T10:59:53Z</time>
    </trkpt>
    <trkpt lat="48.431964" lon="2.676223">
      <ele>107.121</ele>
      <time>2015-12-31T10:59:56Z</time>
    </trkpt>
    <trkpt lat="48.431931" lon="2.676384">
      <ele>108.032</ele>
      <time>2015-12-31T10:59:59Z</time>
    </trkpt>
    <trkpt lat="48.431957" lon="2.676532">
      <ele>107.351</ele>
      <time>2015-12-31T11:00:02Z</time>
    </trkpt>
    <trkpt lat="48.431949" lon="2.676726">
      <ele>106.757</ele>
      <time>2015-12-31T11:00:05Z</time>
    </trkpt>
    <trkpt lat="48.431939" lon="2.676909">
      <ele>106.147</ele>
      <time>2015-12-31T11:00:07Z</time>
    </trkpt>
    <trkpt lat="48.431925" lon="2.677095">
      <ele>104.986</ele>
      <time>2015-12-31T11:00:09Z</time>
    </trkpt>
    <trkpt lat="48.43189" lon="2.677275">
      <ele>103.853</ele>
      <time>2015-12-31T11:00:11Z</time>
    </trkpt>
    <trkpt lat="48.431854" lon="2.677472">
      <ele>102.82</ele>
      <time>2015-12-31T11:00:13Z</time>
    </trkpt>
    <trkpt lat="48.431848" lon="2.677651">
      <ele>102.694</ele>
      <time>2015-12-31T11:00:15Z</time>
    </trkpt>
    <trkpt lat="48.431848" lon="2.677856">
      <ele>102.792</ele>
      <time>2015-12-31T11:00:18Z</time>
    </trkpt>
    <trkpt lat="48.431785" lon="2.678114">
      <ele>103.812</ele>
      <time>2015-12-31T11:00:21Z</time>
    </trkpt>
    <trkpt lat="48.431774" lon="2.678336">
      <ele>104.231</ele>
      <time>2015-12-31T11:00:25Z</time>
    </trkpt>
    <trkpt lat="48.431801" lon="2.678468">
      <ele>104.267</ele>
      <time>2015-12-31T11:00:28Z</time>
    </trkpt>
    <trkpt lat="48.43176" lon="2.678621">
      <ele>104.64</ele>
      <time>2015-12-31T11:00:31Z</time>
    </trkpt>
    <trkpt lat="48.43174" lon="2.678783">
      <ele>104.281</ele>
      <time>2015-12-31T11:00:35Z</time>
    </trkpt>
    <trkpt lat="48.431667" lon="2.678918">
      <ele>104.0</ele>
      <time>2015-12-31T11:00:38Z</time>
    </trkpt>
    <trkpt lat="48.43157" lon="2.679077">
      <ele>103.888</ele>
      <time>2015-12-31T11:00:41Z</time>
    </trkpt>
    <trkpt lat="48.431495" lon="2.679177">
      <ele>104.037</ele>
      <time>2015-12-31T11:00:43Z</time>
    </trkpt>
    <trkpt lat="48.431413" lon="2.679287">
      <ele>104.433</ele>
      <time>2015-12-31T11:00:46Z</time>
    </trkpt>
    <trkpt lat="48.431375" lon="2.679411">
      <ele>104.874</ele>
      <time>2015-12-31T11:00:50Z</time>
    </trkpt>
    <trkpt lat="48.431469" lon="2.679476">
      <ele>105.194</ele>
      <time>2015-12-31T11:00:55Z</time>
    </trkpt>
    <trkpt lat="48.431478" lon="2.679625">
      <ele>106.091</ele>
      <time>2015-12-31T11:00:57Z</time>
    </trkpt>
    <trkpt lat="48.431461" lon="2.679836">
      <ele>107.15</ele>
      <time>2015-12-31T11:00:59Z</time>
    </trkpt>
    <trkpt lat="48.431593" lon="2.67981">
      <ele>106.581</ele>
      <time>2015-12-31T11:01:02Z</time>
    </trkpt>
    <trkpt lat="48.431683" lon="2.679874">
      <ele>106.488</ele>
      <time>2015-12-31T11:01:06Z</time>
    </trkpt>
    <trkpt lat="48.431801" lon="2.679909">
      <ele>106.189</ele>
      <time>2015-12-31T11:01:09Z</time>
    </trkpt>
    <trkpt lat="48.43191" lon="2.679982">
      <ele>106.059</ele>
      <time>2015-12-31T11:01:11Z</time>
    </trkpt>
    <trkpt lat="48.431986" lon="2.68011">
      <ele>105.76</ele>
      <time>2015-12-31T11:01:15Z</time>
    </trkpt>
    <trkpt lat="48.432098" lon="2.680218">
      <ele>105.328</ele>
      <time>2015-12-31T11:01:18Z</time>
    </trkpt>
    <trkpt lat="48.432166" lon="2.680313">
      <ele>105.202</ele>
      <time>2015-12-31T11:01:21Z</time>
    </trkpt>
    <trkpt lat="48.432245" lon="2.680427">
      <ele>105.082</ele>
      <time>2015-12-31T11:01:24Z</time>
    </trkpt>
    <trkpt lat="48.432304" lon="2.680569">
      <ele>105.314</ele>
      <time>2015-12-31T11:01:27Z</time>
    </trkpt>
    <trkpt lat="48.432324" lon="2.680708">
      <ele>105.513</ele>
      <time>2015-12-31T11:01:29Z</time>
    </trkpt>
    <trkpt lat="48.432392" lon="2.680835">
      <ele>105.387</ele>
      <time>2015-12-31T11:01:33Z</time>
    </trkpt>
    <trkpt lat="48.432459" lon="2.680993">
      <ele>104.742</ele>
      <time>2015-12-31T11:01:36Z</time>
    </trkpt>
    <trkpt lat="48.432529" lon="2.681161">
      <ele>103.582</ele>
      <time>2015-12-31T11:01:39Z</time>
    </trkpt>
    <trkpt lat="48.43265" lon="2.681226">
      <ele>101.84</ele>
      <time>2015-12-31T11:01:42Z</time>
    </trkpt>
    <trkpt lat="48.432645" lon="2.681368">
      <ele>101.912</ele>
      <time>2015-12-31T11:01:44Z</time>
    </trkpt>
    <trkpt lat="48.432664" lon="2.681549">
      <ele>102.555</ele>
      <time>2015-12-31T11:01:47Z</time>
    </trkpt>
    <trkpt lat="48.43272" lon="2.681686">
      <ele>102.694</ele>
      <time>2015-12-31T11:01:51Z</time>
    </trkpt>
    <trkpt lat="48.432712" lon="2.681865">
      <ele>103.424</ele>
      <time>2015-12-31T11:01:54Z</time>
    </trkpt>
    <trkpt lat="48.432687" lon="2.682036">
      <ele>103.974</ele>
      <time>2015-12-31T11:01:57Z</time>
    </trkpt>
    <trkpt lat="48.432677" lon="2.682179">
      <ele>104.163</ele>
      <time>2015-12-31T11:02:00Z</time>
    </trkpt>
    <trkpt lat="48.432628" lon="2.68233">
      <ele>104.28</ele>
      <time>2015-12-31T11:02:02Z</time>
    </trkpt>
    <trkpt lat="48.4326" lon="2.682464">
      <ele>103.786</ele>
      <time>2015-12-31T11:02:04Z</time>
    </trkpt>
    <trkpt lat="48.432595" lon="2.682636">
      <ele>101.815</ele>
      <time>2015-12-31T11:02:07Z</time>
    </trkpt>
    <trkpt lat="48.432553" lon="2.682805">
      <ele>100.482</ele>
      <time>2015-12-31T11:02:10Z</time>
    </trkpt>
    <trkpt lat="48.432521" lon="2.682959">
      <ele>98.986</ele>
      <time>2015-12-31T11:02:13Z</time>
    </trkpt>
    <trkpt lat="48.432477" lon="2.683086">
      <ele>98.49</ele>
      <time>2015-12-31T11:02:15Z</time>
    </trkpt>
    <trkpt lat="48.432406" lon="2.683235">
      <ele>99.227</ele>
      <time>2015-12-31T11:02:17Z</time>
    </trkpt>
    <trkpt lat="48.432375" lon="2.683383">
      <ele>98.531</ele>
      <time>2015-12-31T11:02:20Z</time>
    </trkpt>
    <trkpt lat="48.432342" lon="2.683529">
      <ele>97.909</ele>
      <time>2015-12-31T11:02:23Z</time>
    </trkpt>
    <trkpt lat="48.43228" lon="2.683664">
      <ele>98.012</ele>
      <time>2015-12-31T11:02:27Z</time>
    </trkpt>
    <trkpt lat="48.432201" lon="2.68374">
      <ele>99.143</ele>
      <time>2015-12-31T11:02:31Z</time>
    </trkpt>
    <trkpt lat="48.432125" lon="2.683855">
      <ele>99.816</ele>
      <time>2015-12-31T11:02:36Z</time>
    </trkpt>
    <trkpt lat="48.43204" lon="2.683964">
      <ele>101.229</ele>
      <time>2015-12-31T11:02:42Z</time>
    </trkpt>
    <trkpt lat="48.431968" lon="2.684052">
      <ele>102.769</ele>
      <time>2015-12-31T11:02:47Z</time>
    </trkpt>
    <trkpt lat="48.431902" lon="2.684152">
      <ele>104.13</ele>
      <time>2015-12-31T11:02:56Z</time>
    </trkpt>
    <trkpt lat="48.431827" lon="2.684284">
      <ele>104.627</ele>
      <time>2015-12-31T11:03:01Z</time>
    </trkpt>
    <trkpt lat="48.431811" lon="2.684437">
      <ele>103.405</ele>
      <time>2015-12-31T11:03:08Z</time>
    </trkpt>
    <trkpt lat="48.431792" lon="2.6846">
      <ele>101.699</ele>
      <time>2015-12-31T11:03:12Z</time>
    </trkpt>
    <trkpt lat="48.431732" lon="2.684768">
      <ele>101.389</ele>
      <time>2015-12-31T11:03:16Z</time>
    </trkpt>
    <trkpt lat="48.431674" lon="2.684916">
      <ele>101.67</ele>
      <time>2015-12-31T11:03:21Z</time>
    </trkpt>
    <trkpt lat="48.431615" lon="2.685107">
      <ele>101.205</ele>
      <time>2015-12-31T11:03:25Z</time>
    </trkpt>
    <trkpt lat="48.431575" lon="2.685267">
      <ele>100.442</ele>
      <time>2015-12-31T11:03:29Z</time>
    </trkpt>
    <trkpt lat="48.4315" lon="2.685389">
      <ele>101.318</ele>
      <time>2015-12-31T11:03:31Z</time>
    </trkpt>
    <trkpt lat="48.431429" lon="2.685513">
      <ele>101.567</ele>
      <time>2015-12-31T11:03:37Z</time>
    </trkpt>
    <trkpt lat="48.431378" lon="2.685672">
      <ele>100.653</ele>
      <time>2015-12-31T11:03:42Z</time>
    </trkpt>
    <trkpt lat="48.431311" lon="2.68582">
      <ele>100.702</ele>
      <time>2015-12-31T11:03:48Z</time>
    </trkpt>
    <trkpt lat="48.431225" lon="2.68587">
      <ele>103.046</ele>
      <time>2015-12-31T11:03:54Z</time>
    </trkpt>
    <trkpt lat="48.431138" lon="2.685909">
      <ele>105.584</ele>
      <time>2015-12-31T11:03:59Z</time>
    </trkpt>
    <trkpt lat="48.431126" lon="2.686095">
      <ele>104.634</ele>
      <time>2015-12-31T11:04:04Z</time>
    </trkpt>
    <trkpt lat="48.431098" lon="2.68623">
      <ele>104.495</ele>
      <time>2015-12-31T11:04:07Z</time>
    </trkpt>
    <trkpt lat="48.431043" lon="2.686418">
      <ele>104.619</ele>
      <time>2015-12-31T11:04:10Z</time>
    </trkpt>
    <trkpt lat="48.430981" lon="2.686551">
      <ele>105.233</ele>
      <time>2015-12-31T11:04:13Z</time>
    </trkpt>
    <trkpt lat="48.430938" lon="2.686697">
      <ele>105.569</ele>
      <time>2015-12-31T11:04:17Z</time>
    </trkpt>
    <trkpt lat="48.430911" lon="2.686857">
      <ele>105.06</ele>
      <time>2015-12-31T11:04:20Z</time>
    </trkpt>
    <trkpt lat="48.430848" lon="2.687039">
      <ele>106.168</ele>
      <time>2015-12-31T11:04:23Z</time>
    </trkpt>
    <trkpt lat="48.43081" lon="2.687176">
      <ele>106.6</ele>
      <time>2015-12-31T11:04:25Z</time>
    </trkpt>
    <trkpt lat="48.430871" lon="2.687277">
      <ele>104.969</ele>
      <time>2015-12-31T11:04:29Z</time>
    </trkpt>
    <trkpt lat="48.430891" lon="2.687441">
      <ele>104.666</ele>
      <time>2015-12-31T11:04:33Z</time>
    </trkpt>
    <trkpt lat="48.43088" lon="2.68759">
      <ele>105.694</ele>
      <time>2015-12-31T11:04:35Z</time>
    </trkpt>
    <trkpt lat="48.430972" lon="2.68773">
      <ele>105.074</ele>
      <time>2015-12-31T11:04:39Z</time>
    </trkpt>
    <trkpt lat="48.431002" lon="2.687896">
      <ele>105.39</ele>
      <time>2015-12-31T11:04:42Z</time>
    </trkpt>
    <trkpt lat="48.431061" lon="2.688027">
      <ele>104.799</ele>
      <time>2015-12-31T11:04:45Z</time>
    </trkpt>
    <trkpt lat="48.431118" lon="2.688172">
      <ele>103.851</ele>
      <time>2015-12-31T11:04:48Z</time>
    </trkpt>
    <trkpt lat="48.431156" lon="2.688334">
      <ele>103.03</ele>
      <time>2015-12-31T11:04:53Z</time>
    </trkpt>
    <trkpt lat="48.431136" lon="2.688551">
      <ele>103.462</ele>
      <time>2015-12-31T11:05:00Z</time>
    </trkpt>
    <trkpt lat="48.431109" lon="2.688693">
      <ele>103.745</ele>
      <time>2015-12-31T11:05:05Z</time>
    </trkpt>
    <trkpt lat="48.431109" lon="2.688515">
      <ele>104.038</ele>
      <time>2015-12-31T11:05:12Z</time>
    </trkpt>
    <trkpt lat="48.431198" lon="2.688478">
      <ele>102.123</ele>
      <time>2015-12-31T11:05:22Z</time>
    </trkpt>
    <trkpt lat="48.431138" lon="2.688582">
      <ele>103.419</ele>
      <time>2015-12-31T11:05:49Z</time>
    </trkpt>
    <trkpt lat="48.431178" lon="2.688736">
      <ele>102.322</ele>
      <time>2015-12-31T11:06:15Z</time>
    </trkpt>
    <trkpt lat="48.431192" lon="2.68888">
      <ele>101.849</ele>
      <time>2015-12-31T11:06:19Z</time>
    </trkpt>
    <trkpt lat="48.431218" lon="2.689035">
      <ele>101.461</ele>
      <time>2015-12-31T11:06:23Z</time>
    </trkpt>
    <trkpt lat="48.431213" lon="2.689194">
      <ele>101.497</ele>
      <time>2015-12-31T11:06:26Z</time>
    </trkpt>
    <trkpt lat="48.431215" lon="2.689353">
      <ele>101.253</ele>
      <time>2015-12-31T11:06:29Z</time>
    </trkpt>
    <trkpt lat="48.431225" lon="2.689535">
      <ele>100.816</ele>
      <time>2015-12-31T11:06:32Z</time>
    </trkpt>
    <trkpt lat="48.431251" lon="2.689706">
      <ele>100.008</ele>
      <time>2015-12-31T11:06:35Z</time>
    </trkpt>
    <trkpt lat="48.431296" lon="2.689845">
      <ele>99.743</ele>
      <time>2015-12-31T11:06:38Z</time>
    </trkpt>
    <trkpt lat="48.431279" lon="2.690008">
      <ele>101.042</ele>
      <time>2015-12-31T11:06:40Z</time>
    </trkpt>
    <trkpt lat="48.431316" lon="2.690183">
      <ele>101.943</ele>
      <time>2015-12-31T11:06:43Z</time>
    </trkpt>
    <trkpt lat="48.43133" lon="2.690326">
      <ele>103.22</ele>
      <time>2015-12-31T11:06:45Z</time>
    </trkpt>
    <trkpt lat="48.431369" lon="2.690503">
      <ele>105.284</ele>
      <time>2015-12-31T11:06:48Z</time>
    </trkpt>
    <trkpt lat="48.431395" lon="2.690657">
      <ele>106.265</ele>
      <time>2015-12-31T11:06:50Z</time>
    </trkpt>
    <trkpt lat="48.431411" lon="2.690797">
      <ele>106.668</ele>
      <time>2015-12-31T11:06:53Z</time>
    </trkpt>
    <trkpt lat="48.431491" lon="2.690944">
      <ele>106.663</ele>
      <time>2015-12-31T11:06:56Z</time>
    </trkpt>
    <trkpt lat="48.431583" lon="2.691025">
      <ele>106.292</ele>
      <time>2015-12-31T11:06:58Z</time>
    </trkpt>
    <trkpt lat="48.431643" lon="2.691163">
      <ele>106.154</ele>
      <time>2015-12-31T11:07:01Z</time>
    </trkpt>
    <trkpt lat="48.431709" lon="2.691311">
      <ele>105.348</ele>
      <time>2015-12-31T11:07:04Z</time>
    </trkpt>
    <trkpt lat="48.431786" lon="2.691442">
      <ele>104.364</ele>
      <time>2015-12-31T11:07:07Z</time>
    </trkpt>
    <trkpt lat="48.431853" lon="2.69157">
      <ele>103.754</ele>
      <time>2015-12-31T11:07:10Z</time>
    </trkpt>
    <trkpt lat="48.431949" lon="2.691632">
      <ele>102.824</ele>
      <time>2015-12-31T11:07:13Z</time>
    </trkpt>
    <trkpt lat="48.432066" lon="2.6917">
      <ele>102.047</ele>
      <time>2015-12-31T11:07:16Z</time>
    </trkpt>
    <trkpt lat="48.432152" lon="2.69179">
      <ele>102.09</ele>
      <time>2015-12-31T11:07:18Z</time>
    </trkpt>
    <trkpt lat="48.432205" lon="2.691917">
      <ele>102.89</ele>
      <time>2015-12-31T11:07:21Z</time>
    </trkpt>
    <trkpt lat="48.432307" lon="2.691959">
      <ele>101.9</ele>
      <time>2015-12-31T11:07:24Z</time>
    </trkpt>
    <trkpt lat="48.43239" lon="2.692013">
      <ele>101.227</ele>
      <time>2015-12-31T11:07:27Z</time>
    </trkpt>
    <trkpt lat="48.43248" lon="2.692044">
      <ele>100.337</ele>
      <time>2015-12-31T11:07:29Z</time>
    </trkpt>
    <trkpt lat="48.432573" lon="2.692084">
      <ele>99.719</ele>
      <time>2015-12-31T11:07:31Z</time>
    </trkpt>
    <trkpt lat="48.432637" lon="2.692189">
      <ele>100.162</ele>
      <time>2015-12-31T11:07:33Z</time>
    </trkpt>
    <trkpt lat="48.43267" lon="2.692379">
      <ele>101.857</ele>
      <time>2015-12-31T11:07:35Z</time>
    </trkpt>
    <trkpt lat="48.432772" lon="2.692472">
      <ele>101.76</ele>
      <time>2015-12-31T11:07:37Z</time>
    </trkpt>
    <trkpt lat="48.432839" lon="2.692631">
      <ele>100.885</ele>
      <time>2015-12-31T11:07:39Z</time>
    </trkpt>
    <trkpt lat="48.4329" lon="2.692789">
      <ele>100.298</ele>
      <time>2015-12-31T11:07:41Z</time>
    </trkpt>
    <trkpt lat="48.432978" lon="2.692991">
      <ele>100.438</ele>
      <time>2015-12-31T11:07:43Z</time>
    </trkpt>
    <trkpt lat="48.43302" lon="2.693203">
      <ele>101.446</ele>
      <time>2015-12-31T11:07:45Z</time>
    </trkpt>
    <trkpt lat="48.433099" lon="2.693335">
      <ele>101.861</ele>
      <time>2015-12-31T11:07:47Z</time>
    </trkpt>
    <trkpt lat="48.433156" lon="2.69352">
      <ele>103.411</ele>
      <time>2015-12-31T11:07:49Z</time>
    </trkpt>
    <trkpt lat="48.433181" lon="2.693742">
      <ele>105.039</ele>
      <time>2015-12-31T11:07:51Z</time>
    </trkpt>
    <trkpt lat="48.433276" lon="2.69385">
      <ele>105.133</ele>
      <time>2015-12-31T11:07:53Z</time>
    </trkpt>
    <trkpt lat="48.433334" lon="2.693993">
      <ele>105.737</ele>
      <time>2015-12-31T11:07:55Z</time>
    </trkpt>
    <trkpt lat="48.433417" lon="2.694074">
      <ele>104.626</ele>
      <time>2015-12-31T11:07:57Z</time>
    </trkpt>
    <trkpt lat="48.43351" lon="2.694193">
      <ele>103.244</ele>
      <time>2015-12-31T11:08:00Z</time>
    </trkpt>
    <trkpt lat="48.433537" lon="2.694383">
      <ele>103.172</ele>
      <time>2015-12-31T11:08:02Z</time>
    </trkpt>
    <trkpt lat="48.433587" lon="2.694505">
      <ele>102.633</ele>
      <time>2015-12-31T11:08:04Z</time>
    </trkpt>
    <trkpt lat="48.433653" lon="2.694601">
      <ele>101.659</ele>
      <time>2015-12-31T11:08:06Z</time>
    </trkpt>
    <trkpt lat="48.43371" lon="2.694722">
      <ele>100.863</ele>
      <time>2015-12-31T11:08:08Z</time>
    </trkpt>
    <trkpt lat="48.433774" lon="2.694824">
      <ele>99.696</ele>
      <time>2015-12-31T11:08:10Z</time>
    </trkpt>
    <trkpt lat="48.433841" lon="2.694928">
      <ele>98.647</ele>
      <time>2015-12-31T11:08:12Z</time>
    </trkpt>
    <trkpt lat="48.433908" lon="2.695055">
      <ele>98.074</ele>
      <time>2015-12-31T11:08:14Z</time>
    </trkpt>
    <trkpt lat="48.433963" lon="2.695175">
      <ele>98.264</ele>
      <time>2015-12-31T11:08:16Z</time>
    </trkpt>
    <trkpt lat="48.434032" lon="2.695289">
      <ele>98.525</ele>
      <time>2015-12-31T11:08:18Z</time>
    </trkpt>
    <trkpt lat="48.434061" lon="2.695429">
      <ele>98.925</ele>
      <time>2015-12-31T11:08:20Z</time>
    </trkpt>
    <trkpt lat="48.434138" lon="2.695558">
      <ele>99.112</ele>
      <time>2015-12-31T11:08:23Z</time>
    </trkpt>
    <trkpt lat="48.434246" lon="2.695679">
      <ele>99.889</ele>
      <time>2015-12-31T11:08:26Z</time>
    </trkpt>
    <trkpt lat="48.434302" lon="2.695795">
      <ele>100.416</ele>
      <time>2015-12-31T11:08:28Z</time>
    </trkpt>
    <trkpt lat="48.434342" lon="2.695922">
      <ele>100.631</ele>
      <time>2015-12-31T11:08:30Z</time>
    </trkpt>
    <trkpt lat="48.434397" lon="2.696044">
      <ele>100.829</ele>
      <time>2015-12-31T11:08:33Z</time>
    </trkpt>
    <trkpt lat="48.434432" lon="2.696187">
      <ele>100.967</ele>
      <time>2015-12-31T11:08:49Z</time>
    </trkpt>
    <trkpt lat="48.434476" lon="2.696348">
      <ele>101.13</ele>
      <time>2015-12-31T11:08:53Z</time>
    </trkpt>
    <trkpt lat="48.434568" lon="2.696407">
      <ele>101.445</ele>
      <time>2015-12-31T11:08:57Z</time>
    </trkpt>
    <trkpt lat="48.43467" lon="2.696459">
      <ele>101.812</ele>
      <time>2015-12-31T11:09:00Z</time>
    </trkpt>
    <trkpt lat="48.434788" lon="2.696507">
      <ele>101.899</ele>
      <time>2015-12-31T11:09:03Z</time>
    </trkpt>
    <trkpt lat="48.43489" lon="2.696546">
      <ele>101.658</ele>
      <time>2015-12-31T11:09:06Z</time>
    </trkpt>
    <trkpt lat="48.434983" lon="2.696578">
      <ele>101.361</ele>
      <time>2015-12-31T11:09:09Z</time>
    </trkpt>
    <trkpt lat="48.435088" lon="2.696617">
      <ele>100.489</ele>
      <time>2015-12-31T11:09:12Z</time>
    </trkpt>
    <trkpt lat="48.435197" lon="2.696668">
      <ele>99.578</ele>
      <time>2015-12-31T11:09:15Z</time>
    </trkpt>
    <trkpt lat="48.435288" lon="2.696727">
      <ele>98.717</ele>
      <time>2015-12-31T11:09:18Z</time>
    </trkpt>
    <trkpt lat="48.435394" lon="2.69678">
      <ele>97.926</ele>
      <time>2015-12-31T11:09:21Z</time>
    </trkpt>
    <trkpt lat="48.435534" lon="2.696844">
      <ele>97.106</ele>
      <time>2015-12-31T11:09:24Z</time>
    </trkpt>
    <trkpt lat="48.435628" lon="2.696892">
      <ele>97.0</ele>
      <time>2015-12-31T11:09:27Z</time>
    </trkpt>
    <trkpt lat="48.435747" lon="2.696942">
      <ele>97.0</ele>
      <time>2015-12-31T11:09:30Z</time>
    </trkpt>
    <trkpt lat="48.435856" lon="2.696992">
      <ele>97.253</ele>
      <time>2015-12-31T11:09:34Z</time>
    </trkpt>
    <trkpt lat="48.435951" lon="2.697036">
      <ele>97.753</ele>
      <time>2015-12-31T11:09:37Z</time>
    </trkpt>
    <trkpt lat="48.436039" lon="2.697079">
      <ele>98.225</ele>
      <time>2015-12-31T11:09:42Z</time>
    </trkpt>
    <trkpt lat="48.436151" lon="2.69714">
      <ele>98.848</ele>
      <time>2015-12-31T11:09:47Z</time>
    </trkpt>
    <trkpt lat="48.436262" lon="2.697212">
      <ele>99.506</ele>
      <time>2015-12-31T11:09:53Z</time>
    </trkpt>
    <trkpt lat="48.436356" lon="2.697252">
      <ele>99.989</ele>
      <time>2015-12-31T11:09:57Z</time>
    </trkpt>
    <trkpt lat="48.436453" lon="2.697271">
      <ele>100.176</ele>
      <time>2015-12-31T11:10:02Z</time>
    </trkpt>
    <trkpt lat="48.436547" lon="2.697309">
      <ele>100.312</ele>
      <time>2015-12-31T11:10:07Z</time>
    </trkpt>
    <trkpt lat="48.436662" lon="2.697331">
      <ele>100.392</ele>
      <time>2015-12-31T11:10:12Z</time>
    </trkpt>
    <trkpt lat="48.43676" lon="2.6974">
      <ele>101.097</ele>
      <time>2015-12-31T11:10:16Z</time>
    </trkpt>
    <trkpt lat="48.436853" lon="2.697426">
      <ele>101.583</ele>
      <time>2015-12-31T11:10:20Z</time>
    </trkpt>
    <trkpt lat="48.436952" lon="2.697484">
      <ele>102.136</ele>
      <time>2015-12-31T11:10:28Z</time>
    </trkpt>
    <trkpt lat="48.43705" lon="2.697521">
      <ele>104.022</ele>
      <time>2015-12-31T11:10:33Z</time>
    </trkpt>
    <trkpt lat="48.437153" lon="2.697552">
      <ele>105.988</ele>
      <time>2015-12-31T11:10:37Z</time>
    </trkpt>
    <trkpt lat="48.437237" lon="2.69762">
      <ele>107.675</ele>
      <time>2015-12-31T11:10:43Z</time>
    </trkpt>
    <trkpt lat="48.437322" lon="2.697671">
      <ele>109.19</ele>
      <time>2015-12-31T11:10:48Z</time>
    </trkpt>
    <trkpt lat="48.437444" lon="2.697715">
      <ele>111.148</ele>
      <time>2015-12-31T11:10:53Z</time>
    </trkpt>
    <trkpt lat="48.437536" lon="2.697797">
      <ele>112.328</ele>
      <time>2015-12-31T11:11:00Z</time>
    </trkpt>
    <trkpt lat="48.437629" lon="2.697825">
      <ele>113.099</ele>
      <time>2015-12-31T11:11:04Z</time>
    </trkpt>
    <trkpt lat="48.437687" lon="2.697942">
      <ele>113.938</ele>
      <time>2015-12-31T11:11:11Z</time>
    </trkpt>
    <trkpt lat="48.437786" lon="2.697991">
      <ele>114.827</ele>
      <time>2015-12-31T11:11:17Z</time>
    </trkpt>
    <trkpt lat="48.437906" lon="2.698021">
      <ele>115.799</ele>
      <time>2015-12-31T11:11:21Z</time>
    </trkpt>
    <trkpt lat="48.437997" lon="2.698092">
      <ele>116.765</ele>
      <time>2015-12-31T11:11:27Z</time>
    </trkpt>
    <trkpt lat="48.437987" lon="2.698239">
      <ele>117.493</ele>
      <time>2015-12-31T11:11:38Z</time>
    </trkpt>
    <trkpt lat="48.438089" lon="2.698208">
      <ele>117.79</ele>
      <time>2015-12-31T11:11:44Z</time>
    </trkpt>
    <trkpt lat="48.4382" lon="2.698194">
      <ele>118.538</ele>
      <time>2015-12-31T11:11:53Z</time>
    </trkpt>
    <trkpt lat="48.438282" lon="2.698111">
      <ele>118.83</ele>
      <time>2015-12-31T11:11:58Z</time>
    </trkpt>
    <trkpt lat="48.438342" lon="2.697975">
      <ele>118.398</ele>
      <time>2015-12-31T11:12:03Z</time>
    </trkpt>
    <trkpt lat="48.438408" lon="2.697879">
      <ele>117.631</ele>
      <time>2015-12-31T11:12:05Z</time>
    </trkpt>
    <trkpt lat="48.4385" lon="2.697751">
      <ele>116.846</ele>
      <time>2015-12-31T11:12:07Z</time>
    </trkpt>
    <trkpt lat="48.438657" lon="2.697682">
      <ele>115.598</ele>
      <time>2015-12-31T11:12:10Z</time>
    </trkpt>
    <trkpt lat="48.438773" lon="2.697637">
      <ele>113.663</ele>
      <time>2015-12-31T11:12:12Z</time>
    </trkpt>
    <trkpt lat="48.438877" lon="2.697613">
      <ele>112.163</ele>
      <time>2015-12-31T11:12:14Z</time>
    </trkpt>
    <trkpt lat="48.438987" lon="2.697687">
      <ele>109.297</ele>
      <time>2015-12-31T11:12:17Z</time>
    </trkpt>
    <trkpt lat="48.439125" lon="2.697704">
      <ele>105.598</ele>
      <time>2015-12-31T11:12:21Z</time>
    </trkpt>
    <trkpt lat="48.439234" lon="2.697712">
      <ele>103.684</ele>
      <time>2015-12-31T11:12:23Z</time>
    </trkpt>
    <trkpt lat="48.439339" lon="2.697712">
      <ele>102.371</ele>
      <time>2015-12-31T11:12:25Z</time>
    </trkpt>
    <trkpt lat="48.439495" lon="2.697692">
      <ele>100.401</ele>
      <time>2015-12-31T11:12:27Z</time>
    </trkpt>
    <trkpt lat="48.43965" lon="2.69771">
      <ele>99.544</ele>
      <time>2015-12-31T11:12:29Z</time>
    </trkpt>
    <trkpt lat="48.439745" lon="2.697728">
      <ele>98.888</ele>
      <time>2015-12-31T11:12:30Z</time>
    </trkpt>
    <trkpt lat="48.439866" lon="2.697747">
      <ele>97.026</ele>
      <time>2015-12-31T11:12:31Z</time>
    </trkpt>
    <trkpt lat="48.439984" lon="2.69781">
      <ele>95.957</ele>
      <time>2015-12-31T11:12:34Z</time>
    </trkpt>
    <trkpt lat="48.440105" lon="2.697804">
      <ele>95.117</ele>
      <time>2015-12-31T11:12:36Z</time>
    </trkpt>
    <trkpt lat="48.440199" lon="2.697785">
      <ele>94.402</ele>
      <time>2015-12-31T11:12:37Z</time>
    </trkpt>
    <trkpt lat="48.440297" lon="2.697798">
      <ele>94.217</ele>
      <time>2015-12-31T11:12:38Z</time>
    </trkpt>
    <trkpt lat="48.440368" lon="2.697931">
      <ele>95.702</ele>
      <time>2015-12-31T11:12:41Z</time>
    </trkpt>
    <trkpt lat="48.440367" lon="2.698081">
      <ele>97.724</ele>
      <time>2015-12-31T11:12:44Z</time>
    </trkpt>
    <trkpt lat="48.440387" lon="2.698228">
      <ele>99.697</ele>
      <time>2015-12-31T11:12:48Z</time>
    </trkpt>
    <trkpt lat="48.440317" lon="2.698375">
      <ele>102.168</ele>
      <time>2015-12-31T11:12:52Z</time>
    </trkpt>
    <trkpt lat="48.440329" lon="2.698533">
      <ele>103.788</ele>
      <time>2015-12-31T11:12:56Z</time>
    </trkpt>
    <trkpt lat="48.440346" lon="2.698702">
      <ele>105.163</ele>
      <time>2015-12-31T11:13:01Z</time>
    </trkpt>
    <trkpt lat="48.44034" lon="2.698858">
      <ele>106.33</ele>
      <time>2015-12-31T11:13:05Z</time>
    </trkpt>
    <trkpt lat="48.4404" lon="2.69897">
      <ele>106.12</ele>
      <time>2015-12-31T11:13:11Z</time>
    </trkpt>
    <trkpt lat="48.440374" lon="2.699138">
      <ele>106.307</ele>
      <time>2015-12-31T11:13:14Z</time>
    </trkpt>
    <trkpt lat="48.44032" lon="2.699329">
      <ele>106.2</ele>
      <time>2015-12-31T11:13:17Z</time>
    </trkpt>
    <trkpt lat="48.440289" lon="2.699493">
      <ele>105.785</ele>
      <time>2015-12-31T11:13:20Z</time>
    </trkpt>
    <trkpt lat="48.440238" lon="2.699637">
      <ele>105.549</ele>
      <time>2015-12-31T11:13:23Z</time>
    </trkpt>
    <trkpt lat="48.440196" lon="2.699767">
      <ele>105.589</ele>
      <time>2015-12-31T11:13:27Z</time>
    </trkpt>
    <trkpt lat="48.440148" lon="2.699954">
      <ele>105.934</ele>
      <time>2015-12-31T11:13:30Z</time>
    </trkpt>
    <trkpt lat="48.440086" lon="2.700136">
      <ele>106.381</ele>
      <time>2015-12-31T11:13:33Z</time>
    </trkpt>
    <trkpt lat="48.440054" lon="2.700315">
      <ele>106.611</ele>
      <time>2015-12-31T11:13:37Z</time>
    </trkpt>
    <trkpt lat="48.440042" lon="2.700492">
      <ele>106.698</ele>
      <time>2015-12-31T11:13:42Z</time>
    </trkpt>
    <trkpt lat="48.440096" lon="2.700608">
      <ele>106.374</ele>
      <time>2015-12-31T11:13:46Z</time>
    </trkpt>
    <trkpt lat="48.44011" lon="2.700768">
      <ele>106.511</ele>
      <time>2015-12-31T11:13:51Z</time>
    </trkpt>
    <trkpt lat="48.440086" lon="2.70092">
      <ele>106.906</ele>
      <time>2015-12-31T11:13:56Z</time>
    </trkpt>
    <trkpt lat="48.440066" lon="2.70106">
      <ele>107.385</ele>
      <time>2015-12-31T11:13:59Z</time>
    </trkpt>
    <trkpt lat="48.440008" lon="2.701261">
      <ele>107.973</ele>
      <time>2015-12-31T11:14:03Z</time>
    </trkpt>
    <trkpt lat="48.440023" lon="2.701398">
      <ele>108.0</ele>
      <time>2015-12-31T11:14:08Z</time>
    </trkpt>
    <trkpt lat="48.439981" lon="2.701556">
      <ele>108.342</ele>
      <time>2015-12-31T11:14:12Z</time>
    </trkpt>
    <trkpt lat="48.439943" lon="2.701694">
      <ele>109.104</ele>
      <time>2015-12-31T11:14:16Z</time>
    </trkpt>
    <trkpt lat="48.439947" lon="2.701833">
      <ele>109.439</ele>
      <time>2015-12-31T11:14:21Z</time>
    </trkpt>
    <trkpt lat="48.439961" lon="2.701988">
      <ele>109.562</ele>
      <time>2015-12-31T11:14:27Z</time>
    </trkpt>
    <trkpt lat="48.439912" lon="2.702179">
      <ele>110.267</ele>
      <time>2015-12-31T11:14:32Z</time>
    </trkpt>
    <trkpt lat="48.43988" lon="2.702353">
      <ele>110.792</ele>
      <time>2015-12-31T11:14:36Z</time>
    </trkpt>
    <trkpt lat="48.439913" lon="2.702485">
      <ele>110.606</ele>
      <time>2015-12-31T11:14:41Z</time>
    </trkpt>
    <trkpt lat="48.439864" lon="2.70261">
      <ele>110.785</ele>
      <time>2015-12-31T11:14:44Z</time>
    </trkpt>
    <trkpt lat="48.439873" lon="2.702748">
      <ele>110.506</ele>
      <time>2015-12-31T11:14:50Z</time>
    </trkpt>
    <trkpt lat="48.439792" lon="2.702851">
      <ele>110.881</ele>
      <time>2015-12-31T11:14:54Z</time>
    </trkpt>
    <trkpt lat="48.439713" lon="2.702968">
      <ele>111.087</ele>
      <time>2015-12-31T11:14:59Z</time>
    </trkpt>
    <trkpt lat="48.439584" lon="2.703116">
      <ele>111.888</ele>
      <time>2015-12-31T11:15:05Z</time>
    </trkpt>
    <trkpt lat="48.439488" lon="2.703199">
      <ele>111.897</ele>
      <time>2015-12-31T11:15:09Z</time>
    </trkpt>
    <trkpt lat="48.439361" lon="2.703305">
      <ele>112.136</ele>
      <time>2015-12-31T11:15:13Z</time>
    </trkpt>
    <trkpt lat="48.439263" lon="2.703412">
      <ele>112.121</ele>
      <time>2015-12-31T11:15:17Z</time>
    </trkpt>
    <trkpt lat="48.43927" lon="2.703572">
      <ele>110.406</ele>
      <time>2015-12-31T11:15:25Z</time>
    </trkpt>
    <trkpt lat="48.439248" lon="2.703707">
      <ele>109.268</ele>
      <time>2015-12-31T11:15:28Z</time>
    </trkpt>
    <trkpt lat="48.439208" lon="2.703886">
      <ele>107.473</ele>
      <time>2015-12-31T11:15:32Z</time>
    </trkpt>
    <trkpt lat="48.439226" lon="2.704033">
      <ele>107.641</ele>
      <time>2015-12-31T11:15:36Z</time>
    </trkpt>
    <trkpt lat="48.439215" lon="2.704177">
      <ele>107.559</ele>
      <time>2015-12-31T11:15:39Z</time>
    </trkpt>
    <trkpt lat="48.439201" lon="2.704344">
      <ele>108.009</ele>
      <time>2015-12-31T11:15:42Z</time>
    </trkpt>
    <trkpt lat="48.439209" lon="2.704502">
      <ele>108.489</ele>
      <time>2015-12-31T11:15:45Z</time>
    </trkpt>
    <trkpt lat="48.439295" lon="2.704626">
      <ele>109.688</ele>
      <time>2015-12-31T11:15:49Z</time>
    </trkpt>
    <trkpt lat="48.439312" lon="2.704763">
      <ele>110.163</ele>
      <time>2015-12-31T11:15:52Z</time>
    </trkpt>
    <trkpt lat="48.439319" lon="2.70493">
      <ele>110.531</ele>
      <time>2015-12-31T11:15:56Z</time>
    </trkpt>
    <trkpt lat="48.439265" lon="2.705054">
      <ele>110.062</ele>
      <time>2015-12-31T11:15:58Z</time>
    </trkpt>
    <trkpt lat="48.439226" lon="2.705188">
      <ele>109.641</ele>
      <time>2015-12-31T11:16:01Z</time>
    </trkpt>
    <trkpt lat="48.439141" lon="2.705362">
      <ele>109.46</ele>
      <time>2015-12-31T11:16:04Z</time>
    </trkpt>
    <trkpt lat="48.439126" lon="2.705499">
      <ele>109.973</ele>
      <time>2015-12-31T11:16:07Z</time>
    </trkpt>
    <trkpt lat="48.439135" lon="2.705691">
      <ele>110.546</ele>
      <time>2015-12-31T11:16:12Z</time>
    </trkpt>
    <trkpt lat="48.439126" lon="2.705828">
      <ele>110.984</ele>
      <time>2015-12-31T11:16:16Z</time>
    </trkpt>
    <trkpt lat="48.439049" lon="2.706016">
      <ele>111.658</ele>
      <time>2015-12-31T11:16:19Z</time>
    </trkpt>
    <trkpt lat="48.439062" lon="2.706185">
      <ele>112.1</ele>
      <time>2015-12-31T11:16:24Z</time>
    </trkpt>
    <trkpt lat="48.439103" lon="2.706311">
      <ele>112.165</ele>
      <time>2015-12-31T11:16:28Z</time>
    </trkpt>
    <trkpt lat="48.439078" lon="2.7065">
      <ele>112.464</ele>
      <time>2015-12-31T11:16:32Z</time>
    </trkpt>
    <trkpt lat="48.439122" lon="2.706644">
      <ele>112.784</ele>
      <time>2015-12-31T11:16:38Z</time>
    </trkpt>
    <trkpt lat="48.439014" lon="2.706809">
      <ele>113.244</ele>
      <time>2015-12-31T11:16:40Z</time>
    </trkpt>
    <trkpt lat="48.438959" lon="2.706932">
      <ele>113.922</ele>
      <time>2015-12-31T11:16:44Z</time>
    </trkpt>
    <trkpt lat="48.438893" lon="2.707095">
      <ele>114.558</ele>
      <time>2015-12-31T11:16:50Z</time>
    </trkpt>
    <trkpt lat="48.438843" lon="2.707226">
      <ele>115.367</ele>
      <time>2015-12-31T11:16:56Z</time>
    </trkpt>
    <trkpt lat="48.438803" lon="2.707361">
      <ele>116.808</ele>
      <time>2015-12-31T11:17:00Z</time>
    </trkpt>
    <trkpt lat="48.438796" lon="2.7075">
      <ele>118.0</ele>
      <time>2015-12-31T11:17:04Z</time>
    </trkpt>
    <trkpt lat="48.438833" lon="2.707629">
      <ele>118.835</ele>
      <time>2015-12-31T11:17:09Z</time>
    </trkpt>
    <trkpt lat="48.438841" lon="2.707775">
      <ele>119.809</ele>
      <time>2015-12-31T11:17:13Z</time>
    </trkpt>
    <trkpt lat="48.438811" lon="2.707929">
      <ele>119.872</ele>
      <time>2015-12-31T11:17:17Z</time>
    </trkpt>
    <trkpt lat="48.438789" lon="2.708073">
      <ele>119.977</ele>
      <time>2015-12-31T11:17:21Z</time>
    </trkpt>
    <trkpt lat="48.438736" lon="2.708196">
      <ele>119.722</ele>
      <time>2015-12-31T11:17:24Z</time>
    </trkpt>
    <trkpt lat="48.438676" lon="2.708333">
      <ele>119.235</ele>
      <time>2015-12-31T11:17:27Z</time>
    </trkpt>
    <trkpt lat="48.438689" lon="2.708468">
      <ele>118.796</ele>
      <time>2015-12-31T11:17:32Z</time>
    </trkpt>
    <trkpt lat="48.438637" lon="2.708586">
      <ele>118.184</ele>
      <time>2015-12-31T11:17:34Z</time>
    </trkpt>
    <trkpt lat="48.438611" lon="2.70875">
      <ele>117.501</ele>
      <time>2015-12-31T11:17:38Z</time>
    </trkpt>
    <trkpt lat="48.438552" lon="2.708961">
      <ele>117.788</ele>
      <time>2015-12-31T11:17:41Z</time>
    </trkpt>
    <trkpt lat="48.438506" lon="2.709082">
      <ele>118.304</ele>
      <time>2015-12-31T11:17:43Z</time>
    </trkpt>
    <trkpt lat="48.438539" lon="2.709226">
      <ele>118.204</ele>
      <time>2015-12-31T11:17:46Z</time>
    </trkpt>
    <trkpt lat="48.438528" lon="2.709382">
      <ele>118.067</ele>
      <time>2015-12-31T11:17:49Z</time>
    </trkpt>
    <trkpt lat="48.4385" lon="2.709525">
      <ele>118.0</ele>
      <time>2015-12-31T11:17:51Z</time>
    </trkpt>
    <trkpt lat="48.438509" lon="2.709728">
      <ele>117.979</ele>
      <time>2015-12-31T11:17:54Z</time>
    </trkpt>
    <trkpt lat="48.438414" lon="2.709889">
      <ele>117.4</ele>
      <time>2015-12-31T11:17:55Z</time>
    </trkpt>
    <trkpt lat="48.43837" lon="2.710068">
      <ele>116.575</ele>
      <time>2015-12-31T11:17:57Z</time>
    </trkpt>
    <trkpt lat="48.438336" lon="2.71023">
      <ele>115.36</ele>
      <time>2015-12-31T11:17:59Z</time>
    </trkpt>
    <trkpt lat="48.438284" lon="2.710414">
      <ele>114.11</ele>
      <time>2015-12-31T11:18:01Z</time>
    </trkpt>
    <trkpt lat="48.43827" lon="2.710591">
      <ele>112.588</ele>
      <time>2015-12-31T11:18:03Z</time>
    </trkpt>
    <trkpt lat="48.438279" lon="2.71077">
      <ele>110.533</ele>
      <time>2015-12-31T11:18:05Z</time>
    </trkpt>
    <trkpt lat="48.438221" lon="2.710997">
      <ele>107.828</ele>
      <time>2015-12-31T11:18:07Z</time>
    </trkpt>
    <trkpt lat="48.438158" lon="2.711124">
      <ele>106.23</ele>
      <time>2015-12-31T11:18:08Z</time>
    </trkpt>
    <trkpt lat="48.438102" lon="2.71125">
      <ele>104.667</ele>
      <time>2015-12-31T11:18:09Z</time>
    </trkpt>
    <trkpt lat="48.438057" lon="2.711452">
      <ele>102.776</ele>
      <time>2015-12-31T11:18:11Z</time>
    </trkpt>
    <trkpt lat="48.437991" lon="2.711698">
      <ele>102.378</ele>
      <time>2015-12-31T11:18:13Z</time>
    </trkpt>
    <trkpt lat="48.437984" lon="2.711907">
      <ele>101.873</ele>
      <time>2015-12-31T11:18:15Z</time>
    </trkpt>
    <trkpt lat="48.437908" lon="2.712079">
      <ele>102.336</ele>
      <time>2015-12-31T11:18:16Z</time>
    </trkpt>
    <trkpt lat="48.437864" lon="2.712295">
      <ele>101.937</ele>
      <time>2015-12-31T11:18:18Z</time>
    </trkpt>
    <trkpt lat="48.437841" lon="2.712483">
      <ele>100.881</ele>
      <time>2015-12-31T11:18:20Z</time>
    </trkpt>
    <trkpt lat="48.437798" lon="2.712648">
      <ele>100.888</ele>
      <time>2015-12-31T11:18:22Z</time>
    </trkpt>
    <trkpt lat="48.437777" lon="2.712823">
      <ele>101.006</ele>
      <time>2015-12-31T11:18:24Z</time>
    </trkpt>
    <trkpt lat="48.437763" lon="2.712966">
      <ele>101.106</ele>
      <time>2015-12-31T11:18:26Z</time>
    </trkpt>
    <trkpt lat="48.437748" lon="2.71314">
      <ele>101.214</ele>
      <time>2015-12-31T11:18:28Z</time>
    </trkpt>
    <trkpt lat="48.437723" lon="2.713336">
      <ele>101.402</ele>
      <time>2015-12-31T11:18:30Z</time>
    </trkpt>
    <trkpt lat="48.437757" lon="2.71349">
      <ele>101.671</ele>
      <time>2015-12-31T11:18:33Z</time>
    </trkpt>
    <trkpt lat="48.437766" lon="2.713683">
      <ele>102.042</ele>
      <time>2015-12-31T11:18:36Z</time>
    </trkpt>
    <trkpt lat="48.437753" lon="2.713882">
      <ele>102.089</ele>
      <time>2015-12-31T11:18:39Z</time>
    </trkpt>
    <trkpt lat="48.437757" lon="2.714047">
      <ele>100.452</ele>
      <time>2015-12-31T11:18:42Z</time>
    </trkpt>
    <trkpt lat="48.437729" lon="2.714249">
      <ele>98.934</ele>
      <time>2015-12-31T11:18:45Z</time>
    </trkpt>
    <trkpt lat="48.437694" lon="2.714394">
      <ele>98.268</ele>
      <time>2015-12-31T11:18:47Z</time>
    </trkpt>
    <trkpt lat="48.43767" lon="2.71457">
      <ele>97.26</ele>
      <time>2015-12-31T11:18:50Z</time>
    </trkpt>
    <trkpt lat="48.437647" lon="2.714704">
      <ele>96.544</ele>
      <time>2015-12-31T11:18:52Z</time>
    </trkpt>
    <trkpt lat="48.437622" lon="2.714841">
      <ele>96.682</ele>
      <time>2015-12-31T11:18:54Z</time>
    </trkpt>
    <trkpt lat="48.437618" lon="2.715001">
      <ele>96.725</ele>
      <time>2015-12-31T11:18:57Z</time>
    </trkpt>
    <trkpt lat="48.437638" lon="2.71515">
      <ele>96.506</ele>
      <time>2015-12-31T11:19:02Z</time>
    </trkpt>
    <trkpt lat="48.437599" lon="2.715312">
      <ele>96.767</ele>
      <time>2015-12-31T11:19:11Z</time>
    </trkpt>
    <trkpt lat="48.43758" lon="2.715452">
      <ele>97.339</ele>
      <time>2015-12-31T11:19:14Z</time>
    </trkpt>
    <trkpt lat="48.437544" lon="2.715623">
      <ele>98.084</ele>
      <time>2015-12-31T11:19:17Z</time>
    </trkpt>
    <trkpt lat="48.437514" lon="2.715806">
      <ele>98.851</ele>
      <time>2015-12-31T11:19:20Z</time>
    </trkpt>
    <trkpt lat="48.437498" lon="2.716005">
      <ele>99.014</ele>
      <time>2015-12-31T11:19:23Z</time>
    </trkpt>
    <trkpt lat="48.437499" lon="2.716166">
      <ele>99.203</ele>
      <time>2015-12-31T11:19:26Z</time>
    </trkpt>
    <trkpt lat="48.437435" lon="2.716292">
      <ele>99.814</ele>
      <time>2015-12-31T11:19:27Z</time>
    </trkpt>
    <trkpt lat="48.437391" lon="2.716514">
      <ele>99.726</ele>
      <time>2015-12-31T11:19:30Z</time>
    </trkpt>
    <trkpt lat="48.43733" lon="2.716715">
      <ele>99.718</ele>
      <time>2015-12-31T11:19:33Z</time>
    </trkpt>
    <trkpt lat="48.437301" lon="2.716854">
      <ele>100.2</ele>
      <time>2015-12-31T11:19:36Z</time>
    </trkpt>
    <trkpt lat="48.437303" lon="2.717002">
      <ele>100.211</ele>
      <time>2015-12-31T11:19:39Z</time>
    </trkpt>
    <trkpt lat="48.437325" lon="2.717183">
      <ele>99.401</ele>
      <time>2015-12-31T11:19:43Z</time>
    </trkpt>
    <trkpt lat="48.437339" lon="2.717354">
      <ele>98.609</ele>
      <time>2015-12-31T11:19:47Z</time>
    </trkpt>
    <trkpt lat="48.437299" lon="2.717497">
      <ele>98.016</ele>
      <time>2015-12-31T11:19:49Z</time>
    </trkpt>
    <trkpt lat="48.437273" lon="2.717664">
      <ele>97.518</ele>
      <time>2015-12-31T11:19:51Z</time>
    </trkpt>
    <trkpt lat="48.437245" lon="2.717814">
      <ele>97.321</ele>
      <time>2015-12-31T11:19:53Z</time>
    </trkpt>
    <trkpt lat="48.437218" lon="2.718009">
      <ele>98.685</ele>
      <time>2015-12-31T11:19:56Z</time>
    </trkpt>
    <trkpt lat="48.437181" lon="2.718151">
      <ele>99.492</ele>
      <time>2015-12-31T11:19:58Z</time>
    </trkpt>
    <trkpt lat="48.437256" lon="2.718274">
      <ele>99.665</ele>
      <time>2015-12-31T11:20:02Z</time>
    </trkpt>
    <trkpt lat="48.437207" lon="2.718484">
      <ele>100.055</ele>
      <time>2015-12-31T11:20:05Z</time>
    </trkpt>
    <trkpt lat="48.437159" lon="2.718679">
      <ele>100.228</ele>
      <time>2015-12-31T11:20:08Z</time>
    </trkpt>
    <trkpt lat="48.437072" lon="2.718729">
      <ele>100.541</ele>
      <time>2015-12-31T11:20:14Z</time>
    </trkpt>
    <trkpt lat="48.43696" lon="2.718696">
      <ele>100.944</ele>
      <time>2015-12-31T11:20:18Z</time>
    </trkpt>
    <trkpt lat="48.436877" lon="2.718626">
      <ele>101.243</ele>
      <time>2015-12-31T11:20:22Z</time>
    </trkpt>
    <trkpt lat="48.436766" lon="2.718626">
      <ele>101.642</ele>
      <time>2015-12-31T11:20:27Z</time>
    </trkpt>
    <trkpt lat="48.436684" lon="2.718545">
      <ele>101.938</ele>
      <time>2015-12-31T11:20:31Z</time>
    </trkpt>
    <trkpt lat="48.436574" lon="2.718494">
      <ele>102.0</ele>
      <time>2015-12-31T11:20:34Z</time>
    </trkpt>
    <trkpt lat="48.43648" lon="2.718482">
      <ele>102.0</ele>
      <time>2015-12-31T11:20:37Z</time>
    </trkpt>
    <trkpt lat="48.436382" lon="2.718503">
      <ele>102.025</ele>
      <time>2015-12-31T11:20:39Z</time>
    </trkpt>
    <trkpt lat="48.43627" lon="2.718465">
      <ele>102.428</ele>
      <time>2015-12-31T11:20:42Z</time>
    </trkpt>
    <trkpt lat="48.436163" lon="2.718391">
      <ele>102.813</ele>
      <time>2015-12-31T11:20:46Z</time>
    </trkpt>
    <trkpt lat="48.436044" lon="2.718371">
      <ele>103.242</ele>
      <time>2015-12-31T11:20:49Z</time>
    </trkpt>
    <trkpt lat="48.436016" lon="2.718234">
      <ele>103.107</ele>
      <time>2015-12-31T11:20:52Z</time>
    </trkpt>
    <trkpt lat="48.435949" lon="2.718126">
      <ele>103.273</ele>
      <time>2015-12-31T11:20:58Z</time>
    </trkpt>
    <trkpt lat="48.435862" lon="2.718045">
      <ele>103.794</ele>
      <time>2015-12-31T11:21:01Z</time>
    </trkpt>
    <trkpt lat="48.435715" lon="2.718076">
      <ele>104.395</ele>
      <time>2015-12-31T11:21:04Z</time>
    </trkpt>
    <trkpt lat="48.435608" lon="2.718056">
      <ele>104.81</ele>
      <time>2015-12-31T11:21:07Z</time>
    </trkpt>
    <trkpt lat="48.435486" lon="2.718084">
      <ele>105.424</ele>
      <time>2015-12-31T11:21:11Z</time>
    </trkpt>
    <trkpt lat="48.435344" lon="2.71812">
      <ele>106.468</ele>
      <time>2015-12-31T11:21:17Z</time>
    </trkpt>
    <trkpt lat="48.435316" lon="2.71799">
      <ele>107.164</ele>
      <time>2015-12-31T11:21:24Z</time>
    </trkpt>
    <trkpt lat="48.435292" lon="2.717846">
      <ele>108.368</ele>
      <time>2015-12-31T11:21:30Z</time>
    </trkpt>
    <trkpt lat="48.435178" lon="2.717888">
      <ele>109.786</ele>
      <time>2015-12-31T11:21:33Z</time>
    </trkpt>
    <trkpt lat="48.435049" lon="2.717929">
      <ele>111.654</ele>
      <time>2015-12-31T11:21:36Z</time>
    </trkpt>
    <trkpt lat="48.435103" lon="2.71782">
      <ele>111.308</ele>
      <time>2015-12-31T11:21:39Z</time>
    </trkpt>
    <trkpt lat="48.435002" lon="2.717804">
      <ele>112.876</ele>
      <time>2015-12-31T11:21:49Z</time>
    </trkpt>
    <trkpt lat="48.434938" lon="2.717697">
      <ele>114.633</ele>
      <time>2015-12-31T11:21:58Z</time>
    </trkpt>
    <trkpt lat="48.434874" lon="2.717561">
      <ele>116.475</ele>
      <time>2015-12-31T11:22:06Z</time>
    </trkpt>
    <trkpt lat="48.43477" lon="2.717555">
      <ele>118.08</ele>
      <time>2015-12-31T11:22:15Z</time>
    </trkpt>
    <trkpt lat="48.43468" lon="2.717575">
      <ele>118.537</ele>
      <time>2015-12-31T11:22:23Z</time>
    </trkpt>
    <trkpt lat="48.434573" lon="2.717577">
      <ele>118.037</ele>
      <time>2015-12-31T11:22:30Z</time>
    </trkpt>
    <trkpt lat="48.434498" lon="2.717502">
      <ele>118.18</ele>
      <time>2015-12-31T11:22:34Z</time>
    </trkpt>
    <trkpt lat="48.434384" lon="2.717507">
      <ele>117.085</ele>
      <time>2015-12-31T11:22:36Z</time>
    </trkpt>
    <trkpt lat="48.434253" lon="2.717422">
      <ele>115.524</ele>
      <time>2015-12-31T11:22:39Z</time>
    </trkpt>
    <trkpt lat="48.434141" lon="2.717301">
      <ele>114.465</ele>
      <time>2015-12-31T11:22:41Z</time>
    </trkpt>
    <trkpt lat="48.434044" lon="2.717321">
      <ele>113.477</ele>
      <time>2015-12-31T11:22:42Z</time>
    </trkpt>
    <trkpt lat="48.433949" lon="2.71723">
      <ele>112.643</ele>
      <time>2015-12-31T11:22:44Z</time>
    </trkpt>
    <trkpt lat="48.433862" lon="2.717127">
      <ele>112.716</ele>
      <time>2015-12-31T11:22:47Z</time>
    </trkpt>
    <trkpt lat="48.43385" lon="2.716991">
      <ele>113.572</ele>
      <time>2015-12-31T11:22:51Z</time>
    </trkpt>
    <trkpt lat="48.433831" lon="2.716858">
      <ele>113.856</ele>
      <time>2015-12-31T11:22:55Z</time>
    </trkpt>
    <trkpt lat="48.433898" lon="2.716694">
      <ele>114.125</ele>
      <time>2015-12-31T11:22:58Z</time>
    </trkpt>
    <trkpt lat="48.433935" lon="2.716559">
      <ele>114.6</ele>
      <time>2015-12-31T11:23:01Z</time>
    </trkpt>
    <trkpt lat="48.433923" lon="2.716395">
      <ele>114.371</ele>
      <time>2015-12-31T11:23:05Z</time>
    </trkpt>
    <trkpt lat="48.433933" lon="2.716229">
      <ele>113.901</ele>
      <time>2015-12-31T11:23:09Z</time>
    </trkpt>
    <trkpt lat="48.433965" lon="2.716056">
      <ele>113.822</ele>
      <time>2015-12-31T11:23:13Z</time>
    </trkpt>
    <trkpt lat="48.433952" lon="2.715918">
      <ele>113.682</ele>
      <time>2015-12-31T11:23:16Z</time>
    </trkpt>
    <trkpt lat="48.43397" lon="2.715765">
      <ele>114.122</ele>
      <time>2015-12-31T11:23:19Z</time>
    </trkpt>
    <trkpt lat="48.434002" lon="2.715599">
      <ele>115.065</ele>
      <time>2015-12-31T11:23:22Z</time>
    </trkpt>
    <trkpt lat="48.434008" lon="2.715456">
      <ele>115.85</ele>
      <time>2015-12-31T11:23:25Z</time>
    </trkpt>
    <trkpt lat="48.434028" lon="2.715316">
      <ele>116.795</ele>
      <time>2015-12-31T11:23:29Z</time>
    </trkpt>
    <trkpt lat="48.434064" lon="2.715144">
      <ele>118.402</ele>
      <time>2015-12-31T11:23:33Z</time>
    </trkpt>
    <trkpt lat="48.434089" lon="2.715008">
      <ele>119.655</ele>
      <time>2015-12-31T11:23:36Z</time>
    </trkpt>
    <trkpt lat="48.434102" lon="2.71486">
      <ele>120.002</ele>
      <time>2015-12-31T11:23:39Z</time>
    </trkpt>
    <trkpt lat="48.434148" lon="2.714722">
      <ele>120.067</ele>
      <time>2015-12-31T11:23:42Z</time>
    </trkpt>
    <trkpt lat="48.434158" lon="2.714572">
      <ele>120.065</ele>
      <time>2015-12-31T11:23:46Z</time>
    </trkpt>
    <trkpt lat="48.434188" lon="2.71441">
      <ele>119.77</ele>
      <time>2015-12-31T11:23:49Z</time>
    </trkpt>
    <trkpt lat="48.434227" lon="2.714237">
      <ele>119.348</ele>
      <time>2015-12-31T11:23:53Z</time>
    </trkpt>
    <trkpt lat="48.434266" lon="2.714095">
      <ele>118.761</ele>
      <time>2015-12-31T11:23:56Z</time>
    </trkpt>
    <trkpt lat="48.434262" lon="2.713932">
      <ele>118.416</ele>
      <time>2015-12-31T11:24:02Z</time>
    </trkpt>
    <trkpt lat="48.434251" lon="2.713775">
      <ele>118.517</ele>
      <time>2015-12-31T11:24:07Z</time>
    </trkpt>
    <trkpt lat="48.434228" lon="2.713644">
      <ele>118.753</ele>
      <time>2015-12-31T11:24:14Z</time>
    </trkpt>
    <trkpt lat="48.434236" lon="2.713503">
      <ele>119.042</ele>
      <time>2015-12-31T11:24:21Z</time>
    </trkpt>
    <trkpt lat="48.43418" lon="2.713388">
      <ele>119.717</ele>
      <time>2015-12-31T11:24:29Z</time>
    </trkpt>
    <trkpt lat="48.434185" lon="2.713252">
      <ele>120.727</ele>
      <time>2015-12-31T11:24:35Z</time>
    </trkpt>
    <trkpt lat="48.434123" lon="2.713134">
      <ele>122.399</ele>
      <time>2015-12-31T11:24:41Z</time>
    </trkpt>
    <trkpt lat="48.434089" lon="2.713002">
      <ele>123.858</ele>
      <time>2015-12-31T11:24:48Z</time>
    </trkpt>
    <trkpt lat="48.434015" lon="2.712903">
      <ele>125.194</ele>
      <time>2015-12-31T11:24:54Z</time>
    </trkpt>
    <trkpt lat="48.434027" lon="2.712742">
      <ele>126.824</ele>
      <time>2015-12-31T11:24:59Z</time>
    </trkpt>
    <trkpt lat="48.434006" lon="2.712602">
      <ele>128.111</ele>
      <time>2015-12-31T11:25:06Z</time>
    </trkpt>
    <trkpt lat="48.43397" lon="2.71246">
      <ele>129.246</ele>
      <time>2015-12-31T11:25:15Z</time>
    </trkpt>
    <trkpt lat="48.433909" lon="2.712355">
      <ele>130.006</ele>
      <time>2015-12-31T11:25:22Z</time>
    </trkpt>
    <trkpt lat="48.433858" lon="2.712236">
      <ele>130.901</ele>
      <time>2015-12-31T11:25:28Z</time>
    </trkpt>
    <trkpt lat="48.433843" lon="2.712071">
      <ele>131.999</ele>
      <time>2015-12-31T11:25:34Z</time>
    </trkpt>
    <trkpt lat="48.433842" lon="2.71191">
      <ele>132.728</ele>
      <time>2015-12-31T11:25:39Z</time>
    </trkpt>
    <trkpt lat="48.433794" lon="2.711791">
      <ele>132.295</ele>
      <time>2015-12-31T11:25:47Z</time>
    </trkpt>
    <trkpt lat="48.433779" lon="2.711645">
      <ele>131.953</ele>
      <time>2015-12-31T11:25:54Z</time>
    </trkpt>
    <trkpt lat="48.433764" lon="2.711498">
      <ele>131.666</ele>
      <time>2015-12-31T11:26:01Z</time>
    </trkpt>
    <trkpt lat="48.433737" lon="2.711366">
      <ele>131.464</ele>
      <time>2015-12-31T11:26:06Z</time>
    </trkpt>
    <trkpt lat="48.433754" lon="2.711223">
      <ele>130.888</ele>
      <time>2015-12-31T11:26:11Z</time>
    </trkpt>
    <trkpt lat="48.433681" lon="2.711129">
      <ele>130.813</ele>
      <time>2015-12-31T11:26:23Z</time>
    </trkpt>
    <trkpt lat="48.433692" lon="2.710941">
      <ele>130.709</ele>
      <time>2015-12-31T11:26:32Z</time>
    </trkpt>
    <trkpt lat="48.433723" lon="2.710774">
      <ele>130.597</ele>
      <time>2015-12-31T11:26:35Z</time>
    </trkpt>
    <trkpt lat="48.433757" lon="2.710628">
      <ele>130.475</ele>
      <time>2015-12-31T11:26:39Z</time>
    </trkpt>
    <trkpt lat="48.433756" lon="2.710454">
      <ele>130.288</ele>
      <time>2015-12-31T11:26:45Z</time>
    </trkpt>
    <trkpt lat="48.433789" lon="2.710283">
      <ele>129.731</ele>
      <time>2015-12-31T11:26:48Z</time>
    </trkpt>
    <trkpt lat="48.433801" lon="2.710111">
      <ele>129.633</ele>
      <time>2015-12-31T11:26:51Z</time>
    </trkpt>
    <trkpt lat="48.433838" lon="2.709948">
      <ele>129.213</ele>
      <time>2015-12-31T11:26:54Z</time>
    </trkpt>
    <trkpt lat="48.433856" lon="2.709777">
      <ele>128.529</ele>
      <time>2015-12-31T11:26:58Z</time>
    </trkpt>
    <trkpt lat="48.433894" lon="2.709637">
      <ele>128.59</ele>
      <time>2015-12-31T11:27:00Z</time>
    </trkpt>
    <trkpt lat="48.433919" lon="2.709487">
      <ele>129.493</ele>
      <time>2015-12-31T11:27:02Z</time>
    </trkpt>
    <trkpt lat="48.433946" lon="2.709349">
      <ele>129.932</ele>
      <time>2015-12-31T11:27:04Z</time>
    </trkpt>
    <trkpt lat="48.433952" lon="2.709204">
      <ele>130.411</ele>
      <time>2015-12-31T11:27:06Z</time>
    </trkpt>
    <trkpt lat="48.433942" lon="2.708995">
      <ele>131.236</ele>
      <time>2015-12-31T11:27:09Z</time>
    </trkpt>
    <trkpt lat="48.433923" lon="2.708852">
      <ele>131.887</ele>
      <time>2015-12-31T11:27:11Z</time>
    </trkpt>
    <trkpt lat="48.433875" lon="2.70867">
      <ele>132.788</ele>
      <time>2015-12-31T11:27:14Z</time>
    </trkpt>
    <trkpt lat="48.43388" lon="2.708468">
      <ele>133.515</ele>
      <time>2015-12-31T11:27:17Z</time>
    </trkpt>
    <trkpt lat="48.433835" lon="2.708282">
      <ele>134.0</ele>
      <time>2015-12-31T11:27:19Z</time>
    </trkpt>
    <trkpt lat="48.433781" lon="2.708112">
      <ele>134.0</ele>
      <time>2015-12-31T11:27:22Z</time>
    </trkpt>
    <trkpt lat="48.433879" lon="2.70806">
      <ele>134.0</ele>
      <time>2015-12-31T11:27:26Z</time>
    </trkpt>
    <trkpt lat="48.433984" lon="2.708057">
      <ele>133.656</ele>
      <time>2015-12-31T11:27:28Z</time>
    </trkpt>
    <trkpt lat="48.434079" lon="2.708182">
      <ele>133.004</ele>
      <time>2015-12-31T11:27:31Z</time>
    </trkpt>
    <trkpt lat="48.434201" lon="2.708341">
      <ele>131.602</ele>
      <time>2015-12-31T11:27:33Z</time>
    </trkpt>
    <trkpt lat="48.434302" lon="2.708344">
      <ele>130.5</ele>
      <time>2015-12-31T11:27:35Z</time>
    </trkpt>
    <trkpt lat="48.434379" lon="2.708496">
      <ele>129.121</ele>
      <time>2015-12-31T11:27:38Z</time>
    </trkpt>
    <trkpt lat="48.434441" lon="2.708635">
      <ele>128.036</ele>
      <time>2015-12-31T11:27:40Z</time>
    </trkpt>
    <trkpt lat="48.434445" lon="2.70889">
      <ele>127.992</ele>
      <time>2015-12-31T11:27:42Z</time>
    </trkpt>
    <trkpt lat="48.434493" lon="2.709029">
      <ele>127.234</ele>
      <time>2015-12-31T11:27:43Z</time>
    </trkpt>
    <trkpt lat="48.434544" lon="2.709166">
      <ele>126.643</ele>
      <time>2015-12-31T11:27:44Z</time>
    </trkpt>
    <trkpt lat="48.434596" lon="2.709313">
      <ele>125.64</ele>
      <time>2015-12-31T11:27:45Z</time>
    </trkpt>
    <trkpt lat="48.434614" lon="2.709513">
      <ele>124.532</ele>
      <time>2015-12-31T11:27:47Z</time>
    </trkpt>
    <trkpt lat="48.434667" lon="2.709711">
      <ele>123.438</ele>
      <time>2015-12-31T11:27:49Z</time>
    </trkpt>
    <trkpt lat="48.43471" lon="2.70986">
      <ele>122.592</ele>
      <time>2015-12-31T11:27:51Z</time>
    </trkpt>
    <trkpt lat="48.434817" lon="2.710006">
      <ele>122.341</ele>
      <time>2015-12-31T11:27:53Z</time>
    </trkpt>
    <trkpt lat="48.434846" lon="2.710217">
      <ele>122.446</ele>
      <time>2015-12-31T11:27:55Z</time>
    </trkpt>
    <trkpt lat="48.434835" lon="2.710408">
      <ele>122.025</ele>
      <time>2015-12-31T11:27:58Z</time>
    </trkpt>
    <trkpt lat="48.4349" lon="2.710545">
      <ele>121.409</ele>
      <time>2015-12-31T11:28:00Z</time>
    </trkpt>
    <trkpt lat="48.434985" lon="2.710664">
      <ele>120.643</ele>
      <time>2015-12-31T11:28:02Z</time>
    </trkpt>
    <trkpt lat="48.435024" lon="2.710822">
      <ele>120.217</ele>
      <time>2015-12-31T11:28:04Z</time>
    </trkpt>
    <trkpt lat="48.435128" lon="2.710873">
      <ele>120.636</ele>
      <time>2015-12-31T11:28:09Z</time>
    </trkpt>
    <trkpt lat="48.435243" lon="2.710866">
      <ele>121.514</ele>
      <time>2015-12-31T11:28:14Z</time>
    </trkpt>
    <trkpt lat="48.435338" lon="2.710813">
      <ele>122.58</ele>
      <time>2015-12-31T11:28:20Z</time>
    </trkpt>
    <trkpt lat="48.435429" lon="2.710739">
      <ele>123.768</ele>
      <time>2015-12-31T11:28:23Z</time>
    </trkpt>
    <trkpt lat="48.435518" lon="2.710702">
      <ele>124.675</ele>
      <time>2015-12-31T11:28:29Z</time>
    </trkpt>
    <trkpt lat="48.435619" lon="2.710658">
      <ele>125.094</ele>
      <time>2015-12-31T11:28:34Z</time>
    </trkpt>
    <trkpt lat="48.435717" lon="2.710597">
      <ele>125.528</ele>
      <time>2015-12-31T11:28:45Z</time>
    </trkpt>
    <trkpt lat="48.435826" lon="2.710494">
      <ele>126.659</ele>
      <time>2015-12-31T11:28:51Z</time>
    </trkpt>
    <trkpt lat="48.435909" lon="2.710404">
      <ele>127.241</ele>
      <time>2015-12-31T11:28:56Z</time>
    </trkpt>
    <trkpt lat="48.435969" lon="2.71028">
      <ele>128.484</ele>
      <time>2015-12-31T11:29:00Z</time>
    </trkpt>
    <trkpt lat="48.436026" lon="2.710157">
      <ele>129.611</ele>
      <time>2015-12-31T11:29:06Z</time>
    </trkpt>
    <trkpt lat="48.436113" lon="2.710024">
      <ele>130.721</ele>
      <time>2015-12-31T11:29:11Z</time>
    </trkpt>
    <trkpt lat="48.436199" lon="2.709886">
      <ele>131.282</ele>
      <time>2015-12-31T11:29:18Z</time>
    </trkpt>
    <trkpt lat="48.436281" lon="2.70976">
      <ele>131.757</ele>
      <time>2015-12-31T11:29:28Z</time>
    </trkpt>
    <trkpt lat="48.436331" lon="2.709636">
      <ele>132.556</ele>
      <time>2015-12-31T11:29:32Z</time>
    </trkpt>
    <trkpt lat="48.436346" lon="2.709491">
      <ele>133.96</ele>
      <time>2015-12-31T11:29:42Z</time>
    </trkpt>
    <trkpt lat="48.436427" lon="2.709363">
      <ele>134.898</ele>
      <time>2015-12-31T11:29:48Z</time>
    </trkpt>
    <trkpt lat="48.436503" lon="2.70925">
      <ele>135.978</ele>
      <time>2015-12-31T11:29:52Z</time>
    </trkpt>
    <trkpt lat="48.43659" lon="2.709173">
      <ele>136.461</ele>
      <time>2015-12-31T11:29:57Z</time>
    </trkpt>
    <trkpt lat="48.436643" lon="2.709051">
      <ele>137.384</ele>
      <time>2015-12-31T11:30:06Z</time>
    </trkpt>
    <trkpt lat="48.436709" lon="2.708911">
      <ele>138.444</ele>
      <time>2015-12-31T11:30:17Z</time>
    </trkpt>
    <trkpt lat="48.4368" lon="2.708774">
      <ele>138.867</ele>
      <time>2015-12-31T11:30:21Z</time>
    </trkpt>
    <trkpt lat="48.43683" lon="2.70863">
      <ele>139.688</ele>
      <time>2015-12-31T11:30:31Z</time>
    </trkpt>
    <trkpt lat="48.436902" lon="2.708509">
      <ele>139.985</ele>
      <time>2015-12-31T11:30:37Z</time>
    </trkpt>
    <trkpt lat="48.436983" lon="2.708404">
      <ele>140.214</ele>
      <time>2015-12-31T11:30:42Z</time>
    </trkpt>
    <trkpt lat="48.437088" lon="2.708352">
      <ele>139.832</ele>
      <time>2015-12-31T11:30:47Z</time>
    </trkpt>
    <trkpt lat="48.437171" lon="2.7083">
      <ele>139.467</ele>
      <time>2015-12-31T11:30:51Z</time>
    </trkpt>
    <trkpt lat="48.437278" lon="2.708258">
      <ele>138.669</ele>
      <time>2015-12-31T11:30:57Z</time>
    </trkpt>
    <trkpt lat="48.437369" lon="2.708238">
      <ele>137.758</ele>
      <time>2015-12-31T11:31:02Z</time>
    </trkpt>
    <trkpt lat="48.437463" lon="2.708273">
      <ele>136.617</ele>
      <time>2015-12-31T11:31:08Z</time>
    </trkpt>
    <trkpt lat="48.437566" lon="2.708334">
      <ele>135.521</ele>
      <time>2015-12-31T11:31:13Z</time>
    </trkpt>
    <trkpt lat="48.437673" lon="2.708299">
      <ele>134.724</ele>
      <time>2015-12-31T11:31:17Z</time>
    </trkpt>
    <trkpt lat="48.437739" lon="2.70819">
      <ele>133.907</ele>
      <time>2015-12-31T11:31:21Z</time>
    </trkpt>
    <trkpt lat="48.437745" lon="2.708042">
      <ele>133.472</ele>
      <time>2015-12-31T11:31:25Z</time>
    </trkpt>
    <trkpt lat="48.43773" lon="2.707884">
      <ele>133.688</ele>
      <time>2015-12-31T11:31:29Z</time>
    </trkpt>
    <trkpt lat="48.437684" lon="2.707737">
      <ele>134.204</ele>
      <time>2015-12-31T11:31:33Z</time>
    </trkpt>
    <trkpt lat="48.437594" lon="2.70764">
      <ele>135.15</ele>
      <time>2015-12-31T11:31:36Z</time>
    </trkpt>
    <trkpt lat="48.437496" lon="2.707592">
      <ele>136.384</ele>
      <time>2015-12-31T11:31:39Z</time>
    </trkpt>
    <trkpt lat="48.43738" lon="2.707528">
      <ele>137.785</ele>
      <time>2015-12-31T11:31:43Z</time>
    </trkpt>
    <trkpt lat="48.437278" lon="2.707455">
      <ele>139.197</ele>
      <time>2015-12-31T11:31:47Z</time>
    </trkpt>
    <trkpt lat="48.437186" lon="2.707351">
      <ele>140.0</ele>
      <time>2015-12-31T11:31:51Z</time>
    </trkpt>
    <trkpt lat="48.437087" lon="2.70727">
      <ele>140.0</ele>
      <time>2015-12-31T11:31:55Z</time>
    </trkpt>
    <trkpt lat="48.436996" lon="2.707196">
      <ele>140.077</ele>
      <time>2015-12-31T11:31:58Z</time>
    </trkpt>
    <trkpt lat="48.436928" lon="2.707064">
      <ele>140.595</ele>
      <time>2015-12-31T11:32:02Z</time>
    </trkpt>
    <trkpt lat="48.43694" lon="2.706912">
      <ele>141.0</ele>
      <time>2015-12-31T11:32:05Z</time>
    </trkpt>
    <trkpt lat="48.437012" lon="2.706732">
      <ele>140.757</ele>
      <time>2015-12-31T11:32:08Z</time>
    </trkpt>
    <trkpt lat="48.437037" lon="2.706547">
      <ele>141.098</ele>
      <time>2015-12-31T11:32:11Z</time>
    </trkpt>
    <trkpt lat="48.437082" lon="2.706342">
      <ele>141.674</ele>
      <time>2015-12-31T11:32:14Z</time>
    </trkpt>
    <trkpt lat="48.437123" lon="2.706188">
      <ele>142.08</ele>
      <time>2015-12-31T11:32:16Z</time>
    </trkpt>
    <trkpt lat="48.43717" lon="2.706043">
      <ele>142.433</ele>
      <time>2015-12-31T11:32:18Z</time>
    </trkpt>
    <trkpt lat="48.437213" lon="2.705919">
      <ele>142.725</ele>
      <time>2015-12-31T11:32:20Z</time>
    </trkpt>
    <trkpt lat="48.437268" lon="2.7058">
      <ele>142.461</ele>
      <time>2015-12-31T11:32:22Z</time>
    </trkpt>
    <trkpt lat="48.437342" lon="2.705709">
      <ele>141.723</ele>
      <time>2015-12-31T11:32:24Z</time>
    </trkpt>
    <trkpt lat="48.437417" lon="2.705619">
      <ele>140.967</ele>
      <time>2015-12-31T11:32:26Z</time>
    </trkpt>
    <trkpt lat="48.437454" lon="2.705444">
      <ele>140.662</ele>
      <time>2015-12-31T11:32:32Z</time>
    </trkpt>
    <trkpt lat="48.4374" lon="2.705299">
      <ele>141.44</ele>
      <time>2015-12-31T11:32:37Z</time>
    </trkpt>
    <trkpt lat="48.437346" lon="2.705152">
      <ele>141.563</ele>
      <time>2015-12-31T11:32:41Z</time>
    </trkpt>
    <trkpt lat="48.4373" lon="2.705015">
      <ele>141.669</ele>
      <time>2015-12-31T11:32:45Z</time>
    </trkpt>
    <trkpt lat="48.437247" lon="2.704875">
      <ele>141.614</ele>
      <time>2015-12-31T11:32:49Z</time>
    </trkpt>
    <trkpt lat="48.437182" lon="2.704749">
      <ele>141.468</ele>
      <time>2015-12-31T11:32:53Z</time>
    </trkpt>
    <trkpt lat="48.437139" lon="2.704607">
      <ele>140.894</ele>
      <time>2015-12-31T11:32:56Z</time>
    </trkpt>
    <trkpt lat="48.437091" lon="2.704477">
      <ele>140.596</ele>
      <time>2015-12-31T11:32:59Z</time>
    </trkpt>
    <trkpt lat="48.437019" lon="2.704327">
      <ele>140.772</ele>
      <time>2015-12-31T11:33:02Z</time>
    </trkpt>
    <trkpt lat="48.436934" lon="2.704218">
      <ele>141.147</ele>
      <time>2015-12-31T11:33:06Z</time>
    </trkpt>
    <trkpt lat="48.436857" lon="2.70411">
      <ele>140.685</ele>
      <time>2015-12-31T11:33:10Z</time>
    </trkpt>
    <trkpt lat="48.436868" lon="2.703974">
      <ele>140.725</ele>
      <time>2015-12-31T11:33:13Z</time>
    </trkpt>
    <trkpt lat="48.436907" lon="2.70384">
      <ele>140.865</ele>
      <time>2015-12-31T11:33:17Z</time>
    </trkpt>
    <trkpt lat="48.43695" lon="2.703716">
      <ele>140.972</ele>
      <time>2015-12-31T11:33:20Z</time>
    </trkpt>
    <trkpt lat="48.437017" lon="2.703587">
      <ele>140.803</ele>
      <time>2015-12-31T11:33:23Z</time>
    </trkpt>
    <trkpt lat="48.437071" lon="2.703446">
      <ele>140.868</ele>
      <time>2015-12-31T11:33:26Z</time>
    </trkpt>
    <trkpt lat="48.43712" lon="2.703286">
      <ele>140.673</ele>
      <time>2015-12-31T11:33:32Z</time>
    </trkpt>
    <trkpt lat="48.437133" lon="2.703139">
      <ele>140.418</ele>
      <time>2015-12-31T11:33:36Z</time>
    </trkpt>
    <trkpt lat="48.437128" lon="2.702989">
      <ele>140.416</ele>
      <time>2015-12-31T11:33:40Z</time>
    </trkpt>
    <trkpt lat="48.437089" lon="2.702865">
      <ele>140.508</ele>
      <time>2015-12-31T11:33:43Z</time>
    </trkpt>
    <trkpt lat="48.437047" lon="2.70272">
      <ele>139.953</ele>
      <time>2015-12-31T11:33:46Z</time>
    </trkpt>
    <trkpt lat="48.436956" lon="2.702648">
      <ele>139.107</ele>
      <time>2015-12-31T11:33:50Z</time>
    </trkpt>
    <trkpt lat="48.436844" lon="2.702669">
      <ele>138.494</ele>
      <time>2015-12-31T11:33:53Z</time>
    </trkpt>
    <trkpt lat="48.436761" lon="2.702789">
      <ele>138.746</ele>
      <time>2015-12-31T11:33:56Z</time>
    </trkpt>
    <trkpt lat="48.436752" lon="2.702949">
      <ele>139.658</ele>
      <time>2015-12-31T11:34:00Z</time>
    </trkpt>
    <trkpt lat="48.436718" lon="2.703082">
      <ele>140.28</ele>
      <time>2015-12-31T11:34:03Z</time>
    </trkpt>
    <trkpt lat="48.436689" lon="2.703239">
      <ele>140.741</ele>
      <time>2015-12-31T11:34:07Z</time>
    </trkpt>
    <trkpt lat="48.43668" lon="2.703388">
      <ele>140.851</ele>
      <time>2015-12-31T11:34:11Z</time>
    </trkpt>
    <trkpt lat="48.436646" lon="2.70353">
      <ele>140.1</ele>
      <time>2015-12-31T11:34:14Z</time>
    </trkpt>
    <trkpt lat="48.436618" lon="2.703662">
      <ele>139.65</ele>
      <time>2015-12-31T11:34:17Z</time>
    </trkpt>
    <trkpt lat="48.436571" lon="2.703778">
      <ele>139.311</ele>
      <time>2015-12-31T11:34:21Z</time>
    </trkpt>
    <trkpt lat="48.436459" lon="2.703858">
      <ele>138.505</ele>
      <time>2015-12-31T11:34:24Z</time>
    </trkpt>
    <trkpt lat="48.436381" lon="2.703999">
      <ele>137.869</ele>
      <time>2015-12-31T11:34:29Z</time>
    </trkpt>
    <trkpt lat="48.436297" lon="2.704073">
      <ele>136.565</ele>
      <time>2015-12-31T11:34:31Z</time>
    </trkpt>
    <trkpt lat="48.436221" lon="2.704165">
      <ele>135.579</ele>
      <time>2015-12-31T11:34:33Z</time>
    </trkpt>
    <trkpt lat="48.436139" lon="2.704306">
      <ele>135.354</ele>
      <time>2015-12-31T11:34:35Z</time>
    </trkpt>
    <trkpt lat="48.436099" lon="2.704442">
      <ele>135.808</ele>
      <time>2015-12-31T11:34:37Z</time>
    </trkpt>
    <trkpt lat="48.436067" lon="2.704582">
      <ele>136.772</ele>
      <time>2015-12-31T11:34:39Z</time>
    </trkpt>
    <trkpt lat="48.436087" lon="2.704723">
      <ele>138.572</ele>
      <time>2015-12-31T11:34:41Z</time>
    </trkpt>
    <trkpt lat="48.436087" lon="2.704865">
      <ele>139.594</ele>
      <time>2015-12-31T11:34:43Z</time>
    </trkpt>
    <trkpt lat="48.436066" lon="2.705005">
      <ele>140.191</ele>
      <time>2015-12-31T11:34:45Z</time>
    </trkpt>
    <trkpt lat="48.435975" lon="2.70513">
      <ele>138.779</ele>
      <time>2015-12-31T11:34:48Z</time>
    </trkpt>
    <trkpt lat="48.435921" lon="2.705274">
      <ele>138.253</ele>
      <time>2015-12-31T11:34:51Z</time>
    </trkpt>
    <trkpt lat="48.435814" lon="2.705374">
      <ele>137.092</ele>
      <time>2015-12-31T11:34:53Z</time>
    </trkpt>
    <trkpt lat="48.435724" lon="2.705327">
      <ele>135.673</ele>
      <time>2015-12-31T11:35:05Z</time>
    </trkpt>
    <trkpt lat="48.435738" lon="2.705162">
      <ele>135.21</ele>
      <time>2015-12-31T11:35:11Z</time>
    </trkpt>
    <trkpt lat="48.435765" lon="2.704996">
      <ele>134.987</ele>
      <time>2015-12-31T11:35:15Z</time>
    </trkpt>
    <trkpt lat="48.435816" lon="2.704849">
      <ele>134.663</ele>
      <time>2015-12-31T11:35:18Z</time>
    </trkpt>
    <trkpt lat="48.435845" lon="2.704684">
      <ele>133.929</ele>
      <time>2015-12-31T11:35:24Z</time>
    </trkpt>
    <trkpt lat="48.435875" lon="2.704543">
      <ele>133.363</ele>
      <time>2015-12-31T11:35:30Z</time>
    </trkpt>
    <trkpt lat="48.435856" lon="2.704396">
      <ele>131.978</ele>
      <time>2015-12-31T11:35:36Z</time>
    </trkpt>
    <trkpt lat="48.435869" lon="2.704242">
      <ele>131.056</ele>
      <time>2015-12-31T11:35:41Z</time>
    </trkpt>
    <trkpt lat="48.435864" lon="2.704092">
      <ele>129.934</ele>
      <time>2015-12-31T11:35:46Z</time>
    </trkpt>
    <trkpt lat="48.435888" lon="2.703956">
      <ele>129.42</ele>
      <time>2015-12-31T11:35:49Z</time>
    </trkpt>
    <trkpt lat="48.435918" lon="2.703811">
      <ele>129.244</ele>
      <time>2015-12-31T11:35:54Z</time>
    </trkpt>
    <trkpt lat="48.435965" lon="2.703683">
      <ele>129.629</ele>
      <time>2015-12-31T11:35:59Z</time>
    </trkpt>
    <trkpt lat="48.436023" lon="2.703542">
      <ele>130.086</ele>
      <time>2015-12-31T11:36:04Z</time>
    </trkpt>
    <trkpt lat="48.435999" lon="2.703399">
      <ele>128.91</ele>
      <time>2015-12-31T11:36:13Z</time>
    </trkpt>
    <trkpt lat="48.43606" lon="2.703261">
      <ele>129.588</ele>
      <time>2015-12-31T11:36:18Z</time>
    </trkpt>
    <trkpt lat="48.436107" lon="2.703096">
      <ele>130.044</ele>
      <time>2015-12-31T11:36:22Z</time>
    </trkpt>
    <trkpt lat="48.436127" lon="2.702953">
      <ele>129.662</ele>
      <time>2015-12-31T11:36:26Z</time>
    </trkpt>
    <trkpt lat="48.436192" lon="2.702814">
      <ele>130.299</ele>
      <time>2015-12-31T11:36:30Z</time>
    </trkpt>
    <trkpt lat="48.436234" lon="2.702692">
      <ele>130.206</ele>
      <time>2015-12-31T11:36:41Z</time>
    </trkpt>
    <trkpt lat="48.436267" lon="2.702542">
      <ele>129.278</ele>
      <time>2015-12-31T11:36:54Z</time>
    </trkpt>
    <trkpt lat="48.436314" lon="2.702402">
      <ele>128.594</ele>
      <time>2015-12-31T11:36:59Z</time>
    </trkpt>
    <trkpt lat="48.436298" lon="2.702257">
      <ele>126.74</ele>
      <time>2015-12-31T11:37:02Z</time>
    </trkpt>
    <trkpt lat="48.436342" lon="2.702134">
      <ele>126.257</ele>
      <time>2015-12-31T11:37:08Z</time>
    </trkpt>
    <trkpt lat="48.436385" lon="2.702001">
      <ele>125.552</ele>
      <time>2015-12-31T11:37:18Z</time>
    </trkpt>
    <trkpt lat="48.436473" lon="2.701935">
      <ele>126.378</ele>
      <time>2015-12-31T11:37:55Z</time>
    </trkpt>
    <trkpt lat="48.436519" lon="2.701808">
      <ele>125.377</ele>
      <time>2015-12-31T11:38:05Z</time>
    </trkpt>
    <trkpt lat="48.436543" lon="2.701649">
      <ele>123.484</ele>
      <time>2015-12-31T11:38:28Z</time>
    </trkpt>
    <trkpt lat="48.436551" lon="2.701513">
      <ele>121.382</ele>
      <time>2015-12-31T11:38:43Z</time>
    </trkpt>
    <trkpt lat="48.436511" lon="2.701365">
      <ele>118.538</ele>
      <time>2015-12-31T11:38:55Z</time>
    </trkpt>
    <trkpt lat="48.436488" lon="2.701214">
      <ele>116.763</ele>
      <time>2015-12-31T11:39:02Z</time>
    </trkpt>
    <trkpt lat="48.43642" lon="2.70108">
      <ele>114.435</ele>
      <time>2015-12-31T11:39:07Z</time>
    </trkpt>
    <trkpt lat="48.436315" lon="2.700996">
      <ele>113.586</ele>
      <time>2015-12-31T11:39:10Z</time>
    </trkpt>
    <trkpt lat="48.436222" lon="2.700907">
      <ele>113.265</ele>
      <time>2015-12-31T11:39:13Z</time>
    </trkpt>
    <trkpt lat="48.436127" lon="2.700802">
      <ele>112.894</ele>
      <time>2015-12-31T11:39:16Z</time>
    </trkpt>
    <trkpt lat="48.436012" lon="2.700709">
      <ele>113.106</ele>
      <time>2015-12-31T11:39:19Z</time>
    </trkpt>
    <trkpt lat="48.435932" lon="2.70063">
      <ele>113.086</ele>
      <time>2015-12-31T11:39:22Z</time>
    </trkpt>
    <trkpt lat="48.435823" lon="2.700615">
      <ele>113.428</ele>
      <time>2015-12-31T11:39:26Z</time>
    </trkpt>
    <trkpt lat="48.435851" lon="2.700446">
      <ele>112.173</ele>
      <time>2015-12-31T11:39:44Z</time>
    </trkpt>
    <trkpt lat="48.435884" lon="2.700271">
      <ele>110.956</ele>
      <time>2015-12-31T11:39:47Z</time>
    </trkpt>
    <trkpt lat="48.435885" lon="2.700086">
      <ele>109.748</ele>
      <time>2015-12-31T11:39:50Z</time>
    </trkpt>
    <trkpt lat="48.435901" lon="2.699909">
      <ele>108.836</ele>
      <time>2015-12-31T11:39:53Z</time>
    </trkpt>
    <trkpt lat="48.435917" lon="2.699734">
      <ele>108.055</ele>
      <time>2015-12-31T11:39:56Z</time>
    </trkpt>
    <trkpt lat="48.435955" lon="2.699543">
      <ele>106.992</ele>
      <time>2015-12-31T11:39:59Z</time>
    </trkpt>
    <trkpt lat="48.435983" lon="2.699388">
      <ele>106.336</ele>
      <time>2015-12-31T11:40:01Z</time>
    </trkpt>
    <trkpt lat="48.43601" lon="2.699244">
      <ele>105.914</ele>
      <time>2015-12-31T11:40:03Z</time>
    </trkpt>
    <trkpt lat="48.436033" lon="2.699106">
      <ele>105.876</ele>
      <time>2015-12-31T11:40:05Z</time>
    </trkpt>
    <trkpt lat="48.436108" lon="2.698923">
      <ele>106.856</ele>
      <time>2015-12-31T11:40:08Z</time>
    </trkpt>
    <trkpt lat="48.436136" lon="2.698752">
      <ele>106.731</ele>
      <time>2015-12-31T11:40:11Z</time>
    </trkpt>
    <trkpt lat="48.436163" lon="2.698583">
      <ele>106.44</ele>
      <time>2015-12-31T11:40:14Z</time>
    </trkpt>
    <trkpt lat="48.436172" lon="2.698439">
      <ele>105.902</ele>
      <time>2015-12-31T11:40:16Z</time>
    </trkpt>
    <trkpt lat="48.436165" lon="2.698258">
      <ele>105.064</ele>
      <time>2015-12-31T11:40:19Z</time>
    </trkpt>
    <trkpt lat="48.43619" lon="2.698119">
      <ele>104.577</ele>
      <time>2015-12-31T11:40:21Z</time>
    </trkpt>
    <trkpt lat="48.436223" lon="2.697978">
      <ele>103.844</ele>
      <time>2015-12-31T11:40:23Z</time>
    </trkpt>
    <trkpt lat="48.43626" lon="2.697808">
      <ele>102.754</ele>
      <time>2015-12-31T11:40:26Z</time>
    </trkpt>
    <trkpt lat="48.43631" lon="2.697651">
      <ele>101.803</ele>
      <time>2015-12-31T11:40:29Z</time>
    </trkpt>
    <trkpt lat="48.43632" lon="2.697479">
      <ele>100.676</ele>
      <time>2015-12-31T11:40:31Z</time>
    </trkpt>
    <trkpt lat="48.436361" lon="2.697329">
      <ele>100.284</ele>
      <time>2015-12-31T11:40:34Z</time>
    </trkpt>
    <trkpt lat="48.436381" lon="2.697197">
      <ele>99.881</ele>
      <time>2015-12-31T11:40:36Z</time>
    </trkpt>
    <trkpt lat="48.436413" lon="2.697009">
      <ele>99.299</ele>
      <time>2015-12-31T11:40:39Z</time>
    </trkpt>
    <trkpt lat="48.436449" lon="2.696817">
      <ele>99.415</ele>
      <time>2015-12-31T11:40:42Z</time>
    </trkpt>
    <trkpt lat="48.436477" lon="2.696661">
      <ele>99.952</ele>
      <time>2015-12-31T11:40:44Z</time>
    </trkpt>
    <trkpt lat="48.436498" lon="2.696527">
      <ele>100.178</ele>
      <time>2015-12-31T11:40:46Z</time>
    </trkpt>
    <trkpt lat="48.436534" lon="2.696344">
      <ele>100.567</ele>
      <time>2015-12-31T11:40:49Z</time>
    </trkpt>
    <trkpt lat="48.436567" lon="2.696137">
      <ele>100.924</ele>
      <time>2015-12-31T11:40:52Z</time>
    </trkpt>
    <trkpt lat="48.436593" lon="2.695997">
      <ele>100.903</ele>
      <time>2015-12-31T11:40:54Z</time>
    </trkpt>
    <trkpt lat="48.436623" lon="2.695853">
      <ele>100.745</ele>
      <time>2015-12-31T11:40:56Z</time>
    </trkpt>
    <trkpt lat="48.436639" lon="2.695711">
      <ele>100.404</ele>
      <time>2015-12-31T11:40:58Z</time>
    </trkpt>
    <trkpt lat="48.436689" lon="2.695536">
      <ele>100.075</ele>
      <time>2015-12-31T11:41:01Z</time>
    </trkpt>
    <trkpt lat="48.436708" lon="2.695333">
      <ele>100.03</ele>
      <time>2015-12-31T11:41:04Z</time>
    </trkpt>
    <trkpt lat="48.436745" lon="2.695189">
      <ele>99.68</ele>
      <time>2015-12-31T11:41:06Z</time>
    </trkpt>
    <trkpt lat="48.436774" lon="2.695056">
      <ele>99.202</ele>
      <time>2015-12-31T11:41:08Z</time>
    </trkpt>
    <trkpt lat="48.436808" lon="2.694905">
      <ele>98.658</ele>
      <time>2015-12-31T11:41:10Z</time>
    </trkpt>
    <trkpt lat="48.43684" lon="2.694731">
      <ele>98.032</ele>
      <time>2015-12-31T11:41:12Z</time>
    </trkpt>
    <trkpt lat="48.436845" lon="2.694577">
      <ele>97.664</ele>
      <time>2015-12-31T11:41:14Z</time>
    </trkpt>
    <trkpt lat="48.436893" lon="2.6944">
      <ele>97.156</ele>
      <time>2015-12-31T11:41:16Z</time>
    </trkpt>
    <trkpt lat="48.436939" lon="2.694273">
      <ele>97.008</ele>
      <time>2015-12-31T11:41:18Z</time>
    </trkpt>
    <trkpt lat="48.43697" lon="2.694111">
      <ele>96.982</ele>
      <time>2015-12-31T11:41:20Z</time>
    </trkpt>
    <trkpt lat="48.437011" lon="2.693951">
      <ele>96.814</ele>
      <time>2015-12-31T11:41:22Z</time>
    </trkpt>
    <trkpt lat="48.437014" lon="2.693796">
      <ele>96.499</ele>
      <time>2015-12-31T11:41:24Z</time>
    </trkpt>
    <trkpt lat="48.437058" lon="2.693619">
      <ele>96.017</ele>
      <time>2015-12-31T11:41:26Z</time>
    </trkpt>
    <trkpt lat="48.43707" lon="2.693459">
      <ele>96.0</ele>
      <time>2015-12-31T11:41:28Z</time>
    </trkpt>
    <trkpt lat="48.437076" lon="2.693314">
      <ele>96.033</ele>
      <time>2015-12-31T11:41:30Z</time>
    </trkpt>
    <trkpt lat="48.43712" lon="2.693174">
      <ele>96.363</ele>
      <time>2015-12-31T11:41:32Z</time>
    </trkpt>
    <trkpt lat="48.437153" lon="2.692983">
      <ele>96.751</ele>
      <time>2015-12-31T11:41:35Z</time>
    </trkpt>
    <trkpt lat="48.437192" lon="2.692805">
      <ele>96.891</ele>
      <time>2015-12-31T11:41:38Z</time>
    </trkpt>
    <trkpt lat="48.437239" lon="2.692686">
      <ele>96.831</ele>
      <time>2015-12-31T11:41:40Z</time>
    </trkpt>
    <trkpt lat="48.437269" lon="2.692557">
      <ele>96.577</ele>
      <time>2015-12-31T11:41:44Z</time>
    </trkpt>
    <trkpt lat="48.437259" lon="2.692401">
      <ele>95.861</ele>
      <time>2015-12-31T11:41:50Z</time>
    </trkpt>
    <trkpt lat="48.437269" lon="2.69224">
      <ele>95.243</ele>
      <time>2015-12-31T11:41:55Z</time>
    </trkpt>
    <trkpt lat="48.437336" lon="2.692128">
      <ele>94.931</ele>
      <time>2015-12-31T11:41:58Z</time>
    </trkpt>
    <trkpt lat="48.43741" lon="2.692021">
      <ele>94.462</ele>
      <time>2015-12-31T11:42:01Z</time>
    </trkpt>
    <trkpt lat="48.437502" lon="2.691878">
      <ele>93.998</ele>
      <time>2015-12-31T11:42:04Z</time>
    </trkpt>
    <trkpt lat="48.437559" lon="2.69177">
      <ele>93.867</ele>
      <time>2015-12-31T11:42:06Z</time>
    </trkpt>
    <trkpt lat="48.437624" lon="2.691651">
      <ele>93.554</ele>
      <time>2015-12-31T11:42:08Z</time>
    </trkpt>
    <trkpt lat="48.437722" lon="2.691507">
      <ele>93.201</ele>
      <time>2015-12-31T11:42:11Z</time>
    </trkpt>
    <trkpt lat="48.437826" lon="2.691401">
      <ele>92.487</ele>
      <time>2015-12-31T11:42:14Z</time>
    </trkpt>
    <trkpt lat="48.43792" lon="2.691293">
      <ele>91.641</ele>
      <time>2015-12-31T11:42:17Z</time>
    </trkpt>
    <trkpt lat="48.438024" lon="2.691193">
      <ele>90.966</ele>
      <time>2015-12-31T11:42:20Z</time>
    </trkpt>
    <trkpt lat="48.438145" lon="2.691107">
      <ele>90.683</ele>
      <time>2015-12-31T11:42:23Z</time>
    </trkpt>
    <trkpt lat="48.43825" lon="2.691">
      <ele>90.58</ele>
      <time>2015-12-31T11:42:26Z</time>
    </trkpt>
    <trkpt lat="48.438365" lon="2.690918">
      <ele>90.774</ele>
      <time>2015-12-31T11:42:29Z</time>
    </trkpt>
    <trkpt lat="48.438491" lon="2.690844">
      <ele>91.507</ele>
      <time>2015-12-31T11:42:32Z</time>
    </trkpt>
    <trkpt lat="48.438608" lon="2.690775">
      <ele>91.991</ele>
      <time>2015-12-31T11:42:35Z</time>
    </trkpt>
    <trkpt lat="48.438723" lon="2.690711">
      <ele>91.017</ele>
      <time>2015-12-31T11:42:38Z</time>
    </trkpt>
    <trkpt lat="48.438838" lon="2.690657">
      <ele>89.848</ele>
      <time>2015-12-31T11:42:41Z</time>
    </trkpt>
    <trkpt lat="48.438962" lon="2.690593">
      <ele>88.836</ele>
      <time>2015-12-31T11:42:44Z</time>
    </trkpt>
    <trkpt lat="48.43909" lon="2.690562">
      <ele>88.282</ele>
      <time>2015-12-31T11:42:47Z</time>
    </trkpt>
    <trkpt lat="48.439201" lon="2.690533">
      <ele>87.682</ele>
      <time>2015-12-31T11:42:50Z</time>
    </trkpt>
    <trkpt lat="48.439318" lon="2.690497">
      <ele>86.814</ele>
      <time>2015-12-31T11:42:53Z</time>
    </trkpt>
    <trkpt lat="48.439423" lon="2.690486">
      <ele>86.135</ele>
      <time>2015-12-31T11:42:56Z</time>
    </trkpt>
    <trkpt lat="48.439535" lon="2.690456">
      <ele>86.117</ele>
      <time>2015-12-31T11:42:59Z</time>
    </trkpt>
    <trkpt lat="48.439629" lon="2.690446">
      <ele>86.262</ele>
      <time>2015-12-31T11:43:02Z</time>
    </trkpt>
    <trkpt lat="48.439703" lon="2.69035">
      <ele>86.689</ele>
      <time>2015-12-31T11:43:12Z</time>
    </trkpt>
    <trkpt lat="48.439648" lon="2.690216">
      <ele>86.955</ele>
      <time>2015-12-31T11:43:16Z</time>
    </trkpt>
    <trkpt lat="48.439563" lon="2.690133">
      <ele>86.948</ele>
      <time>2015-12-31T11:43:20Z</time>
    </trkpt>
    <trkpt lat="48.439486" lon="2.690058">
      <ele>86.941</ele>
      <time>2015-12-31T11:43:23Z</time>
    </trkpt>
    <trkpt lat="48.43942" lon="2.689956">
      <ele>86.926</ele>
      <time>2015-12-31T11:43:26Z</time>
    </trkpt>
    <trkpt lat="48.439421" lon="2.68982">
      <ele>86.97</ele>
      <time>2015-12-31T11:43:29Z</time>
    </trkpt>
    <trkpt lat="48.439522" lon="2.689742">
      <ele>87.279</ele>
      <time>2015-12-31T11:43:32Z</time>
    </trkpt>
    <trkpt lat="48.439628" lon="2.68973">
      <ele>87.661</ele>
      <time>2015-12-31T11:43:35Z</time>
    </trkpt>
    <trkpt lat="48.439745" lon="2.689756">
      <ele>88.072</ele>
      <time>2015-12-31T11:43:38Z</time>
    </trkpt>
    <trkpt lat="48.439868" lon="2.689769">
      <ele>88.436</ele>
      <time>2015-12-31T11:43:41Z</time>
    </trkpt>
    <trkpt lat="48.439989" lon="2.689767">
      <ele>88.806</ele>
      <time>2015-12-31T11:43:44Z</time>
    </trkpt>
    <trkpt lat="48.440096" lon="2.689757">
      <ele>88.184</ele>
      <time>2015-12-31T11:43:47Z</time>
    </trkpt>
    <trkpt lat="48.44022" lon="2.689751">
      <ele>87.312</ele>
      <time>2015-12-31T11:43:50Z</time>
    </trkpt>
    <trkpt lat="48.440318" lon="2.689722">
      <ele>86.711</ele>
      <time>2015-12-31T11:43:52Z</time>
    </trkpt>
    <trkpt lat="48.440426" lon="2.689719">
      <ele>85.944</ele>
      <time>2015-12-31T11:43:54Z</time>
    </trkpt>
    <trkpt lat="48.440517" lon="2.689703">
      <ele>85.347</ele>
      <time>2015-12-31T11:43:56Z</time>
    </trkpt>
    <trkpt lat="48.440646" lon="2.689683">
      <ele>85.792</ele>
      <time>2015-12-31T11:43:59Z</time>
    </trkpt>
    <trkpt lat="48.440745" lon="2.689673">
      <ele>86.541</ele>
      <time>2015-12-31T11:44:01Z</time>
    </trkpt>
    <trkpt lat="48.440839" lon="2.689648">
      <ele>87.267</ele>
      <time>2015-12-31T11:44:03Z</time>
    </trkpt>
    <trkpt lat="48.440964" lon="2.689632">
      <ele>87.325</ele>
      <time>2015-12-31T11:44:06Z</time>
    </trkpt>
    <trkpt lat="48.441089" lon="2.689602">
      <ele>87.433</ele>
      <time>2015-12-31T11:44:09Z</time>
    </trkpt>
    <trkpt lat="48.441208" lon="2.6896">
      <ele>87.091</ele>
      <time>2015-12-31T11:44:12Z</time>
    </trkpt>
    <trkpt lat="48.441286" lon="2.689456">
      <ele>87.329</ele>
      <time>2015-12-31T11:44:15Z</time>
    </trkpt>
    <trkpt lat="48.441286" lon="2.689293">
      <ele>88.259</ele>
      <time>2015-12-31T11:44:18Z</time>
    </trkpt>
    <trkpt lat="48.441236" lon="2.689159">
      <ele>89.043</ele>
      <time>2015-12-31T11:44:21Z</time>
    </trkpt>
    <trkpt lat="48.441288" lon="2.68901">
      <ele>89.769</ele>
      <time>2015-12-31T11:44:24Z</time>
    </trkpt>
    <trkpt lat="48.441321" lon="2.688843">
      <ele>90.534</ele>
      <time>2015-12-31T11:44:28Z</time>
    </trkpt>
    <trkpt lat="48.441403" lon="2.688749">
      <ele>91.007</ele>
      <time>2015-12-31T11:44:32Z</time>
    </trkpt>
    <trkpt lat="48.441491" lon="2.688654">
      <ele>91.691</ele>
      <time>2015-12-31T11:44:36Z</time>
    </trkpt>
    <trkpt lat="48.441589" lon="2.688564">
      <ele>92.17</ele>
      <time>2015-12-31T11:44:39Z</time>
    </trkpt>
    <trkpt lat="48.44167" lon="2.688417">
      <ele>92.683</ele>
      <time>2015-12-31T11:44:42Z</time>
    </trkpt>
    <trkpt lat="48.44177" lon="2.688307">
      <ele>92.758</ele>
      <time>2015-12-31T11:44:45Z</time>
    </trkpt>
    <trkpt lat="48.441809" lon="2.688171">
      <ele>93.371</ele>
      <time>2015-12-31T11:44:48Z</time>
    </trkpt>
    <trkpt lat="48.441828" lon="2.68802">
      <ele>94.182</ele>
      <time>2015-12-31T11:44:51Z</time>
    </trkpt>
    <trkpt lat="48.441849" lon="2.687888">
      <ele>94.81</ele>
      <time>2015-12-31T11:44:53Z</time>
    </trkpt>
    <trkpt lat="48.441858" lon="2.687726">
      <ele>95.556</ele>
      <time>2015-12-31T11:44:57Z</time>
    </trkpt>
    <trkpt lat="48.441894" lon="2.687589">
      <ele>95.985</ele>
      <time>2015-12-31T11:45:00Z</time>
    </trkpt>
    <trkpt lat="48.441936" lon="2.687438">
      <ele>96.507</ele>
      <time>2015-12-31T11:45:03Z</time>
    </trkpt>
    <trkpt lat="48.441996" lon="2.687288">
      <ele>97.199</ele>
      <time>2015-12-31T11:45:06Z</time>
    </trkpt>
    <trkpt lat="48.442038" lon="2.687118">
      <ele>98.077</ele>
      <time>2015-12-31T11:45:10Z</time>
    </trkpt>
    <trkpt lat="48.442075" lon="2.686966">
      <ele>98.905</ele>
      <time>2015-12-31T11:45:14Z</time>
    </trkpt>
    <trkpt lat="48.442109" lon="2.686828">
      <ele>99.405</ele>
      <time>2015-12-31T11:45:17Z</time>
    </trkpt>
    <trkpt lat="48.442109" lon="2.686682">
      <ele>100.145</ele>
      <time>2015-12-31T11:45:21Z</time>
    </trkpt>
    <trkpt lat="48.44213" lon="2.686549">
      <ele>100.279</ele>
      <time>2015-12-31T11:45:25Z</time>
    </trkpt>
    <trkpt lat="48.442151" lon="2.686415">
      <ele>100.443</ele>
      <time>2015-12-31T11:45:29Z</time>
    </trkpt>
    <trkpt lat="48.442179" lon="2.686239">
      <ele>100.311</ele>
      <time>2015-12-31T11:45:33Z</time>
    </trkpt>
    <trkpt lat="48.442221" lon="2.686098">
      <ele>100.009</ele>
      <time>2015-12-31T11:45:37Z</time>
    </trkpt>
    <trkpt lat="48.442271" lon="2.685969">
      <ele>99.914</ele>
      <time>2015-12-31T11:45:41Z</time>
    </trkpt>
    <trkpt lat="48.442347" lon="2.685895">
      <ele>99.9</ele>
      <time>2015-12-31T11:45:45Z</time>
    </trkpt>
    <trkpt lat="48.442429" lon="2.685815">
      <ele>100.083</ele>
      <time>2015-12-31T11:45:49Z</time>
    </trkpt>
    <trkpt lat="48.442514" lon="2.685691">
      <ele>100.387</ele>
      <time>2015-12-31T11:45:54Z</time>
    </trkpt>
    <trkpt lat="48.442591" lon="2.685566">
      <ele>100.295</ele>
      <time>2015-12-31T11:45:59Z</time>
    </trkpt>
    <trkpt lat="48.442675" lon="2.685492">
      <ele>100.113</ele>
      <time>2015-12-31T11:46:04Z</time>
    </trkpt>
    <trkpt lat="48.442765" lon="2.685389">
      <ele>100.264</ele>
      <time>2015-12-31T11:46:11Z</time>
    </trkpt>
    <trkpt lat="48.442856" lon="2.6853">
      <ele>100.254</ele>
      <time>2015-12-31T11:46:14Z</time>
    </trkpt>
    <trkpt lat="48.442947" lon="2.685298">
      <ele>99.592</ele>
      <time>2015-12-31T11:46:16Z</time>
    </trkpt>
    <trkpt lat="48.443083" lon="2.685296">
      <ele>98.612</ele>
      <time>2015-12-31T11:46:19Z</time>
    </trkpt>
    <trkpt lat="48.443207" lon="2.685285">
      <ele>97.846</ele>
      <time>2015-12-31T11:46:21Z</time>
    </trkpt>
    <trkpt lat="48.443319" lon="2.685283">
      <ele>97.065</ele>
      <time>2015-12-31T11:46:23Z</time>
    </trkpt>
    <trkpt lat="48.443418" lon="2.685262">
      <ele>96.752</ele>
      <time>2015-12-31T11:46:25Z</time>
    </trkpt>
    <trkpt lat="48.443445" lon="2.685411">
      <ele>95.639</ele>
      <time>2015-12-31T11:46:36Z</time>
    </trkpt>
    <trkpt lat="48.443547" lon="2.685414">
      <ele>95.25</ele>
      <time>2015-12-31T11:46:40Z</time>
    </trkpt>
    <trkpt lat="48.443659" lon="2.685412">
      <ele>95.028</ele>
      <time>2015-12-31T11:46:46Z</time>
    </trkpt>
    <trkpt lat="48.443761" lon="2.685438">
      <ele>94.929</ele>
      <time>2015-12-31T11:46:54Z</time>
    </trkpt>
    <trkpt lat="48.443845" lon="2.685369">
      <ele>95.054</ele>
      <time>2015-12-31T11:46:58Z</time>
    </trkpt>
    <trkpt lat="48.443899" lon="2.685258">
      <ele>95.249</ele>
      <time>2015-12-31T11:47:05Z</time>
    </trkpt>
    <trkpt lat="48.443982" lon="2.685192">
      <ele>96.52</ele>
      <time>2015-12-31T11:47:09Z</time>
    </trkpt>
    <trkpt lat="48.444087" lon="2.685168">
      <ele>97.648</ele>
      <time>2015-12-31T11:47:12Z</time>
    </trkpt>
    <trkpt lat="48.444178" lon="2.685113">
      <ele>98.675</ele>
      <time>2015-12-31T11:47:15Z</time>
    </trkpt>
    <trkpt lat="48.444284" lon="2.685108">
      <ele>99.456</ele>
      <time>2015-12-31T11:47:19Z</time>
    </trkpt>
    <trkpt lat="48.444388" lon="2.685085">
      <ele>100.288</ele>
      <time>2015-12-31T11:47:23Z</time>
    </trkpt>
    <trkpt lat="48.444488" lon="2.685107">
      <ele>100.711</ele>
      <time>2015-12-31T11:47:28Z</time>
    </trkpt>
    <trkpt lat="48.444598" lon="2.685171">
      <ele>100.597</ele>
      <time>2015-12-31T11:47:32Z</time>
    </trkpt>
    <trkpt lat="48.444703" lon="2.685193">
      <ele>100.589</ele>
      <time>2015-12-31T11:47:38Z</time>
    </trkpt>
    <trkpt lat="48.444793" lon="2.685187">
      <ele>100.654</ele>
      <time>2015-12-31T11:48:01Z</time>
    </trkpt>
    <trkpt lat="48.44488" lon="2.68529">
      <ele>99.956</ele>
      <time>2015-12-31T11:48:07Z</time>
    </trkpt>
    <trkpt lat="48.444972" lon="2.685391">
      <ele>99.592</ele>
      <time>2015-12-31T11:48:10Z</time>
    </trkpt>
    <trkpt lat="48.445089" lon="2.685485">
      <ele>98.776</ele>
      <time>2015-12-31T11:48:13Z</time>
    </trkpt>
    <trkpt lat="48.445207" lon="2.685582">
      <ele>97.39</ele>
      <time>2015-12-31T11:48:15Z</time>
    </trkpt>
    <trkpt lat="48.445304" lon="2.685681">
      <ele>96.506</ele>
      <time>2015-12-31T11:48:17Z</time>
    </trkpt>
    <trkpt lat="48.445378" lon="2.685802">
      <ele>95.793</ele>
      <time>2015-12-31T11:48:20Z</time>
    </trkpt>
    <trkpt lat="48.445473" lon="2.685892">
      <ele>95.086</ele>
      <time>2015-12-31T11:48:22Z</time>
    </trkpt>
    <trkpt lat="48.445572" lon="2.685989">
      <ele>94.499</ele>
      <time>2015-12-31T11:48:25Z</time>
    </trkpt>
    <trkpt lat="48.445663" lon="2.686116">
      <ele>94.369</ele>
      <time>2015-12-31T11:48:28Z</time>
    </trkpt>
    <trkpt lat="48.445786" lon="2.686237">
      <ele>94.376</ele>
      <time>2015-12-31T11:48:30Z</time>
    </trkpt>
    <trkpt lat="48.445895" lon="2.686325">
      <ele>94.674</ele>
      <time>2015-12-31T11:48:32Z</time>
    </trkpt>
    <trkpt lat="48.44598" lon="2.686405">
      <ele>95.056</ele>
      <time>2015-12-31T11:48:34Z</time>
    </trkpt>
    <trkpt lat="48.446067" lon="2.686513">
      <ele>95.682</ele>
      <time>2015-12-31T11:48:37Z</time>
    </trkpt>
    <trkpt lat="48.446136" lon="2.686623">
      <ele>96.193</ele>
      <time>2015-12-31T11:48:41Z</time>
    </trkpt>
    <trkpt lat="48.446216" lon="2.686698">
      <ele>96.713</ele>
      <time>2015-12-31T11:48:43Z</time>
    </trkpt>
    <trkpt lat="48.446317" lon="2.686799">
      <ele>97.129</ele>
      <time>2015-12-31T11:48:45Z</time>
    </trkpt>
    <trkpt lat="48.446422" lon="2.68689">
      <ele>97.339</ele>
      <time>2015-12-31T11:48:47Z</time>
    </trkpt>
    <trkpt lat="48.446513" lon="2.687">
      <ele>97.247</ele>
      <time>2015-12-31T11:48:50Z</time>
    </trkpt>
    <trkpt lat="48.446597" lon="2.687079">
      <ele>97.265</ele>
      <time>2015-12-31T11:48:52Z</time>
    </trkpt>
    <trkpt lat="48.44669" lon="2.687171">
      <ele>97.352</ele>
      <time>2015-12-31T11:48:54Z</time>
    </trkpt>
    <trkpt lat="48.446779" lon="2.687231">
      <ele>97.764</ele>
      <time>2015-12-31T11:48:56Z</time>
    </trkpt>
    <trkpt lat="48.446876" lon="2.687333">
      <ele>97.808</ele>
      <time>2015-12-31T11:48:59Z</time>
    </trkpt>
    <trkpt lat="48.446981" lon="2.687445">
      <ele>97.528</ele>
      <time>2015-12-31T11:49:01Z</time>
    </trkpt>
    <trkpt lat="48.447103" lon="2.687565">
      <ele>96.836</ele>
      <time>2015-12-31T11:49:03Z</time>
    </trkpt>
    <trkpt lat="48.447192" lon="2.687654">
      <ele>95.794</ele>
      <time>2015-12-31T11:49:05Z</time>
    </trkpt>
    <trkpt lat="48.447343" lon="2.687723">
      <ele>94.789</ele>
      <time>2015-12-31T11:49:07Z</time>
    </trkpt>
    <trkpt lat="48.44742" lon="2.687855">
      <ele>93.166</ele>
      <time>2015-12-31T11:49:10Z</time>
    </trkpt>
    <trkpt lat="48.447501" lon="2.687951">
      <ele>92.135</ele>
      <time>2015-12-31T11:49:13Z</time>
    </trkpt>
    <trkpt lat="48.44761" lon="2.687999">
      <ele>92.322</ele>
      <time>2015-12-31T11:49:16Z</time>
    </trkpt>
    <trkpt lat="48.44771" lon="2.687942">
      <ele>93.429</ele>
      <time>2015-12-31T11:49:18Z</time>
    </trkpt>
    <trkpt lat="48.447802" lon="2.687904">
      <ele>94.305</ele>
      <time>2015-12-31T11:49:21Z</time>
    </trkpt>
    <trkpt lat="48.447902" lon="2.687817">
      <ele>95.675</ele>
      <time>2015-12-31T11:49:24Z</time>
    </trkpt>
    <trkpt lat="48.447991" lon="2.68774">
      <ele>96.839</ele>
      <time>2015-12-31T11:49:27Z</time>
    </trkpt>
    <trkpt lat="48.448072" lon="2.687634">
      <ele>98.064</ele>
      <time>2015-12-31T11:49:31Z</time>
    </trkpt>
    <trkpt lat="48.448148" lon="2.687528">
      <ele>98.832</ele>
      <time>2015-12-31T11:49:35Z</time>
    </trkpt>
    <trkpt lat="48.448234" lon="2.687414">
      <ele>99.31</ele>
      <time>2015-12-31T11:49:39Z</time>
    </trkpt>
    <trkpt lat="48.448324" lon="2.687323">
      <ele>99.637</ele>
      <time>2015-12-31T11:49:43Z</time>
    </trkpt>
    <trkpt lat="48.448418" lon="2.687245">
      <ele>99.638</ele>
      <time>2015-12-31T11:49:49Z</time>
    </trkpt>
    <trkpt lat="48.448504" lon="2.687152">
      <ele>99.638</ele>
      <time>2015-12-31T11:49:53Z</time>
    </trkpt>
    <trkpt lat="48.448566" lon="2.687034">
      <ele>99.84</ele>
      <time>2015-12-31T11:49:59Z</time>
    </trkpt>
    <trkpt lat="48.44863" lon="2.686911">
      <ele>100.369</ele>
      <time>2015-12-31T11:50:05Z</time>
    </trkpt>
    <trkpt lat="48.448721" lon="2.686857">
      <ele>101.296</ele>
      <time>2015-12-31T11:50:10Z</time>
    </trkpt>
    <trkpt lat="48.448801" lon="2.686763">
      <ele>102.227</ele>
      <time>2015-12-31T11:50:17Z</time>
    </trkpt>
    <trkpt lat="48.448899" lon="2.686652">
      <ele>103.136</ele>
      <time>2015-12-31T11:50:23Z</time>
    </trkpt>
    <trkpt lat="48.448987" lon="2.686535">
      <ele>103.799</ele>
      <time>2015-12-31T11:50:27Z</time>
    </trkpt>
    <trkpt lat="48.449064" lon="2.686454">
      <ele>103.714</ele>
      <time>2015-12-31T11:50:30Z</time>
    </trkpt>
    <trkpt lat="48.449159" lon="2.68635">
      <ele>103.055</ele>
      <time>2015-12-31T11:50:33Z</time>
    </trkpt>
    <trkpt lat="48.449242" lon="2.686219">
      <ele>102.186</ele>
      <time>2015-12-31T11:50:36Z</time>
    </trkpt>
    <trkpt lat="48.449354" lon="2.686095">
      <ele>100.977</ele>
      <time>2015-12-31T11:50:39Z</time>
    </trkpt>
    <trkpt lat="48.449435" lon="2.686017">
      <ele>100.102</ele>
      <time>2015-12-31T11:50:41Z</time>
    </trkpt>
    <trkpt lat="48.449517" lon="2.685912">
      <ele>99.478</ele>
      <time>2015-12-31T11:50:43Z</time>
    </trkpt>
    <trkpt lat="48.449673" lon="2.685762">
      <ele>98.566</ele>
      <time>2015-12-31T11:50:45Z</time>
    </trkpt>
    <trkpt lat="48.44979" lon="2.68565">
      <ele>98.255</ele>
      <time>2015-12-31T11:50:47Z</time>
    </trkpt>
    <trkpt lat="48.449909" lon="2.685531">
      <ele>97.744</ele>
      <time>2015-12-31T11:50:49Z</time>
    </trkpt>
    <trkpt lat="48.450008" lon="2.685395">
      <ele>97.533</ele>
      <time>2015-12-31T11:50:51Z</time>
    </trkpt>
    <trkpt lat="48.450095" lon="2.685281">
      <ele>97.308</ele>
      <time>2015-12-31T11:50:53Z</time>
    </trkpt>
    <trkpt lat="48.450176" lon="2.685183">
      <ele>96.642</ele>
      <time>2015-12-31T11:50:55Z</time>
    </trkpt>
    <trkpt lat="48.450264" lon="2.68508">
      <ele>95.458</ele>
      <time>2015-12-31T11:50:57Z</time>
    </trkpt>
    <trkpt lat="48.450332" lon="2.68497">
      <ele>94.219</ele>
      <time>2015-12-31T11:50:59Z</time>
    </trkpt>
    <trkpt lat="48.450441" lon="2.684826">
      <ele>92.65</ele>
      <time>2015-12-31T11:51:02Z</time>
    </trkpt>
    <trkpt lat="48.450561" lon="2.684744">
      <ele>91.002</ele>
      <time>2015-12-31T11:51:05Z</time>
    </trkpt>
    <trkpt lat="48.450622" lon="2.684623">
      <ele>91.357</ele>
      <time>2015-12-31T11:51:08Z</time>
    </trkpt>
    <trkpt lat="48.450687" lon="2.684515">
      <ele>91.746</ele>
      <time>2015-12-31T11:51:12Z</time>
    </trkpt>
    <trkpt lat="48.450777" lon="2.68439">
      <ele>92.196</ele>
      <time>2015-12-31T11:51:15Z</time>
    </trkpt>
    <trkpt lat="48.450875" lon="2.684293">
      <ele>92.845</ele>
      <time>2015-12-31T11:51:18Z</time>
    </trkpt>
    <trkpt lat="48.450954" lon="2.684178">
      <ele>93.828</ele>
      <time>2015-12-31T11:51:22Z</time>
    </trkpt>
    <trkpt lat="48.451031" lon="2.684099">
      <ele>94.667</ele>
      <time>2015-12-31T11:51:25Z</time>
    </trkpt>
    <trkpt lat="48.451113" lon="2.684003">
      <ele>95.592</ele>
      <time>2015-12-31T11:51:29Z</time>
    </trkpt>
    <trkpt lat="48.451191" lon="2.683909">
      <ele>95.948</ele>
      <time>2015-12-31T11:51:33Z</time>
    </trkpt>
    <trkpt lat="48.451272" lon="2.683806">
      <ele>96.173</ele>
      <time>2015-12-31T11:51:39Z</time>
    </trkpt>
    <trkpt lat="48.451338" lon="2.683702">
      <ele>96.55</ele>
      <time>2015-12-31T11:51:44Z</time>
    </trkpt>
    <trkpt lat="48.451424" lon="2.683644">
      <ele>96.755</ele>
      <time>2015-12-31T11:51:49Z</time>
    </trkpt>
    <trkpt lat="48.451511" lon="2.683535">
      <ele>96.801</ele>
      <time>2015-12-31T11:51:54Z</time>
    </trkpt>
    <trkpt lat="48.451606" lon="2.68345">
      <ele>97.125</ele>
      <time>2015-12-31T11:51:58Z</time>
    </trkpt>
    <trkpt lat="48.451684" lon="2.683362">
      <ele>97.856</ele>
      <time>2015-12-31T11:52:02Z</time>
    </trkpt>
    <trkpt lat="48.451758" lon="2.683277">
      <ele>98.801</ele>
      <time>2015-12-31T11:52:05Z</time>
    </trkpt>
    <trkpt lat="48.45184" lon="2.68318">
      <ele>100.072</ele>
      <time>2015-12-31T11:52:08Z</time>
    </trkpt>
    <trkpt lat="48.451924" lon="2.68307">
      <ele>101.701</ele>
      <time>2015-12-31T11:52:11Z</time>
    </trkpt>
    <trkpt lat="48.452018" lon="2.683004">
      <ele>102.587</ele>
      <time>2015-12-31T11:52:14Z</time>
    </trkpt>
    <trkpt lat="48.452134" lon="2.682913">
      <ele>103.359</ele>
      <time>2015-12-31T11:52:17Z</time>
    </trkpt>
    <trkpt lat="48.452245" lon="2.682851">
      <ele>103.676</ele>
      <time>2015-12-31T11:52:20Z</time>
    </trkpt>
    <trkpt lat="48.452361" lon="2.682778">
      <ele>103.5</ele>
      <time>2015-12-31T11:52:23Z</time>
    </trkpt>
    <trkpt lat="48.452468" lon="2.682703">
      <ele>103.115</ele>
      <time>2015-12-31T11:52:25Z</time>
    </trkpt>
    <trkpt lat="48.452584" lon="2.682633">
      <ele>102.698</ele>
      <time>2015-12-31T11:52:28Z</time>
    </trkpt>
    <trkpt lat="48.452704" lon="2.682575">
      <ele>102.266</ele>
      <time>2015-12-31T11:52:30Z</time>
    </trkpt>
    <trkpt lat="48.452788" lon="2.682503">
      <ele>101.963</ele>
      <time>2015-12-31T11:52:32Z</time>
    </trkpt>
    <trkpt lat="48.452877" lon="2.68247">
      <ele>101.751</ele>
      <time>2015-12-31T11:52:34Z</time>
    </trkpt>
    <trkpt lat="48.452975" lon="2.682427">
      <ele>101.553</ele>
      <time>2015-12-31T11:52:37Z</time>
    </trkpt>
    <trkpt lat="48.453097" lon="2.682342">
      <ele>101.335</ele>
      <time>2015-12-31T11:52:39Z</time>
    </trkpt>
    <trkpt lat="48.45323" lon="2.682274">
      <ele>100.675</ele>
      <time>2015-12-31T11:52:41Z</time>
    </trkpt>
    <trkpt lat="48.453317" lon="2.68218">
      <ele>100.27</ele>
      <time>2015-12-31T11:52:43Z</time>
    </trkpt>
    <trkpt lat="48.453417" lon="2.682082">
      <ele>100.204</ele>
      <time>2015-12-31T11:52:45Z</time>
    </trkpt>
    <trkpt lat="48.453518" lon="2.682011">
      <ele>100.096</ele>
      <time>2015-12-31T11:52:47Z</time>
    </trkpt>
    <trkpt lat="48.453604" lon="2.681949">
      <ele>100.009</ele>
      <time>2015-12-31T11:52:49Z</time>
    </trkpt>
    <trkpt lat="48.453722" lon="2.681871">
      <ele>100.159</ele>
      <time>2015-12-31T11:52:51Z</time>
    </trkpt>
    <trkpt lat="48.453825" lon="2.681814">
      <ele>100.108</ele>
      <time>2015-12-31T11:52:53Z</time>
    </trkpt>
    <trkpt lat="48.453953" lon="2.68174">
      <ele>100.0</ele>
      <time>2015-12-31T11:52:56Z</time>
    </trkpt>
    <trkpt lat="48.45406" lon="2.681704">
      <ele>100.0</ele>
      <time>2015-12-31T11:52:58Z</time>
    </trkpt>
    <trkpt lat="48.454158" lon="2.681635">
      <ele>100.0</ele>
      <time>2015-12-31T11:53:00Z</time>
    </trkpt>
    <trkpt lat="48.454261" lon="2.681551">
      <ele>100.0</ele>
      <time>2015-12-31T11:53:02Z</time>
    </trkpt>
    <trkpt lat="48.454342" lon="2.681489">
      <ele>100.0</ele>
      <time>2015-12-31T11:53:04Z</time>
    </trkpt>
    <trkpt lat="48.454453" lon="2.681434">
      <ele>99.995</ele>
      <time>2015-12-31T11:53:06Z</time>
    </trkpt>
    <trkpt lat="48.454565" lon="2.681382">
      <ele>100.0</ele>
      <time>2015-12-31T11:53:08Z</time>
    </trkpt>
    <trkpt lat="48.454682" lon="2.681324">
      <ele>100.0</ele>
      <time>2015-12-31T11:53:10Z</time>
    </trkpt>
    <trkpt lat="48.454772" lon="2.681231">
      <ele>99.743</ele>
      <time>2015-12-31T11:53:12Z</time>
    </trkpt>
    <trkpt lat="48.454916" lon="2.681158">
      <ele>99.185</ele>
      <time>2015-12-31T11:53:15Z</time>
    </trkpt>
    <trkpt lat="48.455024" lon="2.681079">
      <ele>99.202</ele>
      <time>2015-12-31T11:53:17Z</time>
    </trkpt>
    <trkpt lat="48.455125" lon="2.681043">
      <ele>99.695</ele>
      <time>2015-12-31T11:53:19Z</time>
    </trkpt>
    <trkpt lat="48.455219" lon="2.681011">
      <ele>100.149</ele>
      <time>2015-12-31T11:53:21Z</time>
    </trkpt>
    <trkpt lat="48.455328" lon="2.680981">
      <ele>100.83</ele>
      <time>2015-12-31T11:53:24Z</time>
    </trkpt>
    <trkpt lat="48.455425" lon="2.680879">
      <ele>101.896</ele>
      <time>2015-12-31T11:53:27Z</time>
    </trkpt>
    <trkpt lat="48.455492" lon="2.680783">
      <ele>102.584</ele>
      <time>2015-12-31T11:53:29Z</time>
    </trkpt>
    <trkpt lat="48.455595" lon="2.680711">
      <ele>102.921</ele>
      <time>2015-12-31T11:53:31Z</time>
    </trkpt>
    <trkpt lat="48.455695" lon="2.680666">
      <ele>102.8</ele>
      <time>2015-12-31T11:53:33Z</time>
    </trkpt>
    <trkpt lat="48.455807" lon="2.680613">
      <ele>102.813</ele>
      <time>2015-12-31T11:53:36Z</time>
    </trkpt>
    <trkpt lat="48.455927" lon="2.680527">
      <ele>102.326</ele>
      <time>2015-12-31T11:53:39Z</time>
    </trkpt>
    <trkpt lat="48.456037" lon="2.680418">
      <ele>101.534</ele>
      <time>2015-12-31T11:53:42Z</time>
    </trkpt>
    <trkpt lat="48.456163" lon="2.680368">
      <ele>100.813</ele>
      <time>2015-12-31T11:53:44Z</time>
    </trkpt>
    <trkpt lat="48.456287" lon="2.680319">
      <ele>100.367</ele>
      <time>2015-12-31T11:53:46Z</time>
    </trkpt>
    <trkpt lat="48.456387" lon="2.680213">
      <ele>99.775</ele>
      <time>2015-12-31T11:53:49Z</time>
    </trkpt>
    <trkpt lat="48.456475" lon="2.68015">
      <ele>98.753</ele>
      <time>2015-12-31T11:53:51Z</time>
    </trkpt>
    <trkpt lat="48.456588" lon="2.680117">
      <ele>97.686</ele>
      <time>2015-12-31T11:53:53Z</time>
    </trkpt>
    <trkpt lat="48.456692" lon="2.680044">
      <ele>97.0</ele>
      <time>2015-12-31T11:53:55Z</time>
    </trkpt>
    <trkpt lat="48.456794" lon="2.679981">
      <ele>97.0</ele>
      <time>2015-12-31T11:53:57Z</time>
    </trkpt>
    <trkpt lat="48.456891" lon="2.679909">
      <ele>97.0</ele>
      <time>2015-12-31T11:53:59Z</time>
    </trkpt>
    <trkpt lat="48.456985" lon="2.679858">
      <ele>97.0</ele>
      <time>2015-12-31T11:54:01Z</time>
    </trkpt>
    <trkpt lat="48.457077" lon="2.67979">
      <ele>97.0</ele>
      <time>2015-12-31T11:54:03Z</time>
    </trkpt>
    <trkpt lat="48.457181" lon="2.679744">
      <ele>97.0</ele>
      <time>2015-12-31T11:54:05Z</time>
    </trkpt>
    <trkpt lat="48.457283" lon="2.679663">
      <ele>96.781</ele>
      <time>2015-12-31T11:54:07Z</time>
    </trkpt>
    <trkpt lat="48.457389" lon="2.67962">
      <ele>96.4</ele>
      <time>2015-12-31T11:54:09Z</time>
    </trkpt>
    <trkpt lat="48.457509" lon="2.679537">
      <ele>95.946</ele>
      <time>2015-12-31T11:54:11Z</time>
    </trkpt>
    <trkpt lat="48.45761" lon="2.67946">
      <ele>95.23</ele>
      <time>2015-12-31T11:54:13Z</time>
    </trkpt>
    <trkpt lat="48.457715" lon="2.679402">
      <ele>94.452</ele>
      <time>2015-12-31T11:54:15Z</time>
    </trkpt>
    <trkpt lat="48.457813" lon="2.67933">
      <ele>94.075</ele>
      <time>2015-12-31T11:54:17Z</time>
    </trkpt>
    <trkpt lat="48.457925" lon="2.679239">
      <ele>94.138</ele>
      <time>2015-12-31T11:54:19Z</time>
    </trkpt>
    <trkpt lat="48.458029" lon="2.679195">
      <ele>94.092</ele>
      <time>2015-12-31T11:54:21Z</time>
    </trkpt>
    <trkpt lat="48.458142" lon="2.679149">
      <ele>94.0</ele>
      <time>2015-12-31T11:54:23Z</time>
    </trkpt>
    <trkpt lat="48.458249" lon="2.679068">
      <ele>94.0</ele>
      <time>2015-12-31T11:54:25Z</time>
    </trkpt>
    <trkpt lat="48.458358" lon="2.679008">
      <ele>94.038</ele>
      <time>2015-12-31T11:54:27Z</time>
    </trkpt>
    <trkpt lat="48.458473" lon="2.678904">
      <ele>94.027</ele>
      <time>2015-12-31T11:54:29Z</time>
    </trkpt>
    <trkpt lat="48.458593" lon="2.678856">
      <ele>94.118</ele>
      <time>2015-12-31T11:54:31Z</time>
    </trkpt>
    <trkpt lat="48.458728" lon="2.678765">
      <ele>95.1</ele>
      <time>2015-12-31T11:54:33Z</time>
    </trkpt>
    <trkpt lat="48.45883" lon="2.678695">
      <ele>95.724</ele>
      <time>2015-12-31T11:54:35Z</time>
    </trkpt>
    <trkpt lat="48.458952" lon="2.678613">
      <ele>96.23</ele>
      <time>2015-12-31T11:54:37Z</time>
    </trkpt>
    <trkpt lat="48.459079" lon="2.678559">
      <ele>96.556</ele>
      <time>2015-12-31T11:54:39Z</time>
    </trkpt>
    <trkpt lat="48.459173" lon="2.678483">
      <ele>96.551</ele>
      <time>2015-12-31T11:54:41Z</time>
    </trkpt>
    <trkpt lat="48.459298" lon="2.678416">
      <ele>96.438</ele>
      <time>2015-12-31T11:54:43Z</time>
    </trkpt>
    <trkpt lat="48.459416" lon="2.678345">
      <ele>96.08</ele>
      <time>2015-12-31T11:54:45Z</time>
    </trkpt>
    <trkpt lat="48.459521" lon="2.678294">
      <ele>96.039</ele>
      <time>2015-12-31T11:54:47Z</time>
    </trkpt>
    <trkpt lat="48.459634" lon="2.678249">
      <ele>96.207</ele>
      <time>2015-12-31T11:54:49Z</time>
    </trkpt>
    <trkpt lat="48.459761" lon="2.678177">
      <ele>96.345</ele>
      <time>2015-12-31T11:54:51Z</time>
    </trkpt>
    <trkpt lat="48.459856" lon="2.678138">
      <ele>95.883</ele>
      <time>2015-12-31T11:54:53Z</time>
    </trkpt>
    <trkpt lat="48.459947" lon="2.678056">
      <ele>95.381</ele>
      <time>2015-12-31T11:54:55Z</time>
    </trkpt>
    <trkpt lat="48.460031" lon="2.677985">
      <ele>95.226</ele>
      <time>2015-12-31T11:54:57Z</time>
    </trkpt>
    <trkpt lat="48.460141" lon="2.677912">
      <ele>95.254</ele>
      <time>2015-12-31T11:54:59Z</time>
    </trkpt>
    <trkpt lat="48.460256" lon="2.677847">
      <ele>95.059</ele>
      <time>2015-12-31T11:55:01Z</time>
    </trkpt>
    <trkpt lat="48.460353" lon="2.677785">
      <ele>94.465</ele>
      <time>2015-12-31T11:55:03Z</time>
    </trkpt>
    <trkpt lat="48.460462" lon="2.677724">
      <ele>93.48</ele>
      <time>2015-12-31T11:55:05Z</time>
    </trkpt>
    <trkpt lat="48.460564" lon="2.677673">
      <ele>92.592</ele>
      <time>2015-12-31T11:55:07Z</time>
    </trkpt>
    <trkpt lat="48.460663" lon="2.677571">
      <ele>91.869</ele>
      <time>2015-12-31T11:55:09Z</time>
    </trkpt>
    <trkpt lat="48.460753" lon="2.677483">
      <ele>91.289</ele>
      <time>2015-12-31T11:55:11Z</time>
    </trkpt>
    <trkpt lat="48.460856" lon="2.67741">
      <ele>91.0</ele>
      <time>2015-12-31T11:55:13Z</time>
    </trkpt>
    <trkpt lat="48.460944" lon="2.677353">
      <ele>91.0</ele>
      <time>2015-12-31T11:55:15Z</time>
    </trkpt>
    <trkpt lat="48.461057" lon="2.677281">
      <ele>91.0</ele>
      <time>2015-12-31T11:55:17Z</time>
    </trkpt>
    <trkpt lat="48.46116" lon="2.67719">
      <ele>91.272</ele>
      <time>2015-12-31T11:55:19Z</time>
    </trkpt>
    <trkpt lat="48.461267" lon="2.677108">
      <ele>91.742</ele>
      <time>2015-12-31T11:55:21Z</time>
    </trkpt>
    <trkpt lat="48.461365" lon="2.677078">
      <ele>91.959</ele>
      <time>2015-12-31T11:55:23Z</time>
    </trkpt>
    <trkpt lat="48.46146" lon="2.677033">
      <ele>92.512</ele>
      <time>2015-12-31T11:55:25Z</time>
    </trkpt>
    <trkpt lat="48.461543" lon="2.676977">
      <ele>93.11</ele>
      <time>2015-12-31T11:55:27Z</time>
    </trkpt>
    <trkpt lat="48.46162" lon="2.676897">
      <ele>93.38</ele>
      <time>2015-12-31T11:55:29Z</time>
    </trkpt>
    <trkpt lat="48.461747" lon="2.676821">
      <ele>92.951</ele>
      <time>2015-12-31T11:55:31Z</time>
    </trkpt>
    <trkpt lat="48.46184" lon="2.676724">
      <ele>92.284</ele>
      <time>2015-12-31T11:55:33Z</time>
    </trkpt>
    <trkpt lat="48.461962" lon="2.676622">
      <ele>91.625</ele>
      <time>2015-12-31T11:55:35Z</time>
    </trkpt>
    <trkpt lat="48.462094" lon="2.676594">
      <ele>91.079</ele>
      <time>2015-12-31T11:55:38Z</time>
    </trkpt>
    <trkpt lat="48.46218" lon="2.67653">
      <ele>90.585</ele>
      <time>2015-12-31T11:55:40Z</time>
    </trkpt>
    <trkpt lat="48.462285" lon="2.676438">
      <ele>89.911</ele>
      <time>2015-12-31T11:55:43Z</time>
    </trkpt>
    <trkpt lat="48.462385" lon="2.676371">
      <ele>89.285</ele>
      <time>2015-12-31T11:55:45Z</time>
    </trkpt>
    <trkpt lat="48.462491" lon="2.67633">
      <ele>88.608</ele>
      <time>2015-12-31T11:55:47Z</time>
    </trkpt>
    <trkpt lat="48.46261" lon="2.676261">
      <ele>87.47</ele>
      <time>2015-12-31T11:55:49Z</time>
    </trkpt>
    <trkpt lat="48.462725" lon="2.676185">
      <ele>86.507</ele>
      <time>2015-12-31T11:55:51Z</time>
    </trkpt>
    <trkpt lat="48.462837" lon="2.676115">
      <ele>86.011</ele>
      <time>2015-12-31T11:55:53Z</time>
    </trkpt>
    <trkpt lat="48.462948" lon="2.676036">
      <ele>86.0</ele>
      <time>2015-12-31T11:55:55Z</time>
    </trkpt>
    <trkpt lat="48.463062" lon="2.675999">
      <ele>86.033</ele>
      <time>2015-12-31T11:55:57Z</time>
    </trkpt>
    <trkpt lat="48.463175" lon="2.675919">
      <ele>86.727</ele>
      <time>2015-12-31T11:55:59Z</time>
    </trkpt>
    <trkpt lat="48.463286" lon="2.675842">
      <ele>87.633</ele>
      <time>2015-12-31T11:56:01Z</time>
    </trkpt>
    <trkpt lat="48.463394" lon="2.675778">
      <ele>88.636</ele>
      <time>2015-12-31T11:56:03Z</time>
    </trkpt>
    <trkpt lat="48.463513" lon="2.675696">
      <ele>89.788</ele>
      <time>2015-12-31T11:56:05Z</time>
    </trkpt>
    <trkpt lat="48.463619" lon="2.675662">
      <ele>90.72</ele>
      <time>2015-12-31T11:56:07Z</time>
    </trkpt>
    <trkpt lat="48.463721" lon="2.675608">
      <ele>92.319</ele>
      <time>2015-12-31T11:56:09Z</time>
    </trkpt>
    <trkpt lat="48.463822" lon="2.675524">
      <ele>94.178</ele>
      <time>2015-12-31T11:56:11Z</time>
    </trkpt>
    <trkpt lat="48.46392" lon="2.675468">
      <ele>95.539</ele>
      <time>2015-12-31T11:56:13Z</time>
    </trkpt>
    <trkpt lat="48.464019" lon="2.675441">
      <ele>96.349</ele>
      <time>2015-12-31T11:56:15Z</time>
    </trkpt>
    <trkpt lat="48.464119" lon="2.67543">
      <ele>97.109</ele>
      <time>2015-12-31T11:56:17Z</time>
    </trkpt>
    <trkpt lat="48.464224" lon="2.675347">
      <ele>97.544</ele>
      <time>2015-12-31T11:56:19Z</time>
    </trkpt>
    <trkpt lat="48.464325" lon="2.675246">
      <ele>97.381</ele>
      <time>2015-12-31T11:56:21Z</time>
    </trkpt>
    <trkpt lat="48.464417" lon="2.675156">
      <ele>97.055</ele>
      <time>2015-12-31T11:56:23Z</time>
    </trkpt>
    <trkpt lat="48.464521" lon="2.675098">
      <ele>96.173</ele>
      <time>2015-12-31T11:56:25Z</time>
    </trkpt>
    <trkpt lat="48.464626" lon="2.675015">
      <ele>95.039</ele>
      <time>2015-12-31T11:56:27Z</time>
    </trkpt>
    <trkpt lat="48.464704" lon="2.674934">
      <ele>93.959</ele>
      <time>2015-12-31T11:56:29Z</time>
    </trkpt>
    <trkpt lat="48.464806" lon="2.674856">
      <ele>92.42</ele>
      <time>2015-12-31T11:56:31Z</time>
    </trkpt>
    <trkpt lat="48.46493" lon="2.67476">
      <ele>90.246</ele>
      <time>2015-12-31T11:56:34Z</time>
    </trkpt>
    <trkpt lat="48.465022" lon="2.674711">
      <ele>88.801</ele>
      <time>2015-12-31T11:56:36Z</time>
    </trkpt>
    <trkpt lat="48.46513" lon="2.674669">
      <ele>87.872</ele>
      <time>2015-12-31T11:56:38Z</time>
    </trkpt>
    <trkpt lat="48.465236" lon="2.674602">
      <ele>86.868</ele>
      <time>2015-12-31T11:56:40Z</time>
    </trkpt>
    <trkpt lat="48.465351" lon="2.674525">
      <ele>86.026</ele>
      <time>2015-12-31T11:56:42Z</time>
    </trkpt>
    <trkpt lat="48.46547" lon="2.674467">
      <ele>85.389</ele>
      <time>2015-12-31T11:56:44Z</time>
    </trkpt>
    <trkpt lat="48.465575" lon="2.674395">
      <ele>84.707</ele>
      <time>2015-12-31T11:56:46Z</time>
    </trkpt>
    <trkpt lat="48.465697" lon="2.674351">
      <ele>83.988</ele>
      <time>2015-12-31T11:56:48Z</time>
    </trkpt>
    <trkpt lat="48.465786" lon="2.674302">
      <ele>83.679</ele>
      <time>2015-12-31T11:56:50Z</time>
    </trkpt>
    <trkpt lat="48.46589" lon="2.674228">
      <ele>83.62</ele>
      <time>2015-12-31T11:56:52Z</time>
    </trkpt>
    <trkpt lat="48.465997" lon="2.674167">
      <ele>83.41</ele>
      <time>2015-12-31T11:56:54Z</time>
    </trkpt>
    <trkpt lat="48.46608" lon="2.674098">
      <ele>83.084</ele>
      <time>2015-12-31T11:56:56Z</time>
    </trkpt>
    <trkpt lat="48.466181" lon="2.674033">
      <ele>83.0</ele>
      <time>2015-12-31T11:56:58Z</time>
    </trkpt>
    <trkpt lat="48.466324" lon="2.673956">
      <ele>83.0</ele>
      <time>2015-12-31T11:57:01Z</time>
    </trkpt>
    <trkpt lat="48.466425" lon="2.673879">
      <ele>83.161</ele>
      <time>2015-12-31T11:57:03Z</time>
    </trkpt>
    <trkpt lat="48.466511" lon="2.673828">
      <ele>83.562</ele>
      <time>2015-12-31T11:57:05Z</time>
    </trkpt>
    <trkpt lat="48.466615" lon="2.673805">
      <ele>83.87</ele>
      <time>2015-12-31T11:57:07Z</time>
    </trkpt>
    <trkpt lat="48.466718" lon="2.673703">
      <ele>84.061</ele>
      <time>2015-12-31T11:57:09Z</time>
    </trkpt>
    <trkpt lat="48.466808" lon="2.673655">
      <ele>84.08</ele>
      <time>2015-12-31T11:57:11Z</time>
    </trkpt>
    <trkpt lat="48.46692" lon="2.673588">
      <ele>83.993</ele>
      <time>2015-12-31T11:57:14Z</time>
    </trkpt>
    <trkpt lat="48.467007" lon="2.673505">
      <ele>84.225</ele>
      <time>2015-12-31T11:57:16Z</time>
    </trkpt>
    <trkpt lat="48.467097" lon="2.673434">
      <ele>84.549</ele>
      <time>2015-12-31T11:57:18Z</time>
    </trkpt>
    <trkpt lat="48.467185" lon="2.67336">
      <ele>84.866</ele>
      <time>2015-12-31T11:57:20Z</time>
    </trkpt>
    <trkpt lat="48.467273" lon="2.673286">
      <ele>85.183</ele>
      <time>2015-12-31T11:57:22Z</time>
    </trkpt>
    <trkpt lat="48.46739" lon="2.673203">
      <ele>85.604</ele>
      <time>2015-12-31T11:57:25Z</time>
    </trkpt>
    <trkpt lat="48.467501" lon="2.673137">
      <ele>85.997</ele>
      <time>2015-12-31T11:57:27Z</time>
    </trkpt>
    <trkpt lat="48.467597" lon="2.673071">
      <ele>85.67</ele>
      <time>2015-12-31T11:57:29Z</time>
    </trkpt>
    <trkpt lat="48.4677" lon="2.672972">
      <ele>85.196</ele>
      <time>2015-12-31T11:57:31Z</time>
    </trkpt>
    <trkpt lat="48.467782" lon="2.67288">
      <ele>84.99</ele>
      <time>2015-12-31T11:57:33Z</time>
    </trkpt>
    <trkpt lat="48.46788" lon="2.67287">
      <ele>84.754</ele>
      <time>2015-12-31T11:57:35Z</time>
    </trkpt>
    <trkpt lat="48.46798" lon="2.672826">
      <ele>84.398</ele>
      <time>2015-12-31T11:57:37Z</time>
    </trkpt>
    <trkpt lat="48.468068" lon="2.672787">
      <ele>84.168</ele>
      <time>2015-12-31T11:57:39Z</time>
    </trkpt>
    <trkpt lat="48.468155" lon="2.672733">
      <ele>85.12</ele>
      <time>2015-12-31T11:57:41Z</time>
    </trkpt>
    <trkpt lat="48.468241" lon="2.672661">
      <ele>85.862</ele>
      <time>2015-12-31T11:57:43Z</time>
    </trkpt>
    <trkpt lat="48.468361" lon="2.672592">
      <ele>86.563</ele>
      <time>2015-12-31T11:57:46Z</time>
    </trkpt>
    <trkpt lat="48.468465" lon="2.672529">
      <ele>87.102</ele>
      <time>2015-12-31T11:57:48Z</time>
    </trkpt>
    <trkpt lat="48.468551" lon="2.672455">
      <ele>87.44</ele>
      <time>2015-12-31T11:57:50Z</time>
    </trkpt>
    <trkpt lat="48.468652" lon="2.672401">
      <ele>87.738</ele>
      <time>2015-12-31T11:57:52Z</time>
    </trkpt>
    <trkpt lat="48.468784" lon="2.672372">
      <ele>87.875</ele>
      <time>2015-12-31T11:57:55Z</time>
    </trkpt>
    <trkpt lat="48.468875" lon="2.672361">
      <ele>87.974</ele>
      <time>2015-12-31T11:57:57Z</time>
    </trkpt>
    <trkpt lat="48.468984" lon="2.672249">
      <ele>87.193</ele>
      <time>2015-12-31T11:58:00Z</time>
    </trkpt>
    <trkpt lat="48.469068" lon="2.672185">
      <ele>86.732</ele>
      <time>2015-12-31T11:58:02Z</time>
    </trkpt>
    <trkpt lat="48.469156" lon="2.672128">
      <ele>86.322</ele>
      <time>2015-12-31T11:58:04Z</time>
    </trkpt>
    <trkpt lat="48.469248" lon="2.672072">
      <ele>85.918</ele>
      <time>2015-12-31T11:58:06Z</time>
    </trkpt>
    <trkpt lat="48.469353" lon="2.672048">
      <ele>85.746</ele>
      <time>2015-12-31T11:58:08Z</time>
    </trkpt>
    <trkpt lat="48.469436" lon="2.671988">
      <ele>85.314</ele>
      <time>2015-12-31T11:58:10Z</time>
    </trkpt>
    <trkpt lat="48.469521" lon="2.67193">
      <ele>85.499</ele>
      <time>2015-12-31T11:58:12Z</time>
    </trkpt>
    <trkpt lat="48.46961" lon="2.671899">
      <ele>86.028</ele>
      <time>2015-12-31T11:58:14Z</time>
    </trkpt>
    <trkpt lat="48.469691" lon="2.671832">
      <ele>86.37</ele>
      <time>2015-12-31T11:58:16Z</time>
    </trkpt>
    <trkpt lat="48.4698" lon="2.67183">
      <ele>86.703</ele>
      <time>2015-12-31T11:58:18Z</time>
    </trkpt>
    <trkpt lat="48.469913" lon="2.67172">
      <ele>86.747</ele>
      <time>2015-12-31T11:58:21Z</time>
    </trkpt>
    <trkpt lat="48.470024" lon="2.671635">
      <ele>86.809</ele>
      <time>2015-12-31T11:58:24Z</time>
    </trkpt>
    <trkpt lat="48.470142" lon="2.671562">
      <ele>86.305</ele>
      <time>2015-12-31T11:58:27Z</time>
    </trkpt>
    <trkpt lat="48.470227" lon="2.671427">
      <ele>86.025</ele>
      <time>2015-12-31T11:58:30Z</time>
    </trkpt>
    <trkpt lat="48.470311" lon="2.671371">
      <ele>86.12</ele>
      <time>2015-12-31T11:58:32Z</time>
    </trkpt>
    <trkpt lat="48.470415" lon="2.67133">
      <ele>86.494</ele>
      <time>2015-12-31T11:58:35Z</time>
    </trkpt>
    <trkpt lat="48.4705" lon="2.671269">
      <ele>86.8</ele>
      <time>2015-12-31T11:58:37Z</time>
    </trkpt>
    <trkpt lat="48.470584" lon="2.67122">
      <ele>87.062</ele>
      <time>2015-12-31T11:58:39Z</time>
    </trkpt>
    <trkpt lat="48.470694" lon="2.671138">
      <ele>87.45</ele>
      <time>2015-12-31T11:58:42Z</time>
    </trkpt>
    <trkpt lat="48.470792" lon="2.671076">
      <ele>87.978</ele>
      <time>2015-12-31T11:58:45Z</time>
    </trkpt>
    <trkpt lat="48.470899" lon="2.67105">
      <ele>88.456</ele>
      <time>2015-12-31T11:58:48Z</time>
    </trkpt>
    <trkpt lat="48.471029" lon="2.670999">
      <ele>89.108</ele>
      <time>2015-12-31T11:58:51Z</time>
    </trkpt>
    <trkpt lat="48.471116" lon="2.670893">
      <ele>89.807</ele>
      <time>2015-12-31T11:58:54Z</time>
    </trkpt>
    <trkpt lat="48.471204" lon="2.670852">
      <ele>90.29</ele>
      <time>2015-12-31T11:58:56Z</time>
    </trkpt>
    <trkpt lat="48.47132" lon="2.670762">
      <ele>90.816</ele>
      <time>2015-12-31T11:58:59Z</time>
    </trkpt>
    <trkpt lat="48.471422" lon="2.670651">
      <ele>90.922</ele>
      <time>2015-12-31T11:59:02Z</time>
    </trkpt>
    <trkpt lat="48.471506" lon="2.670574">
      <ele>90.606</ele>
      <time>2015-12-31T11:59:04Z</time>
    </trkpt>
    <trkpt lat="48.471635" lon="2.670512">
      <ele>90.114</ele>
      <time>2015-12-31T11:59:07Z</time>
    </trkpt>
    <trkpt lat="48.47172" lon="2.670461">
      <ele>89.808</ele>
      <time>2015-12-31T11:59:09Z</time>
    </trkpt>
    <trkpt lat="48.471825" lon="2.670394">
      <ele>89.43</ele>
      <time>2015-12-31T11:59:12Z</time>
    </trkpt>
    <trkpt lat="48.471946" lon="2.67037">
      <ele>89.0</ele>
      <time>2015-12-31T11:59:15Z</time>
    </trkpt>
    <trkpt lat="48.472051" lon="2.6703">
      <ele>89.0</ele>
      <time>2015-12-31T11:59:18Z</time>
    </trkpt>
    <trkpt lat="48.472153" lon="2.670214">
      <ele>89.0</ele>
      <time>2015-12-31T11:59:21Z</time>
    </trkpt>
    <trkpt lat="48.472261" lon="2.670143">
      <ele>89.072</ele>
      <time>2015-12-31T11:59:24Z</time>
    </trkpt>
    <trkpt lat="48.47235" lon="2.670084">
      <ele>89.139</ele>
      <time>2015-12-31T11:59:28Z</time>
    </trkpt>
    <trkpt lat="48.472439" lon="2.670007">
      <ele>89.02</ele>
      <time>2015-12-31T11:59:52Z</time>
    </trkpt>
    <trkpt lat="48.472538" lon="2.669957">
      <ele>89.252</ele>
      <time>2015-12-31T11:59:56Z</time>
    </trkpt>
    <trkpt lat="48.472628" lon="2.669896">
      <ele>89.749</ele>
      <time>2015-12-31T11:59:59Z</time>
    </trkpt>
    <trkpt lat="48.472729" lon="2.669834">
      <ele>90.156</ele>
      <time>2015-12-31T12:00:02Z</time>
    </trkpt>
    <trkpt lat="48.472828" lon="2.669783">
      <ele>90.722</ele>
      <time>2015-12-31T12:00:05Z</time>
    </trkpt>
    <trkpt lat="48.472951" lon="2.669702">
      <ele>91.825</ele>
      <time>2015-12-31T12:00:08Z</time>
    </trkpt>
    <trkpt lat="48.473037" lon="2.669642">
      <ele>92.53</ele>
      <time>2015-12-31T12:00:10Z</time>
    </trkpt>
    <trkpt lat="48.473138" lon="2.669559">
      <ele>92.412</ele>
      <time>2015-12-31T12:00:13Z</time>
    </trkpt>
    <trkpt lat="48.473251" lon="2.669498">
      <ele>92.193</ele>
      <time>2015-12-31T12:00:16Z</time>
    </trkpt>
    <trkpt lat="48.473362" lon="2.66943">
      <ele>92.144</ele>
      <time>2015-12-31T12:00:19Z</time>
    </trkpt>
    <trkpt lat="48.473492" lon="2.669357">
      <ele>92.526</ele>
      <time>2015-12-31T12:00:22Z</time>
    </trkpt>
    <trkpt lat="48.473593" lon="2.669307">
      <ele>92.505</ele>
      <time>2015-12-31T12:00:25Z</time>
    </trkpt>
    <trkpt lat="48.473705" lon="2.669234">
      <ele>92.836</ele>
      <time>2015-12-31T12:00:28Z</time>
    </trkpt>
    <trkpt lat="48.473812" lon="2.669163">
      <ele>93.437</ele>
      <time>2015-12-31T12:00:31Z</time>
    </trkpt>
    <trkpt lat="48.473928" lon="2.669095">
      <ele>93.883</ele>
      <time>2015-12-31T12:00:34Z</time>
    </trkpt>
    <trkpt lat="48.474035" lon="2.669011">
      <ele>93.966</ele>
      <time>2015-12-31T12:00:37Z</time>
    </trkpt>
    <trkpt lat="48.474124" lon="2.668939">
      <ele>94.027</ele>
      <time>2015-12-31T12:00:40Z</time>
    </trkpt>
    <trkpt lat="48.474226" lon="2.668884">
      <ele>94.217</ele>
      <time>2015-12-31T12:00:43Z</time>
    </trkpt>
    <trkpt lat="48.474339" lon="2.66882">
      <ele>94.774</ele>
      <time>2015-12-31T12:00:46Z</time>
    </trkpt>
    <trkpt lat="48.474443" lon="2.668759">
      <ele>95.46</ele>
      <time>2015-12-31T12:00:49Z</time>
    </trkpt>
    <trkpt lat="48.474557" lon="2.668673">
      <ele>95.958</ele>
      <time>2015-12-31T12:00:53Z</time>
    </trkpt>
    <trkpt lat="48.474662" lon="2.668598">
      <ele>96.0</ele>
      <time>2015-12-31T12:00:56Z</time>
    </trkpt>
    <trkpt lat="48.474746" lon="2.668526">
      <ele>95.888</ele>
      <time>2015-12-31T12:01:00Z</time>
    </trkpt>
    <trkpt lat="48.474851" lon="2.668483">
      <ele>95.323</ele>
      <time>2015-12-31T12:01:03Z</time>
    </trkpt>
    <trkpt lat="48.47494" lon="2.66837">
      <ele>94.535</ele>
      <time>2015-12-31T12:01:06Z</time>
    </trkpt>
    <trkpt lat="48.475027" lon="2.668252">
      <ele>94.0</ele>
      <time>2015-12-31T12:01:09Z</time>
    </trkpt>
    <trkpt lat="48.475101" lon="2.668138">
      <ele>94.0</ele>
      <time>2015-12-31T12:01:12Z</time>
    </trkpt>
    <trkpt lat="48.475164" lon="2.668">
      <ele>94.082</ele>
      <time>2015-12-31T12:01:15Z</time>
    </trkpt>
    <trkpt lat="48.475202" lon="2.667876">
      <ele>94.176</ele>
      <time>2015-12-31T12:01:17Z</time>
    </trkpt>
    <trkpt lat="48.475276" lon="2.667743">
      <ele>94.006</ele>
      <time>2015-12-31T12:01:20Z</time>
    </trkpt>
    <trkpt lat="48.475339" lon="2.66759">
      <ele>94.149</ele>
      <time>2015-12-31T12:01:23Z</time>
    </trkpt>
    <trkpt lat="48.475403" lon="2.667446">
      <ele>94.558</ele>
      <time>2015-12-31T12:01:26Z</time>
    </trkpt>
    <trkpt lat="48.475459" lon="2.667333">
      <ele>94.861</ele>
      <time>2015-12-31T12:01:29Z</time>
    </trkpt>
    <trkpt lat="48.475535" lon="2.667251">
      <ele>94.992</ele>
      <time>2015-12-31T12:01:34Z</time>
    </trkpt>
    <trkpt lat="48.475607" lon="2.667121">
      <ele>95.364</ele>
      <time>2015-12-31T12:01:41Z</time>
    </trkpt>
    <trkpt lat="48.475608" lon="2.666979">
      <ele>95.876</ele>
      <time>2015-12-31T12:01:44Z</time>
    </trkpt>
    <trkpt lat="48.475653" lon="2.666831">
      <ele>96.143</ele>
      <time>2015-12-31T12:01:52Z</time>
    </trkpt>
    <trkpt lat="48.475707" lon="2.666697">
      <ele>96.486</ele>
      <time>2015-12-31T12:01:56Z</time>
    </trkpt>
    <trkpt lat="48.475765" lon="2.666529">
      <ele>96.754</ele>
      <time>2015-12-31T12:02:00Z</time>
    </trkpt>
    <trkpt lat="48.475817" lon="2.666369">
      <ele>96.941</ele>
      <time>2015-12-31T12:02:03Z</time>
    </trkpt>
    <trkpt lat="48.475832" lon="2.666221">
      <ele>96.995</ele>
      <time>2015-12-31T12:02:05Z</time>
    </trkpt>
    <trkpt lat="48.47585" lon="2.666067">
      <ele>96.841</ele>
      <time>2015-12-31T12:02:07Z</time>
    </trkpt>
    <trkpt lat="48.475886" lon="2.66594">
      <ele>96.384</ele>
      <time>2015-12-31T12:02:09Z</time>
    </trkpt>
    <trkpt lat="48.47591" lon="2.665804">
      <ele>95.894</ele>
      <time>2015-12-31T12:02:11Z</time>
    </trkpt>
    <trkpt lat="48.475942" lon="2.665668">
      <ele>95.405</ele>
      <time>2015-12-31T12:02:13Z</time>
    </trkpt>
    <trkpt lat="48.475977" lon="2.665532">
      <ele>94.956</ele>
      <time>2015-12-31T12:02:15Z</time>
    </trkpt>
    <trkpt lat="48.476027" lon="2.665378">
      <ele>94.554</ele>
      <time>2015-12-31T12:02:17Z</time>
    </trkpt>
    <trkpt lat="48.476045" lon="2.665225">
      <ele>94.238</ele>
      <time>2015-12-31T12:02:19Z</time>
    </trkpt>
    <trkpt lat="48.476058" lon="2.665085">
      <ele>94.191</ele>
      <time>2015-12-31T12:02:21Z</time>
    </trkpt>
    <trkpt lat="48.476094" lon="2.664936">
      <ele>94.278</ele>
      <time>2015-12-31T12:02:23Z</time>
    </trkpt>
    <trkpt lat="48.476107" lon="2.664791">
      <ele>94.756</ele>
      <time>2015-12-31T12:02:25Z</time>
    </trkpt>
    <trkpt lat="48.476164" lon="2.664608">
      <ele>95.078</ele>
      <time>2015-12-31T12:02:28Z</time>
    </trkpt>
    <trkpt lat="48.476194" lon="2.664435">
      <ele>95.332</ele>
      <time>2015-12-31T12:02:30Z</time>
    </trkpt>
    <trkpt lat="48.476214" lon="2.664234">
      <ele>96.128</ele>
      <time>2015-12-31T12:02:32Z</time>
    </trkpt>
    <trkpt lat="48.476275" lon="2.664102">
      <ele>96.453</ele>
      <time>2015-12-31T12:02:34Z</time>
    </trkpt>
    <trkpt lat="48.476308" lon="2.66397">
      <ele>96.207</ele>
      <time>2015-12-31T12:02:36Z</time>
    </trkpt>
    <trkpt lat="48.476342" lon="2.663833">
      <ele>96.0</ele>
      <time>2015-12-31T12:02:38Z</time>
    </trkpt>
    <trkpt lat="48.476377" lon="2.663695">
      <ele>96.0</ele>
      <time>2015-12-31T12:02:40Z</time>
    </trkpt>
    <trkpt lat="48.476412" lon="2.66352">
      <ele>95.533</ele>
      <time>2015-12-31T12:02:42Z</time>
    </trkpt>
    <trkpt lat="48.476463" lon="2.66334">
      <ele>94.751</ele>
      <time>2015-12-31T12:02:45Z</time>
    </trkpt>
    <trkpt lat="48.476484" lon="2.66319">
      <ele>94.318</ele>
      <time>2015-12-31T12:02:47Z</time>
    </trkpt>
    <trkpt lat="48.476527" lon="2.663058">
      <ele>94.004</ele>
      <time>2015-12-31T12:02:49Z</time>
    </trkpt>
    <trkpt lat="48.476566" lon="2.662923">
      <ele>94.173</ele>
      <time>2015-12-31T12:02:51Z</time>
    </trkpt>
    <trkpt lat="48.476587" lon="2.662745">
      <ele>94.371</ele>
      <time>2015-12-31T12:02:53Z</time>
    </trkpt>
    <trkpt lat="48.476612" lon="2.662575">
      <ele>94.783</ele>
      <time>2015-12-31T12:02:55Z</time>
    </trkpt>
    <trkpt lat="48.476668" lon="2.662419">
      <ele>95.0</ele>
      <time>2015-12-31T12:02:58Z</time>
    </trkpt>
    <trkpt lat="48.476685" lon="2.66226">
      <ele>95.0</ele>
      <time>2015-12-31T12:03:00Z</time>
    </trkpt>
    <trkpt lat="48.476737" lon="2.662086">
      <ele>95.366</ele>
      <time>2015-12-31T12:03:03Z</time>
    </trkpt>
    <trkpt lat="48.476775" lon="2.661943">
      <ele>95.607</ele>
      <time>2015-12-31T12:03:05Z</time>
    </trkpt>
    <trkpt lat="48.47682" lon="2.661817">
      <ele>95.242</ele>
      <time>2015-12-31T12:03:07Z</time>
    </trkpt>
    <trkpt lat="48.476841" lon="2.661668">
      <ele>95.002</ele>
      <time>2015-12-31T12:03:09Z</time>
    </trkpt>
    <trkpt lat="48.476851" lon="2.661489">
      <ele>94.145</ele>
      <time>2015-12-31T12:03:11Z</time>
    </trkpt>
    <trkpt lat="48.476854" lon="2.661339">
      <ele>93.557</ele>
      <time>2015-12-31T12:03:13Z</time>
    </trkpt>
    <trkpt lat="48.476868" lon="2.661176">
      <ele>93.303</ele>
      <time>2015-12-31T12:03:15Z</time>
    </trkpt>
    <trkpt lat="48.476921" lon="2.661056">
      <ele>93.565</ele>
      <time>2015-12-31T12:03:17Z</time>
    </trkpt>
    <trkpt lat="48.476958" lon="2.660918">
      <ele>93.339</ele>
      <time>2015-12-31T12:03:19Z</time>
    </trkpt>
    <trkpt lat="48.476996" lon="2.66079">
      <ele>93.157</ele>
      <time>2015-12-31T12:03:21Z</time>
    </trkpt>
    <trkpt lat="48.477052" lon="2.660658">
      <ele>93.143</ele>
      <time>2015-12-31T12:03:23Z</time>
    </trkpt>
    <trkpt lat="48.477093" lon="2.660457">
      <ele>92.645</ele>
      <time>2015-12-31T12:03:26Z</time>
    </trkpt>
    <trkpt lat="48.477116" lon="2.66032">
      <ele>92.152</ele>
      <time>2015-12-31T12:03:28Z</time>
    </trkpt>
    <trkpt lat="48.477149" lon="2.660159">
      <ele>91.145</ele>
      <time>2015-12-31T12:03:30Z</time>
    </trkpt>
    <trkpt lat="48.477158" lon="2.659985">
      <ele>89.946</ele>
      <time>2015-12-31T12:03:32Z</time>
    </trkpt>
    <trkpt lat="48.477171" lon="2.659849">
      <ele>89.456</ele>
      <time>2015-12-31T12:03:34Z</time>
    </trkpt>
    <trkpt lat="48.477221" lon="2.659728">
      <ele>89.021</ele>
      <time>2015-12-31T12:03:36Z</time>
    </trkpt>
    <trkpt lat="48.477261" lon="2.659599">
      <ele>89.062</ele>
      <time>2015-12-31T12:03:38Z</time>
    </trkpt>
    <trkpt lat="48.477282" lon="2.659462">
      <ele>89.202</ele>
      <time>2015-12-31T12:03:40Z</time>
    </trkpt>
    <trkpt lat="48.477312" lon="2.659332">
      <ele>89.454</ele>
      <time>2015-12-31T12:03:42Z</time>
    </trkpt>
    <trkpt lat="48.477365" lon="2.659193">
      <ele>89.979</ele>
      <time>2015-12-31T12:03:44Z</time>
    </trkpt>
    <trkpt lat="48.477407" lon="2.659047">
      <ele>90.33</ele>
      <time>2015-12-31T12:03:46Z</time>
    </trkpt>
    <trkpt lat="48.477441" lon="2.658896">
      <ele>90.575</ele>
      <time>2015-12-31T12:03:48Z</time>
    </trkpt>
    <trkpt lat="48.477487" lon="2.658752">
      <ele>90.906</ele>
      <time>2015-12-31T12:03:50Z</time>
    </trkpt>
    <trkpt lat="48.477556" lon="2.658567">
      <ele>91.043</ele>
      <time>2015-12-31T12:03:53Z</time>
    </trkpt>
    <trkpt lat="48.47759" lon="2.658421">
      <ele>90.64</ele>
      <time>2015-12-31T12:03:55Z</time>
    </trkpt>
    <trkpt lat="48.477605" lon="2.658225">
      <ele>89.988</ele>
      <time>2015-12-31T12:03:57Z</time>
    </trkpt>
    <trkpt lat="48.477619" lon="2.658041">
      <ele>89.428</ele>
      <time>2015-12-31T12:03:59Z</time>
    </trkpt>
    <trkpt lat="48.477667" lon="2.657843">
      <ele>89.601</ele>
      <time>2015-12-31T12:04:02Z</time>
    </trkpt>
    <trkpt lat="48.47769" lon="2.657678">
      <ele>90.043</ele>
      <time>2015-12-31T12:04:04Z</time>
    </trkpt>
    <trkpt lat="48.477721" lon="2.657482">
      <ele>90.86</ele>
      <time>2015-12-31T12:04:07Z</time>
    </trkpt>
    <trkpt lat="48.477761" lon="2.657344">
      <ele>91.501</ele>
      <time>2015-12-31T12:04:09Z</time>
    </trkpt>
    <trkpt lat="48.47779" lon="2.657193">
      <ele>92.145</ele>
      <time>2015-12-31T12:04:11Z</time>
    </trkpt>
    <trkpt lat="48.477813" lon="2.657039">
      <ele>92.703</ele>
      <time>2015-12-31T12:04:13Z</time>
    </trkpt>
    <trkpt lat="48.477863" lon="2.656864">
      <ele>92.71</ele>
      <time>2015-12-31T12:04:16Z</time>
    </trkpt>
    <trkpt lat="48.477898" lon="2.656733">
      <ele>92.239</ele>
      <time>2015-12-31T12:04:18Z</time>
    </trkpt>
    <trkpt lat="48.47792" lon="2.656593">
      <ele>91.599</ele>
      <time>2015-12-31T12:04:20Z</time>
    </trkpt>
    <trkpt lat="48.477976" lon="2.656415">
      <ele>90.447</ele>
      <time>2015-12-31T12:04:23Z</time>
    </trkpt>
    <trkpt lat="48.478017" lon="2.656246">
      <ele>89.553</ele>
      <time>2015-12-31T12:04:25Z</time>
    </trkpt>
    <trkpt lat="48.478066" lon="2.656115">
      <ele>89.014</ele>
      <time>2015-12-31T12:04:27Z</time>
    </trkpt>
    <trkpt lat="48.478114" lon="2.655955">
      <ele>88.556</ele>
      <time>2015-12-31T12:04:29Z</time>
    </trkpt>
    <trkpt lat="48.478172" lon="2.655836">
      <ele>88.425</ele>
      <time>2015-12-31T12:04:31Z</time>
    </trkpt>
    <trkpt lat="48.478201" lon="2.655656">
      <ele>88.524</ele>
      <time>2015-12-31T12:04:33Z</time>
    </trkpt>
    <trkpt lat="48.478215" lon="2.655465">
      <ele>88.713</ele>
      <time>2015-12-31T12:04:35Z</time>
    </trkpt>
    <trkpt lat="48.478246" lon="2.655261">
      <ele>89.102</ele>
      <time>2015-12-31T12:04:38Z</time>
    </trkpt>
    <trkpt lat="48.478276" lon="2.655131">
      <ele>89.948</ele>
      <time>2015-12-31T12:04:40Z</time>
    </trkpt>
    <trkpt lat="48.478321" lon="2.654927">
      <ele>91.218</ele>
      <time>2015-12-31T12:04:43Z</time>
    </trkpt>
    <trkpt lat="48.478373" lon="2.654766">
      <ele>91.842</ele>
      <time>2015-12-31T12:04:46Z</time>
    </trkpt>
    <trkpt lat="48.478414" lon="2.65464">
      <ele>92.21</ele>
      <time>2015-12-31T12:04:48Z</time>
    </trkpt>
    <trkpt lat="48.478431" lon="2.654504">
      <ele>92.509</ele>
      <time>2015-12-31T12:04:50Z</time>
    </trkpt>
    <trkpt lat="48.478461" lon="2.654355">
      <ele>92.862</ele>
      <time>2015-12-31T12:04:52Z</time>
    </trkpt>
    <trkpt lat="48.478489" lon="2.654143">
      <ele>93.44</ele>
      <time>2015-12-31T12:04:55Z</time>
    </trkpt>
    <trkpt lat="48.478547" lon="2.653962">
      <ele>93.231</ele>
      <time>2015-12-31T12:04:58Z</time>
    </trkpt>
    <trkpt lat="48.478563" lon="2.653806">
      <ele>93.472</ele>
      <time>2015-12-31T12:05:00Z</time>
    </trkpt>
    <trkpt lat="48.478594" lon="2.653662">
      <ele>93.878</ele>
      <time>2015-12-31T12:05:02Z</time>
    </trkpt>
    <trkpt lat="48.478651" lon="2.653471">
      <ele>93.856</ele>
      <time>2015-12-31T12:05:05Z</time>
    </trkpt>
    <trkpt lat="48.4787" lon="2.653296">
      <ele>93.546</ele>
      <time>2015-12-31T12:05:08Z</time>
    </trkpt>
    <trkpt lat="48.478708" lon="2.653153">
      <ele>93.002</ele>
      <time>2015-12-31T12:05:10Z</time>
    </trkpt>
    <trkpt lat="48.478733" lon="2.65302">
      <ele>92.305</ele>
      <time>2015-12-31T12:05:12Z</time>
    </trkpt>
    <trkpt lat="48.478752" lon="2.652839">
      <ele>90.934</ele>
      <time>2015-12-31T12:05:15Z</time>
    </trkpt>
    <trkpt lat="48.478794" lon="2.652685">
      <ele>90.008</ele>
      <time>2015-12-31T12:05:18Z</time>
    </trkpt>
    <trkpt lat="48.478833" lon="2.652537">
      <ele>89.334</ele>
      <time>2015-12-31T12:05:21Z</time>
    </trkpt>
    <trkpt lat="48.478837" lon="2.652372">
      <ele>89.101</ele>
      <time>2015-12-31T12:05:24Z</time>
    </trkpt>
    <trkpt lat="48.478903" lon="2.652265">
      <ele>89.051</ele>
      <time>2015-12-31T12:05:27Z</time>
    </trkpt>
    <trkpt lat="48.478995" lon="2.652184">
      <ele>89.382</ele>
      <time>2015-12-31T12:05:30Z</time>
    </trkpt>
    <trkpt lat="48.479097" lon="2.652086">
      <ele>89.749</ele>
      <time>2015-12-31T12:05:33Z</time>
    </trkpt>
    <trkpt lat="48.479192" lon="2.652019">
      <ele>90.249</ele>
      <time>2015-12-31T12:05:36Z</time>
    </trkpt>
    <trkpt lat="48.479283" lon="2.651969">
      <ele>91.219</ele>
      <time>2015-12-31T12:05:39Z</time>
    </trkpt>
    <trkpt lat="48.479392" lon="2.651865">
      <ele>92.488</ele>
      <time>2015-12-31T12:05:42Z</time>
    </trkpt>
    <trkpt lat="48.479501" lon="2.651766">
      <ele>93.204</ele>
      <time>2015-12-31T12:05:45Z</time>
    </trkpt>
    <trkpt lat="48.479591" lon="2.651712">
      <ele>93.528</ele>
      <time>2015-12-31T12:05:47Z</time>
    </trkpt>
    <trkpt lat="48.479711" lon="2.651609">
      <ele>94.167</ele>
      <time>2015-12-31T12:05:50Z</time>
    </trkpt>
    <trkpt lat="48.479813" lon="2.651512">
      <ele>94.375</ele>
      <time>2015-12-31T12:05:53Z</time>
    </trkpt>
    <trkpt lat="48.479913" lon="2.651427">
      <ele>94.27</ele>
      <time>2015-12-31T12:05:56Z</time>
    </trkpt>
    <trkpt lat="48.479985" lon="2.651343">
      <ele>94.054</ele>
      <time>2015-12-31T12:05:59Z</time>
    </trkpt>
    <trkpt lat="48.480069" lon="2.651254">
      <ele>93.879</ele>
      <time>2015-12-31T12:06:02Z</time>
    </trkpt>
    <trkpt lat="48.480149" lon="2.651145">
      <ele>93.529</ele>
      <time>2015-12-31T12:06:06Z</time>
    </trkpt>
    <trkpt lat="48.480238" lon="2.651092">
      <ele>93.143</ele>
      <time>2015-12-31T12:06:08Z</time>
    </trkpt>
    <trkpt lat="48.480339" lon="2.651024">
      <ele>93.22</ele>
      <time>2015-12-31T12:06:11Z</time>
    </trkpt>
    <trkpt lat="48.480425" lon="2.650928">
      <ele>93.53</ele>
      <time>2015-12-31T12:06:14Z</time>
    </trkpt>
    <trkpt lat="48.480529" lon="2.650859">
      <ele>93.904</ele>
      <time>2015-12-31T12:06:17Z</time>
    </trkpt>
    <trkpt lat="48.480633" lon="2.650815">
      <ele>94.279</ele>
      <time>2015-12-31T12:06:20Z</time>
    </trkpt>
    <trkpt lat="48.480728" lon="2.650738">
      <ele>94.621</ele>
      <time>2015-12-31T12:06:23Z</time>
    </trkpt>
    <trkpt lat="48.480824" lon="2.650659">
      <ele>94.966</ele>
      <time>2015-12-31T12:06:26Z</time>
    </trkpt>
    <trkpt lat="48.480911" lon="2.650583">
      <ele>95.587</ele>
      <time>2015-12-31T12:06:30Z</time>
    </trkpt>
    <trkpt lat="48.481004" lon="2.650485">
      <ele>96.073</ele>
      <time>2015-12-31T12:06:34Z</time>
    </trkpt>
    <trkpt lat="48.4811" lon="2.650403">
      <ele>96.393</ele>
      <time>2015-12-31T12:06:39Z</time>
    </trkpt>
    <trkpt lat="48.481182" lon="2.650325">
      <ele>96.68</ele>
      <time>2015-12-31T12:06:42Z</time>
    </trkpt>
    <trkpt lat="48.48127" lon="2.650263">
      <ele>97.144</ele>
      <time>2015-12-31T12:06:45Z</time>
    </trkpt>
    <trkpt lat="48.481354" lon="2.650204">
      <ele>97.749</ele>
      <time>2015-12-31T12:06:48Z</time>
    </trkpt>
    <trkpt lat="48.481454" lon="2.650127">
      <ele>98.469</ele>
      <time>2015-12-31T12:06:51Z</time>
    </trkpt>
    <trkpt lat="48.481541" lon="2.650042">
      <ele>99.095</ele>
      <time>2015-12-31T12:06:54Z</time>
    </trkpt>
    <trkpt lat="48.48162" lon="2.649959">
      <ele>99.812</ele>
      <time>2015-12-31T12:06:58Z</time>
    </trkpt>
    <trkpt lat="48.481702" lon="2.649867">
      <ele>100.672</ele>
      <time>2015-12-31T12:07:02Z</time>
    </trkpt>
    <trkpt lat="48.481788" lon="2.649802">
      <ele>101.275</ele>
      <time>2015-12-31T12:07:05Z</time>
    </trkpt>
    <trkpt lat="48.481893" lon="2.649741">
      <ele>101.802</ele>
      <time>2015-12-31T12:07:09Z</time>
    </trkpt>
    <trkpt lat="48.481996" lon="2.649658">
      <ele>102.559</ele>
      <time>2015-12-31T12:07:13Z</time>
    </trkpt>
    <trkpt lat="48.482095" lon="2.649555">
      <ele>103.36</ele>
      <time>2015-12-31T12:07:17Z</time>
    </trkpt>
    <trkpt lat="48.482202" lon="2.649469">
      <ele>103.921</ele>
      <time>2015-12-31T12:07:21Z</time>
    </trkpt>
    <trkpt lat="48.48231" lon="2.649384">
      <ele>104.167</ele>
      <time>2015-12-31T12:07:25Z</time>
    </trkpt>
    <trkpt lat="48.482408" lon="2.649288">
      <ele>104.482</ele>
      <time>2015-12-31T12:07:28Z</time>
    </trkpt>
    <trkpt lat="48.482508" lon="2.649191">
      <ele>105.029</ele>
      <time>2015-12-31T12:07:32Z</time>
    </trkpt>
    <trkpt lat="48.482595" lon="2.649138">
      <ele>105.342</ele>
      <time>2015-12-31T12:07:35Z</time>
    </trkpt>
    <trkpt lat="48.482717" lon="2.649063">
      <ele>105.781</ele>
      <time>2015-12-31T12:07:38Z</time>
    </trkpt>
    <trkpt lat="48.482809" lon="2.648976">
      <ele>106.0</ele>
      <time>2015-12-31T12:07:41Z</time>
    </trkpt>
    <trkpt lat="48.482909" lon="2.648896">
      <ele>106.0</ele>
      <time>2015-12-31T12:07:44Z</time>
    </trkpt>
    <trkpt lat="48.483029" lon="2.648835">
      <ele>105.825</ele>
      <time>2015-12-31T12:07:47Z</time>
    </trkpt>
    <trkpt lat="48.483137" lon="2.648746">
      <ele>104.17</ele>
      <time>2015-12-31T12:07:50Z</time>
    </trkpt>
    <trkpt lat="48.483237" lon="2.648641">
      <ele>102.425</ele>
      <time>2015-12-31T12:07:53Z</time>
    </trkpt>
    <trkpt lat="48.483345" lon="2.648555">
      <ele>100.874</ele>
      <time>2015-12-31T12:07:56Z</time>
    </trkpt>
    <trkpt lat="48.483427" lon="2.648489">
      <ele>99.988</ele>
      <time>2015-12-31T12:07:58Z</time>
    </trkpt>
    <trkpt lat="48.483517" lon="2.648382">
      <ele>99.016</ele>
      <time>2015-12-31T12:08:01Z</time>
    </trkpt>
    <trkpt lat="48.483614" lon="2.648301">
      <ele>97.999</ele>
      <time>2015-12-31T12:08:04Z</time>
    </trkpt>
    <trkpt lat="48.48369" lon="2.648225">
      <ele>97.889</ele>
      <time>2015-12-31T12:08:06Z</time>
    </trkpt>
    <trkpt lat="48.483796" lon="2.648098">
      <ele>97.436</ele>
      <time>2015-12-31T12:08:09Z</time>
    </trkpt>
    <trkpt lat="48.483879" lon="2.648028">
      <ele>97.036</ele>
      <time>2015-12-31T12:08:11Z</time>
    </trkpt>
    <trkpt lat="48.483995" lon="2.647919">
      <ele>96.812</ele>
      <time>2015-12-31T12:08:14Z</time>
    </trkpt>
    <trkpt lat="48.484082" lon="2.647858">
      <ele>96.506</ele>
      <time>2015-12-31T12:08:16Z</time>
    </trkpt>
    <trkpt lat="48.484177" lon="2.64775">
      <ele>96.133</ele>
      <time>2015-12-31T12:08:19Z</time>
    </trkpt>
    <trkpt lat="48.484255" lon="2.647668">
      <ele>96.588</ele>
      <time>2015-12-31T12:08:21Z</time>
    </trkpt>
    <trkpt lat="48.484346" lon="2.647609">
      <ele>96.861</ele>
      <time>2015-12-31T12:08:23Z</time>
    </trkpt>
    <trkpt lat="48.484432" lon="2.647547">
      <ele>96.992</ele>
      <time>2015-12-31T12:08:25Z</time>
    </trkpt>
    <trkpt lat="48.484519" lon="2.647467">
      <ele>97.0</ele>
      <time>2015-12-31T12:08:27Z</time>
    </trkpt>
    <trkpt lat="48.484601" lon="2.647405">
      <ele>97.0</ele>
      <time>2015-12-31T12:08:29Z</time>
    </trkpt>
    <trkpt lat="48.4847" lon="2.647342">
      <ele>97.0</ele>
      <time>2015-12-31T12:08:31Z</time>
    </trkpt>
    <trkpt lat="48.484805" lon="2.647265">
      <ele>97.0</ele>
      <time>2015-12-31T12:08:33Z</time>
    </trkpt>
    <trkpt lat="48.484903" lon="2.647184">
      <ele>97.138</ele>
      <time>2015-12-31T12:08:35Z</time>
    </trkpt>
    <trkpt lat="48.485005" lon="2.647105">
      <ele>97.44</ele>
      <time>2015-12-31T12:08:37Z</time>
    </trkpt>
    <trkpt lat="48.4851" lon="2.646998">
      <ele>98.167</ele>
      <time>2015-12-31T12:08:39Z</time>
    </trkpt>
    <trkpt lat="48.485197" lon="2.646901">
      <ele>98.911</ele>
      <time>2015-12-31T12:08:41Z</time>
    </trkpt>
    <trkpt lat="48.485321" lon="2.646795">
      <ele>99.454</ele>
      <time>2015-12-31T12:08:43Z</time>
    </trkpt>
    <trkpt lat="48.485437" lon="2.646692">
      <ele>99.388</ele>
      <time>2015-12-31T12:08:45Z</time>
    </trkpt>
    <trkpt lat="48.485546" lon="2.64659">
      <ele>99.034</ele>
      <time>2015-12-31T12:08:47Z</time>
    </trkpt>
    <trkpt lat="48.485674" lon="2.646478">
      <ele>97.294</ele>
      <time>2015-12-31T12:08:49Z</time>
    </trkpt>
    <trkpt lat="48.48578" lon="2.646378">
      <ele>95.8</ele>
      <time>2015-12-31T12:08:51Z</time>
    </trkpt>
    <trkpt lat="48.485912" lon="2.646281">
      <ele>94.602</ele>
      <time>2015-12-31T12:08:53Z</time>
    </trkpt>
    <trkpt lat="48.48606" lon="2.646173">
      <ele>92.877</ele>
      <time>2015-12-31T12:08:55Z</time>
    </trkpt>
    <trkpt lat="48.486198" lon="2.646075">
      <ele>91.687</ele>
      <time>2015-12-31T12:08:57Z</time>
    </trkpt>
    <trkpt lat="48.486328" lon="2.645982">
      <ele>91.219</ele>
      <time>2015-12-31T12:08:59Z</time>
    </trkpt>
    <trkpt lat="48.486424" lon="2.64587">
      <ele>91.0</ele>
      <time>2015-12-31T12:09:01Z</time>
    </trkpt>
    <trkpt lat="48.486521" lon="2.645788">
      <ele>91.0</ele>
      <time>2015-12-31T12:09:03Z</time>
    </trkpt>
    <trkpt lat="48.486633" lon="2.645735">
      <ele>91.0</ele>
      <time>2015-12-31T12:09:05Z</time>
    </trkpt>
    <trkpt lat="48.486704" lon="2.64564">
      <ele>91.094</ele>
      <time>2015-12-31T12:09:07Z</time>
    </trkpt>
    <trkpt lat="48.486818" lon="2.645542">
      <ele>91.594</ele>
      <time>2015-12-31T12:09:10Z</time>
    </trkpt>
    <trkpt lat="48.486915" lon="2.645451">
      <ele>92.27</ele>
      <time>2015-12-31T12:09:12Z</time>
    </trkpt>
    <trkpt lat="48.487016" lon="2.645376">
      <ele>92.995</ele>
      <time>2015-12-31T12:09:14Z</time>
    </trkpt>
    <trkpt lat="48.487089" lon="2.645286">
      <ele>93.506</ele>
      <time>2015-12-31T12:09:16Z</time>
    </trkpt>
    <trkpt lat="48.487183" lon="2.645225">
      <ele>94.049</ele>
      <time>2015-12-31T12:09:18Z</time>
    </trkpt>
    <trkpt lat="48.487306" lon="2.64515">
      <ele>94.762</ele>
      <time>2015-12-31T12:09:21Z</time>
    </trkpt>
    <trkpt lat="48.487405" lon="2.64501">
      <ele>95.622</ele>
      <time>2015-12-31T12:09:24Z</time>
    </trkpt>
    <trkpt lat="48.487476" lon="2.644924">
      <ele>95.914</ele>
      <time>2015-12-31T12:09:26Z</time>
    </trkpt>
    <trkpt lat="48.487555" lon="2.644858">
      <ele>95.903</ele>
      <time>2015-12-31T12:09:28Z</time>
    </trkpt>
    <trkpt lat="48.487684" lon="2.644795">
      <ele>95.826</ele>
      <time>2015-12-31T12:09:31Z</time>
    </trkpt>
    <trkpt lat="48.487796" lon="2.644725">
      <ele>95.924</ele>
      <time>2015-12-31T12:09:34Z</time>
    </trkpt>
    <trkpt lat="48.487886" lon="2.64461">
      <ele>95.768</ele>
      <time>2015-12-31T12:09:37Z</time>
    </trkpt>
    <trkpt lat="48.487998" lon="2.644516">
      <ele>95.796</ele>
      <time>2015-12-31T12:09:40Z</time>
    </trkpt>
    <trkpt lat="48.488107" lon="2.644419">
      <ele>95.998</ele>
      <time>2015-12-31T12:09:43Z</time>
    </trkpt>
    <trkpt lat="48.488183" lon="2.644336">
      <ele>96.322</ele>
      <time>2015-12-31T12:09:45Z</time>
    </trkpt>
    <trkpt lat="48.488284" lon="2.644286">
      <ele>96.318</ele>
      <time>2015-12-31T12:09:47Z</time>
    </trkpt>
    <trkpt lat="48.488383" lon="2.644197">
      <ele>96.622</ele>
      <time>2015-12-31T12:09:50Z</time>
    </trkpt>
    <trkpt lat="48.488491" lon="2.644106">
      <ele>96.651</ele>
      <time>2015-12-31T12:09:53Z</time>
    </trkpt>
    <trkpt lat="48.488573" lon="2.644027">
      <ele>96.64</ele>
      <time>2015-12-31T12:09:56Z</time>
    </trkpt>
    <trkpt lat="48.488674" lon="2.643972">
      <ele>96.474</ele>
      <time>2015-12-31T12:10:00Z</time>
    </trkpt>
    <trkpt lat="48.488779" lon="2.643918">
      <ele>96.291</ele>
      <time>2015-12-31T12:10:04Z</time>
    </trkpt>
    <trkpt lat="48.488882" lon="2.643881">
      <ele>96.052</ele>
      <time>2015-12-31T12:10:07Z</time>
    </trkpt>
    <trkpt lat="48.488996" lon="2.643838">
      <ele>96.884</ele>
      <time>2015-12-31T12:10:10Z</time>
    </trkpt>
    <trkpt lat="48.489109" lon="2.643787">
      <ele>97.661</ele>
      <time>2015-12-31T12:10:13Z</time>
    </trkpt>
    <trkpt lat="48.489218" lon="2.643744">
      <ele>98.37</ele>
      <time>2015-12-31T12:10:16Z</time>
    </trkpt>
    <trkpt lat="48.489314" lon="2.643681">
      <ele>99.061</ele>
      <time>2015-12-31T12:10:19Z</time>
    </trkpt>
    <trkpt lat="48.48943" lon="2.643629">
      <ele>99.896</ele>
      <time>2015-12-31T12:10:22Z</time>
    </trkpt>
    <trkpt lat="48.489556" lon="2.643563">
      <ele>100.907</ele>
      <time>2015-12-31T12:10:25Z</time>
    </trkpt>
    <trkpt lat="48.489636" lon="2.643495">
      <ele>101.509</ele>
      <time>2015-12-31T12:10:28Z</time>
    </trkpt>
    <trkpt lat="48.489739" lon="2.643403">
      <ele>102.045</ele>
      <time>2015-12-31T12:10:31Z</time>
    </trkpt>
    <trkpt lat="48.489854" lon="2.643283">
      <ele>102.388</ele>
      <time>2015-12-31T12:10:34Z</time>
    </trkpt>
    <trkpt lat="48.489933" lon="2.643205">
      <ele>102.408</ele>
      <time>2015-12-31T12:10:36Z</time>
    </trkpt>
    <trkpt lat="48.49001" lon="2.643069">
      <ele>102.083</ele>
      <time>2015-12-31T12:10:39Z</time>
    </trkpt>
    <trkpt lat="48.490109" lon="2.642961">
      <ele>102.052</ele>
      <time>2015-12-31T12:10:42Z</time>
    </trkpt>
    <trkpt lat="48.490188" lon="2.642886">
      <ele>102.066</ele>
      <time>2015-12-31T12:10:44Z</time>
    </trkpt>
    <trkpt lat="48.49027" lon="2.642788">
      <ele>102.009</ele>
      <time>2015-12-31T12:10:46Z</time>
    </trkpt>
    <trkpt lat="48.490353" lon="2.642707">
      <ele>102.0</ele>
      <time>2015-12-31T12:10:48Z</time>
    </trkpt>
    <trkpt lat="48.490433" lon="2.642566">
      <ele>102.0</ele>
      <time>2015-12-31T12:10:51Z</time>
    </trkpt>
    <trkpt lat="48.490537" lon="2.642443">
      <ele>101.795</ele>
      <time>2015-12-31T12:10:54Z</time>
    </trkpt>
    <trkpt lat="48.490615" lon="2.642374">
      <ele>101.429</ele>
      <time>2015-12-31T12:10:56Z</time>
    </trkpt>
    <trkpt lat="48.490678" lon="2.642259">
      <ele>101.074</ele>
      <time>2015-12-31T12:10:59Z</time>
    </trkpt>
    <trkpt lat="48.490759" lon="2.642172">
      <ele>100.952</ele>
      <time>2015-12-31T12:11:01Z</time>
    </trkpt>
    <trkpt lat="48.49085" lon="2.642061">
      <ele>101.06</ele>
      <time>2015-12-31T12:11:04Z</time>
    </trkpt>
    <trkpt lat="48.490931" lon="2.641954">
      <ele>101.352</ele>
      <time>2015-12-31T12:11:06Z</time>
    </trkpt>
    <trkpt lat="48.491015" lon="2.641855">
      <ele>101.654</ele>
      <time>2015-12-31T12:11:08Z</time>
    </trkpt>
    <trkpt lat="48.491101" lon="2.641733">
      <ele>101.964</ele>
      <time>2015-12-31T12:11:11Z</time>
    </trkpt>
    <trkpt lat="48.491161" lon="2.64163">
      <ele>102.108</ele>
      <time>2015-12-31T12:11:13Z</time>
    </trkpt>
    <trkpt lat="48.491244" lon="2.641521">
      <ele>102.274</ele>
      <time>2015-12-31T12:11:15Z</time>
    </trkpt>
    <trkpt lat="48.491329" lon="2.641421">
      <ele>102.191</ele>
      <time>2015-12-31T12:11:17Z</time>
    </trkpt>
    <trkpt lat="48.491401" lon="2.641337">
      <ele>102.143</ele>
      <time>2015-12-31T12:11:19Z</time>
    </trkpt>
    <trkpt lat="48.491484" lon="2.641268">
      <ele>102.093</ele>
      <time>2015-12-31T12:11:21Z</time>
    </trkpt>
    <trkpt lat="48.491564" lon="2.641169">
      <ele>102.161</ele>
      <time>2015-12-31T12:11:23Z</time>
    </trkpt>
    <trkpt lat="48.491645" lon="2.641065">
      <ele>102.065</ele>
      <time>2015-12-31T12:11:25Z</time>
    </trkpt>
    <trkpt lat="48.491708" lon="2.640961">
      <ele>101.932</ele>
      <time>2015-12-31T12:11:27Z</time>
    </trkpt>
    <trkpt lat="48.491818" lon="2.640815">
      <ele>102.03</ele>
      <time>2015-12-31T12:11:30Z</time>
    </trkpt>
    <trkpt lat="48.491909" lon="2.640686">
      <ele>102.068</ele>
      <time>2015-12-31T12:11:33Z</time>
    </trkpt>
    <trkpt lat="48.492003" lon="2.640587">
      <ele>101.789</ele>
      <time>2015-12-31T12:11:36Z</time>
    </trkpt>
    <trkpt lat="48.492118" lon="2.640473">
      <ele>101.375</ele>
      <time>2015-12-31T12:11:38Z</time>
    </trkpt>
    <trkpt lat="48.492222" lon="2.640373">
      <ele>101.001</ele>
      <time>2015-12-31T12:11:40Z</time>
    </trkpt>
    <trkpt lat="48.492311" lon="2.640282">
      <ele>101.0</ele>
      <time>2015-12-31T12:11:42Z</time>
    </trkpt>
    <trkpt lat="48.492389" lon="2.64018">
      <ele>100.648</ele>
      <time>2015-12-31T12:11:44Z</time>
    </trkpt>
    <trkpt lat="48.492473" lon="2.640091">
      <ele>100.328</ele>
      <time>2015-12-31T12:11:46Z</time>
    </trkpt>
    <trkpt lat="48.492564" lon="2.639975">
      <ele>100.0</ele>
      <time>2015-12-31T12:11:48Z</time>
    </trkpt>
    <trkpt lat="48.492647" lon="2.639869">
      <ele>100.0</ele>
      <time>2015-12-31T12:11:50Z</time>
    </trkpt>
    <trkpt lat="48.492716" lon="2.639723">
      <ele>100.0</ele>
      <time>2015-12-31T12:11:53Z</time>
    </trkpt>
    <trkpt lat="48.492806" lon="2.639656">
      <ele>99.898</ele>
      <time>2015-12-31T12:11:55Z</time>
    </trkpt>
    <trkpt lat="48.492915" lon="2.63958">
      <ele>99.506</ele>
      <time>2015-12-31T12:11:57Z</time>
    </trkpt>
    <trkpt lat="48.492996" lon="2.639507">
      <ele>99.214</ele>
      <time>2015-12-31T12:11:59Z</time>
    </trkpt>
    <trkpt lat="48.493086" lon="2.639446">
      <ele>98.781</ele>
      <time>2015-12-31T12:12:01Z</time>
    </trkpt>
    <trkpt lat="48.493197" lon="2.63936">
      <ele>97.982</ele>
      <time>2015-12-31T12:12:03Z</time>
    </trkpt>
    <trkpt lat="48.49328" lon="2.639216">
      <ele>97.384</ele>
      <time>2015-12-31T12:12:06Z</time>
    </trkpt>
    <trkpt lat="48.493355" lon="2.639098">
      <ele>97.247</ele>
      <time>2015-12-31T12:12:08Z</time>
    </trkpt>
    <trkpt lat="48.493412" lon="2.638966">
      <ele>97.722</ele>
      <time>2015-12-31T12:12:10Z</time>
    </trkpt>
    <trkpt lat="48.493483" lon="2.63883">
      <ele>98.098</ele>
      <time>2015-12-31T12:12:12Z</time>
    </trkpt>
    <trkpt lat="48.493573" lon="2.638734">
      <ele>98.077</ele>
      <time>2015-12-31T12:12:14Z</time>
    </trkpt>
    <trkpt lat="48.493661" lon="2.638624">
      <ele>97.82</ele>
      <time>2015-12-31T12:12:16Z</time>
    </trkpt>
    <trkpt lat="48.493738" lon="2.638511">
      <ele>97.347</ele>
      <time>2015-12-31T12:12:18Z</time>
    </trkpt>
    <trkpt lat="48.493817" lon="2.63839">
      <ele>97.053</ele>
      <time>2015-12-31T12:12:20Z</time>
    </trkpt>
    <trkpt lat="48.493897" lon="2.638284">
      <ele>96.793</ele>
      <time>2015-12-31T12:12:22Z</time>
    </trkpt>
    <trkpt lat="48.493969" lon="2.638186">
      <ele>96.181</ele>
      <time>2015-12-31T12:12:24Z</time>
    </trkpt>
    <trkpt lat="48.49406" lon="2.638083">
      <ele>95.483</ele>
      <time>2015-12-31T12:12:26Z</time>
    </trkpt>
    <trkpt lat="48.494138" lon="2.637974">
      <ele>94.81</ele>
      <time>2015-12-31T12:12:28Z</time>
    </trkpt>
    <trkpt lat="48.494226" lon="2.637858">
      <ele>94.289</ele>
      <time>2015-12-31T12:12:30Z</time>
    </trkpt>
    <trkpt lat="48.494318" lon="2.637752">
      <ele>93.907</ele>
      <time>2015-12-31T12:12:32Z</time>
    </trkpt>
    <trkpt lat="48.494404" lon="2.637648">
      <ele>93.533</ele>
      <time>2015-12-31T12:12:34Z</time>
    </trkpt>
    <trkpt lat="48.494506" lon="2.63754">
      <ele>93.334</ele>
      <time>2015-12-31T12:12:36Z</time>
    </trkpt>
    <trkpt lat="48.494606" lon="2.637435">
      <ele>93.582</ele>
      <time>2015-12-31T12:12:38Z</time>
    </trkpt>
    <trkpt lat="48.494692" lon="2.637318">
      <ele>93.891</ele>
      <time>2015-12-31T12:12:40Z</time>
    </trkpt>
    <trkpt lat="48.494778" lon="2.6372">
      <ele>93.952</ele>
      <time>2015-12-31T12:12:42Z</time>
    </trkpt>
    <trkpt lat="48.494869" lon="2.637083">
      <ele>94.028</ele>
      <time>2015-12-31T12:12:44Z</time>
    </trkpt>
    <trkpt lat="48.494952" lon="2.636962">
      <ele>94.613</ele>
      <time>2015-12-31T12:12:46Z</time>
    </trkpt>
    <trkpt lat="48.495046" lon="2.636845">
      <ele>95.0</ele>
      <time>2015-12-31T12:12:48Z</time>
    </trkpt>
    <trkpt lat="48.49514" lon="2.636725">
      <ele>95.0</ele>
      <time>2015-12-31T12:12:50Z</time>
    </trkpt>
    <trkpt lat="48.49522" lon="2.636614">
      <ele>94.85</ele>
      <time>2015-12-31T12:12:52Z</time>
    </trkpt>
    <trkpt lat="48.495318" lon="2.636496">
      <ele>94.152</ele>
      <time>2015-12-31T12:12:54Z</time>
    </trkpt>
    <trkpt lat="48.495416" lon="2.636383">
      <ele>92.994</ele>
      <time>2015-12-31T12:12:56Z</time>
    </trkpt>
    <trkpt lat="48.495515" lon="2.636257">
      <ele>92.223</ele>
      <time>2015-12-31T12:12:58Z</time>
    </trkpt>
    <trkpt lat="48.495608" lon="2.636138">
      <ele>91.829</ele>
      <time>2015-12-31T12:13:00Z</time>
    </trkpt>
    <trkpt lat="48.495706" lon="2.636016">
      <ele>91.301</ele>
      <time>2015-12-31T12:13:02Z</time>
    </trkpt>
    <trkpt lat="48.495807" lon="2.635896">
      <ele>91.021</ele>
      <time>2015-12-31T12:13:04Z</time>
    </trkpt>
    <trkpt lat="48.495906" lon="2.635763">
      <ele>91.0</ele>
      <time>2015-12-31T12:13:06Z</time>
    </trkpt>
    <trkpt lat="48.496009" lon="2.635661">
      <ele>91.0</ele>
      <time>2015-12-31T12:13:08Z</time>
    </trkpt>
    <trkpt lat="48.49611" lon="2.635526">
      <ele>91.0</ele>
      <time>2015-12-31T12:13:10Z</time>
    </trkpt>
    <trkpt lat="48.496194" lon="2.635423">
      <ele>91.298</ele>
      <time>2015-12-31T12:13:12Z</time>
    </trkpt>
    <trkpt lat="48.496288" lon="2.635328">
      <ele>91.637</ele>
      <time>2015-12-31T12:13:14Z</time>
    </trkpt>
    <trkpt lat="48.496367" lon="2.635213">
      <ele>91.921</ele>
      <time>2015-12-31T12:13:16Z</time>
    </trkpt>
    <trkpt lat="48.496437" lon="2.635117">
      <ele>92.173</ele>
      <time>2015-12-31T12:13:18Z</time>
    </trkpt>
    <trkpt lat="48.496532" lon="2.634991">
      <ele>92.483</ele>
      <time>2015-12-31T12:13:21Z</time>
    </trkpt>
    <trkpt lat="48.496621" lon="2.634863">
      <ele>92.342</ele>
      <time>2015-12-31T12:13:24Z</time>
    </trkpt>
  </trkseg>
</trk>
</gpx>
